<?xml version="1.0" encoding="UTF-8" standalone="no" ?>
<gpx xmlns="http://www.topografix.com/GPX/1/1" xmlns:xsi="http://www.w3.org/2001/XMLSchema-instance" xsi:schemaLocation="http://www.topografix.com/GPX/1/1 http://www.topografix.com/GPX/1/1/gpx.xsd" version="1.1" creator="VisuGPX - https://www.visugpx.com">
  <metadata>
    <name>Pont d'Ouilly-29Km31</name>
    <desc><![CDATA[Bouclr A-R au départ de Pont d'Ouilly
Randonnée sur la journée]]></desc>
  </metadata>
  <trk>
    <name><![CDATA[Pont d'Ouilly-29Km31_1]]></name>
    <trkseg>
      <trkpt lat="48.87265" lon="-0.41257">
        <ele>49.2</ele>
        <time>2016-06-09T09:54:46Z</time>
      </trkpt>
      <trkpt lat="48.87265" lon="-0.41256">
        <ele>49.2</ele>
        <time>2016-06-09T09:54:51Z</time>
      </trkpt>
      <trkpt lat="48.87263" lon="-0.41262">
        <ele>49.2</ele>
        <time>2016-06-09T09:55:06Z</time>
      </trkpt>
      <trkpt lat="48.87259" lon="-0.4127">
        <ele>53.905266</ele>
        <time>2016-06-09T09:55:11Z</time>
      </trkpt>
      <trkpt lat="48.87258" lon="-0.41282">
        <ele>53.905266</ele>
        <time>2016-06-09T09:55:21Z</time>
      </trkpt>
      <trkpt lat="48.87256" lon="-0.41287">
        <ele>54.303432</ele>
        <time>2016-06-09T09:55:26Z</time>
      </trkpt>
      <trkpt lat="48.87259" lon="-0.4129">
        <ele>54.303432</ele>
        <time>2016-06-09T09:55:31Z</time>
      </trkpt>
      <trkpt lat="48.87256" lon="-0.413">
        <ele>54.067245</ele>
        <time>2016-06-09T09:55:36Z</time>
      </trkpt>
      <trkpt lat="48.87253" lon="-0.41307">
        <ele>54.067245</ele>
        <time>2016-06-09T09:55:41Z</time>
      </trkpt>
      <trkpt lat="48.87244" lon="-0.41317">
        <ele>53.385742</ele>
        <time>2016-06-09T09:55:46Z</time>
      </trkpt>
      <trkpt lat="48.87243" lon="-0.41328">
        <ele>53.385742</ele>
        <time>2016-06-09T09:55:56Z</time>
      </trkpt>
      <trkpt lat="48.87243" lon="-0.4133">
        <ele>53.385742</ele>
        <time>2016-06-09T09:56:01Z</time>
      </trkpt>
      <trkpt lat="48.87239" lon="-0.41346">
        <ele>53.76034</ele>
        <time>2016-06-09T09:56:11Z</time>
      </trkpt>
      <trkpt lat="48.87239" lon="-0.4135">
        <ele>53.76034</ele>
        <time>2016-06-09T09:56:16Z</time>
      </trkpt>
      <trkpt lat="48.87239" lon="-0.41352">
        <ele>53.76034</ele>
        <time>2016-06-09T09:56:26Z</time>
      </trkpt>
      <trkpt lat="48.87235" lon="-0.41361">
        <ele>55.362232</ele>
        <time>2016-06-09T09:56:31Z</time>
      </trkpt>
      <trkpt lat="48.8723" lon="-0.41379">
        <ele>56.58053</ele>
        <time>2016-06-09T09:56:46Z</time>
      </trkpt>
      <trkpt lat="48.87228" lon="-0.41385">
        <ele>56.58053</ele>
        <time>2016-06-09T09:56:51Z</time>
      </trkpt>
      <trkpt lat="48.87225" lon="-0.41393">
        <ele>58.8361</ele>
        <time>2016-06-09T09:57:01Z</time>
      </trkpt>
      <trkpt lat="48.87226" lon="-0.41394">
        <ele>58.8361</ele>
        <time>2016-06-09T09:57:06Z</time>
      </trkpt>
      <trkpt lat="48.87226" lon="-0.41404">
        <ele>58.8361</ele>
        <time>2016-06-09T09:57:16Z</time>
      </trkpt>
      <trkpt lat="48.87224" lon="-0.4141">
        <ele>60.641148</ele>
        <time>2016-06-09T09:57:21Z</time>
      </trkpt>
      <trkpt lat="48.8722" lon="-0.41421">
        <ele>60.641148</ele>
        <time>2016-06-09T09:57:31Z</time>
      </trkpt>
      <trkpt lat="48.87218" lon="-0.41429">
        <ele>61.68623</ele>
        <time>2016-06-09T09:57:36Z</time>
      </trkpt>
      <trkpt lat="48.87222" lon="-0.4144">
        <ele>61.68623</ele>
        <time>2016-06-09T09:57:46Z</time>
      </trkpt>
      <trkpt lat="48.87224" lon="-0.41448">
        <ele>62.877995</ele>
        <time>2016-06-09T09:57:51Z</time>
      </trkpt>
      <trkpt lat="48.87224" lon="-0.41462">
        <ele>64.08589</ele>
        <time>2016-06-09T09:58:01Z</time>
      </trkpt>
      <trkpt lat="48.87224" lon="-0.41469">
        <ele>64.08589</ele>
        <time>2016-06-09T09:58:06Z</time>
      </trkpt>
      <trkpt lat="48.87222" lon="-0.41481">
        <ele>65.322235</ele>
        <time>2016-06-09T09:58:16Z</time>
      </trkpt>
      <trkpt lat="48.87221" lon="-0.41487">
        <ele>65.322235</ele>
        <time>2016-06-09T09:58:21Z</time>
      </trkpt>
      <trkpt lat="48.8722" lon="-0.41503">
        <ele>66.44754</ele>
        <time>2016-06-09T09:58:31Z</time>
      </trkpt>
      <trkpt lat="48.87221" lon="-0.41507">
        <ele>66.44754</ele>
        <time>2016-06-09T09:58:36Z</time>
      </trkpt>
      <trkpt lat="48.87217" lon="-0.41522">
        <ele>67.9342</ele>
        <time>2016-06-09T09:58:46Z</time>
      </trkpt>
      <trkpt lat="48.87217" lon="-0.41529">
        <ele>67.9342</ele>
        <time>2016-06-09T09:58:51Z</time>
      </trkpt>
      <trkpt lat="48.87216" lon="-0.41542">
        <ele>69.52778</ele>
        <time>2016-06-09T09:59:01Z</time>
      </trkpt>
      <trkpt lat="48.87214" lon="-0.41549">
        <ele>69.52778</ele>
        <time>2016-06-09T09:59:06Z</time>
      </trkpt>
      <trkpt lat="48.87209" lon="-0.41569">
        <ele>71.456604</ele>
        <time>2016-06-09T09:59:21Z</time>
      </trkpt>
      <trkpt lat="48.87208" lon="-0.41575">
        <ele>71.456604</ele>
        <time>2016-06-09T09:59:26Z</time>
      </trkpt>
      <trkpt lat="48.87205" lon="-0.41587">
        <ele>73.66135</ele>
        <time>2016-06-09T09:59:36Z</time>
      </trkpt>
      <trkpt lat="48.87205" lon="-0.41593">
        <ele>73.66135</ele>
        <time>2016-06-09T09:59:41Z</time>
      </trkpt>
      <trkpt lat="48.87204" lon="-0.41606">
        <ele>75.848976</ele>
        <time>2016-06-09T09:59:51Z</time>
      </trkpt>
      <trkpt lat="48.87204" lon="-0.41611">
        <ele>75.848976</ele>
        <time>2016-06-09T09:59:56Z</time>
      </trkpt>
      <trkpt lat="48.87203" lon="-0.41624">
        <ele>78.06259</ele>
        <time>2016-06-09T10:00:06Z</time>
      </trkpt>
      <trkpt lat="48.87203" lon="-0.4163">
        <ele>78.06259</ele>
        <time>2016-06-09T10:00:11Z</time>
      </trkpt>
      <trkpt lat="48.87202" lon="-0.41645">
        <ele>80.46459</ele>
        <time>2016-06-09T10:00:21Z</time>
      </trkpt>
      <trkpt lat="48.87204" lon="-0.41653">
        <ele>80.46459</ele>
        <time>2016-06-09T10:00:26Z</time>
      </trkpt>
      <trkpt lat="48.87202" lon="-0.41659">
        <ele>82.66414</ele>
        <time>2016-06-09T10:00:31Z</time>
      </trkpt>
      <trkpt lat="48.87204" lon="-0.41666">
        <ele>82.66414</ele>
        <time>2016-06-09T10:00:36Z</time>
      </trkpt>
      <trkpt lat="48.87206" lon="-0.41672">
        <ele>85.02643</ele>
        <time>2016-06-09T10:00:41Z</time>
      </trkpt>
      <trkpt lat="48.87206" lon="-0.41674">
        <ele>85.02643</ele>
        <time>2016-06-09T10:00:46Z</time>
      </trkpt>
      <trkpt lat="48.87202" lon="-0.41684">
        <ele>86.792725</ele>
        <time>2016-06-09T10:00:51Z</time>
      </trkpt>
      <trkpt lat="48.87199" lon="-0.41699">
        <ele>88.71205</ele>
        <time>2016-06-09T10:01:01Z</time>
      </trkpt>
      <trkpt lat="48.872" lon="-0.417">
        <ele>88.71205</ele>
        <time>2016-06-09T10:01:06Z</time>
      </trkpt>
      <trkpt lat="48.87199" lon="-0.417">
        <ele>88.71205</ele>
        <time>2016-06-09T10:01:16Z</time>
      </trkpt>
      <trkpt lat="48.87199" lon="-0.41701">
        <ele>88.71205</ele>
        <time>2016-06-09T10:01:21Z</time>
      </trkpt>
      <trkpt lat="48.87199" lon="-0.41701">
        <ele>88.71205</ele>
        <time>2016-06-09T10:01:31Z</time>
      </trkpt>
      <trkpt lat="48.87199" lon="-0.41701">
        <ele>88.71205</ele>
        <time>2016-06-09T10:01:36Z</time>
      </trkpt>
      <trkpt lat="48.872" lon="-0.41701">
        <ele>88.71205</ele>
        <time>2016-06-09T10:01:46Z</time>
      </trkpt>
      <trkpt lat="48.872" lon="-0.417">
        <ele>88.71205</ele>
        <time>2016-06-09T10:01:51Z</time>
      </trkpt>
      <trkpt lat="48.87201" lon="-0.41701">
        <ele>88.71205</ele>
        <time>2016-06-09T10:02:06Z</time>
      </trkpt>
      <trkpt lat="48.87201" lon="-0.41702">
        <ele>88.71205</ele>
        <time>2016-06-09T10:02:11Z</time>
      </trkpt>
      <trkpt lat="48.87202" lon="-0.41701">
        <ele>88.71205</ele>
        <time>2016-06-09T10:02:21Z</time>
      </trkpt>
      <trkpt lat="48.87202" lon="-0.41701">
        <ele>88.71205</ele>
        <time>2016-06-09T10:02:26Z</time>
      </trkpt>
      <trkpt lat="48.87202" lon="-0.41701">
        <ele>88.71205</ele>
        <time>2016-06-09T10:02:36Z</time>
      </trkpt>
      <trkpt lat="48.87202" lon="-0.41701">
        <ele>88.71205</ele>
        <time>2016-06-09T10:02:41Z</time>
      </trkpt>
      <trkpt lat="48.87202" lon="-0.41701">
        <ele>88.71205</ele>
        <time>2016-06-09T10:02:51Z</time>
      </trkpt>
      <trkpt lat="48.87202" lon="-0.41701">
        <ele>88.71205</ele>
        <time>2016-06-09T10:02:56Z</time>
      </trkpt>
      <trkpt lat="48.87202" lon="-0.41701">
        <ele>88.71205</ele>
        <time>2016-06-09T10:03:06Z</time>
      </trkpt>
      <trkpt lat="48.87203" lon="-0.41701">
        <ele>88.71205</ele>
        <time>2016-06-09T10:03:11Z</time>
      </trkpt>
      <trkpt lat="48.87205" lon="-0.41703">
        <ele>88.71205</ele>
        <time>2016-06-09T10:03:21Z</time>
      </trkpt>
      <trkpt lat="48.87204" lon="-0.41703">
        <ele>88.71205</ele>
        <time>2016-06-09T10:03:26Z</time>
      </trkpt>
      <trkpt lat="48.87204" lon="-0.41703">
        <ele>88.71205</ele>
        <time>2016-06-09T10:03:36Z</time>
      </trkpt>
      <trkpt lat="48.87204" lon="-0.41703">
        <ele>88.71205</ele>
        <time>2016-06-09T10:03:41Z</time>
      </trkpt>
      <trkpt lat="48.87204" lon="-0.41703">
        <ele>88.71205</ele>
        <time>2016-06-09T10:03:51Z</time>
      </trkpt>
      <trkpt lat="48.87204" lon="-0.41703">
        <ele>88.71205</ele>
        <time>2016-06-09T10:03:56Z</time>
      </trkpt>
      <trkpt lat="48.87204" lon="-0.41703">
        <ele>88.71205</ele>
        <time>2016-06-09T10:04:06Z</time>
      </trkpt>
      <trkpt lat="48.87204" lon="-0.41706">
        <ele>91.42981</ele>
        <time>2016-06-09T10:04:11Z</time>
      </trkpt>
      <trkpt lat="48.87205" lon="-0.41726">
        <ele>93.63933</ele>
        <time>2016-06-09T10:04:26Z</time>
      </trkpt>
      <trkpt lat="48.87204" lon="-0.41734">
        <ele>93.63933</ele>
        <time>2016-06-09T10:04:31Z</time>
      </trkpt>
      <trkpt lat="48.87202" lon="-0.41742">
        <ele>95.48791</ele>
        <time>2016-06-09T10:04:41Z</time>
      </trkpt>
      <trkpt lat="48.87201" lon="-0.4175">
        <ele>95.48791</ele>
        <time>2016-06-09T10:04:46Z</time>
      </trkpt>
      <trkpt lat="48.87201" lon="-0.41766">
        <ele>96.67165</ele>
        <time>2016-06-09T10:04:56Z</time>
      </trkpt>
      <trkpt lat="48.87202" lon="-0.41772">
        <ele>96.67165</ele>
        <time>2016-06-09T10:05:01Z</time>
      </trkpt>
      <trkpt lat="48.872" lon="-0.41775">
        <ele>96.67165</ele>
        <time>2016-06-09T10:05:11Z</time>
      </trkpt>
      <trkpt lat="48.87202" lon="-0.41783">
        <ele>98.73948</ele>
        <time>2016-06-09T10:05:16Z</time>
      </trkpt>
      <trkpt lat="48.87199" lon="-0.41798">
        <ele>100.381134</ele>
        <time>2016-06-09T10:05:26Z</time>
      </trkpt>
      <trkpt lat="48.872" lon="-0.41804">
        <ele>100.381134</ele>
        <time>2016-06-09T10:05:31Z</time>
      </trkpt>
      <trkpt lat="48.87195" lon="-0.4182">
        <ele>101.58713</ele>
        <time>2016-06-09T10:05:41Z</time>
      </trkpt>
      <trkpt lat="48.87194" lon="-0.41827">
        <ele>101.58713</ele>
        <time>2016-06-09T10:05:46Z</time>
      </trkpt>
      <trkpt lat="48.87192" lon="-0.41841">
        <ele>103.151855</ele>
        <time>2016-06-09T10:05:56Z</time>
      </trkpt>
      <trkpt lat="48.87193" lon="-0.41848">
        <ele>103.151855</ele>
        <time>2016-06-09T10:06:01Z</time>
      </trkpt>
      <trkpt lat="48.87191" lon="-0.41861">
        <ele>104.81348</ele>
        <time>2016-06-09T10:06:11Z</time>
      </trkpt>
      <trkpt lat="48.87189" lon="-0.4187">
        <ele>104.81348</ele>
        <time>2016-06-09T10:06:16Z</time>
      </trkpt>
      <trkpt lat="48.87191" lon="-0.41881">
        <ele>106.11845</ele>
        <time>2016-06-09T10:06:26Z</time>
      </trkpt>
      <trkpt lat="48.87189" lon="-0.41887">
        <ele>106.11845</ele>
        <time>2016-06-09T10:06:31Z</time>
      </trkpt>
      <trkpt lat="48.87188" lon="-0.41903">
        <ele>107.1588</ele>
        <time>2016-06-09T10:06:41Z</time>
      </trkpt>
      <trkpt lat="48.87185" lon="-0.41913">
        <ele>107.1588</ele>
        <time>2016-06-09T10:06:46Z</time>
      </trkpt>
      <trkpt lat="48.87186" lon="-0.41936">
        <ele>109.07825</ele>
        <time>2016-06-09T10:07:01Z</time>
      </trkpt>
      <trkpt lat="48.87185" lon="-0.41943">
        <ele>109.07825</ele>
        <time>2016-06-09T10:07:06Z</time>
      </trkpt>
      <trkpt lat="48.87186" lon="-0.41954">
        <ele>110.435234</ele>
        <time>2016-06-09T10:07:16Z</time>
      </trkpt>
      <trkpt lat="48.87187" lon="-0.41961">
        <ele>110.435234</ele>
        <time>2016-06-09T10:07:21Z</time>
      </trkpt>
      <trkpt lat="48.87188" lon="-0.41975">
        <ele>111.53325</ele>
        <time>2016-06-09T10:07:31Z</time>
      </trkpt>
      <trkpt lat="48.87189" lon="-0.41981">
        <ele>111.53325</ele>
        <time>2016-06-09T10:07:36Z</time>
      </trkpt>
      <trkpt lat="48.87189" lon="-0.41995">
        <ele>112.488884</ele>
        <time>2016-06-09T10:07:46Z</time>
      </trkpt>
      <trkpt lat="48.8719" lon="-0.42004">
        <ele>112.488884</ele>
        <time>2016-06-09T10:07:51Z</time>
      </trkpt>
      <trkpt lat="48.87191" lon="-0.42017">
        <ele>113.48604</ele>
        <time>2016-06-09T10:08:01Z</time>
      </trkpt>
      <trkpt lat="48.87191" lon="-0.42023">
        <ele>113.48604</ele>
        <time>2016-06-09T10:08:06Z</time>
      </trkpt>
      <trkpt lat="48.87192" lon="-0.42039">
        <ele>114.45178</ele>
        <time>2016-06-09T10:08:16Z</time>
      </trkpt>
      <trkpt lat="48.87193" lon="-0.42048">
        <ele>114.45178</ele>
        <time>2016-06-09T10:08:21Z</time>
      </trkpt>
      <trkpt lat="48.87194" lon="-0.42072">
        <ele>115.80108</ele>
        <time>2016-06-09T10:08:36Z</time>
      </trkpt>
      <trkpt lat="48.87194" lon="-0.42079">
        <ele>115.80108</ele>
        <time>2016-06-09T10:08:41Z</time>
      </trkpt>
      <trkpt lat="48.87197" lon="-0.42094">
        <ele>117.40881</ele>
        <time>2016-06-09T10:08:51Z</time>
      </trkpt>
      <trkpt lat="48.87198" lon="-0.42102">
        <ele>117.40881</ele>
        <time>2016-06-09T10:08:56Z</time>
      </trkpt>
      <trkpt lat="48.872" lon="-0.42116">
        <ele>118.75471</ele>
        <time>2016-06-09T10:09:06Z</time>
      </trkpt>
      <trkpt lat="48.87201" lon="-0.42123">
        <ele>118.75471</ele>
        <time>2016-06-09T10:09:11Z</time>
      </trkpt>
      <trkpt lat="48.87204" lon="-0.42137">
        <ele>119.662506</ele>
        <time>2016-06-09T10:09:21Z</time>
      </trkpt>
      <trkpt lat="48.87206" lon="-0.42144">
        <ele>119.662506</ele>
        <time>2016-06-09T10:09:26Z</time>
      </trkpt>
      <trkpt lat="48.87207" lon="-0.42151">
        <ele>120.44779</ele>
        <time>2016-06-09T10:09:36Z</time>
      </trkpt>
      <trkpt lat="48.87206" lon="-0.4216">
        <ele>120.44779</ele>
        <time>2016-06-09T10:09:41Z</time>
      </trkpt>
      <trkpt lat="48.87209" lon="-0.42179">
        <ele>121.58741</ele>
        <time>2016-06-09T10:09:51Z</time>
      </trkpt>
      <trkpt lat="48.87211" lon="-0.42187">
        <ele>121.58741</ele>
        <time>2016-06-09T10:09:56Z</time>
      </trkpt>
      <trkpt lat="48.87212" lon="-0.42204">
        <ele>122.802795</ele>
        <time>2016-06-09T10:10:06Z</time>
      </trkpt>
      <trkpt lat="48.87212" lon="-0.42213">
        <ele>122.802795</ele>
        <time>2016-06-09T10:10:11Z</time>
      </trkpt>
      <trkpt lat="48.87213" lon="-0.4224">
        <ele>123.969215</ele>
        <time>2016-06-09T10:10:26Z</time>
      </trkpt>
      <trkpt lat="48.87214" lon="-0.42248">
        <ele>123.969215</ele>
        <time>2016-06-09T10:10:31Z</time>
      </trkpt>
      <trkpt lat="48.87213" lon="-0.42262">
        <ele>125.1972</ele>
        <time>2016-06-09T10:10:41Z</time>
      </trkpt>
      <trkpt lat="48.87214" lon="-0.42269">
        <ele>125.1972</ele>
        <time>2016-06-09T10:10:46Z</time>
      </trkpt>
      <trkpt lat="48.87214" lon="-0.42283">
        <ele>126.10574</ele>
        <time>2016-06-09T10:10:56Z</time>
      </trkpt>
      <trkpt lat="48.87215" lon="-0.4229">
        <ele>126.10574</ele>
        <time>2016-06-09T10:11:01Z</time>
      </trkpt>
      <trkpt lat="48.87214" lon="-0.42304">
        <ele>127.18936</ele>
        <time>2016-06-09T10:11:11Z</time>
      </trkpt>
      <trkpt lat="48.87215" lon="-0.42311">
        <ele>127.18936</ele>
        <time>2016-06-09T10:11:16Z</time>
      </trkpt>
      <trkpt lat="48.87213" lon="-0.42323">
        <ele>128.51135</ele>
        <time>2016-06-09T10:11:26Z</time>
      </trkpt>
      <trkpt lat="48.87214" lon="-0.4233">
        <ele>128.51135</ele>
        <time>2016-06-09T10:11:31Z</time>
      </trkpt>
      <trkpt lat="48.87214" lon="-0.42334">
        <ele>128.51135</ele>
        <time>2016-06-09T10:11:41Z</time>
      </trkpt>
      <trkpt lat="48.87214" lon="-0.42334">
        <ele>128.51135</ele>
        <time>2016-06-09T10:11:46Z</time>
      </trkpt>
      <trkpt lat="48.87217" lon="-0.42349">
        <ele>130.1137</ele>
        <time>2016-06-09T10:11:51Z</time>
      </trkpt>
      <trkpt lat="48.87216" lon="-0.42359">
        <ele>130.1137</ele>
        <time>2016-06-09T10:11:56Z</time>
      </trkpt>
      <trkpt lat="48.87219" lon="-0.42368">
        <ele>131.1757</ele>
        <time>2016-06-09T10:12:01Z</time>
      </trkpt>
      <trkpt lat="48.87219" lon="-0.42372">
        <ele>131.1757</ele>
        <time>2016-06-09T10:12:06Z</time>
      </trkpt>
      <trkpt lat="48.87222" lon="-0.42399">
        <ele>132.7188</ele>
        <time>2016-06-09T10:12:16Z</time>
      </trkpt>
      <trkpt lat="48.87225" lon="-0.42404">
        <ele>132.7188</ele>
        <time>2016-06-09T10:12:21Z</time>
      </trkpt>
      <trkpt lat="48.87227" lon="-0.4243">
        <ele>134.70363</ele>
        <time>2016-06-09T10:12:36Z</time>
      </trkpt>
      <trkpt lat="48.87227" lon="-0.42435">
        <ele>134.70363</ele>
        <time>2016-06-09T10:12:41Z</time>
      </trkpt>
      <trkpt lat="48.87229" lon="-0.42447">
        <ele>136.16466</ele>
        <time>2016-06-09T10:12:51Z</time>
      </trkpt>
      <trkpt lat="48.87229" lon="-0.42449">
        <ele>136.16466</ele>
        <time>2016-06-09T10:12:56Z</time>
      </trkpt>
      <trkpt lat="48.87232" lon="-0.42465">
        <ele>137.87613</ele>
        <time>2016-06-09T10:13:06Z</time>
      </trkpt>
      <trkpt lat="48.87231" lon="-0.42468">
        <ele>137.87613</ele>
        <time>2016-06-09T10:13:11Z</time>
      </trkpt>
      <trkpt lat="48.87232" lon="-0.4248">
        <ele>139.78694</ele>
        <time>2016-06-09T10:13:21Z</time>
      </trkpt>
      <trkpt lat="48.87233" lon="-0.42487">
        <ele>139.78694</ele>
        <time>2016-06-09T10:13:26Z</time>
      </trkpt>
      <trkpt lat="48.87234" lon="-0.42505">
        <ele>141.52283</ele>
        <time>2016-06-09T10:13:36Z</time>
      </trkpt>
      <trkpt lat="48.87236" lon="-0.42511">
        <ele>141.52283</ele>
        <time>2016-06-09T10:13:41Z</time>
      </trkpt>
      <trkpt lat="48.87235" lon="-0.42525">
        <ele>143.21582</ele>
        <time>2016-06-09T10:13:51Z</time>
      </trkpt>
      <trkpt lat="48.87235" lon="-0.42534">
        <ele>143.21582</ele>
        <time>2016-06-09T10:13:56Z</time>
      </trkpt>
      <trkpt lat="48.8724" lon="-0.42546">
        <ele>145.04611</ele>
        <time>2016-06-09T10:14:06Z</time>
      </trkpt>
      <trkpt lat="48.87241" lon="-0.4255">
        <ele>145.04611</ele>
        <time>2016-06-09T10:14:11Z</time>
      </trkpt>
      <trkpt lat="48.87241" lon="-0.42555">
        <ele>145.04611</ele>
        <time>2016-06-09T10:14:16Z</time>
      </trkpt>
      <trkpt lat="48.87242" lon="-0.42565">
        <ele>146.16095</ele>
        <time>2016-06-09T10:14:21Z</time>
      </trkpt>
      <trkpt lat="48.87245" lon="-0.42572">
        <ele>146.16095</ele>
        <time>2016-06-09T10:14:26Z</time>
      </trkpt>
      <trkpt lat="48.87245" lon="-0.42581">
        <ele>147.2959</ele>
        <time>2016-06-09T10:14:31Z</time>
      </trkpt>
      <trkpt lat="48.87246" lon="-0.42597">
        <ele>148.28868</ele>
        <time>2016-06-09T10:14:41Z</time>
      </trkpt>
      <trkpt lat="48.87247" lon="-0.42604">
        <ele>148.28868</ele>
        <time>2016-06-09T10:14:46Z</time>
      </trkpt>
      <trkpt lat="48.87249" lon="-0.42609">
        <ele>148.28868</ele>
        <time>2016-06-09T10:15:01Z</time>
      </trkpt>
      <trkpt lat="48.87253" lon="-0.42613">
        <ele>149.28362</ele>
        <time>2016-06-09T10:15:06Z</time>
      </trkpt>
      <trkpt lat="48.87255" lon="-0.42625">
        <ele>149.28362</ele>
        <time>2016-06-09T10:15:16Z</time>
      </trkpt>
      <trkpt lat="48.87256" lon="-0.42632">
        <ele>150.36935</ele>
        <time>2016-06-09T10:15:21Z</time>
      </trkpt>
      <trkpt lat="48.87257" lon="-0.42642">
        <ele>150.36935</ele>
        <time>2016-06-09T10:15:26Z</time>
      </trkpt>
      <trkpt lat="48.87259" lon="-0.42648">
        <ele>151.37909</ele>
        <time>2016-06-09T10:15:31Z</time>
      </trkpt>
      <trkpt lat="48.87258" lon="-0.42653">
        <ele>151.37909</ele>
        <time>2016-06-09T10:15:36Z</time>
      </trkpt>
      <trkpt lat="48.87262" lon="-0.42664">
        <ele>152.04309</ele>
        <time>2016-06-09T10:15:41Z</time>
      </trkpt>
      <trkpt lat="48.87268" lon="-0.42682">
        <ele>152.82663</ele>
        <time>2016-06-09T10:15:51Z</time>
      </trkpt>
      <trkpt lat="48.8727" lon="-0.42688">
        <ele>152.82663</ele>
        <time>2016-06-09T10:15:56Z</time>
      </trkpt>
      <trkpt lat="48.87277" lon="-0.42709">
        <ele>153.38795</ele>
        <time>2016-06-09T10:16:11Z</time>
      </trkpt>
      <trkpt lat="48.8728" lon="-0.42717">
        <ele>153.38795</ele>
        <time>2016-06-09T10:16:16Z</time>
      </trkpt>
      <trkpt lat="48.87282" lon="-0.42732">
        <ele>154.00749</ele>
        <time>2016-06-09T10:16:26Z</time>
      </trkpt>
      <trkpt lat="48.87284" lon="-0.4274">
        <ele>154.00749</ele>
        <time>2016-06-09T10:16:31Z</time>
      </trkpt>
      <trkpt lat="48.87288" lon="-0.42753">
        <ele>154.49437</ele>
        <time>2016-06-09T10:16:41Z</time>
      </trkpt>
      <trkpt lat="48.8729" lon="-0.4276">
        <ele>154.49437</ele>
        <time>2016-06-09T10:16:46Z</time>
      </trkpt>
      <trkpt lat="48.87294" lon="-0.42777">
        <ele>155.13605</ele>
        <time>2016-06-09T10:16:56Z</time>
      </trkpt>
      <trkpt lat="48.87296" lon="-0.42785">
        <ele>155.13605</ele>
        <time>2016-06-09T10:17:01Z</time>
      </trkpt>
      <trkpt lat="48.873" lon="-0.42796">
        <ele>155.72018</ele>
        <time>2016-06-09T10:17:11Z</time>
      </trkpt>
      <trkpt lat="48.87304" lon="-0.42803">
        <ele>155.72018</ele>
        <time>2016-06-09T10:17:16Z</time>
      </trkpt>
      <trkpt lat="48.87307" lon="-0.42817">
        <ele>156.2387</ele>
        <time>2016-06-09T10:17:26Z</time>
      </trkpt>
      <trkpt lat="48.87308" lon="-0.42826">
        <ele>156.2387</ele>
        <time>2016-06-09T10:17:31Z</time>
      </trkpt>
      <trkpt lat="48.87312" lon="-0.42843">
        <ele>157.44972</ele>
        <time>2016-06-09T10:17:41Z</time>
      </trkpt>
      <trkpt lat="48.87315" lon="-0.42851">
        <ele>157.44972</ele>
        <time>2016-06-09T10:17:46Z</time>
      </trkpt>
      <trkpt lat="48.8732" lon="-0.42867">
        <ele>158.95522</ele>
        <time>2016-06-09T10:18:01Z</time>
      </trkpt>
      <trkpt lat="48.87322" lon="-0.42874">
        <ele>158.95522</ele>
        <time>2016-06-09T10:18:06Z</time>
      </trkpt>
      <trkpt lat="48.87326" lon="-0.42888">
        <ele>160.35751</ele>
        <time>2016-06-09T10:18:16Z</time>
      </trkpt>
      <trkpt lat="48.87327" lon="-0.42894">
        <ele>160.35751</ele>
        <time>2016-06-09T10:18:21Z</time>
      </trkpt>
      <trkpt lat="48.87333" lon="-0.42909">
        <ele>161.80832</ele>
        <time>2016-06-09T10:18:31Z</time>
      </trkpt>
      <trkpt lat="48.87334" lon="-0.42915">
        <ele>161.80832</ele>
        <time>2016-06-09T10:18:36Z</time>
      </trkpt>
      <trkpt lat="48.87338" lon="-0.42927">
        <ele>163.08725</ele>
        <time>2016-06-09T10:18:46Z</time>
      </trkpt>
      <trkpt lat="48.87337" lon="-0.42935">
        <ele>163.08725</ele>
        <time>2016-06-09T10:18:51Z</time>
      </trkpt>
      <trkpt lat="48.87337" lon="-0.42941">
        <ele>163.08725</ele>
        <time>2016-06-09T10:19:01Z</time>
      </trkpt>
      <trkpt lat="48.87338" lon="-0.42939">
        <ele>164.52426</ele>
        <time>2016-06-09T10:19:06Z</time>
      </trkpt>
      <trkpt lat="48.87339" lon="-0.42937">
        <ele>164.52426</ele>
        <time>2016-06-09T10:19:16Z</time>
      </trkpt>
      <trkpt lat="48.87339" lon="-0.42939">
        <ele>164.52426</ele>
        <time>2016-06-09T10:19:21Z</time>
      </trkpt>
      <trkpt lat="48.8733" lon="-0.42947">
        <ele>166.03513</ele>
        <time>2016-06-09T10:19:31Z</time>
      </trkpt>
      <trkpt lat="48.87327" lon="-0.42953">
        <ele>166.03513</ele>
        <time>2016-06-09T10:19:36Z</time>
      </trkpt>
      <trkpt lat="48.87325" lon="-0.42954">
        <ele>166.03513</ele>
        <time>2016-06-09T10:19:46Z</time>
      </trkpt>
      <trkpt lat="48.87323" lon="-0.42948">
        <ele>166.99368</ele>
        <time>2016-06-09T10:19:51Z</time>
      </trkpt>
      <trkpt lat="48.87317" lon="-0.42953">
        <ele>166.99368</ele>
        <time>2016-06-09T10:20:06Z</time>
      </trkpt>
      <trkpt lat="48.87314" lon="-0.42961">
        <ele>167.72975</ele>
        <time>2016-06-09T10:20:11Z</time>
      </trkpt>
      <trkpt lat="48.87308" lon="-0.42974">
        <ele>168.39078</ele>
        <time>2016-06-09T10:20:21Z</time>
      </trkpt>
      <trkpt lat="48.87306" lon="-0.42983">
        <ele>168.39078</ele>
        <time>2016-06-09T10:20:26Z</time>
      </trkpt>
      <trkpt lat="48.87304" lon="-0.42989">
        <ele>169.07036</ele>
        <time>2016-06-09T10:20:31Z</time>
      </trkpt>
      <trkpt lat="48.87301" lon="-0.42997">
        <ele>169.07036</ele>
        <time>2016-06-09T10:20:36Z</time>
      </trkpt>
      <trkpt lat="48.87299" lon="-0.43001">
        <ele>169.55232</ele>
        <time>2016-06-09T10:20:41Z</time>
      </trkpt>
      <trkpt lat="48.87293" lon="-0.43009">
        <ele>169.55232</ele>
        <time>2016-06-09T10:20:46Z</time>
      </trkpt>
      <trkpt lat="48.87282" lon="-0.43016">
        <ele>169.50713</ele>
        <time>2016-06-09T10:20:56Z</time>
      </trkpt>
      <trkpt lat="48.87276" lon="-0.43019">
        <ele>169.50713</ele>
        <time>2016-06-09T10:21:01Z</time>
      </trkpt>
      <trkpt lat="48.87265" lon="-0.43026">
        <ele>169.29411</ele>
        <time>2016-06-09T10:21:11Z</time>
      </trkpt>
      <trkpt lat="48.8726" lon="-0.43029">
        <ele>169.29411</ele>
        <time>2016-06-09T10:21:16Z</time>
      </trkpt>
      <trkpt lat="48.8725" lon="-0.43039">
        <ele>168.84299</ele>
        <time>2016-06-09T10:21:26Z</time>
      </trkpt>
      <trkpt lat="48.87245" lon="-0.43043">
        <ele>168.84299</ele>
        <time>2016-06-09T10:21:31Z</time>
      </trkpt>
      <trkpt lat="48.87234" lon="-0.43049">
        <ele>168.06033</ele>
        <time>2016-06-09T10:21:41Z</time>
      </trkpt>
      <trkpt lat="48.87229" lon="-0.43051">
        <ele>168.06033</ele>
        <time>2016-06-09T10:21:46Z</time>
      </trkpt>
      <trkpt lat="48.87221" lon="-0.43057">
        <ele>167.00473</ele>
        <time>2016-06-09T10:21:56Z</time>
      </trkpt>
      <trkpt lat="48.87216" lon="-0.4306">
        <ele>167.00473</ele>
        <time>2016-06-09T10:22:01Z</time>
      </trkpt>
      <trkpt lat="48.87207" lon="-0.43066">
        <ele>165.68788</ele>
        <time>2016-06-09T10:22:11Z</time>
      </trkpt>
      <trkpt lat="48.87203" lon="-0.43069">
        <ele>165.68788</ele>
        <time>2016-06-09T10:22:16Z</time>
      </trkpt>
      <trkpt lat="48.87188" lon="-0.43073">
        <ele>163.32797</ele>
        <time>2016-06-09T10:22:31Z</time>
      </trkpt>
      <trkpt lat="48.87183" lon="-0.43075">
        <ele>163.32797</ele>
        <time>2016-06-09T10:22:36Z</time>
      </trkpt>
      <trkpt lat="48.87174" lon="-0.43077">
        <ele>160.77568</ele>
        <time>2016-06-09T10:22:46Z</time>
      </trkpt>
      <trkpt lat="48.87169" lon="-0.43076">
        <ele>160.77568</ele>
        <time>2016-06-09T10:22:51Z</time>
      </trkpt>
      <trkpt lat="48.8716" lon="-0.4308">
        <ele>157.99747</ele>
        <time>2016-06-09T10:23:01Z</time>
      </trkpt>
      <trkpt lat="48.87157" lon="-0.43081">
        <ele>157.99747</ele>
        <time>2016-06-09T10:23:06Z</time>
      </trkpt>
      <trkpt lat="48.87148" lon="-0.43084">
        <ele>154.99156</ele>
        <time>2016-06-09T10:23:16Z</time>
      </trkpt>
      <trkpt lat="48.87142" lon="-0.43084">
        <ele>154.99156</ele>
        <time>2016-06-09T10:23:21Z</time>
      </trkpt>
      <trkpt lat="48.87133" lon="-0.43089">
        <ele>151.68471</ele>
        <time>2016-06-09T10:23:31Z</time>
      </trkpt>
      <trkpt lat="48.87128" lon="-0.43092">
        <ele>151.68471</ele>
        <time>2016-06-09T10:23:36Z</time>
      </trkpt>
      <trkpt lat="48.8711" lon="-0.43103">
        <ele>148.64436</ele>
        <time>2016-06-09T10:23:51Z</time>
      </trkpt>
      <trkpt lat="48.87106" lon="-0.43107">
        <ele>148.64436</ele>
        <time>2016-06-09T10:23:56Z</time>
      </trkpt>
      <trkpt lat="48.87096" lon="-0.43118">
        <ele>145.3279</ele>
        <time>2016-06-09T10:24:06Z</time>
      </trkpt>
      <trkpt lat="48.87092" lon="-0.43124">
        <ele>145.3279</ele>
        <time>2016-06-09T10:24:11Z</time>
      </trkpt>
      <trkpt lat="48.87083" lon="-0.43137">
        <ele>142.51686</ele>
        <time>2016-06-09T10:24:21Z</time>
      </trkpt>
      <trkpt lat="48.87079" lon="-0.43143">
        <ele>142.51686</ele>
        <time>2016-06-09T10:24:26Z</time>
      </trkpt>
      <trkpt lat="48.87073" lon="-0.43158">
        <ele>139.54898</ele>
        <time>2016-06-09T10:24:36Z</time>
      </trkpt>
      <trkpt lat="48.8707" lon="-0.43166">
        <ele>139.54898</ele>
        <time>2016-06-09T10:24:41Z</time>
      </trkpt>
      <trkpt lat="48.87064" lon="-0.43181">
        <ele>136.77725</ele>
        <time>2016-06-09T10:24:51Z</time>
      </trkpt>
      <trkpt lat="48.87063" lon="-0.43187">
        <ele>136.77725</ele>
        <time>2016-06-09T10:24:56Z</time>
      </trkpt>
      <trkpt lat="48.87058" lon="-0.43203">
        <ele>134.02307</ele>
        <time>2016-06-09T10:25:06Z</time>
      </trkpt>
      <trkpt lat="48.87054" lon="-0.43209">
        <ele>134.02307</ele>
        <time>2016-06-09T10:25:11Z</time>
      </trkpt>
      <trkpt lat="48.87042" lon="-0.4323">
        <ele>131.07745</ele>
        <time>2016-06-09T10:25:26Z</time>
      </trkpt>
      <trkpt lat="48.87039" lon="-0.43234">
        <ele>131.07745</ele>
        <time>2016-06-09T10:25:31Z</time>
      </trkpt>
      <trkpt lat="48.8703" lon="-0.43243">
        <ele>127.934494</ele>
        <time>2016-06-09T10:25:41Z</time>
      </trkpt>
      <trkpt lat="48.87027" lon="-0.43244">
        <ele>127.934494</ele>
        <time>2016-06-09T10:25:46Z</time>
      </trkpt>
      <trkpt lat="48.87015" lon="-0.43243">
        <ele>124.37272</ele>
        <time>2016-06-09T10:25:56Z</time>
      </trkpt>
      <trkpt lat="48.87011" lon="-0.43245">
        <ele>124.37272</ele>
        <time>2016-06-09T10:26:01Z</time>
      </trkpt>
      <trkpt lat="48.87002" lon="-0.43248">
        <ele>120.54834</ele>
        <time>2016-06-09T10:26:11Z</time>
      </trkpt>
      <trkpt lat="48.86997" lon="-0.43245">
        <ele>120.54834</ele>
        <time>2016-06-09T10:26:16Z</time>
      </trkpt>
      <trkpt lat="48.86988" lon="-0.43242">
        <ele>116.39022</ele>
        <time>2016-06-09T10:26:26Z</time>
      </trkpt>
      <trkpt lat="48.86984" lon="-0.43243">
        <ele>116.39022</ele>
        <time>2016-06-09T10:26:31Z</time>
      </trkpt>
      <trkpt lat="48.86974" lon="-0.43239">
        <ele>112.92881</ele>
        <time>2016-06-09T10:26:41Z</time>
      </trkpt>
      <trkpt lat="48.86966" lon="-0.43238">
        <ele>112.92881</ele>
        <time>2016-06-09T10:26:46Z</time>
      </trkpt>
      <trkpt lat="48.8696" lon="-0.43237">
        <ele>110.4244</ele>
        <time>2016-06-09T10:26:56Z</time>
      </trkpt>
      <trkpt lat="48.86956" lon="-0.43236">
        <ele>110.4244</ele>
        <time>2016-06-09T10:27:01Z</time>
      </trkpt>
      <trkpt lat="48.86945" lon="-0.43236">
        <ele>107.63029</ele>
        <time>2016-06-09T10:27:11Z</time>
      </trkpt>
      <trkpt lat="48.86939" lon="-0.43236">
        <ele>107.63029</ele>
        <time>2016-06-09T10:27:16Z</time>
      </trkpt>
      <trkpt lat="48.86929" lon="-0.43233">
        <ele>104.876854</ele>
        <time>2016-06-09T10:27:26Z</time>
      </trkpt>
      <trkpt lat="48.86923" lon="-0.43233">
        <ele>104.876854</ele>
        <time>2016-06-09T10:27:31Z</time>
      </trkpt>
      <trkpt lat="48.86912" lon="-0.43232">
        <ele>102.109375</ele>
        <time>2016-06-09T10:27:41Z</time>
      </trkpt>
      <trkpt lat="48.86906" lon="-0.43231">
        <ele>102.109375</ele>
        <time>2016-06-09T10:27:46Z</time>
      </trkpt>
      <trkpt lat="48.86895" lon="-0.4323">
        <ele>99.50752</ele>
        <time>2016-06-09T10:27:56Z</time>
      </trkpt>
      <trkpt lat="48.86891" lon="-0.43232">
        <ele>99.50752</ele>
        <time>2016-06-09T10:28:01Z</time>
      </trkpt>
      <trkpt lat="48.86877" lon="-0.43235">
        <ele>97.07844</ele>
        <time>2016-06-09T10:28:16Z</time>
      </trkpt>
      <trkpt lat="48.86872" lon="-0.43236">
        <ele>97.07844</ele>
        <time>2016-06-09T10:28:21Z</time>
      </trkpt>
      <trkpt lat="48.86861" lon="-0.4324">
        <ele>94.92887</ele>
        <time>2016-06-09T10:28:31Z</time>
      </trkpt>
      <trkpt lat="48.86856" lon="-0.43242">
        <ele>94.92887</ele>
        <time>2016-06-09T10:28:36Z</time>
      </trkpt>
      <trkpt lat="48.86846" lon="-0.43247">
        <ele>92.796326</ele>
        <time>2016-06-09T10:28:46Z</time>
      </trkpt>
      <trkpt lat="48.86842" lon="-0.43251">
        <ele>92.796326</ele>
        <time>2016-06-09T10:28:51Z</time>
      </trkpt>
      <trkpt lat="48.86831" lon="-0.43255">
        <ele>90.65351</ele>
        <time>2016-06-09T10:29:01Z</time>
      </trkpt>
      <trkpt lat="48.86824" lon="-0.43257">
        <ele>90.65351</ele>
        <time>2016-06-09T10:29:06Z</time>
      </trkpt>
      <trkpt lat="48.86815" lon="-0.43261">
        <ele>88.532555</ele>
        <time>2016-06-09T10:29:16Z</time>
      </trkpt>
      <trkpt lat="48.8681" lon="-0.43265">
        <ele>88.532555</ele>
        <time>2016-06-09T10:29:21Z</time>
      </trkpt>
      <trkpt lat="48.86802" lon="-0.43268">
        <ele>86.203514</ele>
        <time>2016-06-09T10:29:31Z</time>
      </trkpt>
      <trkpt lat="48.86797" lon="-0.43269">
        <ele>86.203514</ele>
        <time>2016-06-09T10:29:36Z</time>
      </trkpt>
      <trkpt lat="48.86789" lon="-0.43273">
        <ele>83.871635</ele>
        <time>2016-06-09T10:29:46Z</time>
      </trkpt>
      <trkpt lat="48.86783" lon="-0.43273">
        <ele>83.871635</ele>
        <time>2016-06-09T10:29:51Z</time>
      </trkpt>
      <trkpt lat="48.86769" lon="-0.43278">
        <ele>81.6548</ele>
        <time>2016-06-09T10:30:06Z</time>
      </trkpt>
      <trkpt lat="48.86764" lon="-0.43281">
        <ele>81.6548</ele>
        <time>2016-06-09T10:30:11Z</time>
      </trkpt>
      <trkpt lat="48.86754" lon="-0.43283">
        <ele>79.50319</ele>
        <time>2016-06-09T10:30:21Z</time>
      </trkpt>
      <trkpt lat="48.86749" lon="-0.43284">
        <ele>79.50319</ele>
        <time>2016-06-09T10:30:26Z</time>
      </trkpt>
      <trkpt lat="48.86739" lon="-0.43286">
        <ele>77.42789</ele>
        <time>2016-06-09T10:30:36Z</time>
      </trkpt>
      <trkpt lat="48.86736" lon="-0.4329">
        <ele>77.42789</ele>
        <time>2016-06-09T10:30:41Z</time>
      </trkpt>
      <trkpt lat="48.86728" lon="-0.43292">
        <ele>75.32347</ele>
        <time>2016-06-09T10:30:51Z</time>
      </trkpt>
      <trkpt lat="48.86724" lon="-0.43293">
        <ele>75.32347</ele>
        <time>2016-06-09T10:30:56Z</time>
      </trkpt>
      <trkpt lat="48.86716" lon="-0.43295">
        <ele>73.59659</ele>
        <time>2016-06-09T10:31:06Z</time>
      </trkpt>
      <trkpt lat="48.8671" lon="-0.43294">
        <ele>73.59659</ele>
        <time>2016-06-09T10:31:11Z</time>
      </trkpt>
      <trkpt lat="48.86698" lon="-0.43294">
        <ele>71.48425</ele>
        <time>2016-06-09T10:31:21Z</time>
      </trkpt>
      <trkpt lat="48.86694" lon="-0.43294">
        <ele>71.48425</ele>
        <time>2016-06-09T10:31:26Z</time>
      </trkpt>
      <trkpt lat="48.86686" lon="-0.43297">
        <ele>69.54868</ele>
        <time>2016-06-09T10:31:36Z</time>
      </trkpt>
      <trkpt lat="48.86681" lon="-0.43298">
        <ele>69.54868</ele>
        <time>2016-06-09T10:31:41Z</time>
      </trkpt>
      <trkpt lat="48.86672" lon="-0.43302">
        <ele>67.647224</ele>
        <time>2016-06-09T10:31:51Z</time>
      </trkpt>
      <trkpt lat="48.86666" lon="-0.43303">
        <ele>67.647224</ele>
        <time>2016-06-09T10:31:56Z</time>
      </trkpt>
      <trkpt lat="48.86656" lon="-0.43308">
        <ele>65.90687</ele>
        <time>2016-06-09T10:32:11Z</time>
      </trkpt>
      <trkpt lat="48.86651" lon="-0.4331">
        <ele>65.90687</ele>
        <time>2016-06-09T10:32:16Z</time>
      </trkpt>
      <trkpt lat="48.86644" lon="-0.43314">
        <ele>63.810616</ele>
        <time>2016-06-09T10:32:26Z</time>
      </trkpt>
      <trkpt lat="48.86638" lon="-0.43315">
        <ele>63.810616</ele>
        <time>2016-06-09T10:32:31Z</time>
      </trkpt>
      <trkpt lat="48.86628" lon="-0.43318">
        <ele>61.932354</ele>
        <time>2016-06-09T10:32:41Z</time>
      </trkpt>
      <trkpt lat="48.86622" lon="-0.43316">
        <ele>61.932354</ele>
        <time>2016-06-09T10:32:46Z</time>
      </trkpt>
      <trkpt lat="48.86615" lon="-0.43318">
        <ele>60.34194</ele>
        <time>2016-06-09T10:32:56Z</time>
      </trkpt>
      <trkpt lat="48.86611" lon="-0.4332">
        <ele>60.34194</ele>
        <time>2016-06-09T10:33:01Z</time>
      </trkpt>
      <trkpt lat="48.86602" lon="-0.43319">
        <ele>58.541157</ele>
        <time>2016-06-09T10:33:11Z</time>
      </trkpt>
      <trkpt lat="48.86596" lon="-0.43318">
        <ele>58.541157</ele>
        <time>2016-06-09T10:33:16Z</time>
      </trkpt>
      <trkpt lat="48.86588" lon="-0.43316">
        <ele>56.89033</ele>
        <time>2016-06-09T10:33:26Z</time>
      </trkpt>
      <trkpt lat="48.86585" lon="-0.43314">
        <ele>56.89033</ele>
        <time>2016-06-09T10:33:31Z</time>
      </trkpt>
      <trkpt lat="48.86579" lon="-0.43318">
        <ele>55.290497</ele>
        <time>2016-06-09T10:33:41Z</time>
      </trkpt>
      <trkpt lat="48.86576" lon="-0.43322">
        <ele>55.290497</ele>
        <time>2016-06-09T10:33:46Z</time>
      </trkpt>
      <trkpt lat="48.86576" lon="-0.43322">
        <ele>55.290497</ele>
        <time>2016-06-09T10:33:56Z</time>
      </trkpt>
      <trkpt lat="48.86576" lon="-0.43321">
        <ele>55.290497</ele>
        <time>2016-06-09T10:34:01Z</time>
      </trkpt>
      <trkpt lat="48.86576" lon="-0.43321">
        <ele>55.290497</ele>
        <time>2016-06-09T10:34:16Z</time>
      </trkpt>
      <trkpt lat="48.86576" lon="-0.43321">
        <ele>55.290497</ele>
        <time>2016-06-09T10:34:21Z</time>
      </trkpt>
      <trkpt lat="48.86576" lon="-0.43321">
        <ele>55.290497</ele>
        <time>2016-06-09T10:34:31Z</time>
      </trkpt>
      <trkpt lat="48.86576" lon="-0.43321">
        <ele>55.290497</ele>
        <time>2016-06-09T10:34:36Z</time>
      </trkpt>
      <trkpt lat="48.86576" lon="-0.43321">
        <ele>55.290497</ele>
        <time>2016-06-09T10:34:46Z</time>
      </trkpt>
      <trkpt lat="48.86576" lon="-0.43321">
        <ele>55.290497</ele>
        <time>2016-06-09T10:34:51Z</time>
      </trkpt>
      <trkpt lat="48.86576" lon="-0.43321">
        <ele>55.290497</ele>
        <time>2016-06-09T10:35:01Z</time>
      </trkpt>
      <trkpt lat="48.86576" lon="-0.43321">
        <ele>55.290497</ele>
        <time>2016-06-09T10:35:06Z</time>
      </trkpt>
      <trkpt lat="48.86576" lon="-0.43321">
        <ele>55.290497</ele>
        <time>2016-06-09T10:35:16Z</time>
      </trkpt>
      <trkpt lat="48.86576" lon="-0.43321">
        <ele>55.290497</ele>
        <time>2016-06-09T10:35:21Z</time>
      </trkpt>
      <trkpt lat="48.86576" lon="-0.43321">
        <ele>55.290497</ele>
        <time>2016-06-09T10:35:31Z</time>
      </trkpt>
      <trkpt lat="48.86576" lon="-0.43321">
        <ele>55.290497</ele>
        <time>2016-06-09T10:35:36Z</time>
      </trkpt>
      <trkpt lat="48.86576" lon="-0.43321">
        <ele>55.290497</ele>
        <time>2016-06-09T10:35:46Z</time>
      </trkpt>
      <trkpt lat="48.86576" lon="-0.43321">
        <ele>55.290497</ele>
        <time>2016-06-09T10:35:51Z</time>
      </trkpt>
      <trkpt lat="48.86576" lon="-0.43321">
        <ele>55.290497</ele>
        <time>2016-06-09T10:36:01Z</time>
      </trkpt>
      <trkpt lat="48.86576" lon="-0.43321">
        <ele>55.290497</ele>
        <time>2016-06-09T10:36:06Z</time>
      </trkpt>
      <trkpt lat="48.86576" lon="-0.43321">
        <ele>55.290497</ele>
        <time>2016-06-09T10:36:11Z</time>
      </trkpt>
      <trkpt lat="48.86576" lon="-0.43321">
        <ele>55.290497</ele>
        <time>2016-06-09T10:36:16Z</time>
      </trkpt>
      <trkpt lat="48.86575" lon="-0.43321">
        <ele>55.290497</ele>
        <time>2016-06-09T10:36:21Z</time>
      </trkpt>
      <trkpt lat="48.86575" lon="-0.43321">
        <ele>55.290497</ele>
        <time>2016-06-09T10:36:26Z</time>
      </trkpt>
      <trkpt lat="48.86572" lon="-0.43332">
        <ele>54.298264</ele>
        <time>2016-06-09T10:36:36Z</time>
      </trkpt>
      <trkpt lat="48.86571" lon="-0.43335">
        <ele>54.298264</ele>
        <time>2016-06-09T10:36:41Z</time>
      </trkpt>
      <trkpt lat="48.8657" lon="-0.43339">
        <ele>54.298264</ele>
        <time>2016-06-09T10:36:56Z</time>
      </trkpt>
      <trkpt lat="48.86571" lon="-0.43339">
        <ele>54.298264</ele>
        <time>2016-06-09T10:37:01Z</time>
      </trkpt>
      <trkpt lat="48.86571" lon="-0.43342">
        <ele>54.298264</ele>
        <time>2016-06-09T10:37:11Z</time>
      </trkpt>
      <trkpt lat="48.86571" lon="-0.43341">
        <ele>54.298264</ele>
        <time>2016-06-09T10:37:16Z</time>
      </trkpt>
      <trkpt lat="48.86572" lon="-0.43341">
        <ele>54.298264</ele>
        <time>2016-06-09T10:37:26Z</time>
      </trkpt>
      <trkpt lat="48.86572" lon="-0.43341">
        <ele>54.298264</ele>
        <time>2016-06-09T10:37:31Z</time>
      </trkpt>
      <trkpt lat="48.86572" lon="-0.43344">
        <ele>53.534096</ele>
        <time>2016-06-09T10:37:41Z</time>
      </trkpt>
      <trkpt lat="48.86571" lon="-0.43344">
        <ele>53.534096</ele>
        <time>2016-06-09T10:37:46Z</time>
      </trkpt>
      <trkpt lat="48.86572" lon="-0.43354">
        <ele>53.534096</ele>
        <time>2016-06-09T10:37:56Z</time>
      </trkpt>
      <trkpt lat="48.86572" lon="-0.43364">
        <ele>52.31419</ele>
        <time>2016-06-09T10:38:01Z</time>
      </trkpt>
      <trkpt lat="48.86571" lon="-0.43379">
        <ele>51.173557</ele>
        <time>2016-06-09T10:38:11Z</time>
      </trkpt>
      <trkpt lat="48.86572" lon="-0.43387">
        <ele>51.173557</ele>
        <time>2016-06-09T10:38:16Z</time>
      </trkpt>
      <trkpt lat="48.86573" lon="-0.43405">
        <ele>50.34827</ele>
        <time>2016-06-09T10:38:26Z</time>
      </trkpt>
      <trkpt lat="48.86575" lon="-0.43415">
        <ele>50.34827</ele>
        <time>2016-06-09T10:38:31Z</time>
      </trkpt>
      <trkpt lat="48.86576" lon="-0.4343">
        <ele>49.796764</ele>
        <time>2016-06-09T10:38:41Z</time>
      </trkpt>
      <trkpt lat="48.86576" lon="-0.43442">
        <ele>49.796764</ele>
        <time>2016-06-09T10:38:46Z</time>
      </trkpt>
      <trkpt lat="48.86579" lon="-0.43467">
        <ele>49.220364</ele>
        <time>2016-06-09T10:39:01Z</time>
      </trkpt>
      <trkpt lat="48.8658" lon="-0.43477">
        <ele>49.220364</ele>
        <time>2016-06-09T10:39:06Z</time>
      </trkpt>
      <trkpt lat="48.8658" lon="-0.43494">
        <ele>49.063004</ele>
        <time>2016-06-09T10:39:16Z</time>
      </trkpt>
      <trkpt lat="48.8658" lon="-0.43501">
        <ele>49.063004</ele>
        <time>2016-06-09T10:39:21Z</time>
      </trkpt>
      <trkpt lat="48.86582" lon="-0.43501">
        <ele>49.063004</ele>
        <time>2016-06-09T10:39:31Z</time>
      </trkpt>
      <trkpt lat="48.86587" lon="-0.43515">
        <ele>49.071945</ele>
        <time>2016-06-09T10:39:36Z</time>
      </trkpt>
      <trkpt lat="48.86585" lon="-0.43537">
        <ele>49.83405</ele>
        <time>2016-06-09T10:39:46Z</time>
      </trkpt>
      <trkpt lat="48.86586" lon="-0.43546">
        <ele>49.83405</ele>
        <time>2016-06-09T10:39:51Z</time>
      </trkpt>
      <trkpt lat="48.86591" lon="-0.43563">
        <ele>50.694874</ele>
        <time>2016-06-09T10:40:01Z</time>
      </trkpt>
      <trkpt lat="48.86592" lon="-0.43571">
        <ele>50.694874</ele>
        <time>2016-06-09T10:40:06Z</time>
      </trkpt>
      <trkpt lat="48.86594" lon="-0.43593">
        <ele>51.379326</ele>
        <time>2016-06-09T10:40:16Z</time>
      </trkpt>
      <trkpt lat="48.86596" lon="-0.43599">
        <ele>51.379326</ele>
        <time>2016-06-09T10:40:21Z</time>
      </trkpt>
      <trkpt lat="48.86601" lon="-0.43615">
        <ele>51.76282</ele>
        <time>2016-06-09T10:40:31Z</time>
      </trkpt>
      <trkpt lat="48.86602" lon="-0.43622">
        <ele>51.76282</ele>
        <time>2016-06-09T10:40:36Z</time>
      </trkpt>
      <trkpt lat="48.86605" lon="-0.43634">
        <ele>51.356194</ele>
        <time>2016-06-09T10:40:46Z</time>
      </trkpt>
      <trkpt lat="48.86604" lon="-0.43644">
        <ele>51.356194</ele>
        <time>2016-06-09T10:40:51Z</time>
      </trkpt>
      <trkpt lat="48.86604" lon="-0.43645">
        <ele>51.356194</ele>
        <time>2016-06-09T10:41:06Z</time>
      </trkpt>
      <trkpt lat="48.86607" lon="-0.43663">
        <ele>51.293808</ele>
        <time>2016-06-09T10:41:11Z</time>
      </trkpt>
      <trkpt lat="48.86614" lon="-0.43678">
        <ele>51.285614</ele>
        <time>2016-06-09T10:41:21Z</time>
      </trkpt>
      <trkpt lat="48.86617" lon="-0.43686">
        <ele>51.285614</ele>
        <time>2016-06-09T10:41:26Z</time>
      </trkpt>
      <trkpt lat="48.86626" lon="-0.43705">
        <ele>51.91312</ele>
        <time>2016-06-09T10:41:36Z</time>
      </trkpt>
      <trkpt lat="48.86629" lon="-0.4371">
        <ele>51.91312</ele>
        <time>2016-06-09T10:41:41Z</time>
      </trkpt>
      <trkpt lat="48.86628" lon="-0.4371">
        <ele>51.91312</ele>
        <time>2016-06-09T10:41:51Z</time>
      </trkpt>
      <trkpt lat="48.8663" lon="-0.43712">
        <ele>51.91312</ele>
        <time>2016-06-09T10:41:56Z</time>
      </trkpt>
      <trkpt lat="48.86636" lon="-0.43724">
        <ele>52.243534</ele>
        <time>2016-06-09T10:42:06Z</time>
      </trkpt>
      <trkpt lat="48.86638" lon="-0.43728">
        <ele>52.243534</ele>
        <time>2016-06-09T10:42:11Z</time>
      </trkpt>
      <trkpt lat="48.86641" lon="-0.43743">
        <ele>53.114105</ele>
        <time>2016-06-09T10:42:21Z</time>
      </trkpt>
      <trkpt lat="48.86642" lon="-0.43747">
        <ele>53.114105</ele>
        <time>2016-06-09T10:42:26Z</time>
      </trkpt>
      <trkpt lat="48.86648" lon="-0.43762">
        <ele>53.5987</ele>
        <time>2016-06-09T10:42:36Z</time>
      </trkpt>
      <trkpt lat="48.86652" lon="-0.43768">
        <ele>53.5987</ele>
        <time>2016-06-09T10:42:41Z</time>
      </trkpt>
      <trkpt lat="48.86655" lon="-0.43786">
        <ele>54.368076</ele>
        <time>2016-06-09T10:42:51Z</time>
      </trkpt>
      <trkpt lat="48.86655" lon="-0.43784">
        <ele>54.368076</ele>
        <time>2016-06-09T10:42:56Z</time>
      </trkpt>
      <trkpt lat="48.86657" lon="-0.43788">
        <ele>54.368076</ele>
        <time>2016-06-09T10:43:01Z</time>
      </trkpt>
      <trkpt lat="48.8666" lon="-0.43797">
        <ele>54.717247</ele>
        <time>2016-06-09T10:43:06Z</time>
      </trkpt>
      <trkpt lat="48.86661" lon="-0.43805">
        <ele>54.717247</ele>
        <time>2016-06-09T10:43:11Z</time>
      </trkpt>
      <trkpt lat="48.86663" lon="-0.43812">
        <ele>54.87347</ele>
        <time>2016-06-09T10:43:16Z</time>
      </trkpt>
      <trkpt lat="48.86666" lon="-0.43813">
        <ele>54.87347</ele>
        <time>2016-06-09T10:43:21Z</time>
      </trkpt>
      <trkpt lat="48.86667" lon="-0.43817">
        <ele>54.87347</ele>
        <time>2016-06-09T10:43:26Z</time>
      </trkpt>
      <trkpt lat="48.8667" lon="-0.43824">
        <ele>55.220966</ele>
        <time>2016-06-09T10:43:36Z</time>
      </trkpt>
      <trkpt lat="48.86675" lon="-0.43833">
        <ele>55.220966</ele>
        <time>2016-06-09T10:43:41Z</time>
      </trkpt>
      <trkpt lat="48.86684" lon="-0.43842">
        <ele>55.985687</ele>
        <time>2016-06-09T10:43:51Z</time>
      </trkpt>
      <trkpt lat="48.86685" lon="-0.43842">
        <ele>55.985687</ele>
        <time>2016-06-09T10:43:56Z</time>
      </trkpt>
      <trkpt lat="48.86691" lon="-0.43849">
        <ele>55.985687</ele>
        <time>2016-06-09T10:44:06Z</time>
      </trkpt>
      <trkpt lat="48.86692" lon="-0.4385">
        <ele>56.857193</ele>
        <time>2016-06-09T10:44:11Z</time>
      </trkpt>
      <trkpt lat="48.86695" lon="-0.43866">
        <ele>57.90803</ele>
        <time>2016-06-09T10:44:21Z</time>
      </trkpt>
      <trkpt lat="48.86694" lon="-0.43871">
        <ele>57.90803</ele>
        <time>2016-06-09T10:44:26Z</time>
      </trkpt>
      <trkpt lat="48.86703" lon="-0.43886">
        <ele>58.743954</ele>
        <time>2016-06-09T10:44:36Z</time>
      </trkpt>
      <trkpt lat="48.86703" lon="-0.43883">
        <ele>58.743954</ele>
        <time>2016-06-09T10:44:41Z</time>
      </trkpt>
      <trkpt lat="48.86708" lon="-0.43886">
        <ele>58.743954</ele>
        <time>2016-06-09T10:44:51Z</time>
      </trkpt>
      <trkpt lat="48.86712" lon="-0.4389">
        <ele>59.735435</ele>
        <time>2016-06-09T10:44:56Z</time>
      </trkpt>
      <trkpt lat="48.86719" lon="-0.43894">
        <ele>59.735435</ele>
        <time>2016-06-09T10:45:06Z</time>
      </trkpt>
      <trkpt lat="48.86725" lon="-0.43898">
        <ele>60.5626</ele>
        <time>2016-06-09T10:45:11Z</time>
      </trkpt>
      <trkpt lat="48.86734" lon="-0.43912">
        <ele>61.751163</ele>
        <time>2016-06-09T10:45:26Z</time>
      </trkpt>
      <trkpt lat="48.86739" lon="-0.43915">
        <ele>61.751163</ele>
        <time>2016-06-09T10:45:31Z</time>
      </trkpt>
      <trkpt lat="48.86746" lon="-0.43927">
        <ele>62.937157</ele>
        <time>2016-06-09T10:45:41Z</time>
      </trkpt>
      <trkpt lat="48.86751" lon="-0.43935">
        <ele>62.937157</ele>
        <time>2016-06-09T10:45:46Z</time>
      </trkpt>
      <trkpt lat="48.86758" lon="-0.43918">
        <ele>63.52416</ele>
        <time>2016-06-09T10:45:56Z</time>
      </trkpt>
      <trkpt lat="48.8676" lon="-0.43919">
        <ele>63.52416</ele>
        <time>2016-06-09T10:46:01Z</time>
      </trkpt>
      <trkpt lat="48.86765" lon="-0.43921">
        <ele>63.52416</ele>
        <time>2016-06-09T10:46:11Z</time>
      </trkpt>
      <trkpt lat="48.86773" lon="-0.43928">
        <ele>64.35933</ele>
        <time>2016-06-09T10:46:16Z</time>
      </trkpt>
      <trkpt lat="48.86781" lon="-0.43932">
        <ele>64.35933</ele>
        <time>2016-06-09T10:46:26Z</time>
      </trkpt>
      <trkpt lat="48.86777" lon="-0.43929">
        <ele>64.26719</ele>
        <time>2016-06-09T10:46:31Z</time>
      </trkpt>
      <trkpt lat="48.86781" lon="-0.43929">
        <ele>64.26719</ele>
        <time>2016-06-09T10:46:41Z</time>
      </trkpt>
      <trkpt lat="48.86784" lon="-0.4393">
        <ele>64.26719</ele>
        <time>2016-06-09T10:46:46Z</time>
      </trkpt>
      <trkpt lat="48.86798" lon="-0.43922">
        <ele>63.948387</ele>
        <time>2016-06-09T10:46:56Z</time>
      </trkpt>
      <trkpt lat="48.86803" lon="-0.43923">
        <ele>63.948387</ele>
        <time>2016-06-09T10:47:01Z</time>
      </trkpt>
      <trkpt lat="48.86809" lon="-0.43936">
        <ele>63.173843</ele>
        <time>2016-06-09T10:47:11Z</time>
      </trkpt>
      <trkpt lat="48.86815" lon="-0.43937">
        <ele>63.173843</ele>
        <time>2016-06-09T10:47:16Z</time>
      </trkpt>
      <trkpt lat="48.86826" lon="-0.43946">
        <ele>63.000946</ele>
        <time>2016-06-09T10:47:26Z</time>
      </trkpt>
      <trkpt lat="48.86839" lon="-0.43944">
        <ele>62.779423</ele>
        <time>2016-06-09T10:47:31Z</time>
      </trkpt>
      <trkpt lat="48.86857" lon="-0.43954">
        <ele>62.382637</ele>
        <time>2016-06-09T10:47:41Z</time>
      </trkpt>
      <trkpt lat="48.86868" lon="-0.43961">
        <ele>62.904415</ele>
        <time>2016-06-09T10:47:46Z</time>
      </trkpt>
      <trkpt lat="48.86881" lon="-0.43969">
        <ele>64.56319</ele>
        <time>2016-06-09T10:47:56Z</time>
      </trkpt>
      <trkpt lat="48.86889" lon="-0.43973">
        <ele>64.56319</ele>
        <time>2016-06-09T10:48:01Z</time>
      </trkpt>
      <trkpt lat="48.86902" lon="-0.43977">
        <ele>66.92418</ele>
        <time>2016-06-09T10:48:16Z</time>
      </trkpt>
      <trkpt lat="48.86908" lon="-0.43972">
        <ele>66.92418</ele>
        <time>2016-06-09T10:48:21Z</time>
      </trkpt>
      <trkpt lat="48.86913" lon="-0.43973">
        <ele>68.05517</ele>
        <time>2016-06-09T10:48:31Z</time>
      </trkpt>
      <trkpt lat="48.86922" lon="-0.43972">
        <ele>68.05517</ele>
        <time>2016-06-09T10:48:36Z</time>
      </trkpt>
      <trkpt lat="48.86937" lon="-0.43986">
        <ele>69.74341</ele>
        <time>2016-06-09T10:48:46Z</time>
      </trkpt>
      <trkpt lat="48.86942" lon="-0.43984">
        <ele>69.74341</ele>
        <time>2016-06-09T10:48:51Z</time>
      </trkpt>
      <trkpt lat="48.86951" lon="-0.43982">
        <ele>70.24242</ele>
        <time>2016-06-09T10:49:01Z</time>
      </trkpt>
      <trkpt lat="48.86956" lon="-0.43981">
        <ele>70.24242</ele>
        <time>2016-06-09T10:49:06Z</time>
      </trkpt>
      <trkpt lat="48.86965" lon="-0.43992">
        <ele>71.03588</ele>
        <time>2016-06-09T10:49:16Z</time>
      </trkpt>
      <trkpt lat="48.8697" lon="-0.43998">
        <ele>71.03588</ele>
        <time>2016-06-09T10:49:21Z</time>
      </trkpt>
      <trkpt lat="48.86983" lon="-0.44005">
        <ele>71.033516</ele>
        <time>2016-06-09T10:49:31Z</time>
      </trkpt>
      <trkpt lat="48.8699" lon="-0.44004">
        <ele>71.033516</ele>
        <time>2016-06-09T10:49:36Z</time>
      </trkpt>
      <trkpt lat="48.87002" lon="-0.44006">
        <ele>70.0201</ele>
        <time>2016-06-09T10:49:46Z</time>
      </trkpt>
      <trkpt lat="48.87008" lon="-0.44016">
        <ele>70.0201</ele>
        <time>2016-06-09T10:49:51Z</time>
      </trkpt>
      <trkpt lat="48.87018" lon="-0.44029">
        <ele>68.89444</ele>
        <time>2016-06-09T10:50:01Z</time>
      </trkpt>
      <trkpt lat="48.87021" lon="-0.44043">
        <ele>67.81239</ele>
        <time>2016-06-09T10:50:06Z</time>
      </trkpt>
      <trkpt lat="48.87031" lon="-0.44065">
        <ele>67.37952</ele>
        <time>2016-06-09T10:50:16Z</time>
      </trkpt>
      <trkpt lat="48.87037" lon="-0.44066">
        <ele>67.37952</ele>
        <time>2016-06-09T10:50:21Z</time>
      </trkpt>
      <trkpt lat="48.87049" lon="-0.44093">
        <ele>66.23844</ele>
        <time>2016-06-09T10:50:36Z</time>
      </trkpt>
      <trkpt lat="48.87051" lon="-0.44105">
        <ele>66.23844</ele>
        <time>2016-06-09T10:50:41Z</time>
      </trkpt>
      <trkpt lat="48.8706" lon="-0.44117">
        <ele>66.21755</ele>
        <time>2016-06-09T10:50:51Z</time>
      </trkpt>
      <trkpt lat="48.8706" lon="-0.44122">
        <ele>66.21755</ele>
        <time>2016-06-09T10:50:56Z</time>
      </trkpt>
      <trkpt lat="48.87063" lon="-0.4414">
        <ele>66.61558</ele>
        <time>2016-06-09T10:51:06Z</time>
      </trkpt>
      <trkpt lat="48.87064" lon="-0.44144">
        <ele>66.61558</ele>
        <time>2016-06-09T10:51:11Z</time>
      </trkpt>
      <trkpt lat="48.87066" lon="-0.44159">
        <ele>67.069855</ele>
        <time>2016-06-09T10:51:21Z</time>
      </trkpt>
      <trkpt lat="48.8707" lon="-0.44168">
        <ele>67.069855</ele>
        <time>2016-06-09T10:51:26Z</time>
      </trkpt>
      <trkpt lat="48.87067" lon="-0.44179">
        <ele>67.28747</ele>
        <time>2016-06-09T10:51:36Z</time>
      </trkpt>
      <trkpt lat="48.87068" lon="-0.44178">
        <ele>67.28747</ele>
        <time>2016-06-09T10:51:41Z</time>
      </trkpt>
      <trkpt lat="48.87066" lon="-0.44184">
        <ele>67.28747</ele>
        <time>2016-06-09T10:51:51Z</time>
      </trkpt>
      <trkpt lat="48.87068" lon="-0.4418">
        <ele>67.28747</ele>
        <time>2016-06-09T10:51:56Z</time>
      </trkpt>
      <trkpt lat="48.87071" lon="-0.44179">
        <ele>66.8392</ele>
        <time>2016-06-09T10:52:06Z</time>
      </trkpt>
      <trkpt lat="48.87072" lon="-0.4418">
        <ele>66.8392</ele>
        <time>2016-06-09T10:52:11Z</time>
      </trkpt>
      <trkpt lat="48.87081" lon="-0.44203">
        <ele>66.424515</ele>
        <time>2016-06-09T10:52:21Z</time>
      </trkpt>
      <trkpt lat="48.87086" lon="-0.44216">
        <ele>66.74907</ele>
        <time>2016-06-09T10:52:26Z</time>
      </trkpt>
      <trkpt lat="48.87088" lon="-0.44238">
        <ele>67.340546</ele>
        <time>2016-06-09T10:52:36Z</time>
      </trkpt>
      <trkpt lat="48.87092" lon="-0.44243">
        <ele>67.340546</ele>
        <time>2016-06-09T10:52:41Z</time>
      </trkpt>
      <trkpt lat="48.87093" lon="-0.44274">
        <ele>67.63092</ele>
        <time>2016-06-09T10:52:56Z</time>
      </trkpt>
      <trkpt lat="48.87091" lon="-0.44284">
        <ele>67.63092</ele>
        <time>2016-06-09T10:53:01Z</time>
      </trkpt>
      <trkpt lat="48.87094" lon="-0.44303">
        <ele>67.82969</ele>
        <time>2016-06-09T10:53:11Z</time>
      </trkpt>
      <trkpt lat="48.87096" lon="-0.44311">
        <ele>67.82969</ele>
        <time>2016-06-09T10:53:16Z</time>
      </trkpt>
      <trkpt lat="48.87097" lon="-0.44326">
        <ele>67.59805</ele>
        <time>2016-06-09T10:53:26Z</time>
      </trkpt>
      <trkpt lat="48.87096" lon="-0.44335">
        <ele>67.59805</ele>
        <time>2016-06-09T10:53:31Z</time>
      </trkpt>
      <trkpt lat="48.87099" lon="-0.44356">
        <ele>66.983574</ele>
        <time>2016-06-09T10:53:41Z</time>
      </trkpt>
      <trkpt lat="48.87101" lon="-0.44365">
        <ele>66.983574</ele>
        <time>2016-06-09T10:53:46Z</time>
      </trkpt>
      <trkpt lat="48.87104" lon="-0.44385">
        <ele>66.50697</ele>
        <time>2016-06-09T10:53:56Z</time>
      </trkpt>
      <trkpt lat="48.87101" lon="-0.44394">
        <ele>66.50697</ele>
        <time>2016-06-09T10:54:01Z</time>
      </trkpt>
      <trkpt lat="48.87104" lon="-0.44414">
        <ele>66.448586</ele>
        <time>2016-06-09T10:54:11Z</time>
      </trkpt>
      <trkpt lat="48.87105" lon="-0.44427">
        <ele>66.448586</ele>
        <time>2016-06-09T10:54:16Z</time>
      </trkpt>
      <trkpt lat="48.87109" lon="-0.44449">
        <ele>66.80756</ele>
        <time>2016-06-09T10:54:26Z</time>
      </trkpt>
      <trkpt lat="48.87114" lon="-0.44459">
        <ele>66.80756</ele>
        <time>2016-06-09T10:54:31Z</time>
      </trkpt>
      <trkpt lat="48.8711" lon="-0.44476">
        <ele>67.07756</ele>
        <time>2016-06-09T10:54:41Z</time>
      </trkpt>
      <trkpt lat="48.87111" lon="-0.44487">
        <ele>67.07756</ele>
        <time>2016-06-09T10:54:46Z</time>
      </trkpt>
      <trkpt lat="48.87111" lon="-0.445">
        <ele>66.87614</ele>
        <time>2016-06-09T10:54:56Z</time>
      </trkpt>
      <trkpt lat="48.87111" lon="-0.44512">
        <ele>66.87614</ele>
        <time>2016-06-09T10:55:01Z</time>
      </trkpt>
      <trkpt lat="48.87114" lon="-0.44524">
        <ele>66.023186</ele>
        <time>2016-06-09T10:55:11Z</time>
      </trkpt>
      <trkpt lat="48.87115" lon="-0.44531">
        <ele>66.023186</ele>
        <time>2016-06-09T10:55:16Z</time>
      </trkpt>
      <trkpt lat="48.87118" lon="-0.44551">
        <ele>65.50652</ele>
        <time>2016-06-09T10:55:26Z</time>
      </trkpt>
      <trkpt lat="48.87122" lon="-0.44561">
        <ele>65.50652</ele>
        <time>2016-06-09T10:55:31Z</time>
      </trkpt>
      <trkpt lat="48.87117" lon="-0.44592">
        <ele>65.56313</ele>
        <time>2016-06-09T10:55:41Z</time>
      </trkpt>
      <trkpt lat="48.87121" lon="-0.44592">
        <ele>65.56313</ele>
        <time>2016-06-09T10:55:46Z</time>
      </trkpt>
      <trkpt lat="48.8711" lon="-0.44614">
        <ele>64.47986</ele>
        <time>2016-06-09T10:56:01Z</time>
      </trkpt>
      <trkpt lat="48.87112" lon="-0.44624">
        <ele>64.47986</ele>
        <time>2016-06-09T10:56:06Z</time>
      </trkpt>
      <trkpt lat="48.87102" lon="-0.44639">
        <ele>64.08799</ele>
        <time>2016-06-09T10:56:16Z</time>
      </trkpt>
      <trkpt lat="48.871" lon="-0.44645">
        <ele>64.08799</ele>
        <time>2016-06-09T10:56:21Z</time>
      </trkpt>
      <trkpt lat="48.87091" lon="-0.4466">
        <ele>63.214523</ele>
        <time>2016-06-09T10:56:31Z</time>
      </trkpt>
      <trkpt lat="48.87095" lon="-0.4466">
        <ele>63.214523</ele>
        <time>2016-06-09T10:56:36Z</time>
      </trkpt>
      <trkpt lat="48.87099" lon="-0.44661">
        <ele>63.214523</ele>
        <time>2016-06-09T10:56:46Z</time>
      </trkpt>
      <trkpt lat="48.87098" lon="-0.44662">
        <ele>63.214523</ele>
        <time>2016-06-09T10:56:51Z</time>
      </trkpt>
      <trkpt lat="48.87099" lon="-0.44675">
        <ele>62.632946</ele>
        <time>2016-06-09T10:57:01Z</time>
      </trkpt>
      <trkpt lat="48.87095" lon="-0.44691">
        <ele>61.949417</ele>
        <time>2016-06-09T10:57:06Z</time>
      </trkpt>
      <trkpt lat="48.87091" lon="-0.44709">
        <ele>61.505405</ele>
        <time>2016-06-09T10:57:16Z</time>
      </trkpt>
      <trkpt lat="48.87092" lon="-0.44716">
        <ele>61.505405</ele>
        <time>2016-06-09T10:57:21Z</time>
      </trkpt>
      <trkpt lat="48.87089" lon="-0.44723">
        <ele>61.270718</ele>
        <time>2016-06-09T10:57:31Z</time>
      </trkpt>
      <trkpt lat="48.87089" lon="-0.44726">
        <ele>61.270718</ele>
        <time>2016-06-09T10:57:36Z</time>
      </trkpt>
      <trkpt lat="48.87088" lon="-0.44727">
        <ele>61.270718</ele>
        <time>2016-06-09T10:57:51Z</time>
      </trkpt>
      <trkpt lat="48.87088" lon="-0.44727">
        <ele>61.270718</ele>
        <time>2016-06-09T10:57:56Z</time>
      </trkpt>
      <trkpt lat="48.87101" lon="-0.44744">
        <ele>61.332012</ele>
        <time>2016-06-09T10:58:06Z</time>
      </trkpt>
      <trkpt lat="48.87104" lon="-0.44751">
        <ele>61.332012</ele>
        <time>2016-06-09T10:58:11Z</time>
      </trkpt>
      <trkpt lat="48.87098" lon="-0.44756">
        <ele>61.149033</ele>
        <time>2016-06-09T10:58:21Z</time>
      </trkpt>
      <trkpt lat="48.87097" lon="-0.44757">
        <ele>61.149033</ele>
        <time>2016-06-09T10:58:26Z</time>
      </trkpt>
      <trkpt lat="48.87096" lon="-0.44759">
        <ele>61.149033</ele>
        <time>2016-06-09T10:58:36Z</time>
      </trkpt>
      <trkpt lat="48.87096" lon="-0.44759">
        <ele>61.149033</ele>
        <time>2016-06-09T10:58:41Z</time>
      </trkpt>
      <trkpt lat="48.87096" lon="-0.44759">
        <ele>61.149033</ele>
        <time>2016-06-09T10:58:51Z</time>
      </trkpt>
      <trkpt lat="48.87096" lon="-0.44759">
        <ele>61.149033</ele>
        <time>2016-06-09T10:58:56Z</time>
      </trkpt>
      <trkpt lat="48.87096" lon="-0.4476">
        <ele>61.149033</ele>
        <time>2016-06-09T10:59:06Z</time>
      </trkpt>
      <trkpt lat="48.87093" lon="-0.44769">
        <ele>61.302666</ele>
        <time>2016-06-09T10:59:11Z</time>
      </trkpt>
      <trkpt lat="48.8709" lon="-0.44779">
        <ele>61.302666</ele>
        <time>2016-06-09T10:59:21Z</time>
      </trkpt>
      <trkpt lat="48.87091" lon="-0.44784">
        <ele>61.609596</ele>
        <time>2016-06-09T10:59:26Z</time>
      </trkpt>
      <trkpt lat="48.87091" lon="-0.44785">
        <ele>61.609596</ele>
        <time>2016-06-09T10:59:36Z</time>
      </trkpt>
      <trkpt lat="48.87091" lon="-0.44785">
        <ele>61.609596</ele>
        <time>2016-06-09T10:59:41Z</time>
      </trkpt>
      <trkpt lat="48.87091" lon="-0.44786">
        <ele>61.609596</ele>
        <time>2016-06-09T10:59:56Z</time>
      </trkpt>
      <trkpt lat="48.8709" lon="-0.44799">
        <ele>61.72655</ele>
        <time>2016-06-09T11:00:01Z</time>
      </trkpt>
      <trkpt lat="48.87087" lon="-0.44827">
        <ele>61.191856</ele>
        <time>2016-06-09T11:00:11Z</time>
      </trkpt>
      <trkpt lat="48.87084" lon="-0.44838">
        <ele>61.191856</ele>
        <time>2016-06-09T11:00:16Z</time>
      </trkpt>
      <trkpt lat="48.87084" lon="-0.44853">
        <ele>60.57392</ele>
        <time>2016-06-09T11:00:26Z</time>
      </trkpt>
      <trkpt lat="48.87084" lon="-0.44859">
        <ele>60.57392</ele>
        <time>2016-06-09T11:00:31Z</time>
      </trkpt>
      <trkpt lat="48.87085" lon="-0.44884">
        <ele>60.399574</ele>
        <time>2016-06-09T11:00:41Z</time>
      </trkpt>
      <trkpt lat="48.87084" lon="-0.44898">
        <ele>60.39188</ele>
        <time>2016-06-09T11:00:46Z</time>
      </trkpt>
      <trkpt lat="48.87084" lon="-0.44905">
        <ele>60.39188</ele>
        <time>2016-06-09T11:00:56Z</time>
      </trkpt>
      <trkpt lat="48.87083" lon="-0.44916">
        <ele>61.12958</ele>
        <time>2016-06-09T11:01:01Z</time>
      </trkpt>
      <trkpt lat="48.87081" lon="-0.44932">
        <ele>61.17247</ele>
        <time>2016-06-09T11:01:11Z</time>
      </trkpt>
      <trkpt lat="48.87079" lon="-0.44937">
        <ele>61.17247</ele>
        <time>2016-06-09T11:01:16Z</time>
      </trkpt>
      <trkpt lat="48.87081" lon="-0.44957">
        <ele>61.147945</ele>
        <time>2016-06-09T11:01:26Z</time>
      </trkpt>
      <trkpt lat="48.87082" lon="-0.44967">
        <ele>61.147945</ele>
        <time>2016-06-09T11:01:31Z</time>
      </trkpt>
      <trkpt lat="48.8708" lon="-0.44984">
        <ele>60.62871</ele>
        <time>2016-06-09T11:01:41Z</time>
      </trkpt>
      <trkpt lat="48.87081" lon="-0.44988">
        <ele>60.62871</ele>
        <time>2016-06-09T11:01:46Z</time>
      </trkpt>
      <trkpt lat="48.87084" lon="-0.45003">
        <ele>59.73902</ele>
        <time>2016-06-09T11:01:56Z</time>
      </trkpt>
      <trkpt lat="48.87084" lon="-0.45008">
        <ele>59.73902</ele>
        <time>2016-06-09T11:02:01Z</time>
      </trkpt>
      <trkpt lat="48.87081" lon="-0.45025">
        <ele>59.488495</ele>
        <time>2016-06-09T11:02:11Z</time>
      </trkpt>
      <trkpt lat="48.87081" lon="-0.45041">
        <ele>59.643463</ele>
        <time>2016-06-09T11:02:16Z</time>
      </trkpt>
      <trkpt lat="48.87084" lon="-0.45063">
        <ele>60.9374</ele>
        <time>2016-06-09T11:02:26Z</time>
      </trkpt>
      <trkpt lat="48.87084" lon="-0.45067">
        <ele>60.9374</ele>
        <time>2016-06-09T11:02:31Z</time>
      </trkpt>
      <trkpt lat="48.87084" lon="-0.45068">
        <ele>60.9374</ele>
        <time>2016-06-09T11:02:36Z</time>
      </trkpt>
      <trkpt lat="48.87086" lon="-0.45069">
        <ele>60.9374</ele>
        <time>2016-06-09T11:02:41Z</time>
      </trkpt>
      <trkpt lat="48.87087" lon="-0.45068">
        <ele>60.9374</ele>
        <time>2016-06-09T11:02:46Z</time>
      </trkpt>
      <trkpt lat="48.87087" lon="-0.45068">
        <ele>60.9374</ele>
        <time>2016-06-09T11:02:51Z</time>
      </trkpt>
      <trkpt lat="48.87087" lon="-0.45068">
        <ele>60.9374</ele>
        <time>2016-06-09T11:02:56Z</time>
      </trkpt>
      <trkpt lat="48.87084" lon="-0.45071">
        <ele>61.567963</ele>
        <time>2016-06-09T11:03:06Z</time>
      </trkpt>
      <trkpt lat="48.87078" lon="-0.45072">
        <ele>61.567963</ele>
        <time>2016-06-09T11:03:11Z</time>
      </trkpt>
      <trkpt lat="48.87075" lon="-0.45075">
        <ele>62.46105</ele>
        <time>2016-06-09T11:03:16Z</time>
      </trkpt>
      <trkpt lat="48.8707" lon="-0.45079">
        <ele>62.46105</ele>
        <time>2016-06-09T11:03:21Z</time>
      </trkpt>
      <trkpt lat="48.8707" lon="-0.45085">
        <ele>62.715645</ele>
        <time>2016-06-09T11:03:26Z</time>
      </trkpt>
      <trkpt lat="48.87063" lon="-0.45089">
        <ele>62.715645</ele>
        <time>2016-06-09T11:03:31Z</time>
      </trkpt>
      <trkpt lat="48.87064" lon="-0.451">
        <ele>62.493073</ele>
        <time>2016-06-09T11:03:41Z</time>
      </trkpt>
      <trkpt lat="48.87062" lon="-0.451">
        <ele>62.493073</ele>
        <time>2016-06-09T11:03:46Z</time>
      </trkpt>
      <trkpt lat="48.8706" lon="-0.4511">
        <ele>62.493073</ele>
        <time>2016-06-09T11:04:01Z</time>
      </trkpt>
      <trkpt lat="48.87059" lon="-0.45114">
        <ele>62.808823</ele>
        <time>2016-06-09T11:04:06Z</time>
      </trkpt>
      <trkpt lat="48.87057" lon="-0.45123">
        <ele>62.808823</ele>
        <time>2016-06-09T11:04:16Z</time>
      </trkpt>
      <trkpt lat="48.87057" lon="-0.45128">
        <ele>63.78084</ele>
        <time>2016-06-09T11:04:21Z</time>
      </trkpt>
      <trkpt lat="48.87056" lon="-0.45139">
        <ele>63.78084</ele>
        <time>2016-06-09T11:04:31Z</time>
      </trkpt>
      <trkpt lat="48.87056" lon="-0.45143">
        <ele>64.83925</ele>
        <time>2016-06-09T11:04:36Z</time>
      </trkpt>
      <trkpt lat="48.87053" lon="-0.45153">
        <ele>64.83925</ele>
        <time>2016-06-09T11:04:46Z</time>
      </trkpt>
      <trkpt lat="48.87051" lon="-0.45157">
        <ele>65.426994</ele>
        <time>2016-06-09T11:04:51Z</time>
      </trkpt>
      <trkpt lat="48.87053" lon="-0.45173">
        <ele>66.32628</ele>
        <time>2016-06-09T11:05:01Z</time>
      </trkpt>
      <trkpt lat="48.87051" lon="-0.4518">
        <ele>66.32628</ele>
        <time>2016-06-09T11:05:06Z</time>
      </trkpt>
      <trkpt lat="48.87052" lon="-0.45195">
        <ele>66.54606</ele>
        <time>2016-06-09T11:05:16Z</time>
      </trkpt>
      <trkpt lat="48.87053" lon="-0.45204">
        <ele>66.54606</ele>
        <time>2016-06-09T11:05:21Z</time>
      </trkpt>
      <trkpt lat="48.87051" lon="-0.45218">
        <ele>66.78409</ele>
        <time>2016-06-09T11:05:31Z</time>
      </trkpt>
      <trkpt lat="48.87052" lon="-0.45224">
        <ele>66.78409</ele>
        <time>2016-06-09T11:05:36Z</time>
      </trkpt>
      <trkpt lat="48.8705" lon="-0.45239">
        <ele>67.240105</ele>
        <time>2016-06-09T11:05:46Z</time>
      </trkpt>
      <trkpt lat="48.87052" lon="-0.45245">
        <ele>67.240105</ele>
        <time>2016-06-09T11:05:51Z</time>
      </trkpt>
      <trkpt lat="48.87051" lon="-0.45263">
        <ele>66.80157</ele>
        <time>2016-06-09T11:06:01Z</time>
      </trkpt>
      <trkpt lat="48.8705" lon="-0.45273">
        <ele>66.80157</ele>
        <time>2016-06-09T11:06:06Z</time>
      </trkpt>
      <trkpt lat="48.87049" lon="-0.45285">
        <ele>66.70276</ele>
        <time>2016-06-09T11:06:21Z</time>
      </trkpt>
      <trkpt lat="48.87048" lon="-0.45285">
        <ele>66.70276</ele>
        <time>2016-06-09T11:06:26Z</time>
      </trkpt>
      <trkpt lat="48.87049" lon="-0.45285">
        <ele>66.70276</ele>
        <time>2016-06-09T11:06:36Z</time>
      </trkpt>
      <trkpt lat="48.87049" lon="-0.45285">
        <ele>66.70276</ele>
        <time>2016-06-09T11:06:41Z</time>
      </trkpt>
      <trkpt lat="48.87049" lon="-0.45289">
        <ele>66.70276</ele>
        <time>2016-06-09T11:06:51Z</time>
      </trkpt>
      <trkpt lat="48.87045" lon="-0.45304">
        <ele>66.35703</ele>
        <time>2016-06-09T11:06:56Z</time>
      </trkpt>
      <trkpt lat="48.87048" lon="-0.45323">
        <ele>66.86442</ele>
        <time>2016-06-09T11:07:06Z</time>
      </trkpt>
      <trkpt lat="48.87053" lon="-0.4533">
        <ele>66.86442</ele>
        <time>2016-06-09T11:07:11Z</time>
      </trkpt>
      <trkpt lat="48.87051" lon="-0.45353">
        <ele>67.93036</ele>
        <time>2016-06-09T11:07:21Z</time>
      </trkpt>
      <trkpt lat="48.87053" lon="-0.45362">
        <ele>67.93036</ele>
        <time>2016-06-09T11:07:26Z</time>
      </trkpt>
      <trkpt lat="48.87054" lon="-0.45379">
        <ele>68.603065</ele>
        <time>2016-06-09T11:07:36Z</time>
      </trkpt>
      <trkpt lat="48.87057" lon="-0.45383">
        <ele>68.603065</ele>
        <time>2016-06-09T11:07:41Z</time>
      </trkpt>
      <trkpt lat="48.87058" lon="-0.45402">
        <ele>68.67911</ele>
        <time>2016-06-09T11:07:51Z</time>
      </trkpt>
      <trkpt lat="48.87062" lon="-0.45402">
        <ele>68.67911</ele>
        <time>2016-06-09T11:07:56Z</time>
      </trkpt>
      <trkpt lat="48.87064" lon="-0.45411">
        <ele>68.37524</ele>
        <time>2016-06-09T11:08:01Z</time>
      </trkpt>
      <trkpt lat="48.87065" lon="-0.45423">
        <ele>68.37524</ele>
        <time>2016-06-09T11:08:06Z</time>
      </trkpt>
      <trkpt lat="48.87066" lon="-0.45435">
        <ele>68.16716</ele>
        <time>2016-06-09T11:08:11Z</time>
      </trkpt>
      <trkpt lat="48.87068" lon="-0.45444">
        <ele>68.16716</ele>
        <time>2016-06-09T11:08:16Z</time>
      </trkpt>
      <trkpt lat="48.87071" lon="-0.45453">
        <ele>68.005424</ele>
        <time>2016-06-09T11:08:21Z</time>
      </trkpt>
      <trkpt lat="48.87073" lon="-0.45468">
        <ele>67.541466</ele>
        <time>2016-06-09T11:08:31Z</time>
      </trkpt>
      <trkpt lat="48.87074" lon="-0.45478">
        <ele>67.541466</ele>
        <time>2016-06-09T11:08:36Z</time>
      </trkpt>
      <trkpt lat="48.87077" lon="-0.45494">
        <ele>67.044044</ele>
        <time>2016-06-09T11:08:46Z</time>
      </trkpt>
      <trkpt lat="48.87079" lon="-0.45503">
        <ele>67.044044</ele>
        <time>2016-06-09T11:08:51Z</time>
      </trkpt>
      <trkpt lat="48.87084" lon="-0.45524">
        <ele>66.430824</ele>
        <time>2016-06-09T11:09:06Z</time>
      </trkpt>
      <trkpt lat="48.87082" lon="-0.45537">
        <ele>66.430824</ele>
        <time>2016-06-09T11:09:11Z</time>
      </trkpt>
      <trkpt lat="48.87081" lon="-0.45553">
        <ele>66.404045</ele>
        <time>2016-06-09T11:09:21Z</time>
      </trkpt>
      <trkpt lat="48.87083" lon="-0.45555">
        <ele>66.404045</ele>
        <time>2016-06-09T11:09:26Z</time>
      </trkpt>
      <trkpt lat="48.87084" lon="-0.45556">
        <ele>66.404045</ele>
        <time>2016-06-09T11:09:36Z</time>
      </trkpt>
      <trkpt lat="48.87086" lon="-0.45561">
        <ele>66.404045</ele>
        <time>2016-06-09T11:09:41Z</time>
      </trkpt>
      <trkpt lat="48.87086" lon="-0.45579">
        <ele>66.45982</ele>
        <time>2016-06-09T11:09:51Z</time>
      </trkpt>
      <trkpt lat="48.8709" lon="-0.45583">
        <ele>66.45982</ele>
        <time>2016-06-09T11:09:56Z</time>
      </trkpt>
      <trkpt lat="48.8709" lon="-0.45603">
        <ele>66.779564</ele>
        <time>2016-06-09T11:10:06Z</time>
      </trkpt>
      <trkpt lat="48.87094" lon="-0.45611">
        <ele>66.779564</ele>
        <time>2016-06-09T11:10:11Z</time>
      </trkpt>
      <trkpt lat="48.87094" lon="-0.45635">
        <ele>67.746765</ele>
        <time>2016-06-09T11:10:21Z</time>
      </trkpt>
      <trkpt lat="48.87093" lon="-0.45647">
        <ele>67.746765</ele>
        <time>2016-06-09T11:10:26Z</time>
      </trkpt>
      <trkpt lat="48.87095" lon="-0.45664">
        <ele>68.461174</ele>
        <time>2016-06-09T11:10:36Z</time>
      </trkpt>
      <trkpt lat="48.87097" lon="-0.4567">
        <ele>68.461174</ele>
        <time>2016-06-09T11:10:41Z</time>
      </trkpt>
      <trkpt lat="48.87101" lon="-0.45687">
        <ele>68.91082</ele>
        <time>2016-06-09T11:10:51Z</time>
      </trkpt>
      <trkpt lat="48.87102" lon="-0.45697">
        <ele>68.91082</ele>
        <time>2016-06-09T11:10:56Z</time>
      </trkpt>
      <trkpt lat="48.87098" lon="-0.45721">
        <ele>69.56093</ele>
        <time>2016-06-09T11:11:06Z</time>
      </trkpt>
      <trkpt lat="48.87098" lon="-0.45731">
        <ele>69.56093</ele>
        <time>2016-06-09T11:11:11Z</time>
      </trkpt>
      <trkpt lat="48.87114" lon="-0.45741">
        <ele>70.8564</ele>
        <time>2016-06-09T11:11:21Z</time>
      </trkpt>
      <trkpt lat="48.87111" lon="-0.45753">
        <ele>70.8564</ele>
        <time>2016-06-09T11:11:26Z</time>
      </trkpt>
      <trkpt lat="48.8711" lon="-0.45783">
        <ele>71.867455</ele>
        <time>2016-06-09T11:11:41Z</time>
      </trkpt>
      <trkpt lat="48.87112" lon="-0.4579">
        <ele>71.867455</ele>
        <time>2016-06-09T11:11:46Z</time>
      </trkpt>
      <trkpt lat="48.87111" lon="-0.45813">
        <ele>72.612495</ele>
        <time>2016-06-09T11:11:56Z</time>
      </trkpt>
      <trkpt lat="48.87111" lon="-0.45822">
        <ele>72.612495</ele>
        <time>2016-06-09T11:12:01Z</time>
      </trkpt>
      <trkpt lat="48.87118" lon="-0.45833">
        <ele>72.72024</ele>
        <time>2016-06-09T11:12:11Z</time>
      </trkpt>
      <trkpt lat="48.8712" lon="-0.45843">
        <ele>72.72024</ele>
        <time>2016-06-09T11:12:16Z</time>
      </trkpt>
      <trkpt lat="48.87124" lon="-0.45853">
        <ele>72.7276</ele>
        <time>2016-06-09T11:12:26Z</time>
      </trkpt>
      <trkpt lat="48.87125" lon="-0.45865">
        <ele>72.7276</ele>
        <time>2016-06-09T11:12:31Z</time>
      </trkpt>
      <trkpt lat="48.87125" lon="-0.4588">
        <ele>73.00263</ele>
        <time>2016-06-09T11:12:41Z</time>
      </trkpt>
      <trkpt lat="48.87127" lon="-0.45879">
        <ele>73.00263</ele>
        <time>2016-06-09T11:12:46Z</time>
      </trkpt>
      <trkpt lat="48.87128" lon="-0.45877">
        <ele>73.00263</ele>
        <time>2016-06-09T11:12:56Z</time>
      </trkpt>
      <trkpt lat="48.87128" lon="-0.45877">
        <ele>73.00263</ele>
        <time>2016-06-09T11:13:01Z</time>
      </trkpt>
      <trkpt lat="48.87128" lon="-0.45877">
        <ele>73.00263</ele>
        <time>2016-06-09T11:13:11Z</time>
      </trkpt>
      <trkpt lat="48.87128" lon="-0.45877">
        <ele>73.00263</ele>
        <time>2016-06-09T11:13:16Z</time>
      </trkpt>
      <trkpt lat="48.87128" lon="-0.45877">
        <ele>73.00263</ele>
        <time>2016-06-09T11:13:26Z</time>
      </trkpt>
      <trkpt lat="48.87128" lon="-0.45877">
        <ele>73.00263</ele>
        <time>2016-06-09T11:13:31Z</time>
      </trkpt>
      <trkpt lat="48.87134" lon="-0.45908">
        <ele>72.113075</ele>
        <time>2016-06-09T11:13:41Z</time>
      </trkpt>
      <trkpt lat="48.8714" lon="-0.4592">
        <ele>72.09297</ele>
        <time>2016-06-09T11:13:46Z</time>
      </trkpt>
      <trkpt lat="48.87148" lon="-0.45936">
        <ele>72.403435</ele>
        <time>2016-06-09T11:13:56Z</time>
      </trkpt>
      <trkpt lat="48.87149" lon="-0.45949">
        <ele>72.403435</ele>
        <time>2016-06-09T11:14:01Z</time>
      </trkpt>
      <trkpt lat="48.87157" lon="-0.45959">
        <ele>72.356926</ele>
        <time>2016-06-09T11:14:11Z</time>
      </trkpt>
      <trkpt lat="48.87158" lon="-0.45967">
        <ele>72.356926</ele>
        <time>2016-06-09T11:14:16Z</time>
      </trkpt>
      <trkpt lat="48.87161" lon="-0.45974">
        <ele>72.0812</ele>
        <time>2016-06-09T11:14:21Z</time>
      </trkpt>
      <trkpt lat="48.87165" lon="-0.45979">
        <ele>72.0812</ele>
        <time>2016-06-09T11:14:26Z</time>
      </trkpt>
      <trkpt lat="48.87166" lon="-0.4599">
        <ele>71.92586</ele>
        <time>2016-06-09T11:14:31Z</time>
      </trkpt>
      <trkpt lat="48.87168" lon="-0.46002">
        <ele>71.92586</ele>
        <time>2016-06-09T11:14:36Z</time>
      </trkpt>
      <trkpt lat="48.87174" lon="-0.46004">
        <ele>72.38743</ele>
        <time>2016-06-09T11:14:41Z</time>
      </trkpt>
      <trkpt lat="48.87181" lon="-0.4602">
        <ele>73.11722</ele>
        <time>2016-06-09T11:14:51Z</time>
      </trkpt>
      <trkpt lat="48.87182" lon="-0.46032">
        <ele>73.11722</ele>
        <time>2016-06-09T11:14:56Z</time>
      </trkpt>
      <trkpt lat="48.87187" lon="-0.4605">
        <ele>73.4167</ele>
        <time>2016-06-09T11:15:06Z</time>
      </trkpt>
      <trkpt lat="48.87187" lon="-0.4606">
        <ele>73.4167</ele>
        <time>2016-06-09T11:15:11Z</time>
      </trkpt>
      <trkpt lat="48.87191" lon="-0.46076">
        <ele>73.74954</ele>
        <time>2016-06-09T11:15:21Z</time>
      </trkpt>
      <trkpt lat="48.87195" lon="-0.4608">
        <ele>73.74954</ele>
        <time>2016-06-09T11:15:26Z</time>
      </trkpt>
      <trkpt lat="48.87197" lon="-0.46094">
        <ele>73.08974</ele>
        <time>2016-06-09T11:15:36Z</time>
      </trkpt>
      <trkpt lat="48.87199" lon="-0.461">
        <ele>73.08974</ele>
        <time>2016-06-09T11:15:41Z</time>
      </trkpt>
      <trkpt lat="48.872" lon="-0.46128">
        <ele>72.62227</ele>
        <time>2016-06-09T11:15:51Z</time>
      </trkpt>
      <trkpt lat="48.87198" lon="-0.46137">
        <ele>72.62227</ele>
        <time>2016-06-09T11:15:56Z</time>
      </trkpt>
      <trkpt lat="48.87201" lon="-0.46148">
        <ele>71.28289</ele>
        <time>2016-06-09T11:16:06Z</time>
      </trkpt>
      <trkpt lat="48.872" lon="-0.46158">
        <ele>71.28289</ele>
        <time>2016-06-09T11:16:11Z</time>
      </trkpt>
      <trkpt lat="48.87198" lon="-0.46182">
        <ele>70.79724</ele>
        <time>2016-06-09T11:16:21Z</time>
      </trkpt>
      <trkpt lat="48.87199" lon="-0.4619">
        <ele>70.79724</ele>
        <time>2016-06-09T11:16:26Z</time>
      </trkpt>
      <trkpt lat="48.87196" lon="-0.46213">
        <ele>69.99486</ele>
        <time>2016-06-09T11:16:36Z</time>
      </trkpt>
      <trkpt lat="48.87199" lon="-0.46213">
        <ele>69.99486</ele>
        <time>2016-06-09T11:16:41Z</time>
      </trkpt>
      <trkpt lat="48.87198" lon="-0.46228">
        <ele>68.18123</ele>
        <time>2016-06-09T11:16:46Z</time>
      </trkpt>
      <trkpt lat="48.87194" lon="-0.46242">
        <ele>66.68998</ele>
        <time>2016-06-09T11:16:51Z</time>
      </trkpt>
      <trkpt lat="48.87194" lon="-0.46244">
        <ele>66.68998</ele>
        <time>2016-06-09T11:16:56Z</time>
      </trkpt>
      <trkpt lat="48.87196" lon="-0.46248">
        <ele>66.68998</ele>
        <time>2016-06-09T11:17:01Z</time>
      </trkpt>
      <trkpt lat="48.87199" lon="-0.46266">
        <ele>66.03527</ele>
        <time>2016-06-09T11:17:11Z</time>
      </trkpt>
      <trkpt lat="48.87196" lon="-0.4628">
        <ele>65.75437</ele>
        <time>2016-06-09T11:17:16Z</time>
      </trkpt>
      <trkpt lat="48.87197" lon="-0.46302">
        <ele>65.97949</ele>
        <time>2016-06-09T11:17:26Z</time>
      </trkpt>
      <trkpt lat="48.87196" lon="-0.4631">
        <ele>65.97949</ele>
        <time>2016-06-09T11:17:31Z</time>
      </trkpt>
      <trkpt lat="48.87195" lon="-0.46325">
        <ele>66.09666</ele>
        <time>2016-06-09T11:17:41Z</time>
      </trkpt>
      <trkpt lat="48.87196" lon="-0.46326">
        <ele>66.09666</ele>
        <time>2016-06-09T11:17:46Z</time>
      </trkpt>
      <trkpt lat="48.87196" lon="-0.46324">
        <ele>66.09666</ele>
        <time>2016-06-09T11:17:56Z</time>
      </trkpt>
      <trkpt lat="48.87193" lon="-0.46333">
        <ele>66.09666</ele>
        <time>2016-06-09T11:18:01Z</time>
      </trkpt>
      <trkpt lat="48.87195" lon="-0.46349">
        <ele>65.393166</ele>
        <time>2016-06-09T11:18:11Z</time>
      </trkpt>
      <trkpt lat="48.87192" lon="-0.4636">
        <ele>65.393166</ele>
        <time>2016-06-09T11:18:16Z</time>
      </trkpt>
      <trkpt lat="48.87197" lon="-0.46373">
        <ele>64.925835</ele>
        <time>2016-06-09T11:18:26Z</time>
      </trkpt>
      <trkpt lat="48.87196" lon="-0.46381">
        <ele>64.925835</ele>
        <time>2016-06-09T11:18:31Z</time>
      </trkpt>
      <trkpt lat="48.87194" lon="-0.46403">
        <ele>64.606705</ele>
        <time>2016-06-09T11:18:41Z</time>
      </trkpt>
      <trkpt lat="48.87192" lon="-0.46413">
        <ele>64.606705</ele>
        <time>2016-06-09T11:18:46Z</time>
      </trkpt>
      <trkpt lat="48.87187" lon="-0.46432">
        <ele>64.36823</ele>
        <time>2016-06-09T11:18:56Z</time>
      </trkpt>
      <trkpt lat="48.87186" lon="-0.46441">
        <ele>64.36823</ele>
        <time>2016-06-09T11:19:01Z</time>
      </trkpt>
      <trkpt lat="48.87184" lon="-0.46465">
        <ele>64.26285</ele>
        <time>2016-06-09T11:19:16Z</time>
      </trkpt>
      <trkpt lat="48.87181" lon="-0.46477">
        <ele>64.26285</ele>
        <time>2016-06-09T11:19:21Z</time>
      </trkpt>
      <trkpt lat="48.87177" lon="-0.46497">
        <ele>65.016045</ele>
        <time>2016-06-09T11:19:31Z</time>
      </trkpt>
      <trkpt lat="48.87175" lon="-0.46505">
        <ele>65.016045</ele>
        <time>2016-06-09T11:19:36Z</time>
      </trkpt>
      <trkpt lat="48.87181" lon="-0.46517">
        <ele>65.53939</ele>
        <time>2016-06-09T11:19:46Z</time>
      </trkpt>
      <trkpt lat="48.87179" lon="-0.4652">
        <ele>65.53939</ele>
        <time>2016-06-09T11:19:51Z</time>
      </trkpt>
      <trkpt lat="48.87175" lon="-0.46531">
        <ele>65.5312</ele>
        <time>2016-06-09T11:20:01Z</time>
      </trkpt>
      <trkpt lat="48.87174" lon="-0.46538">
        <ele>65.5312</ele>
        <time>2016-06-09T11:20:06Z</time>
      </trkpt>
      <trkpt lat="48.87167" lon="-0.46551">
        <ele>65.26098</ele>
        <time>2016-06-09T11:20:16Z</time>
      </trkpt>
      <trkpt lat="48.87165" lon="-0.46557">
        <ele>65.26098</ele>
        <time>2016-06-09T11:20:21Z</time>
      </trkpt>
      <trkpt lat="48.87161" lon="-0.46571">
        <ele>65.195366</ele>
        <time>2016-06-09T11:20:31Z</time>
      </trkpt>
      <trkpt lat="48.87159" lon="-0.46577">
        <ele>65.195366</ele>
        <time>2016-06-09T11:20:36Z</time>
      </trkpt>
      <trkpt lat="48.87151" lon="-0.46593">
        <ele>65.074356</ele>
        <time>2016-06-09T11:20:46Z</time>
      </trkpt>
      <trkpt lat="48.87145" lon="-0.46601">
        <ele>65.074356</ele>
        <time>2016-06-09T11:20:51Z</time>
      </trkpt>
      <trkpt lat="48.87144" lon="-0.46606">
        <ele>64.801285</ele>
        <time>2016-06-09T11:21:06Z</time>
      </trkpt>
      <trkpt lat="48.87141" lon="-0.46612">
        <ele>64.801285</ele>
        <time>2016-06-09T11:21:11Z</time>
      </trkpt>
      <trkpt lat="48.87132" lon="-0.46628">
        <ele>64.14291</ele>
        <time>2016-06-09T11:21:21Z</time>
      </trkpt>
      <trkpt lat="48.8713" lon="-0.46633">
        <ele>64.14291</ele>
        <time>2016-06-09T11:21:26Z</time>
      </trkpt>
      <trkpt lat="48.87118" lon="-0.46651">
        <ele>63.460575</ele>
        <time>2016-06-09T11:21:36Z</time>
      </trkpt>
      <trkpt lat="48.87115" lon="-0.46659">
        <ele>63.460575</ele>
        <time>2016-06-09T11:21:41Z</time>
      </trkpt>
      <trkpt lat="48.87112" lon="-0.46676">
        <ele>63.20446</ele>
        <time>2016-06-09T11:21:51Z</time>
      </trkpt>
      <trkpt lat="48.87112" lon="-0.46677">
        <ele>63.20446</ele>
        <time>2016-06-09T11:21:56Z</time>
      </trkpt>
      <trkpt lat="48.87113" lon="-0.46696">
        <ele>63.32927</ele>
        <time>2016-06-09T11:22:06Z</time>
      </trkpt>
      <trkpt lat="48.87113" lon="-0.46705">
        <ele>63.32927</ele>
        <time>2016-06-09T11:22:11Z</time>
      </trkpt>
      <trkpt lat="48.87112" lon="-0.46723">
        <ele>63.229923</ele>
        <time>2016-06-09T11:22:21Z</time>
      </trkpt>
      <trkpt lat="48.87112" lon="-0.46733">
        <ele>63.229923</ele>
        <time>2016-06-09T11:22:26Z</time>
      </trkpt>
      <trkpt lat="48.87109" lon="-0.46752">
        <ele>63.009293</ele>
        <time>2016-06-09T11:22:36Z</time>
      </trkpt>
      <trkpt lat="48.87106" lon="-0.46759">
        <ele>63.009293</ele>
        <time>2016-06-09T11:22:41Z</time>
      </trkpt>
      <trkpt lat="48.87103" lon="-0.46789">
        <ele>63.483578</ele>
        <time>2016-06-09T11:22:56Z</time>
      </trkpt>
      <trkpt lat="48.87099" lon="-0.46794">
        <ele>63.483578</ele>
        <time>2016-06-09T11:23:01Z</time>
      </trkpt>
      <trkpt lat="48.87099" lon="-0.46811">
        <ele>64.65767</ele>
        <time>2016-06-09T11:23:11Z</time>
      </trkpt>
      <trkpt lat="48.87096" lon="-0.46819">
        <ele>64.65767</ele>
        <time>2016-06-09T11:23:16Z</time>
      </trkpt>
      <trkpt lat="48.87084" lon="-0.46834">
        <ele>66.04414</ele>
        <time>2016-06-09T11:23:26Z</time>
      </trkpt>
      <trkpt lat="48.87079" lon="-0.46841">
        <ele>66.04414</ele>
        <time>2016-06-09T11:23:31Z</time>
      </trkpt>
      <trkpt lat="48.87072" lon="-0.46844">
        <ele>67.33492</ele>
        <time>2016-06-09T11:23:41Z</time>
      </trkpt>
      <trkpt lat="48.87072" lon="-0.46845">
        <ele>67.33492</ele>
        <time>2016-06-09T11:23:46Z</time>
      </trkpt>
      <trkpt lat="48.87072" lon="-0.46851">
        <ele>67.33492</ele>
        <time>2016-06-09T11:23:56Z</time>
      </trkpt>
      <trkpt lat="48.87072" lon="-0.46852">
        <ele>67.33492</ele>
        <time>2016-06-09T11:24:01Z</time>
      </trkpt>
      <trkpt lat="48.87074" lon="-0.46856">
        <ele>67.33492</ele>
        <time>2016-06-09T11:24:11Z</time>
      </trkpt>
      <trkpt lat="48.87073" lon="-0.46865">
        <ele>68.403336</ele>
        <time>2016-06-09T11:24:16Z</time>
      </trkpt>
      <trkpt lat="48.87073" lon="-0.46879">
        <ele>69.363235</ele>
        <time>2016-06-09T11:24:26Z</time>
      </trkpt>
      <trkpt lat="48.87072" lon="-0.46885">
        <ele>69.363235</ele>
        <time>2016-06-09T11:24:31Z</time>
      </trkpt>
      <trkpt lat="48.8707" lon="-0.46883">
        <ele>69.363235</ele>
        <time>2016-06-09T11:24:41Z</time>
      </trkpt>
      <trkpt lat="48.87071" lon="-0.4688">
        <ele>69.363235</ele>
        <time>2016-06-09T11:24:46Z</time>
      </trkpt>
      <trkpt lat="48.87072" lon="-0.46888">
        <ele>69.88814</ele>
        <time>2016-06-09T11:24:56Z</time>
      </trkpt>
      <trkpt lat="48.87071" lon="-0.46895">
        <ele>69.88814</ele>
        <time>2016-06-09T11:25:01Z</time>
      </trkpt>
      <trkpt lat="48.87064" lon="-0.46921">
        <ele>71.1323</ele>
        <time>2016-06-09T11:25:16Z</time>
      </trkpt>
      <trkpt lat="48.87064" lon="-0.4693">
        <ele>71.1323</ele>
        <time>2016-06-09T11:25:21Z</time>
      </trkpt>
      <trkpt lat="48.87064" lon="-0.4695">
        <ele>72.60683</ele>
        <time>2016-06-09T11:25:31Z</time>
      </trkpt>
      <trkpt lat="48.87064" lon="-0.46961">
        <ele>72.60683</ele>
        <time>2016-06-09T11:25:36Z</time>
      </trkpt>
      <trkpt lat="48.87065" lon="-0.4698">
        <ele>74.20399</ele>
        <time>2016-06-09T11:25:46Z</time>
      </trkpt>
      <trkpt lat="48.87067" lon="-0.46987">
        <ele>74.20399</ele>
        <time>2016-06-09T11:25:51Z</time>
      </trkpt>
      <trkpt lat="48.87067" lon="-0.47">
        <ele>75.794876</ele>
        <time>2016-06-09T11:26:01Z</time>
      </trkpt>
      <trkpt lat="48.87067" lon="-0.47008">
        <ele>75.794876</ele>
        <time>2016-06-09T11:26:06Z</time>
      </trkpt>
      <trkpt lat="48.87069" lon="-0.47017">
        <ele>77.05837</ele>
        <time>2016-06-09T11:26:11Z</time>
      </trkpt>
      <trkpt lat="48.87067" lon="-0.47023">
        <ele>77.05837</ele>
        <time>2016-06-09T11:26:16Z</time>
      </trkpt>
      <trkpt lat="48.87066" lon="-0.47026">
        <ele>77.05837</ele>
        <time>2016-06-09T11:26:21Z</time>
      </trkpt>
      <trkpt lat="48.87062" lon="-0.47038">
        <ele>78.375275</ele>
        <time>2016-06-09T11:26:26Z</time>
      </trkpt>
      <trkpt lat="48.87059" lon="-0.47046">
        <ele>78.375275</ele>
        <time>2016-06-09T11:26:31Z</time>
      </trkpt>
      <trkpt lat="48.8705" lon="-0.47073">
        <ele>79.622765</ele>
        <time>2016-06-09T11:26:46Z</time>
      </trkpt>
      <trkpt lat="48.87047" lon="-0.47081">
        <ele>79.622765</ele>
        <time>2016-06-09T11:26:51Z</time>
      </trkpt>
      <trkpt lat="48.87044" lon="-0.47097">
        <ele>80.74496</ele>
        <time>2016-06-09T11:27:01Z</time>
      </trkpt>
      <trkpt lat="48.87043" lon="-0.47106">
        <ele>80.74496</ele>
        <time>2016-06-09T11:27:06Z</time>
      </trkpt>
      <trkpt lat="48.87043" lon="-0.47126">
        <ele>82.15169</ele>
        <time>2016-06-09T11:27:16Z</time>
      </trkpt>
      <trkpt lat="48.87044" lon="-0.47138">
        <ele>82.15169</ele>
        <time>2016-06-09T11:27:21Z</time>
      </trkpt>
      <trkpt lat="48.8705" lon="-0.47154">
        <ele>84.43814</ele>
        <time>2016-06-09T11:27:31Z</time>
      </trkpt>
      <trkpt lat="48.8705" lon="-0.4716">
        <ele>84.43814</ele>
        <time>2016-06-09T11:27:36Z</time>
      </trkpt>
      <trkpt lat="48.87052" lon="-0.47162">
        <ele>84.43814</ele>
        <time>2016-06-09T11:27:46Z</time>
      </trkpt>
      <trkpt lat="48.87053" lon="-0.47162">
        <ele>84.43814</ele>
        <time>2016-06-09T11:27:51Z</time>
      </trkpt>
      <trkpt lat="48.87053" lon="-0.47163">
        <ele>84.43814</ele>
        <time>2016-06-09T11:28:01Z</time>
      </trkpt>
      <trkpt lat="48.87053" lon="-0.47163">
        <ele>84.43814</ele>
        <time>2016-06-09T11:28:06Z</time>
      </trkpt>
      <trkpt lat="48.87053" lon="-0.47163">
        <ele>84.43814</ele>
        <time>2016-06-09T11:28:11Z</time>
      </trkpt>
      <trkpt lat="48.87053" lon="-0.47163">
        <ele>84.43814</ele>
        <time>2016-06-09T11:28:16Z</time>
      </trkpt>
      <trkpt lat="48.87053" lon="-0.47163">
        <ele>84.43814</ele>
        <time>2016-06-09T11:28:21Z</time>
      </trkpt>
      <trkpt lat="48.87053" lon="-0.47163">
        <ele>84.43814</ele>
        <time>2016-06-09T11:28:31Z</time>
      </trkpt>
      <trkpt lat="48.87053" lon="-0.47163">
        <ele>84.43814</ele>
        <time>2016-06-09T11:28:36Z</time>
      </trkpt>
      <trkpt lat="48.87054" lon="-0.47168">
        <ele>85.96291</ele>
        <time>2016-06-09T11:28:46Z</time>
      </trkpt>
      <trkpt lat="48.87055" lon="-0.47176">
        <ele>85.96291</ele>
        <time>2016-06-09T11:28:51Z</time>
      </trkpt>
      <trkpt lat="48.8707" lon="-0.47197">
        <ele>87.41233</ele>
        <time>2016-06-09T11:29:06Z</time>
      </trkpt>
      <trkpt lat="48.87077" lon="-0.47201">
        <ele>87.41233</ele>
        <time>2016-06-09T11:29:11Z</time>
      </trkpt>
      <trkpt lat="48.87093" lon="-0.47198">
        <ele>89.53789</ele>
        <time>2016-06-09T11:29:21Z</time>
      </trkpt>
      <trkpt lat="48.87099" lon="-0.47194">
        <ele>89.53789</ele>
        <time>2016-06-09T11:29:26Z</time>
      </trkpt>
      <trkpt lat="48.87107" lon="-0.47191">
        <ele>91.160675</ele>
        <time>2016-06-09T11:29:36Z</time>
      </trkpt>
      <trkpt lat="48.87109" lon="-0.47191">
        <ele>91.160675</ele>
        <time>2016-06-09T11:29:41Z</time>
      </trkpt>
      <trkpt lat="48.87109" lon="-0.4719">
        <ele>91.160675</ele>
        <time>2016-06-09T11:29:51Z</time>
      </trkpt>
      <trkpt lat="48.87109" lon="-0.4719">
        <ele>91.160675</ele>
        <time>2016-06-09T11:29:56Z</time>
      </trkpt>
      <trkpt lat="48.87109" lon="-0.4719">
        <ele>91.160675</ele>
        <time>2016-06-09T11:30:01Z</time>
      </trkpt>
      <trkpt lat="48.87109" lon="-0.4719">
        <ele>91.160675</ele>
        <time>2016-06-09T11:30:06Z</time>
      </trkpt>
      <trkpt lat="48.87112" lon="-0.47187">
        <ele>91.160675</ele>
        <time>2016-06-09T11:30:11Z</time>
      </trkpt>
      <trkpt lat="48.87124" lon="-0.47187">
        <ele>93.971245</ele>
        <time>2016-06-09T11:30:21Z</time>
      </trkpt>
      <trkpt lat="48.87126" lon="-0.47189">
        <ele>93.971245</ele>
        <time>2016-06-09T11:30:26Z</time>
      </trkpt>
      <trkpt lat="48.87125" lon="-0.4719">
        <ele>93.971245</ele>
        <time>2016-06-09T11:30:36Z</time>
      </trkpt>
      <trkpt lat="48.87128" lon="-0.472">
        <ele>97.428734</ele>
        <time>2016-06-09T11:30:41Z</time>
      </trkpt>
      <trkpt lat="48.8713" lon="-0.47209">
        <ele>97.428734</ele>
        <time>2016-06-09T11:30:51Z</time>
      </trkpt>
      <trkpt lat="48.87129" lon="-0.4722">
        <ele>101.3762</ele>
        <time>2016-06-09T11:30:56Z</time>
      </trkpt>
      <trkpt lat="48.87125" lon="-0.47232">
        <ele>101.3762</ele>
        <time>2016-06-09T11:31:06Z</time>
      </trkpt>
      <trkpt lat="48.87124" lon="-0.47237">
        <ele>105.04731</ele>
        <time>2016-06-09T11:31:11Z</time>
      </trkpt>
      <trkpt lat="48.8712" lon="-0.4725">
        <ele>108.32386</ele>
        <time>2016-06-09T11:31:26Z</time>
      </trkpt>
      <trkpt lat="48.87121" lon="-0.47252">
        <ele>108.32386</ele>
        <time>2016-06-09T11:31:31Z</time>
      </trkpt>
      <trkpt lat="48.87114" lon="-0.47272">
        <ele>111.256096</ele>
        <time>2016-06-09T11:31:41Z</time>
      </trkpt>
      <trkpt lat="48.87115" lon="-0.4728">
        <ele>111.256096</ele>
        <time>2016-06-09T11:31:46Z</time>
      </trkpt>
      <trkpt lat="48.87113" lon="-0.47294">
        <ele>114.352905</ele>
        <time>2016-06-09T11:31:56Z</time>
      </trkpt>
      <trkpt lat="48.87114" lon="-0.47302">
        <ele>114.352905</ele>
        <time>2016-06-09T11:32:01Z</time>
      </trkpt>
      <trkpt lat="48.8711" lon="-0.47316">
        <ele>117.48024</ele>
        <time>2016-06-09T11:32:11Z</time>
      </trkpt>
      <trkpt lat="48.87109" lon="-0.47323">
        <ele>117.48024</ele>
        <time>2016-06-09T11:32:16Z</time>
      </trkpt>
      <trkpt lat="48.87108" lon="-0.47336">
        <ele>121.36428</ele>
        <time>2016-06-09T11:32:21Z</time>
      </trkpt>
      <trkpt lat="48.87108" lon="-0.47338">
        <ele>121.36428</ele>
        <time>2016-06-09T11:32:26Z</time>
      </trkpt>
      <trkpt lat="48.87111" lon="-0.47345">
        <ele>121.36428</ele>
        <time>2016-06-09T11:32:31Z</time>
      </trkpt>
      <trkpt lat="48.8711" lon="-0.47347">
        <ele>121.36428</ele>
        <time>2016-06-09T11:32:41Z</time>
      </trkpt>
      <trkpt lat="48.87111" lon="-0.47354">
        <ele>124.98984</ele>
        <time>2016-06-09T11:32:46Z</time>
      </trkpt>
      <trkpt lat="48.87109" lon="-0.4736">
        <ele>124.98984</ele>
        <time>2016-06-09T11:32:56Z</time>
      </trkpt>
      <trkpt lat="48.87108" lon="-0.47362">
        <ele>124.98984</ele>
        <time>2016-06-09T11:33:01Z</time>
      </trkpt>
      <trkpt lat="48.87109" lon="-0.47366">
        <ele>124.98984</ele>
        <time>2016-06-09T11:33:11Z</time>
      </trkpt>
      <trkpt lat="48.87112" lon="-0.47375">
        <ele>128.109</ele>
        <time>2016-06-09T11:33:16Z</time>
      </trkpt>
      <trkpt lat="48.87117" lon="-0.47389">
        <ele>130.99802</ele>
        <time>2016-06-09T11:33:26Z</time>
      </trkpt>
      <trkpt lat="48.87119" lon="-0.47395">
        <ele>130.99802</ele>
        <time>2016-06-09T11:33:31Z</time>
      </trkpt>
      <trkpt lat="48.87122" lon="-0.47418">
        <ele>134.43262</ele>
        <time>2016-06-09T11:33:46Z</time>
      </trkpt>
      <trkpt lat="48.8712" lon="-0.4743">
        <ele>134.43262</ele>
        <time>2016-06-09T11:33:51Z</time>
      </trkpt>
      <trkpt lat="48.87123" lon="-0.47442">
        <ele>137.2567</ele>
        <time>2016-06-09T11:34:01Z</time>
      </trkpt>
      <trkpt lat="48.87124" lon="-0.47447">
        <ele>137.2567</ele>
        <time>2016-06-09T11:34:06Z</time>
      </trkpt>
      <trkpt lat="48.87124" lon="-0.47453">
        <ele>137.2567</ele>
        <time>2016-06-09T11:34:11Z</time>
      </trkpt>
      <trkpt lat="48.87126" lon="-0.47461">
        <ele>140.15924</ele>
        <time>2016-06-09T11:34:16Z</time>
      </trkpt>
      <trkpt lat="48.87124" lon="-0.47476">
        <ele>142.82742</ele>
        <time>2016-06-09T11:34:26Z</time>
      </trkpt>
      <trkpt lat="48.87127" lon="-0.47483">
        <ele>142.82742</ele>
        <time>2016-06-09T11:34:31Z</time>
      </trkpt>
      <trkpt lat="48.87127" lon="-0.47496">
        <ele>145.76491</ele>
        <time>2016-06-09T11:34:41Z</time>
      </trkpt>
      <trkpt lat="48.87126" lon="-0.47505">
        <ele>145.76491</ele>
        <time>2016-06-09T11:34:46Z</time>
      </trkpt>
      <trkpt lat="48.87126" lon="-0.47516">
        <ele>148.16965</ele>
        <time>2016-06-09T11:34:56Z</time>
      </trkpt>
      <trkpt lat="48.87127" lon="-0.47523">
        <ele>148.16965</ele>
        <time>2016-06-09T11:35:01Z</time>
      </trkpt>
      <trkpt lat="48.87129" lon="-0.47537">
        <ele>151.02953</ele>
        <time>2016-06-09T11:35:16Z</time>
      </trkpt>
      <trkpt lat="48.87128" lon="-0.47536">
        <ele>151.02953</ele>
        <time>2016-06-09T11:35:21Z</time>
      </trkpt>
      <trkpt lat="48.87129" lon="-0.47536">
        <ele>151.02953</ele>
        <time>2016-06-09T11:35:31Z</time>
      </trkpt>
      <trkpt lat="48.87129" lon="-0.47537">
        <ele>151.02953</ele>
        <time>2016-06-09T11:35:36Z</time>
      </trkpt>
      <trkpt lat="48.87129" lon="-0.47537">
        <ele>151.02953</ele>
        <time>2016-06-09T11:35:46Z</time>
      </trkpt>
      <trkpt lat="48.87129" lon="-0.47537">
        <ele>151.02953</ele>
        <time>2016-06-09T11:35:51Z</time>
      </trkpt>
      <trkpt lat="48.87129" lon="-0.47537">
        <ele>151.02953</ele>
        <time>2016-06-09T11:36:01Z</time>
      </trkpt>
      <trkpt lat="48.87129" lon="-0.47537">
        <ele>151.02953</ele>
        <time>2016-06-09T11:36:06Z</time>
      </trkpt>
      <trkpt lat="48.87129" lon="-0.47537">
        <ele>151.02953</ele>
        <time>2016-06-09T11:36:16Z</time>
      </trkpt>
      <trkpt lat="48.87129" lon="-0.47537">
        <ele>151.02953</ele>
        <time>2016-06-09T11:36:21Z</time>
      </trkpt>
      <trkpt lat="48.87129" lon="-0.47537">
        <ele>151.02953</ele>
        <time>2016-06-09T11:36:31Z</time>
      </trkpt>
      <trkpt lat="48.87129" lon="-0.47537">
        <ele>151.02953</ele>
        <time>2016-06-09T11:36:36Z</time>
      </trkpt>
      <trkpt lat="48.87129" lon="-0.47537">
        <ele>151.02953</ele>
        <time>2016-06-09T11:36:46Z</time>
      </trkpt>
      <trkpt lat="48.87129" lon="-0.47537">
        <ele>151.02953</ele>
        <time>2016-06-09T11:36:51Z</time>
      </trkpt>
      <trkpt lat="48.87129" lon="-0.47537">
        <ele>151.02953</ele>
        <time>2016-06-09T11:37:06Z</time>
      </trkpt>
      <trkpt lat="48.87129" lon="-0.47537">
        <ele>151.02953</ele>
        <time>2016-06-09T11:37:11Z</time>
      </trkpt>
      <trkpt lat="48.87129" lon="-0.47537">
        <ele>151.02953</ele>
        <time>2016-06-09T11:37:21Z</time>
      </trkpt>
      <trkpt lat="48.87129" lon="-0.47537">
        <ele>151.02953</ele>
        <time>2016-06-09T11:37:26Z</time>
      </trkpt>
      <trkpt lat="48.87129" lon="-0.47537">
        <ele>151.02953</ele>
        <time>2016-06-09T11:37:36Z</time>
      </trkpt>
      <trkpt lat="48.87129" lon="-0.47537">
        <ele>151.02953</ele>
        <time>2016-06-09T11:37:41Z</time>
      </trkpt>
      <trkpt lat="48.87129" lon="-0.47537">
        <ele>151.02953</ele>
        <time>2016-06-09T11:37:51Z</time>
      </trkpt>
      <trkpt lat="48.87129" lon="-0.47537">
        <ele>151.02953</ele>
        <time>2016-06-09T11:37:56Z</time>
      </trkpt>
      <trkpt lat="48.87129" lon="-0.47537">
        <ele>151.02953</ele>
        <time>2016-06-09T11:38:06Z</time>
      </trkpt>
      <trkpt lat="48.87129" lon="-0.47537">
        <ele>151.02953</ele>
        <time>2016-06-09T11:38:11Z</time>
      </trkpt>
      <trkpt lat="48.87129" lon="-0.47537">
        <ele>151.02953</ele>
        <time>2016-06-09T11:38:21Z</time>
      </trkpt>
      <trkpt lat="48.87129" lon="-0.47537">
        <ele>151.02953</ele>
        <time>2016-06-09T11:38:26Z</time>
      </trkpt>
      <trkpt lat="48.87129" lon="-0.47537">
        <ele>151.02953</ele>
        <time>2016-06-09T11:38:36Z</time>
      </trkpt>
      <trkpt lat="48.87129" lon="-0.47537">
        <ele>151.02953</ele>
        <time>2016-06-09T11:38:41Z</time>
      </trkpt>
      <trkpt lat="48.87129" lon="-0.47537">
        <ele>151.02953</ele>
        <time>2016-06-09T11:38:51Z</time>
      </trkpt>
      <trkpt lat="48.87129" lon="-0.47537">
        <ele>151.02953</ele>
        <time>2016-06-09T11:38:56Z</time>
      </trkpt>
      <trkpt lat="48.87129" lon="-0.47537">
        <ele>151.02953</ele>
        <time>2016-06-09T11:39:06Z</time>
      </trkpt>
      <trkpt lat="48.87129" lon="-0.47537">
        <ele>151.02953</ele>
        <time>2016-06-09T11:39:11Z</time>
      </trkpt>
      <trkpt lat="48.87129" lon="-0.47537">
        <ele>151.02953</ele>
        <time>2016-06-09T11:39:26Z</time>
      </trkpt>
      <trkpt lat="48.87129" lon="-0.47537">
        <ele>151.02953</ele>
        <time>2016-06-09T11:39:31Z</time>
      </trkpt>
      <trkpt lat="48.87129" lon="-0.47537">
        <ele>151.02953</ele>
        <time>2016-06-09T11:39:41Z</time>
      </trkpt>
      <trkpt lat="48.87129" lon="-0.47537">
        <ele>151.02953</ele>
        <time>2016-06-09T11:39:46Z</time>
      </trkpt>
      <trkpt lat="48.87129" lon="-0.47537">
        <ele>151.02953</ele>
        <time>2016-06-09T11:39:56Z</time>
      </trkpt>
      <trkpt lat="48.87129" lon="-0.47537">
        <ele>151.02953</ele>
        <time>2016-06-09T11:40:01Z</time>
      </trkpt>
      <trkpt lat="48.87129" lon="-0.47537">
        <ele>151.02953</ele>
        <time>2016-06-09T11:40:11Z</time>
      </trkpt>
      <trkpt lat="48.87129" lon="-0.47537">
        <ele>151.02953</ele>
        <time>2016-06-09T11:40:16Z</time>
      </trkpt>
      <trkpt lat="48.87129" lon="-0.47537">
        <ele>151.02953</ele>
        <time>2016-06-09T11:40:26Z</time>
      </trkpt>
      <trkpt lat="48.87129" lon="-0.47537">
        <ele>151.02953</ele>
        <time>2016-06-09T11:40:31Z</time>
      </trkpt>
      <trkpt lat="48.87129" lon="-0.47538">
        <ele>151.02953</ele>
        <time>2016-06-09T11:40:41Z</time>
      </trkpt>
      <trkpt lat="48.87129" lon="-0.47538">
        <ele>151.02953</ele>
        <time>2016-06-09T11:40:46Z</time>
      </trkpt>
      <trkpt lat="48.87129" lon="-0.47538">
        <ele>151.02953</ele>
        <time>2016-06-09T11:40:56Z</time>
      </trkpt>
      <trkpt lat="48.87129" lon="-0.47538">
        <ele>151.02953</ele>
        <time>2016-06-09T11:41:01Z</time>
      </trkpt>
      <trkpt lat="48.87129" lon="-0.47538">
        <ele>151.02953</ele>
        <time>2016-06-09T11:41:11Z</time>
      </trkpt>
      <trkpt lat="48.87129" lon="-0.47538">
        <ele>151.02953</ele>
        <time>2016-06-09T11:41:16Z</time>
      </trkpt>
      <trkpt lat="48.87129" lon="-0.47538">
        <ele>151.02953</ele>
        <time>2016-06-09T11:41:26Z</time>
      </trkpt>
      <trkpt lat="48.87129" lon="-0.47538">
        <ele>151.02953</ele>
        <time>2016-06-09T11:41:31Z</time>
      </trkpt>
      <trkpt lat="48.87129" lon="-0.47538">
        <ele>151.02953</ele>
        <time>2016-06-09T11:41:46Z</time>
      </trkpt>
      <trkpt lat="48.87129" lon="-0.47538">
        <ele>151.02953</ele>
        <time>2016-06-09T11:41:51Z</time>
      </trkpt>
      <trkpt lat="48.87129" lon="-0.47549">
        <ele>154.40854</ele>
        <time>2016-06-09T11:42:01Z</time>
      </trkpt>
      <trkpt lat="48.87128" lon="-0.47557">
        <ele>154.40854</ele>
        <time>2016-06-09T11:42:06Z</time>
      </trkpt>
      <trkpt lat="48.87128" lon="-0.47577">
        <ele>157.75945</ele>
        <time>2016-06-09T11:42:16Z</time>
      </trkpt>
      <trkpt lat="48.87126" lon="-0.47585">
        <ele>157.75945</ele>
        <time>2016-06-09T11:42:21Z</time>
      </trkpt>
      <trkpt lat="48.87124" lon="-0.47598">
        <ele>160.71959</ele>
        <time>2016-06-09T11:42:31Z</time>
      </trkpt>
      <trkpt lat="48.87123" lon="-0.47602">
        <ele>160.71959</ele>
        <time>2016-06-09T11:42:36Z</time>
      </trkpt>
      <trkpt lat="48.87123" lon="-0.47617">
        <ele>163.42981</ele>
        <time>2016-06-09T11:42:46Z</time>
      </trkpt>
      <trkpt lat="48.87123" lon="-0.47622">
        <ele>163.42981</ele>
        <time>2016-06-09T11:42:51Z</time>
      </trkpt>
      <trkpt lat="48.87123" lon="-0.47635">
        <ele>165.44502</ele>
        <time>2016-06-09T11:43:01Z</time>
      </trkpt>
      <trkpt lat="48.87123" lon="-0.47643">
        <ele>165.44502</ele>
        <time>2016-06-09T11:43:06Z</time>
      </trkpt>
      <trkpt lat="48.87123" lon="-0.47654">
        <ele>167.60875</ele>
        <time>2016-06-09T11:43:16Z</time>
      </trkpt>
      <trkpt lat="48.87122" lon="-0.4766">
        <ele>167.60875</ele>
        <time>2016-06-09T11:43:21Z</time>
      </trkpt>
      <trkpt lat="48.87121" lon="-0.47675">
        <ele>169.41972</ele>
        <time>2016-06-09T11:43:31Z</time>
      </trkpt>
      <trkpt lat="48.8712" lon="-0.47682">
        <ele>169.41972</ele>
        <time>2016-06-09T11:43:36Z</time>
      </trkpt>
      <trkpt lat="48.87118" lon="-0.47702">
        <ele>171.04868</ele>
        <time>2016-06-09T11:43:51Z</time>
      </trkpt>
      <trkpt lat="48.87118" lon="-0.4771">
        <ele>171.04868</ele>
        <time>2016-06-09T11:43:56Z</time>
      </trkpt>
      <trkpt lat="48.87115" lon="-0.47729">
        <ele>172.82744</ele>
        <time>2016-06-09T11:44:06Z</time>
      </trkpt>
      <trkpt lat="48.87115" lon="-0.47735">
        <ele>172.82744</ele>
        <time>2016-06-09T11:44:11Z</time>
      </trkpt>
      <trkpt lat="48.87114" lon="-0.47744">
        <ele>174.60197</ele>
        <time>2016-06-09T11:44:16Z</time>
      </trkpt>
      <trkpt lat="48.87117" lon="-0.47741">
        <ele>174.60197</ele>
        <time>2016-06-09T11:44:21Z</time>
      </trkpt>
      <trkpt lat="48.87118" lon="-0.47748">
        <ele>174.60197</ele>
        <time>2016-06-09T11:44:26Z</time>
      </trkpt>
      <trkpt lat="48.8711" lon="-0.47765">
        <ele>176.28737</ele>
        <time>2016-06-09T11:44:31Z</time>
      </trkpt>
      <trkpt lat="48.87109" lon="-0.4778">
        <ele>177.66115</ele>
        <time>2016-06-09T11:44:41Z</time>
      </trkpt>
      <trkpt lat="48.87107" lon="-0.47789">
        <ele>177.66115</ele>
        <time>2016-06-09T11:44:46Z</time>
      </trkpt>
      <trkpt lat="48.87108" lon="-0.47795">
        <ele>178.57579</ele>
        <time>2016-06-09T11:44:51Z</time>
      </trkpt>
      <trkpt lat="48.87108" lon="-0.47799">
        <ele>178.57579</ele>
        <time>2016-06-09T11:44:56Z</time>
      </trkpt>
      <trkpt lat="48.87107" lon="-0.47803">
        <ele>178.57579</ele>
        <time>2016-06-09T11:45:01Z</time>
      </trkpt>
      <trkpt lat="48.87107" lon="-0.47807">
        <ele>178.57579</ele>
        <time>2016-06-09T11:45:06Z</time>
      </trkpt>
      <trkpt lat="48.87106" lon="-0.47819">
        <ele>178.8816</ele>
        <time>2016-06-09T11:45:11Z</time>
      </trkpt>
      <trkpt lat="48.87105" lon="-0.47828">
        <ele>178.8816</ele>
        <time>2016-06-09T11:45:16Z</time>
      </trkpt>
      <trkpt lat="48.87103" lon="-0.47834">
        <ele>180.1421</ele>
        <time>2016-06-09T11:45:21Z</time>
      </trkpt>
      <trkpt lat="48.87104" lon="-0.47839">
        <ele>180.1421</ele>
        <time>2016-06-09T11:45:26Z</time>
      </trkpt>
      <trkpt lat="48.87101" lon="-0.47847">
        <ele>180.1421</ele>
        <time>2016-06-09T11:45:31Z</time>
      </trkpt>
      <trkpt lat="48.87098" lon="-0.47866">
        <ele>180.99318</ele>
        <time>2016-06-09T11:45:41Z</time>
      </trkpt>
      <trkpt lat="48.87096" lon="-0.47874">
        <ele>180.99318</ele>
        <time>2016-06-09T11:45:46Z</time>
      </trkpt>
      <trkpt lat="48.87091" lon="-0.47897">
        <ele>182.42024</ele>
        <time>2016-06-09T11:46:01Z</time>
      </trkpt>
      <trkpt lat="48.87088" lon="-0.47904">
        <ele>182.42024</ele>
        <time>2016-06-09T11:46:06Z</time>
      </trkpt>
      <trkpt lat="48.87083" lon="-0.47919">
        <ele>183.74944</ele>
        <time>2016-06-09T11:46:16Z</time>
      </trkpt>
      <trkpt lat="48.87082" lon="-0.47925">
        <ele>183.74944</ele>
        <time>2016-06-09T11:46:21Z</time>
      </trkpt>
      <trkpt lat="48.87077" lon="-0.47938">
        <ele>184.6738</ele>
        <time>2016-06-09T11:46:31Z</time>
      </trkpt>
      <trkpt lat="48.87075" lon="-0.47948">
        <ele>184.6738</ele>
        <time>2016-06-09T11:46:36Z</time>
      </trkpt>
      <trkpt lat="48.87072" lon="-0.47962">
        <ele>185.3567</ele>
        <time>2016-06-09T11:46:46Z</time>
      </trkpt>
      <trkpt lat="48.8707" lon="-0.47971">
        <ele>185.3567</ele>
        <time>2016-06-09T11:46:51Z</time>
      </trkpt>
      <trkpt lat="48.87065" lon="-0.47988">
        <ele>186.20967</ele>
        <time>2016-06-09T11:47:01Z</time>
      </trkpt>
      <trkpt lat="48.87063" lon="-0.47997">
        <ele>186.20967</ele>
        <time>2016-06-09T11:47:06Z</time>
      </trkpt>
      <trkpt lat="48.87059" lon="-0.48016">
        <ele>187.2099</ele>
        <time>2016-06-09T11:47:16Z</time>
      </trkpt>
      <trkpt lat="48.87057" lon="-0.48024">
        <ele>187.2099</ele>
        <time>2016-06-09T11:47:21Z</time>
      </trkpt>
      <trkpt lat="48.87053" lon="-0.48041">
        <ele>188.30702</ele>
        <time>2016-06-09T11:47:31Z</time>
      </trkpt>
      <trkpt lat="48.8705" lon="-0.48049">
        <ele>188.30702</ele>
        <time>2016-06-09T11:47:36Z</time>
      </trkpt>
      <trkpt lat="48.87049" lon="-0.48055">
        <ele>189.33873</ele>
        <time>2016-06-09T11:47:46Z</time>
      </trkpt>
      <trkpt lat="48.8705" lon="-0.48054">
        <ele>189.33873</ele>
        <time>2016-06-09T11:47:51Z</time>
      </trkpt>
      <trkpt lat="48.87046" lon="-0.48072">
        <ele>190.50067</ele>
        <time>2016-06-09T11:48:06Z</time>
      </trkpt>
      <trkpt lat="48.87045" lon="-0.48072">
        <ele>190.50067</ele>
        <time>2016-06-09T11:48:11Z</time>
      </trkpt>
      <trkpt lat="48.87043" lon="-0.48078">
        <ele>190.50067</ele>
        <time>2016-06-09T11:48:21Z</time>
      </trkpt>
      <trkpt lat="48.87042" lon="-0.48082">
        <ele>190.50067</ele>
        <time>2016-06-09T11:48:26Z</time>
      </trkpt>
      <trkpt lat="48.87038" lon="-0.48097">
        <ele>191.8872</ele>
        <time>2016-06-09T11:48:36Z</time>
      </trkpt>
      <trkpt lat="48.87036" lon="-0.48104">
        <ele>191.8872</ele>
        <time>2016-06-09T11:48:41Z</time>
      </trkpt>
      <trkpt lat="48.87033" lon="-0.48118">
        <ele>193.18156</ele>
        <time>2016-06-09T11:48:51Z</time>
      </trkpt>
      <trkpt lat="48.87031" lon="-0.48124">
        <ele>193.18156</ele>
        <time>2016-06-09T11:48:56Z</time>
      </trkpt>
      <trkpt lat="48.87027" lon="-0.48137">
        <ele>194.65245</ele>
        <time>2016-06-09T11:49:06Z</time>
      </trkpt>
      <trkpt lat="48.87024" lon="-0.48144">
        <ele>194.65245</ele>
        <time>2016-06-09T11:49:11Z</time>
      </trkpt>
      <trkpt lat="48.8702" lon="-0.48161">
        <ele>196.00066</ele>
        <time>2016-06-09T11:49:21Z</time>
      </trkpt>
      <trkpt lat="48.87018" lon="-0.48165">
        <ele>196.00066</ele>
        <time>2016-06-09T11:49:26Z</time>
      </trkpt>
      <trkpt lat="48.87018" lon="-0.48172">
        <ele>196.00066</ele>
        <time>2016-06-09T11:49:36Z</time>
      </trkpt>
      <trkpt lat="48.87015" lon="-0.4818">
        <ele>197.42479</ele>
        <time>2016-06-09T11:49:41Z</time>
      </trkpt>
      <trkpt lat="48.8701" lon="-0.48206">
        <ele>198.93565</ele>
        <time>2016-06-09T11:49:56Z</time>
      </trkpt>
      <trkpt lat="48.8701" lon="-0.48217">
        <ele>198.93565</ele>
        <time>2016-06-09T11:50:01Z</time>
      </trkpt>
      <trkpt lat="48.87009" lon="-0.48234">
        <ele>200.65822</ele>
        <time>2016-06-09T11:50:11Z</time>
      </trkpt>
      <trkpt lat="48.87008" lon="-0.48241">
        <ele>200.65822</ele>
        <time>2016-06-09T11:50:16Z</time>
      </trkpt>
      <trkpt lat="48.87009" lon="-0.48249">
        <ele>202.07353</ele>
        <time>2016-06-09T11:50:26Z</time>
      </trkpt>
      <trkpt lat="48.87007" lon="-0.48258">
        <ele>202.07353</ele>
        <time>2016-06-09T11:50:31Z</time>
      </trkpt>
      <trkpt lat="48.87006" lon="-0.48277">
        <ele>203.43651</ele>
        <time>2016-06-09T11:50:41Z</time>
      </trkpt>
      <trkpt lat="48.87005" lon="-0.48285">
        <ele>203.43651</ele>
        <time>2016-06-09T11:50:46Z</time>
      </trkpt>
      <trkpt lat="48.87003" lon="-0.48304">
        <ele>204.34933</ele>
        <time>2016-06-09T11:50:56Z</time>
      </trkpt>
      <trkpt lat="48.87003" lon="-0.48313">
        <ele>204.34933</ele>
        <time>2016-06-09T11:51:01Z</time>
      </trkpt>
      <trkpt lat="48.87" lon="-0.48332">
        <ele>205.26604</ele>
        <time>2016-06-09T11:51:11Z</time>
      </trkpt>
      <trkpt lat="48.86999" lon="-0.48342">
        <ele>205.26604</ele>
        <time>2016-06-09T11:51:16Z</time>
      </trkpt>
      <trkpt lat="48.86997" lon="-0.48361">
        <ele>206.2181</ele>
        <time>2016-06-09T11:51:26Z</time>
      </trkpt>
      <trkpt lat="48.86995" lon="-0.4837">
        <ele>206.2181</ele>
        <time>2016-06-09T11:51:31Z</time>
      </trkpt>
      <trkpt lat="48.86994" lon="-0.48384">
        <ele>207.0904</ele>
        <time>2016-06-09T11:51:41Z</time>
      </trkpt>
      <trkpt lat="48.86993" lon="-0.48394">
        <ele>207.0904</ele>
        <time>2016-06-09T11:51:46Z</time>
      </trkpt>
      <trkpt lat="48.8699" lon="-0.48397">
        <ele>207.73318</ele>
        <time>2016-06-09T11:51:51Z</time>
      </trkpt>
      <trkpt lat="48.86987" lon="-0.48409">
        <ele>207.73318</ele>
        <time>2016-06-09T11:51:56Z</time>
      </trkpt>
      <trkpt lat="48.86988" lon="-0.48418">
        <ele>207.8786</ele>
        <time>2016-06-09T11:52:01Z</time>
      </trkpt>
      <trkpt lat="48.86987" lon="-0.48429">
        <ele>207.8786</ele>
        <time>2016-06-09T11:52:06Z</time>
      </trkpt>
      <trkpt lat="48.86987" lon="-0.4845">
        <ele>208.04352</ele>
        <time>2016-06-09T11:52:16Z</time>
      </trkpt>
      <trkpt lat="48.86985" lon="-0.4846">
        <ele>208.04352</ele>
        <time>2016-06-09T11:52:21Z</time>
      </trkpt>
      <trkpt lat="48.86983" lon="-0.48489">
        <ele>208.27435</ele>
        <time>2016-06-09T11:52:36Z</time>
      </trkpt>
      <trkpt lat="48.86983" lon="-0.48498">
        <ele>208.27435</ele>
        <time>2016-06-09T11:52:41Z</time>
      </trkpt>
      <trkpt lat="48.86982" lon="-0.48516">
        <ele>208.31123</ele>
        <time>2016-06-09T11:52:51Z</time>
      </trkpt>
      <trkpt lat="48.86981" lon="-0.48524">
        <ele>208.31123</ele>
        <time>2016-06-09T11:52:56Z</time>
      </trkpt>
      <trkpt lat="48.86979" lon="-0.48546">
        <ele>208.51904</ele>
        <time>2016-06-09T11:53:06Z</time>
      </trkpt>
      <trkpt lat="48.86978" lon="-0.48555">
        <ele>208.51904</ele>
        <time>2016-06-09T11:53:11Z</time>
      </trkpt>
      <trkpt lat="48.86976" lon="-0.48575">
        <ele>208.31297</ele>
        <time>2016-06-09T11:53:21Z</time>
      </trkpt>
      <trkpt lat="48.86975" lon="-0.48582">
        <ele>208.31297</ele>
        <time>2016-06-09T11:53:26Z</time>
      </trkpt>
      <trkpt lat="48.86973" lon="-0.48602">
        <ele>208.14658</ele>
        <time>2016-06-09T11:53:36Z</time>
      </trkpt>
      <trkpt lat="48.86972" lon="-0.48613">
        <ele>208.14658</ele>
        <time>2016-06-09T11:53:41Z</time>
      </trkpt>
      <trkpt lat="48.8697" lon="-0.48632">
        <ele>207.849</ele>
        <time>2016-06-09T11:53:51Z</time>
      </trkpt>
      <trkpt lat="48.86969" lon="-0.48642">
        <ele>207.849</ele>
        <time>2016-06-09T11:53:56Z</time>
      </trkpt>
      <trkpt lat="48.86967" lon="-0.48661">
        <ele>207.44954</ele>
        <time>2016-06-09T11:54:06Z</time>
      </trkpt>
      <trkpt lat="48.86966" lon="-0.48669">
        <ele>207.44954</ele>
        <time>2016-06-09T11:54:11Z</time>
      </trkpt>
      <trkpt lat="48.86963" lon="-0.48701">
        <ele>207.11957</ele>
        <time>2016-06-09T11:54:26Z</time>
      </trkpt>
      <trkpt lat="48.86961" lon="-0.48712">
        <ele>207.11957</ele>
        <time>2016-06-09T11:54:31Z</time>
      </trkpt>
      <trkpt lat="48.86958" lon="-0.48733">
        <ele>206.81581</ele>
        <time>2016-06-09T11:54:41Z</time>
      </trkpt>
      <trkpt lat="48.86957" lon="-0.48742">
        <ele>206.81581</ele>
        <time>2016-06-09T11:54:46Z</time>
      </trkpt>
      <trkpt lat="48.86955" lon="-0.4876">
        <ele>206.28175</ele>
        <time>2016-06-09T11:54:56Z</time>
      </trkpt>
      <trkpt lat="48.86954" lon="-0.48769">
        <ele>206.28175</ele>
        <time>2016-06-09T11:55:01Z</time>
      </trkpt>
      <trkpt lat="48.86954" lon="-0.48788">
        <ele>205.58289</ele>
        <time>2016-06-09T11:55:11Z</time>
      </trkpt>
      <trkpt lat="48.86953" lon="-0.48799">
        <ele>205.58289</ele>
        <time>2016-06-09T11:55:16Z</time>
      </trkpt>
      <trkpt lat="48.8695" lon="-0.48818">
        <ele>205.12604</ele>
        <time>2016-06-09T11:55:26Z</time>
      </trkpt>
      <trkpt lat="48.8695" lon="-0.48825">
        <ele>205.12604</ele>
        <time>2016-06-09T11:55:31Z</time>
      </trkpt>
      <trkpt lat="48.86948" lon="-0.48839">
        <ele>204.69647</ele>
        <time>2016-06-09T11:55:36Z</time>
      </trkpt>
      <trkpt lat="48.86947" lon="-0.48849">
        <ele>204.69647</ele>
        <time>2016-06-09T11:55:41Z</time>
      </trkpt>
      <trkpt lat="48.86947" lon="-0.48861">
        <ele>204.35439</ele>
        <time>2016-06-09T11:55:46Z</time>
      </trkpt>
      <trkpt lat="48.86946" lon="-0.48869">
        <ele>204.35439</ele>
        <time>2016-06-09T11:55:51Z</time>
      </trkpt>
      <trkpt lat="48.86946" lon="-0.4888">
        <ele>204.38573</ele>
        <time>2016-06-09T11:55:56Z</time>
      </trkpt>
      <trkpt lat="48.86946" lon="-0.48896">
        <ele>204.30484</ele>
        <time>2016-06-09T11:56:06Z</time>
      </trkpt>
      <trkpt lat="48.86946" lon="-0.48906">
        <ele>204.30484</ele>
        <time>2016-06-09T11:56:11Z</time>
      </trkpt>
      <trkpt lat="48.86945" lon="-0.48909">
        <ele>204.30484</ele>
        <time>2016-06-09T11:56:26Z</time>
      </trkpt>
      <trkpt lat="48.86945" lon="-0.48909">
        <ele>204.30484</ele>
        <time>2016-06-09T11:56:31Z</time>
      </trkpt>
      <trkpt lat="48.86945" lon="-0.48909">
        <ele>204.30484</ele>
        <time>2016-06-09T11:56:41Z</time>
      </trkpt>
      <trkpt lat="48.86945" lon="-0.48909">
        <ele>204.30484</ele>
        <time>2016-06-09T11:56:46Z</time>
      </trkpt>
      <trkpt lat="48.86946" lon="-0.48911">
        <ele>204.18071</ele>
        <time>2016-06-09T11:56:56Z</time>
      </trkpt>
      <trkpt lat="48.86946" lon="-0.4891">
        <ele>204.18071</ele>
        <time>2016-06-09T11:57:01Z</time>
      </trkpt>
      <trkpt lat="48.86945" lon="-0.4891">
        <ele>204.18071</ele>
        <time>2016-06-09T11:57:11Z</time>
      </trkpt>
      <trkpt lat="48.86945" lon="-0.4891">
        <ele>204.18071</ele>
        <time>2016-06-09T11:57:16Z</time>
      </trkpt>
      <trkpt lat="48.86944" lon="-0.48911">
        <ele>204.18071</ele>
        <time>2016-06-09T11:57:26Z</time>
      </trkpt>
      <trkpt lat="48.86944" lon="-0.48912">
        <ele>204.18071</ele>
        <time>2016-06-09T11:57:31Z</time>
      </trkpt>
      <trkpt lat="48.86944" lon="-0.48911">
        <ele>204.18071</ele>
        <time>2016-06-09T11:57:41Z</time>
      </trkpt>
      <trkpt lat="48.86942" lon="-0.48913">
        <ele>204.18071</ele>
        <time>2016-06-09T11:57:46Z</time>
      </trkpt>
      <trkpt lat="48.86942" lon="-0.48912">
        <ele>204.18071</ele>
        <time>2016-06-09T11:57:56Z</time>
      </trkpt>
      <trkpt lat="48.86942" lon="-0.48912">
        <ele>204.18071</ele>
        <time>2016-06-09T11:58:01Z</time>
      </trkpt>
      <trkpt lat="48.86927" lon="-0.48919">
        <ele>203.64488</ele>
        <time>2016-06-09T11:58:16Z</time>
      </trkpt>
      <trkpt lat="48.86919" lon="-0.48923">
        <ele>203.64488</ele>
        <time>2016-06-09T11:58:21Z</time>
      </trkpt>
      <trkpt lat="48.8691" lon="-0.48928">
        <ele>203.59633</ele>
        <time>2016-06-09T11:58:31Z</time>
      </trkpt>
      <trkpt lat="48.86906" lon="-0.48928">
        <ele>203.59633</ele>
        <time>2016-06-09T11:58:36Z</time>
      </trkpt>
      <trkpt lat="48.86893" lon="-0.48936">
        <ele>203.64151</ele>
        <time>2016-06-09T11:58:46Z</time>
      </trkpt>
      <trkpt lat="48.86887" lon="-0.48934">
        <ele>203.64151</ele>
        <time>2016-06-09T11:58:51Z</time>
      </trkpt>
      <trkpt lat="48.86877" lon="-0.48934">
        <ele>202.33455</ele>
        <time>2016-06-09T11:59:01Z</time>
      </trkpt>
      <trkpt lat="48.86872" lon="-0.48935">
        <ele>202.33455</ele>
        <time>2016-06-09T11:59:06Z</time>
      </trkpt>
      <trkpt lat="48.86857" lon="-0.48937">
        <ele>201.76927</ele>
        <time>2016-06-09T11:59:16Z</time>
      </trkpt>
      <trkpt lat="48.8685" lon="-0.48934">
        <ele>201.76927</ele>
        <time>2016-06-09T11:59:21Z</time>
      </trkpt>
      <trkpt lat="48.86844" lon="-0.48933">
        <ele>201.33272</ele>
        <time>2016-06-09T11:59:31Z</time>
      </trkpt>
      <trkpt lat="48.86841" lon="-0.48934">
        <ele>201.33272</ele>
        <time>2016-06-09T11:59:36Z</time>
      </trkpt>
      <trkpt lat="48.86824" lon="-0.48939">
        <ele>200.96077</ele>
        <time>2016-06-09T11:59:46Z</time>
      </trkpt>
      <trkpt lat="48.86816" lon="-0.48938">
        <ele>200.96077</ele>
        <time>2016-06-09T11:59:51Z</time>
      </trkpt>
      <trkpt lat="48.86811" lon="-0.48937">
        <ele>200.86758</ele>
        <time>2016-06-09T11:59:56Z</time>
      </trkpt>
      <trkpt lat="48.86805" lon="-0.48944">
        <ele>200.86758</ele>
        <time>2016-06-09T12:00:01Z</time>
      </trkpt>
      <trkpt lat="48.8679" lon="-0.48942">
        <ele>199.85272</ele>
        <time>2016-06-09T12:00:11Z</time>
      </trkpt>
      <trkpt lat="48.86783" lon="-0.48941">
        <ele>199.85272</ele>
        <time>2016-06-09T12:00:16Z</time>
      </trkpt>
      <trkpt lat="48.86765" lon="-0.48942">
        <ele>198.43484</ele>
        <time>2016-06-09T12:00:31Z</time>
      </trkpt>
      <trkpt lat="48.8676" lon="-0.48941">
        <ele>198.43484</ele>
        <time>2016-06-09T12:00:36Z</time>
      </trkpt>
      <trkpt lat="48.86749" lon="-0.48937">
        <ele>196.77844</ele>
        <time>2016-06-09T12:00:46Z</time>
      </trkpt>
      <trkpt lat="48.86743" lon="-0.48932">
        <ele>196.77844</ele>
        <time>2016-06-09T12:00:51Z</time>
      </trkpt>
      <trkpt lat="48.86733" lon="-0.48924">
        <ele>194.6906</ele>
        <time>2016-06-09T12:01:01Z</time>
      </trkpt>
      <trkpt lat="48.86728" lon="-0.48918">
        <ele>194.6906</ele>
        <time>2016-06-09T12:01:06Z</time>
      </trkpt>
      <trkpt lat="48.86719" lon="-0.489">
        <ele>192.3683</ele>
        <time>2016-06-09T12:01:16Z</time>
      </trkpt>
      <trkpt lat="48.86717" lon="-0.48894">
        <ele>192.3683</ele>
        <time>2016-06-09T12:01:21Z</time>
      </trkpt>
      <trkpt lat="48.86711" lon="-0.48875">
        <ele>190.21072</ele>
        <time>2016-06-09T12:01:31Z</time>
      </trkpt>
      <trkpt lat="48.86709" lon="-0.48864">
        <ele>190.21072</ele>
        <time>2016-06-09T12:01:36Z</time>
      </trkpt>
      <trkpt lat="48.86702" lon="-0.48851">
        <ele>188.02504</ele>
        <time>2016-06-09T12:01:46Z</time>
      </trkpt>
      <trkpt lat="48.86699" lon="-0.48842">
        <ele>188.02504</ele>
        <time>2016-06-09T12:01:51Z</time>
      </trkpt>
      <trkpt lat="48.86694" lon="-0.48825">
        <ele>185.9928</ele>
        <time>2016-06-09T12:02:01Z</time>
      </trkpt>
      <trkpt lat="48.86691" lon="-0.48818">
        <ele>185.9928</ele>
        <time>2016-06-09T12:02:06Z</time>
      </trkpt>
      <trkpt lat="48.86689" lon="-0.48809">
        <ele>184.44011</ele>
        <time>2016-06-09T12:02:16Z</time>
      </trkpt>
      <trkpt lat="48.86685" lon="-0.48802">
        <ele>184.44011</ele>
        <time>2016-06-09T12:02:21Z</time>
      </trkpt>
      <trkpt lat="48.86677" lon="-0.48784">
        <ele>182.94702</ele>
        <time>2016-06-09T12:02:31Z</time>
      </trkpt>
      <trkpt lat="48.86672" lon="-0.48778">
        <ele>182.94702</ele>
        <time>2016-06-09T12:02:36Z</time>
      </trkpt>
      <trkpt lat="48.86654" lon="-0.4877">
        <ele>181.80144</ele>
        <time>2016-06-09T12:02:51Z</time>
      </trkpt>
      <trkpt lat="48.86649" lon="-0.4877">
        <ele>181.80144</ele>
        <time>2016-06-09T12:02:56Z</time>
      </trkpt>
      <trkpt lat="48.86636" lon="-0.48764">
        <ele>180.53395</ele>
        <time>2016-06-09T12:03:06Z</time>
      </trkpt>
      <trkpt lat="48.86625" lon="-0.48767">
        <ele>179.53125</ele>
        <time>2016-06-09T12:03:11Z</time>
      </trkpt>
      <trkpt lat="48.86615" lon="-0.48773">
        <ele>178.70395</ele>
        <time>2016-06-09T12:03:21Z</time>
      </trkpt>
      <trkpt lat="48.86607" lon="-0.48776">
        <ele>178.70395</ele>
        <time>2016-06-09T12:03:26Z</time>
      </trkpt>
      <trkpt lat="48.86604" lon="-0.48781">
        <ele>177.27686</ele>
        <time>2016-06-09T12:03:36Z</time>
      </trkpt>
      <trkpt lat="48.86598" lon="-0.48778">
        <ele>177.27686</ele>
        <time>2016-06-09T12:03:41Z</time>
      </trkpt>
      <trkpt lat="48.86584" lon="-0.48778">
        <ele>176.11844</ele>
        <time>2016-06-09T12:03:51Z</time>
      </trkpt>
      <trkpt lat="48.86579" lon="-0.48778">
        <ele>176.11844</ele>
        <time>2016-06-09T12:03:56Z</time>
      </trkpt>
      <trkpt lat="48.86582" lon="-0.48786">
        <ele>174.89401</ele>
        <time>2016-06-09T12:04:06Z</time>
      </trkpt>
      <trkpt lat="48.86583" lon="-0.48791">
        <ele>174.89401</ele>
        <time>2016-06-09T12:04:11Z</time>
      </trkpt>
      <trkpt lat="48.86583" lon="-0.48791">
        <ele>174.89401</ele>
        <time>2016-06-09T12:04:21Z</time>
      </trkpt>
      <trkpt lat="48.86583" lon="-0.48793">
        <ele>174.89401</ele>
        <time>2016-06-09T12:04:26Z</time>
      </trkpt>
      <trkpt lat="48.86582" lon="-0.48796">
        <ele>174.89401</ele>
        <time>2016-06-09T12:04:41Z</time>
      </trkpt>
      <trkpt lat="48.8658" lon="-0.48798">
        <ele>173.76903</ele>
        <time>2016-06-09T12:04:46Z</time>
      </trkpt>
      <trkpt lat="48.86581" lon="-0.48797">
        <ele>173.76903</ele>
        <time>2016-06-09T12:04:56Z</time>
      </trkpt>
      <trkpt lat="48.86581" lon="-0.48797">
        <ele>173.76903</ele>
        <time>2016-06-09T12:05:01Z</time>
      </trkpt>
      <trkpt lat="48.86581" lon="-0.48797">
        <ele>173.76903</ele>
        <time>2016-06-09T12:05:11Z</time>
      </trkpt>
      <trkpt lat="48.86581" lon="-0.48797">
        <ele>173.76903</ele>
        <time>2016-06-09T12:05:16Z</time>
      </trkpt>
      <trkpt lat="48.86581" lon="-0.48797">
        <ele>173.76903</ele>
        <time>2016-06-09T12:05:26Z</time>
      </trkpt>
      <trkpt lat="48.86581" lon="-0.48797">
        <ele>173.76903</ele>
        <time>2016-06-09T12:05:31Z</time>
      </trkpt>
      <trkpt lat="48.86581" lon="-0.48797">
        <ele>173.76903</ele>
        <time>2016-06-09T12:05:41Z</time>
      </trkpt>
      <trkpt lat="48.86581" lon="-0.48797">
        <ele>173.76903</ele>
        <time>2016-06-09T12:05:46Z</time>
      </trkpt>
      <trkpt lat="48.86581" lon="-0.48797">
        <ele>173.76903</ele>
        <time>2016-06-09T12:06:01Z</time>
      </trkpt>
      <trkpt lat="48.86581" lon="-0.48797">
        <ele>173.76903</ele>
        <time>2016-06-09T12:06:06Z</time>
      </trkpt>
      <trkpt lat="48.86581" lon="-0.48797">
        <ele>173.76903</ele>
        <time>2016-06-09T12:06:16Z</time>
      </trkpt>
      <trkpt lat="48.86581" lon="-0.48797">
        <ele>173.76903</ele>
        <time>2016-06-09T12:06:21Z</time>
      </trkpt>
      <trkpt lat="48.8658" lon="-0.488">
        <ele>173.76903</ele>
        <time>2016-06-09T12:06:31Z</time>
      </trkpt>
      <trkpt lat="48.8658" lon="-0.488">
        <ele>173.76903</ele>
        <time>2016-06-09T12:06:36Z</time>
      </trkpt>
      <trkpt lat="48.86582" lon="-0.48811">
        <ele>173.12698</ele>
        <time>2016-06-09T12:06:46Z</time>
      </trkpt>
      <trkpt lat="48.86584" lon="-0.48819">
        <ele>173.12698</ele>
        <time>2016-06-09T12:06:51Z</time>
      </trkpt>
      <trkpt lat="48.86586" lon="-0.48836">
        <ele>172.29851</ele>
        <time>2016-06-09T12:07:01Z</time>
      </trkpt>
      <trkpt lat="48.86588" lon="-0.48847">
        <ele>172.29851</ele>
        <time>2016-06-09T12:07:06Z</time>
      </trkpt>
      <trkpt lat="48.8659" lon="-0.48859">
        <ele>171.98962</ele>
        <time>2016-06-09T12:07:16Z</time>
      </trkpt>
      <trkpt lat="48.86589" lon="-0.48863">
        <ele>171.98962</ele>
        <time>2016-06-09T12:07:21Z</time>
      </trkpt>
      <trkpt lat="48.8659" lon="-0.48879">
        <ele>171.81529</ele>
        <time>2016-06-09T12:07:31Z</time>
      </trkpt>
      <trkpt lat="48.86591" lon="-0.48888">
        <ele>171.81529</ele>
        <time>2016-06-09T12:07:36Z</time>
      </trkpt>
      <trkpt lat="48.86591" lon="-0.48908">
        <ele>171.85063</ele>
        <time>2016-06-09T12:07:46Z</time>
      </trkpt>
      <trkpt lat="48.86592" lon="-0.48915">
        <ele>171.85063</ele>
        <time>2016-06-09T12:07:51Z</time>
      </trkpt>
      <trkpt lat="48.86593" lon="-0.48942">
        <ele>171.66014</ele>
        <time>2016-06-09T12:08:06Z</time>
      </trkpt>
      <trkpt lat="48.86592" lon="-0.4895">
        <ele>171.66014</ele>
        <time>2016-06-09T12:08:11Z</time>
      </trkpt>
      <trkpt lat="48.86592" lon="-0.48971">
        <ele>171.33089</ele>
        <time>2016-06-09T12:08:21Z</time>
      </trkpt>
      <trkpt lat="48.86593" lon="-0.48979">
        <ele>171.33089</ele>
        <time>2016-06-09T12:08:26Z</time>
      </trkpt>
      <trkpt lat="48.86593" lon="-0.48996">
        <ele>170.77086</ele>
        <time>2016-06-09T12:08:36Z</time>
      </trkpt>
      <trkpt lat="48.86593" lon="-0.49008">
        <ele>170.77086</ele>
        <time>2016-06-09T12:08:41Z</time>
      </trkpt>
      <trkpt lat="48.86594" lon="-0.49024">
        <ele>170.2413</ele>
        <time>2016-06-09T12:08:51Z</time>
      </trkpt>
      <trkpt lat="48.86594" lon="-0.49032">
        <ele>170.2413</ele>
        <time>2016-06-09T12:08:56Z</time>
      </trkpt>
      <trkpt lat="48.86596" lon="-0.49047">
        <ele>169.29237</ele>
        <time>2016-06-09T12:09:06Z</time>
      </trkpt>
      <trkpt lat="48.86597" lon="-0.49057">
        <ele>169.29237</ele>
        <time>2016-06-09T12:09:11Z</time>
      </trkpt>
      <trkpt lat="48.86598" lon="-0.49072">
        <ele>168.80544</ele>
        <time>2016-06-09T12:09:21Z</time>
      </trkpt>
      <trkpt lat="48.86597" lon="-0.49082">
        <ele>168.80544</ele>
        <time>2016-06-09T12:09:26Z</time>
      </trkpt>
      <trkpt lat="48.86602" lon="-0.49107">
        <ele>167.80873</ele>
        <time>2016-06-09T12:09:41Z</time>
      </trkpt>
      <trkpt lat="48.86601" lon="-0.4912">
        <ele>167.80873</ele>
        <time>2016-06-09T12:09:46Z</time>
      </trkpt>
      <trkpt lat="48.86602" lon="-0.49135">
        <ele>165.95094</ele>
        <time>2016-06-09T12:09:56Z</time>
      </trkpt>
      <trkpt lat="48.86604" lon="-0.49143">
        <ele>165.95094</ele>
        <time>2016-06-09T12:10:01Z</time>
      </trkpt>
      <trkpt lat="48.86605" lon="-0.49164">
        <ele>163.98975</ele>
        <time>2016-06-09T12:10:11Z</time>
      </trkpt>
      <trkpt lat="48.86605" lon="-0.49177">
        <ele>163.98975</ele>
        <time>2016-06-09T12:10:16Z</time>
      </trkpt>
      <trkpt lat="48.86605" lon="-0.49188">
        <ele>162.97328</ele>
        <time>2016-06-09T12:10:26Z</time>
      </trkpt>
      <trkpt lat="48.86603" lon="-0.492">
        <ele>162.97328</ele>
        <time>2016-06-09T12:10:31Z</time>
      </trkpt>
      <trkpt lat="48.86601" lon="-0.49219">
        <ele>161.34807</ele>
        <time>2016-06-09T12:10:41Z</time>
      </trkpt>
      <trkpt lat="48.86601" lon="-0.49221">
        <ele>161.34807</ele>
        <time>2016-06-09T12:10:46Z</time>
      </trkpt>
      <trkpt lat="48.86594" lon="-0.49226">
        <ele>161.34807</ele>
        <time>2016-06-09T12:10:56Z</time>
      </trkpt>
      <trkpt lat="48.8659" lon="-0.49235">
        <ele>157.89255</ele>
        <time>2016-06-09T12:11:01Z</time>
      </trkpt>
      <trkpt lat="48.86587" lon="-0.49255">
        <ele>155.14038</ele>
        <time>2016-06-09T12:11:11Z</time>
      </trkpt>
      <trkpt lat="48.86583" lon="-0.49262">
        <ele>155.14038</ele>
        <time>2016-06-09T12:11:16Z</time>
      </trkpt>
      <trkpt lat="48.86583" lon="-0.49286">
        <ele>152.77107</ele>
        <time>2016-06-09T12:11:31Z</time>
      </trkpt>
      <trkpt lat="48.86579" lon="-0.493">
        <ele>151.06291</ele>
        <time>2016-06-09T12:11:36Z</time>
      </trkpt>
      <trkpt lat="48.86574" lon="-0.49317">
        <ele>149.04692</ele>
        <time>2016-06-09T12:11:46Z</time>
      </trkpt>
      <trkpt lat="48.86576" lon="-0.49322">
        <ele>149.04692</ele>
        <time>2016-06-09T12:11:51Z</time>
      </trkpt>
      <trkpt lat="48.86576" lon="-0.49343">
        <ele>147.68507</ele>
        <time>2016-06-09T12:12:01Z</time>
      </trkpt>
      <trkpt lat="48.86575" lon="-0.49349">
        <ele>147.68507</ele>
        <time>2016-06-09T12:12:06Z</time>
      </trkpt>
      <trkpt lat="48.86575" lon="-0.49366">
        <ele>145.74835</ele>
        <time>2016-06-09T12:12:16Z</time>
      </trkpt>
      <trkpt lat="48.86577" lon="-0.49376">
        <ele>145.74835</ele>
        <time>2016-06-09T12:12:21Z</time>
      </trkpt>
      <trkpt lat="48.86569" lon="-0.49398">
        <ele>144.16034</ele>
        <time>2016-06-09T12:12:31Z</time>
      </trkpt>
      <trkpt lat="48.86571" lon="-0.49407">
        <ele>144.16034</ele>
        <time>2016-06-09T12:12:36Z</time>
      </trkpt>
      <trkpt lat="48.86568" lon="-0.49422">
        <ele>142.56519</ele>
        <time>2016-06-09T12:12:46Z</time>
      </trkpt>
      <trkpt lat="48.86568" lon="-0.49432">
        <ele>142.56519</ele>
        <time>2016-06-09T12:12:51Z</time>
      </trkpt>
      <trkpt lat="48.86565" lon="-0.49453">
        <ele>140.96458</ele>
        <time>2016-06-09T12:13:01Z</time>
      </trkpt>
      <trkpt lat="48.86565" lon="-0.49462">
        <ele>140.96458</ele>
        <time>2016-06-09T12:13:06Z</time>
      </trkpt>
      <trkpt lat="48.86566" lon="-0.49477">
        <ele>139.34563</ele>
        <time>2016-06-09T12:13:16Z</time>
      </trkpt>
      <trkpt lat="48.86566" lon="-0.49486">
        <ele>139.34563</ele>
        <time>2016-06-09T12:13:21Z</time>
      </trkpt>
      <trkpt lat="48.86563" lon="-0.49505">
        <ele>138.27278</ele>
        <time>2016-06-09T12:13:31Z</time>
      </trkpt>
      <trkpt lat="48.86561" lon="-0.49516">
        <ele>138.27278</ele>
        <time>2016-06-09T12:13:36Z</time>
      </trkpt>
      <trkpt lat="48.86559" lon="-0.4953">
        <ele>137.25867</ele>
        <time>2016-06-09T12:13:46Z</time>
      </trkpt>
      <trkpt lat="48.86556" lon="-0.49536">
        <ele>137.25867</ele>
        <time>2016-06-09T12:13:51Z</time>
      </trkpt>
      <trkpt lat="48.86547" lon="-0.49549">
        <ele>135.8659</ele>
        <time>2016-06-09T12:14:01Z</time>
      </trkpt>
      <trkpt lat="48.86543" lon="-0.49556">
        <ele>135.8659</ele>
        <time>2016-06-09T12:14:06Z</time>
      </trkpt>
      <trkpt lat="48.86528" lon="-0.4958">
        <ele>134.41078</ele>
        <time>2016-06-09T12:14:21Z</time>
      </trkpt>
      <trkpt lat="48.86524" lon="-0.49587">
        <ele>134.41078</ele>
        <time>2016-06-09T12:14:26Z</time>
      </trkpt>
      <trkpt lat="48.86519" lon="-0.49598">
        <ele>132.32182</ele>
        <time>2016-06-09T12:14:36Z</time>
      </trkpt>
      <trkpt lat="48.86515" lon="-0.49603">
        <ele>132.32182</ele>
        <time>2016-06-09T12:14:41Z</time>
      </trkpt>
      <trkpt lat="48.86511" lon="-0.49615">
        <ele>129.97917</ele>
        <time>2016-06-09T12:14:51Z</time>
      </trkpt>
      <trkpt lat="48.86504" lon="-0.49622">
        <ele>129.97917</ele>
        <time>2016-06-09T12:14:56Z</time>
      </trkpt>
      <trkpt lat="48.86496" lon="-0.49628">
        <ele>129.20558</ele>
        <time>2016-06-09T12:15:06Z</time>
      </trkpt>
      <trkpt lat="48.86495" lon="-0.49629">
        <ele>129.20558</ele>
        <time>2016-06-09T12:15:11Z</time>
      </trkpt>
      <trkpt lat="48.86491" lon="-0.49636">
        <ele>129.20558</ele>
        <time>2016-06-09T12:15:21Z</time>
      </trkpt>
      <trkpt lat="48.86487" lon="-0.4964">
        <ele>128.64479</ele>
        <time>2016-06-09T12:15:26Z</time>
      </trkpt>
      <trkpt lat="48.86478" lon="-0.49652">
        <ele>127.96178</ele>
        <time>2016-06-09T12:15:36Z</time>
      </trkpt>
      <trkpt lat="48.86473" lon="-0.49658">
        <ele>127.96178</ele>
        <time>2016-06-09T12:15:41Z</time>
      </trkpt>
      <trkpt lat="48.86457" lon="-0.49672">
        <ele>127.61025</ele>
        <time>2016-06-09T12:15:56Z</time>
      </trkpt>
      <trkpt lat="48.86451" lon="-0.49679">
        <ele>127.61025</ele>
        <time>2016-06-09T12:16:01Z</time>
      </trkpt>
      <trkpt lat="48.86439" lon="-0.49689">
        <ele>127.5629</ele>
        <time>2016-06-09T12:16:11Z</time>
      </trkpt>
      <trkpt lat="48.8643" lon="-0.49694">
        <ele>128.06732</ele>
        <time>2016-06-09T12:16:16Z</time>
      </trkpt>
      <trkpt lat="48.86416" lon="-0.49704">
        <ele>129.0344</ele>
        <time>2016-06-09T12:16:26Z</time>
      </trkpt>
      <trkpt lat="48.8641" lon="-0.49707">
        <ele>129.0344</ele>
        <time>2016-06-09T12:16:31Z</time>
      </trkpt>
      <trkpt lat="48.86401" lon="-0.49719">
        <ele>129.91905</ele>
        <time>2016-06-09T12:16:41Z</time>
      </trkpt>
      <trkpt lat="48.86398" lon="-0.49724">
        <ele>129.91905</ele>
        <time>2016-06-09T12:16:46Z</time>
      </trkpt>
      <trkpt lat="48.86387" lon="-0.49735">
        <ele>130.31743</ele>
        <time>2016-06-09T12:16:56Z</time>
      </trkpt>
      <trkpt lat="48.86383" lon="-0.49742">
        <ele>130.31743</ele>
        <time>2016-06-09T12:17:01Z</time>
      </trkpt>
      <trkpt lat="48.86371" lon="-0.49758">
        <ele>130.77904</ele>
        <time>2016-06-09T12:17:16Z</time>
      </trkpt>
      <trkpt lat="48.86367" lon="-0.49765">
        <ele>130.77904</ele>
        <time>2016-06-09T12:17:21Z</time>
      </trkpt>
      <trkpt lat="48.86361" lon="-0.4978">
        <ele>131.22208</ele>
        <time>2016-06-09T12:17:31Z</time>
      </trkpt>
      <trkpt lat="48.86357" lon="-0.49787">
        <ele>131.22208</ele>
        <time>2016-06-09T12:17:36Z</time>
      </trkpt>
      <trkpt lat="48.86351" lon="-0.49802">
        <ele>131.61409</ele>
        <time>2016-06-09T12:17:46Z</time>
      </trkpt>
      <trkpt lat="48.86347" lon="-0.49811">
        <ele>131.61409</ele>
        <time>2016-06-09T12:17:51Z</time>
      </trkpt>
      <trkpt lat="48.8634" lon="-0.49827">
        <ele>132.47284</ele>
        <time>2016-06-09T12:18:01Z</time>
      </trkpt>
      <trkpt lat="48.86337" lon="-0.49834">
        <ele>132.47284</ele>
        <time>2016-06-09T12:18:06Z</time>
      </trkpt>
      <trkpt lat="48.8633" lon="-0.49849">
        <ele>133.4266</ele>
        <time>2016-06-09T12:18:16Z</time>
      </trkpt>
      <trkpt lat="48.86328" lon="-0.49856">
        <ele>133.4266</ele>
        <time>2016-06-09T12:18:21Z</time>
      </trkpt>
      <trkpt lat="48.86318" lon="-0.49872">
        <ele>134.33255</ele>
        <time>2016-06-09T12:18:31Z</time>
      </trkpt>
      <trkpt lat="48.86317" lon="-0.49874">
        <ele>134.33255</ele>
        <time>2016-06-09T12:18:36Z</time>
      </trkpt>
      <trkpt lat="48.8631" lon="-0.49891">
        <ele>135.01535</ele>
        <time>2016-06-09T12:18:46Z</time>
      </trkpt>
      <trkpt lat="48.86307" lon="-0.49898">
        <ele>135.01535</ele>
        <time>2016-06-09T12:18:51Z</time>
      </trkpt>
      <trkpt lat="48.86301" lon="-0.49918">
        <ele>135.70238</ele>
        <time>2016-06-09T12:19:01Z</time>
      </trkpt>
      <trkpt lat="48.863" lon="-0.49926">
        <ele>135.70238</ele>
        <time>2016-06-09T12:19:06Z</time>
      </trkpt>
      <trkpt lat="48.86298" lon="-0.49944">
        <ele>135.76862</ele>
        <time>2016-06-09T12:19:16Z</time>
      </trkpt>
      <trkpt lat="48.86298" lon="-0.49953">
        <ele>135.76862</ele>
        <time>2016-06-09T12:19:21Z</time>
      </trkpt>
      <trkpt lat="48.86296" lon="-0.49978">
        <ele>135.415</ele>
        <time>2016-06-09T12:19:36Z</time>
      </trkpt>
      <trkpt lat="48.86297" lon="-0.49984">
        <ele>135.415</ele>
        <time>2016-06-09T12:19:41Z</time>
      </trkpt>
      <trkpt lat="48.86299" lon="-0.50005">
        <ele>134.77136</ele>
        <time>2016-06-09T12:19:51Z</time>
      </trkpt>
      <trkpt lat="48.863" lon="-0.50011">
        <ele>134.77136</ele>
        <time>2016-06-09T12:19:56Z</time>
      </trkpt>
      <trkpt lat="48.86298" lon="-0.50006">
        <ele>134.77136</ele>
        <time>2016-06-09T12:20:06Z</time>
      </trkpt>
      <trkpt lat="48.86298" lon="-0.50006">
        <ele>134.77136</ele>
        <time>2016-06-09T12:20:11Z</time>
      </trkpt>
      <trkpt lat="48.86298" lon="-0.50006">
        <ele>134.77136</ele>
        <time>2016-06-09T12:20:16Z</time>
      </trkpt>
      <trkpt lat="48.86298" lon="-0.50007">
        <ele>134.77136</ele>
        <time>2016-06-09T12:20:21Z</time>
      </trkpt>
      <trkpt lat="48.863" lon="-0.50005">
        <ele>134.08867</ele>
        <time>2016-06-09T12:20:31Z</time>
      </trkpt>
      <trkpt lat="48.863" lon="-0.50006">
        <ele>134.08867</ele>
        <time>2016-06-09T12:20:36Z</time>
      </trkpt>
      <trkpt lat="48.863" lon="-0.50003">
        <ele>134.08867</ele>
        <time>2016-06-09T12:20:46Z</time>
      </trkpt>
      <trkpt lat="48.86299" lon="-0.50003">
        <ele>134.08867</ele>
        <time>2016-06-09T12:20:51Z</time>
      </trkpt>
      <trkpt lat="48.86299" lon="-0.50003">
        <ele>134.08867</ele>
        <time>2016-06-09T12:21:01Z</time>
      </trkpt>
      <trkpt lat="48.863" lon="-0.50003">
        <ele>134.08867</ele>
        <time>2016-06-09T12:21:06Z</time>
      </trkpt>
      <trkpt lat="48.863" lon="-0.50003">
        <ele>134.08867</ele>
        <time>2016-06-09T12:21:16Z</time>
      </trkpt>
      <trkpt lat="48.863" lon="-0.50003">
        <ele>134.08867</ele>
        <time>2016-06-09T12:21:21Z</time>
      </trkpt>
      <trkpt lat="48.863" lon="-0.50003">
        <ele>134.08867</ele>
        <time>2016-06-09T12:21:31Z</time>
      </trkpt>
      <trkpt lat="48.863" lon="-0.50003">
        <ele>134.08867</ele>
        <time>2016-06-09T12:21:36Z</time>
      </trkpt>
      <trkpt lat="48.863" lon="-0.50003">
        <ele>134.08867</ele>
        <time>2016-06-09T12:21:46Z</time>
      </trkpt>
      <trkpt lat="48.863" lon="-0.50003">
        <ele>134.08867</ele>
        <time>2016-06-09T12:21:51Z</time>
      </trkpt>
      <trkpt lat="48.863" lon="-0.50003">
        <ele>134.08867</ele>
        <time>2016-06-09T12:22:01Z</time>
      </trkpt>
      <trkpt lat="48.863" lon="-0.50003">
        <ele>134.08867</ele>
        <time>2016-06-09T12:22:06Z</time>
      </trkpt>
      <trkpt lat="48.863" lon="-0.50003">
        <ele>134.08867</ele>
        <time>2016-06-09T12:22:16Z</time>
      </trkpt>
      <trkpt lat="48.863" lon="-0.50003">
        <ele>134.08867</ele>
        <time>2016-06-09T12:22:21Z</time>
      </trkpt>
      <trkpt lat="48.863" lon="-0.50003">
        <ele>134.08867</ele>
        <time>2016-06-09T12:22:31Z</time>
      </trkpt>
      <trkpt lat="48.86297" lon="-0.50007">
        <ele>134.08867</ele>
        <time>2016-06-09T12:22:36Z</time>
      </trkpt>
      <trkpt lat="48.86287" lon="-0.50006">
        <ele>132.57646</ele>
        <time>2016-06-09T12:22:46Z</time>
      </trkpt>
      <trkpt lat="48.86283" lon="-0.50002">
        <ele>132.57646</ele>
        <time>2016-06-09T12:22:51Z</time>
      </trkpt>
      <trkpt lat="48.86267" lon="-0.50001">
        <ele>131.30618</ele>
        <time>2016-06-09T12:23:06Z</time>
      </trkpt>
      <trkpt lat="48.86263" lon="-0.49996">
        <ele>131.30618</ele>
        <time>2016-06-09T12:23:11Z</time>
      </trkpt>
      <trkpt lat="48.86249" lon="-0.49993">
        <ele>130.6071</ele>
        <time>2016-06-09T12:23:21Z</time>
      </trkpt>
      <trkpt lat="48.86245" lon="-0.49991">
        <ele>130.6071</ele>
        <time>2016-06-09T12:23:26Z</time>
      </trkpt>
      <trkpt lat="48.86235" lon="-0.50003">
        <ele>128.9093</ele>
        <time>2016-06-09T12:23:36Z</time>
      </trkpt>
      <trkpt lat="48.86227" lon="-0.49994">
        <ele>127.32627</ele>
        <time>2016-06-09T12:23:41Z</time>
      </trkpt>
      <trkpt lat="48.86215" lon="-0.49993">
        <ele>125.909515</ele>
        <time>2016-06-09T12:23:51Z</time>
      </trkpt>
      <trkpt lat="48.86209" lon="-0.49994">
        <ele>125.909515</ele>
        <time>2016-06-09T12:23:56Z</time>
      </trkpt>
      <trkpt lat="48.86199" lon="-0.49994">
        <ele>124.302795</ele>
        <time>2016-06-09T12:24:06Z</time>
      </trkpt>
      <trkpt lat="48.86194" lon="-0.49993">
        <ele>124.302795</ele>
        <time>2016-06-09T12:24:11Z</time>
      </trkpt>
      <trkpt lat="48.86189" lon="-0.49991">
        <ele>122.59458</ele>
        <time>2016-06-09T12:24:21Z</time>
      </trkpt>
      <trkpt lat="48.86186" lon="-0.49992">
        <ele>122.59458</ele>
        <time>2016-06-09T12:24:26Z</time>
      </trkpt>
      <trkpt lat="48.86173" lon="-0.49997">
        <ele>119.28191</ele>
        <time>2016-06-09T12:24:41Z</time>
      </trkpt>
      <trkpt lat="48.86166" lon="-0.50001">
        <ele>119.28191</ele>
        <time>2016-06-09T12:24:46Z</time>
      </trkpt>
      <trkpt lat="48.86154" lon="-0.50009">
        <ele>116.593956</ele>
        <time>2016-06-09T12:24:56Z</time>
      </trkpt>
      <trkpt lat="48.86145" lon="-0.50009">
        <ele>113.8995</ele>
        <time>2016-06-09T12:25:01Z</time>
      </trkpt>
      <trkpt lat="48.8614" lon="-0.50016">
        <ele>113.8995</ele>
        <time>2016-06-09T12:25:11Z</time>
      </trkpt>
      <trkpt lat="48.86132" lon="-0.50018">
        <ele>111.29102</ele>
        <time>2016-06-09T12:25:16Z</time>
      </trkpt>
      <trkpt lat="48.86121" lon="-0.50027">
        <ele>108.69541</ele>
        <time>2016-06-09T12:25:26Z</time>
      </trkpt>
      <trkpt lat="48.86108" lon="-0.50028">
        <ele>106.261024</ele>
        <time>2016-06-09T12:25:31Z</time>
      </trkpt>
      <trkpt lat="48.86091" lon="-0.50034">
        <ele>104.45625</ele>
        <time>2016-06-09T12:25:41Z</time>
      </trkpt>
      <trkpt lat="48.86089" lon="-0.50032">
        <ele>104.45625</ele>
        <time>2016-06-09T12:25:46Z</time>
      </trkpt>
      <trkpt lat="48.86084" lon="-0.50038">
        <ele>104.45625</ele>
        <time>2016-06-09T12:25:51Z</time>
      </trkpt>
      <trkpt lat="48.86084" lon="-0.5004">
        <ele>102.90625</ele>
        <time>2016-06-09T12:25:56Z</time>
      </trkpt>
      <trkpt lat="48.86073" lon="-0.50045">
        <ele>101.14761</ele>
        <time>2016-06-09T12:26:06Z</time>
      </trkpt>
      <trkpt lat="48.86064" lon="-0.50041">
        <ele>99.904396</ele>
        <time>2016-06-09T12:26:11Z</time>
      </trkpt>
      <trkpt lat="48.86051" lon="-0.50042">
        <ele>98.80834</ele>
        <time>2016-06-09T12:26:21Z</time>
      </trkpt>
      <trkpt lat="48.86049" lon="-0.50039">
        <ele>98.80834</ele>
        <time>2016-06-09T12:26:26Z</time>
      </trkpt>
      <trkpt lat="48.86048" lon="-0.50029">
        <ele>97.46011</ele>
        <time>2016-06-09T12:26:36Z</time>
      </trkpt>
      <trkpt lat="48.86048" lon="-0.50029">
        <ele>97.46011</ele>
        <time>2016-06-09T12:26:41Z</time>
      </trkpt>
      <trkpt lat="48.86047" lon="-0.50028">
        <ele>97.46011</ele>
        <time>2016-06-09T12:26:51Z</time>
      </trkpt>
      <trkpt lat="48.86044" lon="-0.5002">
        <ele>97.46011</ele>
        <time>2016-06-09T12:26:56Z</time>
      </trkpt>
      <trkpt lat="48.86042" lon="-0.50004">
        <ele>95.418304</ele>
        <time>2016-06-09T12:27:06Z</time>
      </trkpt>
      <trkpt lat="48.86036" lon="-0.49996">
        <ele>95.418304</ele>
        <time>2016-06-09T12:27:11Z</time>
      </trkpt>
      <trkpt lat="48.86028" lon="-0.49981">
        <ele>93.71691</ele>
        <time>2016-06-09T12:27:21Z</time>
      </trkpt>
      <trkpt lat="48.86024" lon="-0.49973">
        <ele>93.71691</ele>
        <time>2016-06-09T12:27:26Z</time>
      </trkpt>
      <trkpt lat="48.86014" lon="-0.4996">
        <ele>91.98713</ele>
        <time>2016-06-09T12:27:36Z</time>
      </trkpt>
      <trkpt lat="48.86009" lon="-0.49954">
        <ele>91.98713</ele>
        <time>2016-06-09T12:27:41Z</time>
      </trkpt>
      <trkpt lat="48.85991" lon="-0.49925">
        <ele>90.46369</ele>
        <time>2016-06-09T12:27:56Z</time>
      </trkpt>
      <trkpt lat="48.85988" lon="-0.4991">
        <ele>89.14729</ele>
        <time>2016-06-09T12:28:01Z</time>
      </trkpt>
      <trkpt lat="48.8598" lon="-0.49917">
        <ele>89.14729</ele>
        <time>2016-06-09T12:28:11Z</time>
      </trkpt>
      <trkpt lat="48.85977" lon="-0.49913">
        <ele>88.13878</ele>
        <time>2016-06-09T12:28:16Z</time>
      </trkpt>
      <trkpt lat="48.85965" lon="-0.49907">
        <ele>87.12716</ele>
        <time>2016-06-09T12:28:26Z</time>
      </trkpt>
      <trkpt lat="48.85962" lon="-0.49905">
        <ele>87.12716</ele>
        <time>2016-06-09T12:28:31Z</time>
      </trkpt>
      <trkpt lat="48.85962" lon="-0.49894">
        <ele>85.01722</ele>
        <time>2016-06-09T12:28:41Z</time>
      </trkpt>
      <trkpt lat="48.85952" lon="-0.4988">
        <ele>83.27592</ele>
        <time>2016-06-09T12:28:46Z</time>
      </trkpt>
      <trkpt lat="48.85951" lon="-0.49863">
        <ele>80.95557</ele>
        <time>2016-06-09T12:28:56Z</time>
      </trkpt>
      <trkpt lat="48.85942" lon="-0.49861">
        <ele>78.404625</ele>
        <time>2016-06-09T12:29:01Z</time>
      </trkpt>
      <trkpt lat="48.85937" lon="-0.49854">
        <ele>78.404625</ele>
        <time>2016-06-09T12:29:11Z</time>
      </trkpt>
      <trkpt lat="48.85933" lon="-0.49853">
        <ele>75.75917</ele>
        <time>2016-06-09T12:29:16Z</time>
      </trkpt>
      <trkpt lat="48.85922" lon="-0.49847">
        <ele>73.26077</ele>
        <time>2016-06-09T12:29:26Z</time>
      </trkpt>
      <trkpt lat="48.85915" lon="-0.49845">
        <ele>73.26077</ele>
        <time>2016-06-09T12:29:31Z</time>
      </trkpt>
      <trkpt lat="48.85909" lon="-0.49848">
        <ele>72.15595</ele>
        <time>2016-06-09T12:29:41Z</time>
      </trkpt>
      <trkpt lat="48.8591" lon="-0.49844">
        <ele>72.15595</ele>
        <time>2016-06-09T12:29:46Z</time>
      </trkpt>
      <trkpt lat="48.85909" lon="-0.49844">
        <ele>72.15595</ele>
        <time>2016-06-09T12:29:56Z</time>
      </trkpt>
      <trkpt lat="48.85909" lon="-0.49844">
        <ele>72.15595</ele>
        <time>2016-06-09T12:30:01Z</time>
      </trkpt>
      <trkpt lat="48.85908" lon="-0.49843">
        <ele>72.15595</ele>
        <time>2016-06-09T12:30:11Z</time>
      </trkpt>
      <trkpt lat="48.85905" lon="-0.49839">
        <ele>72.15595</ele>
        <time>2016-06-09T12:30:16Z</time>
      </trkpt>
      <trkpt lat="48.85894" lon="-0.49836">
        <ele>71.01609</ele>
        <time>2016-06-09T12:30:26Z</time>
      </trkpt>
      <trkpt lat="48.85894" lon="-0.49834">
        <ele>71.01609</ele>
        <time>2016-06-09T12:30:31Z</time>
      </trkpt>
      <trkpt lat="48.8589" lon="-0.49833">
        <ele>71.01609</ele>
        <time>2016-06-09T12:30:41Z</time>
      </trkpt>
      <trkpt lat="48.8589" lon="-0.49833">
        <ele>71.01609</ele>
        <time>2016-06-09T12:30:46Z</time>
      </trkpt>
      <trkpt lat="48.85889" lon="-0.49833">
        <ele>71.01609</ele>
        <time>2016-06-09T12:30:56Z</time>
      </trkpt>
      <trkpt lat="48.85889" lon="-0.49833">
        <ele>71.01609</ele>
        <time>2016-06-09T12:31:01Z</time>
      </trkpt>
      <trkpt lat="48.85889" lon="-0.49833">
        <ele>71.01609</ele>
        <time>2016-06-09T12:31:16Z</time>
      </trkpt>
      <trkpt lat="48.85889" lon="-0.49833">
        <ele>71.01609</ele>
        <time>2016-06-09T12:31:21Z</time>
      </trkpt>
      <trkpt lat="48.85889" lon="-0.49833">
        <ele>71.01609</ele>
        <time>2016-06-09T12:31:31Z</time>
      </trkpt>
      <trkpt lat="48.85889" lon="-0.49833">
        <ele>71.01609</ele>
        <time>2016-06-09T12:31:36Z</time>
      </trkpt>
      <trkpt lat="48.85889" lon="-0.49833">
        <ele>71.01609</ele>
        <time>2016-06-09T12:31:46Z</time>
      </trkpt>
      <trkpt lat="48.85889" lon="-0.49833">
        <ele>71.01609</ele>
        <time>2016-06-09T12:31:51Z</time>
      </trkpt>
      <trkpt lat="48.85875" lon="-0.49829">
        <ele>70.07392</ele>
        <time>2016-06-09T12:32:01Z</time>
      </trkpt>
      <trkpt lat="48.85867" lon="-0.49828">
        <ele>70.07392</ele>
        <time>2016-06-09T12:32:06Z</time>
      </trkpt>
      <trkpt lat="48.85861" lon="-0.4982">
        <ele>68.56453</ele>
        <time>2016-06-09T12:32:16Z</time>
      </trkpt>
      <trkpt lat="48.85855" lon="-0.49817">
        <ele>68.56453</ele>
        <time>2016-06-09T12:32:21Z</time>
      </trkpt>
      <trkpt lat="48.85844" lon="-0.49804">
        <ele>67.26503</ele>
        <time>2016-06-09T12:32:31Z</time>
      </trkpt>
      <trkpt lat="48.85838" lon="-0.49798">
        <ele>67.26503</ele>
        <time>2016-06-09T12:32:36Z</time>
      </trkpt>
      <trkpt lat="48.8583" lon="-0.49795">
        <ele>66.15986</ele>
        <time>2016-06-09T12:32:46Z</time>
      </trkpt>
      <trkpt lat="48.85828" lon="-0.49795">
        <ele>66.15986</ele>
        <time>2016-06-09T12:32:51Z</time>
      </trkpt>
      <trkpt lat="48.85826" lon="-0.49798">
        <ele>66.15986</ele>
        <time>2016-06-09T12:33:01Z</time>
      </trkpt>
      <trkpt lat="48.85825" lon="-0.49801">
        <ele>66.15986</ele>
        <time>2016-06-09T12:33:06Z</time>
      </trkpt>
      <trkpt lat="48.85825" lon="-0.49801">
        <ele>66.15986</ele>
        <time>2016-06-09T12:33:16Z</time>
      </trkpt>
      <trkpt lat="48.85825" lon="-0.49799">
        <ele>66.15986</ele>
        <time>2016-06-09T12:33:21Z</time>
      </trkpt>
      <trkpt lat="48.85825" lon="-0.49799">
        <ele>66.15986</ele>
        <time>2016-06-09T12:33:31Z</time>
      </trkpt>
      <trkpt lat="48.85825" lon="-0.49799">
        <ele>66.15986</ele>
        <time>2016-06-09T12:33:36Z</time>
      </trkpt>
      <trkpt lat="48.85825" lon="-0.49799">
        <ele>66.15986</ele>
        <time>2016-06-09T12:33:46Z</time>
      </trkpt>
      <trkpt lat="48.85825" lon="-0.49797">
        <ele>66.73276</ele>
        <time>2016-06-09T12:33:51Z</time>
      </trkpt>
      <trkpt lat="48.85823" lon="-0.49802">
        <ele>66.73276</ele>
        <time>2016-06-09T12:34:06Z</time>
      </trkpt>
      <trkpt lat="48.85824" lon="-0.49799">
        <ele>66.73276</ele>
        <time>2016-06-09T12:34:11Z</time>
      </trkpt>
      <trkpt lat="48.85826" lon="-0.49798">
        <ele>66.73276</ele>
        <time>2016-06-09T12:34:21Z</time>
      </trkpt>
      <trkpt lat="48.85826" lon="-0.49797">
        <ele>66.73276</ele>
        <time>2016-06-09T12:34:26Z</time>
      </trkpt>
      <trkpt lat="48.85826" lon="-0.49797">
        <ele>66.73276</ele>
        <time>2016-06-09T12:34:36Z</time>
      </trkpt>
      <trkpt lat="48.85826" lon="-0.49797">
        <ele>66.73276</ele>
        <time>2016-06-09T12:34:41Z</time>
      </trkpt>
      <trkpt lat="48.85827" lon="-0.49797">
        <ele>66.73276</ele>
        <time>2016-06-09T12:34:51Z</time>
      </trkpt>
      <trkpt lat="48.85827" lon="-0.49797">
        <ele>66.73276</ele>
        <time>2016-06-09T12:34:56Z</time>
      </trkpt>
      <trkpt lat="48.85827" lon="-0.49797">
        <ele>66.73276</ele>
        <time>2016-06-09T12:35:06Z</time>
      </trkpt>
      <trkpt lat="48.85827" lon="-0.49797">
        <ele>66.73276</ele>
        <time>2016-06-09T12:35:11Z</time>
      </trkpt>
      <trkpt lat="48.85824" lon="-0.49801">
        <ele>67.29855</ele>
        <time>2016-06-09T12:35:21Z</time>
      </trkpt>
      <trkpt lat="48.85822" lon="-0.49798">
        <ele>67.29855</ele>
        <time>2016-06-09T12:35:26Z</time>
      </trkpt>
      <trkpt lat="48.85819" lon="-0.49801">
        <ele>67.29855</ele>
        <time>2016-06-09T12:35:31Z</time>
      </trkpt>
      <trkpt lat="48.85812" lon="-0.49806">
        <ele>68.05404</ele>
        <time>2016-06-09T12:35:36Z</time>
      </trkpt>
      <trkpt lat="48.858" lon="-0.49818">
        <ele>68.936005</ele>
        <time>2016-06-09T12:35:46Z</time>
      </trkpt>
      <trkpt lat="48.85799" lon="-0.49823">
        <ele>68.936005</ele>
        <time>2016-06-09T12:35:51Z</time>
      </trkpt>
      <trkpt lat="48.85793" lon="-0.49826">
        <ele>69.352325</ele>
        <time>2016-06-09T12:36:01Z</time>
      </trkpt>
      <trkpt lat="48.85792" lon="-0.49825">
        <ele>69.352325</ele>
        <time>2016-06-09T12:36:06Z</time>
      </trkpt>
      <trkpt lat="48.85787" lon="-0.49836">
        <ele>69.27452</ele>
        <time>2016-06-09T12:36:16Z</time>
      </trkpt>
      <trkpt lat="48.8578" lon="-0.49842">
        <ele>69.27452</ele>
        <time>2016-06-09T12:36:21Z</time>
      </trkpt>
      <trkpt lat="48.85769" lon="-0.49853">
        <ele>69.13878</ele>
        <time>2016-06-09T12:36:31Z</time>
      </trkpt>
      <trkpt lat="48.85771" lon="-0.49852">
        <ele>69.13878</ele>
        <time>2016-06-09T12:36:36Z</time>
      </trkpt>
      <trkpt lat="48.8576" lon="-0.49864">
        <ele>68.21097</ele>
        <time>2016-06-09T12:36:46Z</time>
      </trkpt>
      <trkpt lat="48.85757" lon="-0.49871">
        <ele>68.21097</ele>
        <time>2016-06-09T12:36:51Z</time>
      </trkpt>
      <trkpt lat="48.85746" lon="-0.49882">
        <ele>67.0381</ele>
        <time>2016-06-09T12:37:01Z</time>
      </trkpt>
      <trkpt lat="48.85738" lon="-0.49887">
        <ele>67.0381</ele>
        <time>2016-06-09T12:37:06Z</time>
      </trkpt>
      <trkpt lat="48.85718" lon="-0.49899">
        <ele>66.38717</ele>
        <time>2016-06-09T12:37:21Z</time>
      </trkpt>
      <trkpt lat="48.85713" lon="-0.49902">
        <ele>66.38717</ele>
        <time>2016-06-09T12:37:26Z</time>
      </trkpt>
      <trkpt lat="48.85702" lon="-0.49914">
        <ele>65.9298</ele>
        <time>2016-06-09T12:37:36Z</time>
      </trkpt>
      <trkpt lat="48.85694" lon="-0.49922">
        <ele>66.052986</ele>
        <time>2016-06-09T12:37:41Z</time>
      </trkpt>
      <trkpt lat="48.8568" lon="-0.49927">
        <ele>66.537285</ele>
        <time>2016-06-09T12:37:51Z</time>
      </trkpt>
      <trkpt lat="48.85672" lon="-0.49932">
        <ele>66.537285</ele>
        <time>2016-06-09T12:37:56Z</time>
      </trkpt>
      <trkpt lat="48.85666" lon="-0.49946">
        <ele>66.78933</ele>
        <time>2016-06-09T12:38:06Z</time>
      </trkpt>
      <trkpt lat="48.85662" lon="-0.49951">
        <ele>66.78933</ele>
        <time>2016-06-09T12:38:11Z</time>
      </trkpt>
      <trkpt lat="48.85651" lon="-0.49964">
        <ele>66.98061</ele>
        <time>2016-06-09T12:38:21Z</time>
      </trkpt>
      <trkpt lat="48.85647" lon="-0.4997">
        <ele>66.98061</ele>
        <time>2016-06-09T12:38:26Z</time>
      </trkpt>
      <trkpt lat="48.85635" lon="-0.4998">
        <ele>67.96202</ele>
        <time>2016-06-09T12:38:36Z</time>
      </trkpt>
      <trkpt lat="48.85633" lon="-0.49986">
        <ele>67.96202</ele>
        <time>2016-06-09T12:38:41Z</time>
      </trkpt>
      <trkpt lat="48.85623" lon="-0.50001">
        <ele>68.55989</ele>
        <time>2016-06-09T12:38:51Z</time>
      </trkpt>
      <trkpt lat="48.85615" lon="-0.50005">
        <ele>68.55989</ele>
        <time>2016-06-09T12:38:56Z</time>
      </trkpt>
      <trkpt lat="48.85605" lon="-0.50017">
        <ele>69.10025</ele>
        <time>2016-06-09T12:39:06Z</time>
      </trkpt>
      <trkpt lat="48.85602" lon="-0.50021">
        <ele>69.10025</ele>
        <time>2016-06-09T12:39:11Z</time>
      </trkpt>
      <trkpt lat="48.85592" lon="-0.50041">
        <ele>69.79896</ele>
        <time>2016-06-09T12:39:26Z</time>
      </trkpt>
      <trkpt lat="48.85589" lon="-0.50049">
        <ele>69.79896</ele>
        <time>2016-06-09T12:39:31Z</time>
      </trkpt>
      <trkpt lat="48.85579" lon="-0.50062">
        <ele>70.66834</ele>
        <time>2016-06-09T12:39:41Z</time>
      </trkpt>
      <trkpt lat="48.8558" lon="-0.5006">
        <ele>70.66834</ele>
        <time>2016-06-09T12:39:46Z</time>
      </trkpt>
      <trkpt lat="48.85577" lon="-0.50062">
        <ele>70.66834</ele>
        <time>2016-06-09T12:39:56Z</time>
      </trkpt>
      <trkpt lat="48.85577" lon="-0.50062">
        <ele>70.66834</ele>
        <time>2016-06-09T12:40:01Z</time>
      </trkpt>
      <trkpt lat="48.85572" lon="-0.50069">
        <ele>71.02773</ele>
        <time>2016-06-09T12:40:11Z</time>
      </trkpt>
      <trkpt lat="48.85567" lon="-0.5008">
        <ele>71.87648</ele>
        <time>2016-06-09T12:40:16Z</time>
      </trkpt>
      <trkpt lat="48.85554" lon="-0.50095">
        <ele>72.856674</ele>
        <time>2016-06-09T12:40:26Z</time>
      </trkpt>
      <trkpt lat="48.85549" lon="-0.50103">
        <ele>72.856674</ele>
        <time>2016-06-09T12:40:31Z</time>
      </trkpt>
      <trkpt lat="48.85536" lon="-0.50114">
        <ele>74.602</ele>
        <time>2016-06-09T12:40:41Z</time>
      </trkpt>
      <trkpt lat="48.85533" lon="-0.5012">
        <ele>74.602</ele>
        <time>2016-06-09T12:40:46Z</time>
      </trkpt>
      <trkpt lat="48.85529" lon="-0.50134">
        <ele>75.881805</ele>
        <time>2016-06-09T12:40:56Z</time>
      </trkpt>
      <trkpt lat="48.85526" lon="-0.50136">
        <ele>75.881805</ele>
        <time>2016-06-09T12:41:01Z</time>
      </trkpt>
      <trkpt lat="48.85515" lon="-0.50155">
        <ele>76.609276</ele>
        <time>2016-06-09T12:41:16Z</time>
      </trkpt>
      <trkpt lat="48.85506" lon="-0.50162">
        <ele>77.772125</ele>
        <time>2016-06-09T12:41:21Z</time>
      </trkpt>
      <trkpt lat="48.85501" lon="-0.5017">
        <ele>77.772125</ele>
        <time>2016-06-09T12:41:31Z</time>
      </trkpt>
      <trkpt lat="48.85491" lon="-0.50187">
        <ele>79.17477</ele>
        <time>2016-06-09T12:41:36Z</time>
      </trkpt>
      <trkpt lat="48.85486" lon="-0.50191">
        <ele>79.17477</ele>
        <time>2016-06-09T12:41:46Z</time>
      </trkpt>
      <trkpt lat="48.85483" lon="-0.50198">
        <ele>80.318436</ele>
        <time>2016-06-09T12:41:51Z</time>
      </trkpt>
      <trkpt lat="48.85477" lon="-0.50207">
        <ele>80.318436</ele>
        <time>2016-06-09T12:42:01Z</time>
      </trkpt>
      <trkpt lat="48.85474" lon="-0.50212">
        <ele>81.693016</ele>
        <time>2016-06-09T12:42:06Z</time>
      </trkpt>
      <trkpt lat="48.85465" lon="-0.50228">
        <ele>82.58463</ele>
        <time>2016-06-09T12:42:16Z</time>
      </trkpt>
      <trkpt lat="48.85464" lon="-0.50231">
        <ele>82.58463</ele>
        <time>2016-06-09T12:42:21Z</time>
      </trkpt>
      <trkpt lat="48.85456" lon="-0.50244">
        <ele>82.75129</ele>
        <time>2016-06-09T12:42:31Z</time>
      </trkpt>
      <trkpt lat="48.85455" lon="-0.50249">
        <ele>82.75129</ele>
        <time>2016-06-09T12:42:36Z</time>
      </trkpt>
      <trkpt lat="48.85434" lon="-0.5027">
        <ele>83.152664</ele>
        <time>2016-06-09T12:42:51Z</time>
      </trkpt>
      <trkpt lat="48.85427" lon="-0.50276">
        <ele>83.152664</ele>
        <time>2016-06-09T12:42:56Z</time>
      </trkpt>
      <trkpt lat="48.85418" lon="-0.50287">
        <ele>84.576584</ele>
        <time>2016-06-09T12:43:06Z</time>
      </trkpt>
      <trkpt lat="48.85413" lon="-0.50295">
        <ele>84.576584</ele>
        <time>2016-06-09T12:43:11Z</time>
      </trkpt>
      <trkpt lat="48.85409" lon="-0.50308">
        <ele>85.87681</ele>
        <time>2016-06-09T12:43:21Z</time>
      </trkpt>
      <trkpt lat="48.85405" lon="-0.50315">
        <ele>85.87681</ele>
        <time>2016-06-09T12:43:26Z</time>
      </trkpt>
      <trkpt lat="48.85394" lon="-0.50329">
        <ele>87.46178</ele>
        <time>2016-06-09T12:43:36Z</time>
      </trkpt>
      <trkpt lat="48.85393" lon="-0.50334">
        <ele>87.46178</ele>
        <time>2016-06-09T12:43:41Z</time>
      </trkpt>
      <trkpt lat="48.85387" lon="-0.50343">
        <ele>88.599594</ele>
        <time>2016-06-09T12:43:51Z</time>
      </trkpt>
      <trkpt lat="48.85386" lon="-0.50347">
        <ele>88.599594</ele>
        <time>2016-06-09T12:43:56Z</time>
      </trkpt>
      <trkpt lat="48.85376" lon="-0.50361">
        <ele>89.17558</ele>
        <time>2016-06-09T12:44:06Z</time>
      </trkpt>
      <trkpt lat="48.85371" lon="-0.50368">
        <ele>89.17558</ele>
        <time>2016-06-09T12:44:11Z</time>
      </trkpt>
      <trkpt lat="48.85369" lon="-0.50376">
        <ele>89.41669</ele>
        <time>2016-06-09T12:44:16Z</time>
      </trkpt>
      <trkpt lat="48.8537" lon="-0.50376">
        <ele>89.41669</ele>
        <time>2016-06-09T12:44:21Z</time>
      </trkpt>
      <trkpt lat="48.8536" lon="-0.50385">
        <ele>88.9722</ele>
        <time>2016-06-09T12:44:26Z</time>
      </trkpt>
      <trkpt lat="48.85354" lon="-0.50389">
        <ele>88.9722</ele>
        <time>2016-06-09T12:44:31Z</time>
      </trkpt>
      <trkpt lat="48.85345" lon="-0.50401">
        <ele>89.17655</ele>
        <time>2016-06-09T12:44:41Z</time>
      </trkpt>
      <trkpt lat="48.85342" lon="-0.5041">
        <ele>89.17655</ele>
        <time>2016-06-09T12:44:46Z</time>
      </trkpt>
      <trkpt lat="48.85337" lon="-0.50425">
        <ele>89.95301</ele>
        <time>2016-06-09T12:44:56Z</time>
      </trkpt>
      <trkpt lat="48.85335" lon="-0.50435">
        <ele>89.95301</ele>
        <time>2016-06-09T12:45:01Z</time>
      </trkpt>
      <trkpt lat="48.85328" lon="-0.50461">
        <ele>90.99844</ele>
        <time>2016-06-09T12:45:16Z</time>
      </trkpt>
      <trkpt lat="48.85327" lon="-0.50471">
        <ele>90.99844</ele>
        <time>2016-06-09T12:45:21Z</time>
      </trkpt>
      <trkpt lat="48.85327" lon="-0.50484">
        <ele>92.08898</ele>
        <time>2016-06-09T12:45:31Z</time>
      </trkpt>
      <trkpt lat="48.85325" lon="-0.50491">
        <ele>92.08898</ele>
        <time>2016-06-09T12:45:36Z</time>
      </trkpt>
      <trkpt lat="48.85322" lon="-0.50508">
        <ele>93.9539</ele>
        <time>2016-06-09T12:45:46Z</time>
      </trkpt>
      <trkpt lat="48.85321" lon="-0.50518">
        <ele>93.9539</ele>
        <time>2016-06-09T12:45:51Z</time>
      </trkpt>
      <trkpt lat="48.85321" lon="-0.50527">
        <ele>95.49429</ele>
        <time>2016-06-09T12:46:01Z</time>
      </trkpt>
      <trkpt lat="48.85322" lon="-0.50534">
        <ele>95.49429</ele>
        <time>2016-06-09T12:46:06Z</time>
      </trkpt>
      <trkpt lat="48.85325" lon="-0.50544">
        <ele>96.70177</ele>
        <time>2016-06-09T12:46:16Z</time>
      </trkpt>
      <trkpt lat="48.85327" lon="-0.5055">
        <ele>96.70177</ele>
        <time>2016-06-09T12:46:21Z</time>
      </trkpt>
      <trkpt lat="48.85331" lon="-0.50555">
        <ele>97.3246</ele>
        <time>2016-06-09T12:46:31Z</time>
      </trkpt>
      <trkpt lat="48.85331" lon="-0.50562">
        <ele>97.3246</ele>
        <time>2016-06-09T12:46:36Z</time>
      </trkpt>
      <trkpt lat="48.85334" lon="-0.50585">
        <ele>98.74538</ele>
        <time>2016-06-09T12:46:46Z</time>
      </trkpt>
      <trkpt lat="48.85333" lon="-0.50593">
        <ele>98.74538</ele>
        <time>2016-06-09T12:46:51Z</time>
      </trkpt>
      <trkpt lat="48.85338" lon="-0.50611">
        <ele>100.211006</ele>
        <time>2016-06-09T12:47:06Z</time>
      </trkpt>
      <trkpt lat="48.85341" lon="-0.50621">
        <ele>100.211006</ele>
        <time>2016-06-09T12:47:11Z</time>
      </trkpt>
      <trkpt lat="48.85347" lon="-0.50629">
        <ele>101.283104</ele>
        <time>2016-06-09T12:47:21Z</time>
      </trkpt>
      <trkpt lat="48.8535" lon="-0.50632">
        <ele>101.283104</ele>
        <time>2016-06-09T12:47:26Z</time>
      </trkpt>
      <trkpt lat="48.85355" lon="-0.50646">
        <ele>102.23403</ele>
        <time>2016-06-09T12:47:36Z</time>
      </trkpt>
      <trkpt lat="48.85358" lon="-0.50653">
        <ele>102.23403</ele>
        <time>2016-06-09T12:47:41Z</time>
      </trkpt>
      <trkpt lat="48.85367" lon="-0.50659">
        <ele>102.95629</ele>
        <time>2016-06-09T12:47:51Z</time>
      </trkpt>
      <trkpt lat="48.85368" lon="-0.50663">
        <ele>102.95629</ele>
        <time>2016-06-09T12:47:56Z</time>
      </trkpt>
      <trkpt lat="48.85376" lon="-0.50671">
        <ele>103.682495</ele>
        <time>2016-06-09T12:48:06Z</time>
      </trkpt>
      <trkpt lat="48.85379" lon="-0.50676">
        <ele>103.682495</ele>
        <time>2016-06-09T12:48:11Z</time>
      </trkpt>
      <trkpt lat="48.8538" lon="-0.50678">
        <ele>103.682495</ele>
        <time>2016-06-09T12:48:21Z</time>
      </trkpt>
      <trkpt lat="48.8538" lon="-0.50678">
        <ele>103.682495</ele>
        <time>2016-06-09T12:48:26Z</time>
      </trkpt>
      <trkpt lat="48.85387" lon="-0.50685">
        <ele>105.074974</ele>
        <time>2016-06-09T12:48:36Z</time>
      </trkpt>
      <trkpt lat="48.85394" lon="-0.50693">
        <ele>105.074974</ele>
        <time>2016-06-09T12:48:41Z</time>
      </trkpt>
      <trkpt lat="48.85404" lon="-0.50705">
        <ele>105.65604</ele>
        <time>2016-06-09T12:48:51Z</time>
      </trkpt>
      <trkpt lat="48.85408" lon="-0.50713">
        <ele>105.65604</ele>
        <time>2016-06-09T12:48:56Z</time>
      </trkpt>
      <trkpt lat="48.8542" lon="-0.50727">
        <ele>106.09085</ele>
        <time>2016-06-09T12:49:06Z</time>
      </trkpt>
      <trkpt lat="48.85425" lon="-0.50735">
        <ele>106.09085</ele>
        <time>2016-06-09T12:49:11Z</time>
      </trkpt>
      <trkpt lat="48.85433" lon="-0.5075">
        <ele>106.10273</ele>
        <time>2016-06-09T12:49:26Z</time>
      </trkpt>
      <trkpt lat="48.85438" lon="-0.50759">
        <ele>106.10273</ele>
        <time>2016-06-09T12:49:31Z</time>
      </trkpt>
      <trkpt lat="48.85449" lon="-0.5077">
        <ele>106.69032</ele>
        <time>2016-06-09T12:49:41Z</time>
      </trkpt>
      <trkpt lat="48.85454" lon="-0.50777">
        <ele>106.69032</ele>
        <time>2016-06-09T12:49:46Z</time>
      </trkpt>
      <trkpt lat="48.8546" lon="-0.50785">
        <ele>106.2266</ele>
        <time>2016-06-09T12:49:56Z</time>
      </trkpt>
      <trkpt lat="48.85464" lon="-0.50793">
        <ele>106.2266</ele>
        <time>2016-06-09T12:50:01Z</time>
      </trkpt>
      <trkpt lat="48.85472" lon="-0.50805">
        <ele>106.43516</ele>
        <time>2016-06-09T12:50:11Z</time>
      </trkpt>
      <trkpt lat="48.85474" lon="-0.50809">
        <ele>106.43516</ele>
        <time>2016-06-09T12:50:16Z</time>
      </trkpt>
      <trkpt lat="48.85482" lon="-0.50821">
        <ele>105.95683</ele>
        <time>2016-06-09T12:50:26Z</time>
      </trkpt>
      <trkpt lat="48.85485" lon="-0.50825">
        <ele>105.95683</ele>
        <time>2016-06-09T12:50:31Z</time>
      </trkpt>
      <trkpt lat="48.85492" lon="-0.50832">
        <ele>106.05621</ele>
        <time>2016-06-09T12:50:41Z</time>
      </trkpt>
      <trkpt lat="48.85493" lon="-0.50833">
        <ele>106.05621</ele>
        <time>2016-06-09T12:50:46Z</time>
      </trkpt>
      <trkpt lat="48.85504" lon="-0.50843">
        <ele>107.341354</ele>
        <time>2016-06-09T12:50:56Z</time>
      </trkpt>
      <trkpt lat="48.85511" lon="-0.50849">
        <ele>107.341354</ele>
        <time>2016-06-09T12:51:01Z</time>
      </trkpt>
      <trkpt lat="48.85523" lon="-0.50856">
        <ele>108.62861</ele>
        <time>2016-06-09T12:51:11Z</time>
      </trkpt>
      <trkpt lat="48.85528" lon="-0.50859">
        <ele>108.62861</ele>
        <time>2016-06-09T12:51:16Z</time>
      </trkpt>
      <trkpt lat="48.85539" lon="-0.50867">
        <ele>109.25359</ele>
        <time>2016-06-09T12:51:26Z</time>
      </trkpt>
      <trkpt lat="48.85546" lon="-0.50869">
        <ele>109.25359</ele>
        <time>2016-06-09T12:51:31Z</time>
      </trkpt>
      <trkpt lat="48.8555" lon="-0.50869">
        <ele>110.15902</ele>
        <time>2016-06-09T12:51:36Z</time>
      </trkpt>
      <trkpt lat="48.85556" lon="-0.50871">
        <ele>110.15902</ele>
        <time>2016-06-09T12:51:41Z</time>
      </trkpt>
      <trkpt lat="48.85558" lon="-0.50875">
        <ele>111.12233</ele>
        <time>2016-06-09T12:51:46Z</time>
      </trkpt>
      <trkpt lat="48.85568" lon="-0.50874">
        <ele>112.038025</ele>
        <time>2016-06-09T12:51:56Z</time>
      </trkpt>
      <trkpt lat="48.85574" lon="-0.50876">
        <ele>112.038025</ele>
        <time>2016-06-09T12:52:01Z</time>
      </trkpt>
      <trkpt lat="48.85585" lon="-0.5088">
        <ele>112.82293</ele>
        <time>2016-06-09T12:52:11Z</time>
      </trkpt>
      <trkpt lat="48.85589" lon="-0.50882">
        <ele>112.82293</ele>
        <time>2016-06-09T12:52:16Z</time>
      </trkpt>
      <trkpt lat="48.85601" lon="-0.50886">
        <ele>113.58771</ele>
        <time>2016-06-09T12:52:26Z</time>
      </trkpt>
      <trkpt lat="48.85607" lon="-0.50887">
        <ele>113.58771</ele>
        <time>2016-06-09T12:52:31Z</time>
      </trkpt>
      <trkpt lat="48.85625" lon="-0.50893">
        <ele>114.564644</ele>
        <time>2016-06-09T12:52:46Z</time>
      </trkpt>
      <trkpt lat="48.85629" lon="-0.50895">
        <ele>114.564644</ele>
        <time>2016-06-09T12:52:51Z</time>
      </trkpt>
      <trkpt lat="48.85636" lon="-0.50901">
        <ele>114.71462</ele>
        <time>2016-06-09T12:53:01Z</time>
      </trkpt>
      <trkpt lat="48.85643" lon="-0.50905">
        <ele>114.71462</ele>
        <time>2016-06-09T12:53:06Z</time>
      </trkpt>
      <trkpt lat="48.85655" lon="-0.50909">
        <ele>115.13796</ele>
        <time>2016-06-09T12:53:16Z</time>
      </trkpt>
      <trkpt lat="48.85661" lon="-0.50912">
        <ele>115.13796</ele>
        <time>2016-06-09T12:53:21Z</time>
      </trkpt>
      <trkpt lat="48.85675" lon="-0.50916">
        <ele>115.93108</ele>
        <time>2016-06-09T12:53:31Z</time>
      </trkpt>
      <trkpt lat="48.85678" lon="-0.50919">
        <ele>115.93108</ele>
        <time>2016-06-09T12:53:36Z</time>
      </trkpt>
      <trkpt lat="48.8569" lon="-0.50924">
        <ele>116.0294</ele>
        <time>2016-06-09T12:53:46Z</time>
      </trkpt>
      <trkpt lat="48.85694" lon="-0.50927">
        <ele>116.0294</ele>
        <time>2016-06-09T12:53:51Z</time>
      </trkpt>
      <trkpt lat="48.85707" lon="-0.50932">
        <ele>116.36516</ele>
        <time>2016-06-09T12:54:01Z</time>
      </trkpt>
      <trkpt lat="48.85712" lon="-0.50935">
        <ele>116.36516</ele>
        <time>2016-06-09T12:54:06Z</time>
      </trkpt>
      <trkpt lat="48.85728" lon="-0.50943">
        <ele>116.31709</ele>
        <time>2016-06-09T12:54:21Z</time>
      </trkpt>
      <trkpt lat="48.85731" lon="-0.50943">
        <ele>116.31709</ele>
        <time>2016-06-09T12:54:26Z</time>
      </trkpt>
      <trkpt lat="48.85738" lon="-0.50945">
        <ele>116.55</ele>
        <time>2016-06-09T12:54:36Z</time>
      </trkpt>
      <trkpt lat="48.85741" lon="-0.50946">
        <ele>116.55</ele>
        <time>2016-06-09T12:54:41Z</time>
      </trkpt>
      <trkpt lat="48.85753" lon="-0.50949">
        <ele>117.6358</ele>
        <time>2016-06-09T12:54:51Z</time>
      </trkpt>
      <trkpt lat="48.85758" lon="-0.50951">
        <ele>117.6358</ele>
        <time>2016-06-09T12:54:56Z</time>
      </trkpt>
      <trkpt lat="48.85769" lon="-0.50954">
        <ele>118.7906</ele>
        <time>2016-06-09T12:55:06Z</time>
      </trkpt>
      <trkpt lat="48.85774" lon="-0.50955">
        <ele>118.7906</ele>
        <time>2016-06-09T12:55:11Z</time>
      </trkpt>
      <trkpt lat="48.85786" lon="-0.5096">
        <ele>119.92194</ele>
        <time>2016-06-09T12:55:21Z</time>
      </trkpt>
      <trkpt lat="48.85792" lon="-0.50961">
        <ele>119.92194</ele>
        <time>2016-06-09T12:55:26Z</time>
      </trkpt>
      <trkpt lat="48.85803" lon="-0.50964">
        <ele>120.973045</ele>
        <time>2016-06-09T12:55:36Z</time>
      </trkpt>
      <trkpt lat="48.85808" lon="-0.50966">
        <ele>120.973045</ele>
        <time>2016-06-09T12:55:41Z</time>
      </trkpt>
      <trkpt lat="48.85819" lon="-0.50972">
        <ele>121.61771</ele>
        <time>2016-06-09T12:55:51Z</time>
      </trkpt>
      <trkpt lat="48.85824" lon="-0.50975">
        <ele>121.61771</ele>
        <time>2016-06-09T12:55:56Z</time>
      </trkpt>
      <trkpt lat="48.85836" lon="-0.5098">
        <ele>122.16007</ele>
        <time>2016-06-09T12:56:06Z</time>
      </trkpt>
      <trkpt lat="48.85842" lon="-0.50981">
        <ele>122.16007</ele>
        <time>2016-06-09T12:56:11Z</time>
      </trkpt>
      <trkpt lat="48.85856" lon="-0.50985">
        <ele>122.75253</ele>
        <time>2016-06-09T12:56:26Z</time>
      </trkpt>
      <trkpt lat="48.85861" lon="-0.50987">
        <ele>122.75253</ele>
        <time>2016-06-09T12:56:31Z</time>
      </trkpt>
      <trkpt lat="48.85866" lon="-0.50988">
        <ele>123.57936</ele>
        <time>2016-06-09T12:56:36Z</time>
      </trkpt>
      <trkpt lat="48.85873" lon="-0.50988">
        <ele>123.57936</ele>
        <time>2016-06-09T12:56:41Z</time>
      </trkpt>
      <trkpt lat="48.85877" lon="-0.50989">
        <ele>124.118904</ele>
        <time>2016-06-09T12:56:46Z</time>
      </trkpt>
      <trkpt lat="48.8588" lon="-0.5099">
        <ele>124.118904</ele>
        <time>2016-06-09T12:56:51Z</time>
      </trkpt>
      <trkpt lat="48.85888" lon="-0.50991">
        <ele>124.72445</ele>
        <time>2016-06-09T12:56:56Z</time>
      </trkpt>
      <trkpt lat="48.85894" lon="-0.50991">
        <ele>124.72445</ele>
        <time>2016-06-09T12:57:01Z</time>
      </trkpt>
      <trkpt lat="48.85899" lon="-0.50991">
        <ele>125.2764</ele>
        <time>2016-06-09T12:57:06Z</time>
      </trkpt>
      <trkpt lat="48.85906" lon="-0.5099">
        <ele>125.2764</ele>
        <time>2016-06-09T12:57:11Z</time>
      </trkpt>
      <trkpt lat="48.85918" lon="-0.50988">
        <ele>126.18289</ele>
        <time>2016-06-09T12:57:21Z</time>
      </trkpt>
      <trkpt lat="48.85923" lon="-0.50988">
        <ele>126.18289</ele>
        <time>2016-06-09T12:57:26Z</time>
      </trkpt>
      <trkpt lat="48.85932" lon="-0.50991">
        <ele>127.201385</ele>
        <time>2016-06-09T12:57:36Z</time>
      </trkpt>
      <trkpt lat="48.85937" lon="-0.50998">
        <ele>127.201385</ele>
        <time>2016-06-09T12:57:41Z</time>
      </trkpt>
      <trkpt lat="48.85943" lon="-0.51013">
        <ele>128.1933</ele>
        <time>2016-06-09T12:57:51Z</time>
      </trkpt>
      <trkpt lat="48.85946" lon="-0.51018">
        <ele>128.1933</ele>
        <time>2016-06-09T12:57:56Z</time>
      </trkpt>
      <trkpt lat="48.85952" lon="-0.51031">
        <ele>129.41939</ele>
        <time>2016-06-09T12:58:06Z</time>
      </trkpt>
      <trkpt lat="48.85954" lon="-0.51037">
        <ele>129.41939</ele>
        <time>2016-06-09T12:58:11Z</time>
      </trkpt>
      <trkpt lat="48.85956" lon="-0.5104">
        <ele>129.41939</ele>
        <time>2016-06-09T12:58:16Z</time>
      </trkpt>
      <trkpt lat="48.85956" lon="-0.51044">
        <ele>130.65947</ele>
        <time>2016-06-09T12:58:21Z</time>
      </trkpt>
      <trkpt lat="48.85959" lon="-0.51047">
        <ele>130.65947</ele>
        <time>2016-06-09T12:58:26Z</time>
      </trkpt>
      <trkpt lat="48.85959" lon="-0.51059">
        <ele>132.04092</ele>
        <time>2016-06-09T12:58:31Z</time>
      </trkpt>
      <trkpt lat="48.85961" lon="-0.51063">
        <ele>132.04092</ele>
        <time>2016-06-09T12:58:36Z</time>
      </trkpt>
      <trkpt lat="48.85964" lon="-0.51068">
        <ele>132.04092</ele>
        <time>2016-06-09T12:58:41Z</time>
      </trkpt>
      <trkpt lat="48.85971" lon="-0.51076">
        <ele>132.51407</ele>
        <time>2016-06-09T12:58:51Z</time>
      </trkpt>
      <trkpt lat="48.85973" lon="-0.51081">
        <ele>132.51407</ele>
        <time>2016-06-09T12:58:56Z</time>
      </trkpt>
      <trkpt lat="48.85972" lon="-0.51083">
        <ele>132.51407</ele>
        <time>2016-06-09T12:59:06Z</time>
      </trkpt>
      <trkpt lat="48.85972" lon="-0.51084">
        <ele>132.51407</ele>
        <time>2016-06-09T12:59:11Z</time>
      </trkpt>
      <trkpt lat="48.85972" lon="-0.51084">
        <ele>132.51407</ele>
        <time>2016-06-09T12:59:16Z</time>
      </trkpt>
      <trkpt lat="48.85972" lon="-0.51084">
        <ele>132.51407</ele>
        <time>2016-06-09T12:59:21Z</time>
      </trkpt>
      <trkpt lat="48.85969" lon="-0.51084">
        <ele>132.42032</ele>
        <time>2016-06-09T12:59:26Z</time>
      </trkpt>
      <trkpt lat="48.85971" lon="-0.51086">
        <ele>132.42032</ele>
        <time>2016-06-09T12:59:31Z</time>
      </trkpt>
      <trkpt lat="48.8597" lon="-0.51085">
        <ele>132.42032</ele>
        <time>2016-06-09T12:59:36Z</time>
      </trkpt>
      <trkpt lat="48.85972" lon="-0.51087">
        <ele>132.42032</ele>
        <time>2016-06-09T12:59:41Z</time>
      </trkpt>
      <trkpt lat="48.85972" lon="-0.51087">
        <ele>132.42032</ele>
        <time>2016-06-09T12:59:46Z</time>
      </trkpt>
      <trkpt lat="48.85972" lon="-0.51087">
        <ele>132.42032</ele>
        <time>2016-06-09T12:59:51Z</time>
      </trkpt>
      <trkpt lat="48.85972" lon="-0.51087">
        <ele>132.42032</ele>
        <time>2016-06-09T12:59:56Z</time>
      </trkpt>
      <trkpt lat="48.85972" lon="-0.51087">
        <ele>132.42032</ele>
        <time>2016-06-09T13:00:01Z</time>
      </trkpt>
      <trkpt lat="48.85973" lon="-0.51089">
        <ele>132.42032</ele>
        <time>2016-06-09T13:00:06Z</time>
      </trkpt>
      <trkpt lat="48.85978" lon="-0.51096">
        <ele>133.46103</ele>
        <time>2016-06-09T13:00:16Z</time>
      </trkpt>
      <trkpt lat="48.85979" lon="-0.51097">
        <ele>133.46103</ele>
        <time>2016-06-09T13:00:21Z</time>
      </trkpt>
      <trkpt lat="48.85979" lon="-0.51098">
        <ele>133.46103</ele>
        <time>2016-06-09T13:00:31Z</time>
      </trkpt>
      <trkpt lat="48.85986" lon="-0.51106">
        <ele>135.09102</ele>
        <time>2016-06-09T13:00:36Z</time>
      </trkpt>
      <trkpt lat="48.86" lon="-0.51116">
        <ele>136.77463</ele>
        <time>2016-06-09T13:00:46Z</time>
      </trkpt>
      <trkpt lat="48.86004" lon="-0.51119">
        <ele>136.77463</ele>
        <time>2016-06-09T13:00:51Z</time>
      </trkpt>
      <trkpt lat="48.86017" lon="-0.51138">
        <ele>138.95216</ele>
        <time>2016-06-09T13:01:06Z</time>
      </trkpt>
      <trkpt lat="48.86021" lon="-0.51143">
        <ele>138.95216</ele>
        <time>2016-06-09T13:01:11Z</time>
      </trkpt>
      <trkpt lat="48.86023" lon="-0.51147">
        <ele>138.95216</ele>
        <time>2016-06-09T13:01:16Z</time>
      </trkpt>
      <trkpt lat="48.86028" lon="-0.51151">
        <ele>140.66113</ele>
        <time>2016-06-09T13:01:21Z</time>
      </trkpt>
      <trkpt lat="48.86034" lon="-0.51157">
        <ele>140.66113</ele>
        <time>2016-06-09T13:01:26Z</time>
      </trkpt>
      <trkpt lat="48.86038" lon="-0.51162">
        <ele>141.9478</ele>
        <time>2016-06-09T13:01:31Z</time>
      </trkpt>
      <trkpt lat="48.86041" lon="-0.51167">
        <ele>141.9478</ele>
        <time>2016-06-09T13:01:36Z</time>
      </trkpt>
      <trkpt lat="48.86042" lon="-0.51171">
        <ele>141.9478</ele>
        <time>2016-06-09T13:01:41Z</time>
      </trkpt>
      <trkpt lat="48.8605" lon="-0.51177">
        <ele>142.49602</ele>
        <time>2016-06-09T13:01:51Z</time>
      </trkpt>
      <trkpt lat="48.86054" lon="-0.51184">
        <ele>142.49602</ele>
        <time>2016-06-09T13:01:56Z</time>
      </trkpt>
      <trkpt lat="48.86058" lon="-0.51199">
        <ele>142.9372</ele>
        <time>2016-06-09T13:02:06Z</time>
      </trkpt>
      <trkpt lat="48.86058" lon="-0.51208">
        <ele>142.9372</ele>
        <time>2016-06-09T13:02:11Z</time>
      </trkpt>
      <trkpt lat="48.86059" lon="-0.51224">
        <ele>143.3956</ele>
        <time>2016-06-09T13:02:21Z</time>
      </trkpt>
      <trkpt lat="48.86059" lon="-0.51233">
        <ele>143.3956</ele>
        <time>2016-06-09T13:02:26Z</time>
      </trkpt>
      <trkpt lat="48.86058" lon="-0.51243">
        <ele>144.2601</ele>
        <time>2016-06-09T13:02:36Z</time>
      </trkpt>
      <trkpt lat="48.86058" lon="-0.51251">
        <ele>144.2601</ele>
        <time>2016-06-09T13:02:41Z</time>
      </trkpt>
      <trkpt lat="48.86057" lon="-0.51265">
        <ele>144.5641</ele>
        <time>2016-06-09T13:02:51Z</time>
      </trkpt>
      <trkpt lat="48.86057" lon="-0.51269">
        <ele>144.5641</ele>
        <time>2016-06-09T13:02:56Z</time>
      </trkpt>
      <trkpt lat="48.86055" lon="-0.51282">
        <ele>144.71056</ele>
        <time>2016-06-09T13:03:11Z</time>
      </trkpt>
      <trkpt lat="48.86056" lon="-0.51291">
        <ele>144.71056</ele>
        <time>2016-06-09T13:03:16Z</time>
      </trkpt>
      <trkpt lat="48.86057" lon="-0.51314">
        <ele>144.64096</ele>
        <time>2016-06-09T13:03:26Z</time>
      </trkpt>
      <trkpt lat="48.86056" lon="-0.51324">
        <ele>144.64096</ele>
        <time>2016-06-09T13:03:31Z</time>
      </trkpt>
      <trkpt lat="48.86054" lon="-0.51338">
        <ele>144.69081</ele>
        <time>2016-06-09T13:03:41Z</time>
      </trkpt>
      <trkpt lat="48.86054" lon="-0.51347">
        <ele>144.69081</ele>
        <time>2016-06-09T13:03:46Z</time>
      </trkpt>
      <trkpt lat="48.86056" lon="-0.51358">
        <ele>144.7527</ele>
        <time>2016-06-09T13:03:56Z</time>
      </trkpt>
      <trkpt lat="48.86057" lon="-0.51367">
        <ele>144.7527</ele>
        <time>2016-06-09T13:04:01Z</time>
      </trkpt>
      <trkpt lat="48.86059" lon="-0.51379">
        <ele>144.94322</ele>
        <time>2016-06-09T13:04:11Z</time>
      </trkpt>
      <trkpt lat="48.86062" lon="-0.51387">
        <ele>144.94322</ele>
        <time>2016-06-09T13:04:16Z</time>
      </trkpt>
      <trkpt lat="48.86067" lon="-0.514">
        <ele>145.80238</ele>
        <time>2016-06-09T13:04:26Z</time>
      </trkpt>
      <trkpt lat="48.86071" lon="-0.51405">
        <ele>145.80238</ele>
        <time>2016-06-09T13:04:31Z</time>
      </trkpt>
      <trkpt lat="48.86078" lon="-0.51416">
        <ele>146.84865</ele>
        <time>2016-06-09T13:04:41Z</time>
      </trkpt>
      <trkpt lat="48.86082" lon="-0.5142">
        <ele>146.84865</ele>
        <time>2016-06-09T13:04:46Z</time>
      </trkpt>
      <trkpt lat="48.86086" lon="-0.51428">
        <ele>148.1253</ele>
        <time>2016-06-09T13:04:56Z</time>
      </trkpt>
      <trkpt lat="48.86089" lon="-0.51433">
        <ele>148.1253</ele>
        <time>2016-06-09T13:05:01Z</time>
      </trkpt>
      <trkpt lat="48.86099" lon="-0.51447">
        <ele>149.36917</ele>
        <time>2016-06-09T13:05:16Z</time>
      </trkpt>
      <trkpt lat="48.86102" lon="-0.51454">
        <ele>149.36917</ele>
        <time>2016-06-09T13:05:21Z</time>
      </trkpt>
      <trkpt lat="48.86107" lon="-0.51467">
        <ele>150.82643</ele>
        <time>2016-06-09T13:05:31Z</time>
      </trkpt>
      <trkpt lat="48.86109" lon="-0.51477">
        <ele>150.82643</ele>
        <time>2016-06-09T13:05:36Z</time>
      </trkpt>
      <trkpt lat="48.86115" lon="-0.51487">
        <ele>152.26347</ele>
        <time>2016-06-09T13:05:46Z</time>
      </trkpt>
      <trkpt lat="48.86118" lon="-0.51493">
        <ele>152.26347</ele>
        <time>2016-06-09T13:05:51Z</time>
      </trkpt>
      <trkpt lat="48.86124" lon="-0.51505">
        <ele>153.70883</ele>
        <time>2016-06-09T13:06:01Z</time>
      </trkpt>
      <trkpt lat="48.86127" lon="-0.51513">
        <ele>153.70883</ele>
        <time>2016-06-09T13:06:06Z</time>
      </trkpt>
      <trkpt lat="48.8613" lon="-0.51526">
        <ele>155.00163</ele>
        <time>2016-06-09T13:06:16Z</time>
      </trkpt>
      <trkpt lat="48.86133" lon="-0.51535">
        <ele>155.00163</ele>
        <time>2016-06-09T13:06:21Z</time>
      </trkpt>
      <trkpt lat="48.86139" lon="-0.51549">
        <ele>156.56967</ele>
        <time>2016-06-09T13:06:31Z</time>
      </trkpt>
      <trkpt lat="48.86144" lon="-0.51557">
        <ele>156.56967</ele>
        <time>2016-06-09T13:06:36Z</time>
      </trkpt>
      <trkpt lat="48.8615" lon="-0.5157">
        <ele>158.24654</ele>
        <time>2016-06-09T13:06:46Z</time>
      </trkpt>
      <trkpt lat="48.86153" lon="-0.51575">
        <ele>158.24654</ele>
        <time>2016-06-09T13:06:51Z</time>
      </trkpt>
      <trkpt lat="48.86165" lon="-0.51593">
        <ele>159.9642</ele>
        <time>2016-06-09T13:07:06Z</time>
      </trkpt>
      <trkpt lat="48.86168" lon="-0.51597">
        <ele>159.9642</ele>
        <time>2016-06-09T13:07:11Z</time>
      </trkpt>
      <trkpt lat="48.86177" lon="-0.51604">
        <ele>161.83252</ele>
        <time>2016-06-09T13:07:21Z</time>
      </trkpt>
      <trkpt lat="48.86181" lon="-0.51609">
        <ele>161.83252</ele>
        <time>2016-06-09T13:07:26Z</time>
      </trkpt>
      <trkpt lat="48.86188" lon="-0.51617">
        <ele>163.44847</ele>
        <time>2016-06-09T13:07:36Z</time>
      </trkpt>
      <trkpt lat="48.86193" lon="-0.51617">
        <ele>163.44847</ele>
        <time>2016-06-09T13:07:41Z</time>
      </trkpt>
      <trkpt lat="48.86199" lon="-0.51608">
        <ele>165.60667</ele>
        <time>2016-06-09T13:07:51Z</time>
      </trkpt>
      <trkpt lat="48.86202" lon="-0.51602">
        <ele>165.60667</ele>
        <time>2016-06-09T13:07:56Z</time>
      </trkpt>
      <trkpt lat="48.86207" lon="-0.51591">
        <ele>167.88902</ele>
        <time>2016-06-09T13:08:06Z</time>
      </trkpt>
      <trkpt lat="48.86209" lon="-0.51587">
        <ele>167.88902</ele>
        <time>2016-06-09T13:08:11Z</time>
      </trkpt>
      <trkpt lat="48.86216" lon="-0.51576">
        <ele>170.16722</ele>
        <time>2016-06-09T13:08:21Z</time>
      </trkpt>
      <trkpt lat="48.8622" lon="-0.51572">
        <ele>170.16722</ele>
        <time>2016-06-09T13:08:26Z</time>
      </trkpt>
      <trkpt lat="48.86225" lon="-0.51562">
        <ele>172.55302</ele>
        <time>2016-06-09T13:08:36Z</time>
      </trkpt>
      <trkpt lat="48.86227" lon="-0.51558">
        <ele>172.55302</ele>
        <time>2016-06-09T13:08:41Z</time>
      </trkpt>
      <trkpt lat="48.86234" lon="-0.51546">
        <ele>174.7895</ele>
        <time>2016-06-09T13:08:51Z</time>
      </trkpt>
      <trkpt lat="48.86239" lon="-0.5154">
        <ele>174.7895</ele>
        <time>2016-06-09T13:08:56Z</time>
      </trkpt>
      <trkpt lat="48.86247" lon="-0.51526">
        <ele>177.18668</ele>
        <time>2016-06-09T13:09:06Z</time>
      </trkpt>
      <trkpt lat="48.86251" lon="-0.51521">
        <ele>177.18668</ele>
        <time>2016-06-09T13:09:11Z</time>
      </trkpt>
      <trkpt lat="48.86256" lon="-0.51512">
        <ele>179.35411</ele>
        <time>2016-06-09T13:09:21Z</time>
      </trkpt>
      <trkpt lat="48.86261" lon="-0.51512">
        <ele>179.35411</ele>
        <time>2016-06-09T13:09:26Z</time>
      </trkpt>
      <trkpt lat="48.86269" lon="-0.51523">
        <ele>181.23338</ele>
        <time>2016-06-09T13:09:36Z</time>
      </trkpt>
      <trkpt lat="48.86275" lon="-0.51527">
        <ele>181.23338</ele>
        <time>2016-06-09T13:09:41Z</time>
      </trkpt>
      <trkpt lat="48.86295" lon="-0.5153">
        <ele>183.13158</ele>
        <time>2016-06-09T13:09:56Z</time>
      </trkpt>
      <trkpt lat="48.86296" lon="-0.51527">
        <ele>183.13158</ele>
        <time>2016-06-09T13:10:01Z</time>
      </trkpt>
      <trkpt lat="48.86307" lon="-0.51522">
        <ele>185.11705</ele>
        <time>2016-06-09T13:10:11Z</time>
      </trkpt>
      <trkpt lat="48.86313" lon="-0.51518">
        <ele>185.11705</ele>
        <time>2016-06-09T13:10:16Z</time>
      </trkpt>
      <trkpt lat="48.8632" lon="-0.51507">
        <ele>187.008</ele>
        <time>2016-06-09T13:10:26Z</time>
      </trkpt>
      <trkpt lat="48.86322" lon="-0.51506">
        <ele>187.008</ele>
        <time>2016-06-09T13:10:31Z</time>
      </trkpt>
      <trkpt lat="48.86322" lon="-0.51506">
        <ele>187.008</ele>
        <time>2016-06-09T13:10:41Z</time>
      </trkpt>
      <trkpt lat="48.86322" lon="-0.51506">
        <ele>187.008</ele>
        <time>2016-06-09T13:10:46Z</time>
      </trkpt>
      <trkpt lat="48.86325" lon="-0.51502">
        <ele>187.008</ele>
        <time>2016-06-09T13:10:56Z</time>
      </trkpt>
      <trkpt lat="48.86324" lon="-0.51499">
        <ele>187.008</ele>
        <time>2016-06-09T13:11:01Z</time>
      </trkpt>
      <trkpt lat="48.86324" lon="-0.51497">
        <ele>188.52104</ele>
        <time>2016-06-09T13:11:11Z</time>
      </trkpt>
      <trkpt lat="48.86323" lon="-0.5149">
        <ele>188.52104</ele>
        <time>2016-06-09T13:11:16Z</time>
      </trkpt>
      <trkpt lat="48.86311" lon="-0.51472">
        <ele>190.12973</ele>
        <time>2016-06-09T13:11:31Z</time>
      </trkpt>
      <trkpt lat="48.86309" lon="-0.5147">
        <ele>190.12973</ele>
        <time>2016-06-09T13:11:36Z</time>
      </trkpt>
      <trkpt lat="48.86309" lon="-0.51465">
        <ele>190.12973</ele>
        <time>2016-06-09T13:11:46Z</time>
      </trkpt>
      <trkpt lat="48.8631" lon="-0.51461">
        <ele>190.12973</ele>
        <time>2016-06-09T13:11:51Z</time>
      </trkpt>
      <trkpt lat="48.86307" lon="-0.51451">
        <ele>190.93239</ele>
        <time>2016-06-09T13:12:01Z</time>
      </trkpt>
      <trkpt lat="48.86308" lon="-0.51443">
        <ele>190.93239</ele>
        <time>2016-06-09T13:12:06Z</time>
      </trkpt>
      <trkpt lat="48.86311" lon="-0.51437">
        <ele>192.19997</ele>
        <time>2016-06-09T13:12:16Z</time>
      </trkpt>
      <trkpt lat="48.86307" lon="-0.51433">
        <ele>192.19997</ele>
        <time>2016-06-09T13:12:21Z</time>
      </trkpt>
      <trkpt lat="48.8631" lon="-0.51436">
        <ele>192.19997</ele>
        <time>2016-06-09T13:12:31Z</time>
      </trkpt>
      <trkpt lat="48.8631" lon="-0.51436">
        <ele>193.50917</ele>
        <time>2016-06-09T13:12:36Z</time>
      </trkpt>
      <trkpt lat="48.8631" lon="-0.51435">
        <ele>193.50917</ele>
        <time>2016-06-09T13:12:46Z</time>
      </trkpt>
      <trkpt lat="48.86311" lon="-0.51436">
        <ele>193.50917</ele>
        <time>2016-06-09T13:12:51Z</time>
      </trkpt>
      <trkpt lat="48.86304" lon="-0.51422">
        <ele>194.1363</ele>
        <time>2016-06-09T13:13:06Z</time>
      </trkpt>
      <trkpt lat="48.86299" lon="-0.51416">
        <ele>194.1363</ele>
        <time>2016-06-09T13:13:11Z</time>
      </trkpt>
      <trkpt lat="48.86292" lon="-0.51407">
        <ele>194.39273</ele>
        <time>2016-06-09T13:13:21Z</time>
      </trkpt>
      <trkpt lat="48.86292" lon="-0.51407">
        <ele>194.39273</ele>
        <time>2016-06-09T13:13:26Z</time>
      </trkpt>
      <trkpt lat="48.86292" lon="-0.51405">
        <ele>194.39273</ele>
        <time>2016-06-09T13:13:36Z</time>
      </trkpt>
      <trkpt lat="48.86292" lon="-0.51406">
        <ele>194.39273</ele>
        <time>2016-06-09T13:13:41Z</time>
      </trkpt>
      <trkpt lat="48.86293" lon="-0.51406">
        <ele>194.39273</ele>
        <time>2016-06-09T13:13:46Z</time>
      </trkpt>
      <trkpt lat="48.86291" lon="-0.51408">
        <ele>194.39273</ele>
        <time>2016-06-09T14:01:19Z</time>
      </trkpt>
      <trkpt lat="48.86291" lon="-0.51408">
        <ele>194.39273</ele>
        <time>2016-06-09T14:01:24Z</time>
      </trkpt>
      <trkpt lat="48.86291" lon="-0.51408">
        <ele>194.39273</ele>
        <time>2016-06-09T14:01:29Z</time>
      </trkpt>
      <trkpt lat="48.86292" lon="-0.51408">
        <ele>194.39273</ele>
        <time>2016-06-09T14:01:44Z</time>
      </trkpt>
      <trkpt lat="48.86292" lon="-0.51408">
        <ele>194.39273</ele>
        <time>2016-06-09T14:01:49Z</time>
      </trkpt>
      <trkpt lat="48.86292" lon="-0.51408">
        <ele>194.39273</ele>
        <time>2016-06-09T14:01:54Z</time>
      </trkpt>
      <trkpt lat="48.86292" lon="-0.51408">
        <ele>194.39273</ele>
        <time>2016-06-09T14:02:09Z</time>
      </trkpt>
      <trkpt lat="48.86292" lon="-0.51408">
        <ele>194.39273</ele>
        <time>2016-06-09T14:02:14Z</time>
      </trkpt>
      <trkpt lat="48.86292" lon="-0.51408">
        <ele>194.39273</ele>
        <time>2016-06-09T14:02:24Z</time>
      </trkpt>
      <trkpt lat="48.86292" lon="-0.51408">
        <ele>194.39273</ele>
        <time>2016-06-09T14:02:29Z</time>
      </trkpt>
      <trkpt lat="48.8629" lon="-0.51407">
        <ele>194.39273</ele>
        <time>2016-06-09T14:02:39Z</time>
      </trkpt>
      <trkpt lat="48.8629" lon="-0.51407">
        <ele>194.39273</ele>
        <time>2016-06-09T14:02:44Z</time>
      </trkpt>
      <trkpt lat="48.86289" lon="-0.51407">
        <ele>194.39273</ele>
        <time>2016-06-09T14:02:54Z</time>
      </trkpt>
      <trkpt lat="48.8629" lon="-0.51407">
        <ele>194.39273</ele>
        <time>2016-06-09T14:02:59Z</time>
      </trkpt>
      <trkpt lat="48.8629" lon="-0.51407">
        <ele>194.39273</ele>
        <time>2016-06-09T14:03:09Z</time>
      </trkpt>
      <trkpt lat="48.8629" lon="-0.51408">
        <ele>194.39273</ele>
        <time>2016-06-09T14:03:14Z</time>
      </trkpt>
      <trkpt lat="48.86292" lon="-0.51411">
        <ele>194.12132</ele>
        <time>2016-06-09T14:03:24Z</time>
      </trkpt>
      <trkpt lat="48.86292" lon="-0.51412">
        <ele>194.12132</ele>
        <time>2016-06-09T14:03:29Z</time>
      </trkpt>
      <trkpt lat="48.86292" lon="-0.51412">
        <ele>194.12132</ele>
        <time>2016-06-09T14:03:39Z</time>
      </trkpt>
      <trkpt lat="48.86292" lon="-0.51412">
        <ele>194.12132</ele>
        <time>2016-06-09T14:03:44Z</time>
      </trkpt>
      <trkpt lat="48.86292" lon="-0.51412">
        <ele>194.12132</ele>
        <time>2016-06-09T14:03:54Z</time>
      </trkpt>
      <trkpt lat="48.86292" lon="-0.51411">
        <ele>194.12132</ele>
        <time>2016-06-09T14:03:59Z</time>
      </trkpt>
      <trkpt lat="48.86292" lon="-0.51412">
        <ele>194.12132</ele>
        <time>2016-06-09T14:04:14Z</time>
      </trkpt>
      <trkpt lat="48.86292" lon="-0.51412">
        <ele>194.12132</ele>
        <time>2016-06-09T14:04:19Z</time>
      </trkpt>
      <trkpt lat="48.86292" lon="-0.51412">
        <ele>194.12132</ele>
        <time>2016-06-09T14:04:29Z</time>
      </trkpt>
      <trkpt lat="48.86293" lon="-0.51412">
        <ele>194.12132</ele>
        <time>2016-06-09T14:04:34Z</time>
      </trkpt>
      <trkpt lat="48.86293" lon="-0.51417">
        <ele>194.12132</ele>
        <time>2016-06-09T14:04:44Z</time>
      </trkpt>
      <trkpt lat="48.86293" lon="-0.51417">
        <ele>194.12132</ele>
        <time>2016-06-09T14:04:49Z</time>
      </trkpt>
      <trkpt lat="48.86293" lon="-0.51417">
        <ele>194.12132</ele>
        <time>2016-06-09T14:04:59Z</time>
      </trkpt>
      <trkpt lat="48.86293" lon="-0.51417">
        <ele>194.12132</ele>
        <time>2016-06-09T14:05:04Z</time>
      </trkpt>
      <trkpt lat="48.86293" lon="-0.51417">
        <ele>194.12132</ele>
        <time>2016-06-09T14:05:14Z</time>
      </trkpt>
      <trkpt lat="48.86292" lon="-0.51418">
        <ele>194.12132</ele>
        <time>2016-06-09T14:05:19Z</time>
      </trkpt>
      <trkpt lat="48.86292" lon="-0.51418">
        <ele>194.15794</ele>
        <time>2016-06-09T14:05:29Z</time>
      </trkpt>
      <trkpt lat="48.86292" lon="-0.51418">
        <ele>194.15794</ele>
        <time>2016-06-09T14:05:34Z</time>
      </trkpt>
      <trkpt lat="48.86292" lon="-0.51419">
        <ele>194.15794</ele>
        <time>2016-06-09T14:05:49Z</time>
      </trkpt>
      <trkpt lat="48.8629" lon="-0.5142">
        <ele>194.15794</ele>
        <time>2016-06-09T14:05:54Z</time>
      </trkpt>
      <trkpt lat="48.8629" lon="-0.51419">
        <ele>194.15794</ele>
        <time>2016-06-09T14:06:04Z</time>
      </trkpt>
      <trkpt lat="48.86289" lon="-0.5142">
        <ele>194.15794</ele>
        <time>2016-06-09T14:06:09Z</time>
      </trkpt>
      <trkpt lat="48.86289" lon="-0.5142">
        <ele>194.15794</ele>
        <time>2016-06-09T14:06:19Z</time>
      </trkpt>
      <trkpt lat="48.86289" lon="-0.5142">
        <ele>194.15794</ele>
        <time>2016-06-09T14:06:24Z</time>
      </trkpt>
      <trkpt lat="48.86289" lon="-0.5142">
        <ele>194.15794</ele>
        <time>2016-06-09T14:06:34Z</time>
      </trkpt>
      <trkpt lat="48.86289" lon="-0.5142">
        <ele>194.15794</ele>
        <time>2016-06-09T14:06:39Z</time>
      </trkpt>
      <trkpt lat="48.86289" lon="-0.5142">
        <ele>194.15794</ele>
        <time>2016-06-09T14:06:49Z</time>
      </trkpt>
      <trkpt lat="48.86289" lon="-0.5142">
        <ele>194.15794</ele>
        <time>2016-06-09T14:06:54Z</time>
      </trkpt>
      <trkpt lat="48.86289" lon="-0.5142">
        <ele>194.15794</ele>
        <time>2016-06-09T14:07:04Z</time>
      </trkpt>
      <trkpt lat="48.86289" lon="-0.5142">
        <ele>194.15794</ele>
        <time>2016-06-09T14:07:09Z</time>
      </trkpt>
      <trkpt lat="48.86289" lon="-0.5142">
        <ele>194.15794</ele>
        <time>2016-06-09T14:07:19Z</time>
      </trkpt>
      <trkpt lat="48.8629" lon="-0.5142">
        <ele>194.15794</ele>
        <time>2016-06-09T14:07:24Z</time>
      </trkpt>
      <trkpt lat="48.8629" lon="-0.51423">
        <ele>194.15794</ele>
        <time>2016-06-09T14:07:39Z</time>
      </trkpt>
      <trkpt lat="48.86288" lon="-0.51429">
        <ele>194.28185</ele>
        <time>2016-06-09T14:07:44Z</time>
      </trkpt>
      <trkpt lat="48.86283" lon="-0.51445">
        <ele>194.17297</ele>
        <time>2016-06-09T14:07:54Z</time>
      </trkpt>
      <trkpt lat="48.86281" lon="-0.51451">
        <ele>194.17297</ele>
        <time>2016-06-09T14:07:59Z</time>
      </trkpt>
      <trkpt lat="48.86273" lon="-0.51467">
        <ele>193.29048</ele>
        <time>2016-06-09T14:08:09Z</time>
      </trkpt>
      <trkpt lat="48.86271" lon="-0.51473">
        <ele>193.29048</ele>
        <time>2016-06-09T14:08:14Z</time>
      </trkpt>
      <trkpt lat="48.86265" lon="-0.51489">
        <ele>192.14412</ele>
        <time>2016-06-09T14:08:24Z</time>
      </trkpt>
      <trkpt lat="48.86261" lon="-0.51496">
        <ele>192.14412</ele>
        <time>2016-06-09T14:08:29Z</time>
      </trkpt>
      <trkpt lat="48.86256" lon="-0.51509">
        <ele>191.06282</ele>
        <time>2016-06-09T14:08:39Z</time>
      </trkpt>
      <trkpt lat="48.86255" lon="-0.5151">
        <ele>191.06282</ele>
        <time>2016-06-09T14:08:44Z</time>
      </trkpt>
      <trkpt lat="48.86255" lon="-0.51511">
        <ele>191.06282</ele>
        <time>2016-06-09T14:08:54Z</time>
      </trkpt>
      <trkpt lat="48.86254" lon="-0.51513">
        <ele>191.06282</ele>
        <time>2016-06-09T14:08:59Z</time>
      </trkpt>
      <trkpt lat="48.86247" lon="-0.51527">
        <ele>190.12056</ele>
        <time>2016-06-09T14:09:09Z</time>
      </trkpt>
      <trkpt lat="48.86243" lon="-0.51533">
        <ele>190.12056</ele>
        <time>2016-06-09T14:09:14Z</time>
      </trkpt>
      <trkpt lat="48.86233" lon="-0.51551">
        <ele>188.7657</ele>
        <time>2016-06-09T14:09:29Z</time>
      </trkpt>
      <trkpt lat="48.8623" lon="-0.51556">
        <ele>188.7657</ele>
        <time>2016-06-09T14:09:34Z</time>
      </trkpt>
      <trkpt lat="48.86223" lon="-0.51569">
        <ele>187.39616</ele>
        <time>2016-06-09T14:09:44Z</time>
      </trkpt>
      <trkpt lat="48.86219" lon="-0.51575">
        <ele>187.39616</ele>
        <time>2016-06-09T14:09:49Z</time>
      </trkpt>
      <trkpt lat="48.86213" lon="-0.51582">
        <ele>185.28528</ele>
        <time>2016-06-09T14:09:59Z</time>
      </trkpt>
      <trkpt lat="48.8621" lon="-0.51589">
        <ele>185.28528</ele>
        <time>2016-06-09T14:10:04Z</time>
      </trkpt>
      <trkpt lat="48.86202" lon="-0.516">
        <ele>182.81378</ele>
        <time>2016-06-09T14:10:14Z</time>
      </trkpt>
      <trkpt lat="48.86199" lon="-0.51607">
        <ele>182.81378</ele>
        <time>2016-06-09T14:10:19Z</time>
      </trkpt>
      <trkpt lat="48.86192" lon="-0.51621">
        <ele>180.23439</ele>
        <time>2016-06-09T14:10:29Z</time>
      </trkpt>
      <trkpt lat="48.8619" lon="-0.51626">
        <ele>180.23439</ele>
        <time>2016-06-09T14:10:34Z</time>
      </trkpt>
      <trkpt lat="48.86188" lon="-0.51632">
        <ele>180.23439</ele>
        <time>2016-06-09T14:10:39Z</time>
      </trkpt>
      <trkpt lat="48.86187" lon="-0.51636">
        <ele>178.31467</ele>
        <time>2016-06-09T14:10:44Z</time>
      </trkpt>
      <trkpt lat="48.86187" lon="-0.51644">
        <ele>178.31467</ele>
        <time>2016-06-09T14:10:49Z</time>
      </trkpt>
      <trkpt lat="48.86184" lon="-0.51648">
        <ele>176.32265</ele>
        <time>2016-06-09T14:10:54Z</time>
      </trkpt>
      <trkpt lat="48.8618" lon="-0.51654">
        <ele>176.32265</ele>
        <time>2016-06-09T14:10:59Z</time>
      </trkpt>
      <trkpt lat="48.86173" lon="-0.51663">
        <ele>174.11337</ele>
        <time>2016-06-09T14:11:09Z</time>
      </trkpt>
      <trkpt lat="48.86171" lon="-0.51667">
        <ele>174.11337</ele>
        <time>2016-06-09T14:11:14Z</time>
      </trkpt>
      <trkpt lat="48.86162" lon="-0.51686">
        <ele>171.62497</ele>
        <time>2016-06-09T14:11:29Z</time>
      </trkpt>
      <trkpt lat="48.8616" lon="-0.51692">
        <ele>171.62497</ele>
        <time>2016-06-09T14:11:34Z</time>
      </trkpt>
      <trkpt lat="48.86155" lon="-0.51704">
        <ele>168.90161</ele>
        <time>2016-06-09T14:11:44Z</time>
      </trkpt>
      <trkpt lat="48.86152" lon="-0.5171">
        <ele>168.90161</ele>
        <time>2016-06-09T14:11:49Z</time>
      </trkpt>
      <trkpt lat="48.86146" lon="-0.51724">
        <ele>165.76848</ele>
        <time>2016-06-09T14:11:59Z</time>
      </trkpt>
      <trkpt lat="48.86143" lon="-0.5173">
        <ele>165.76848</ele>
        <time>2016-06-09T14:12:04Z</time>
      </trkpt>
      <trkpt lat="48.86138" lon="-0.51743">
        <ele>162.3239</ele>
        <time>2016-06-09T14:12:14Z</time>
      </trkpt>
      <trkpt lat="48.86135" lon="-0.5175">
        <ele>162.3239</ele>
        <time>2016-06-09T14:12:19Z</time>
      </trkpt>
      <trkpt lat="48.86128" lon="-0.51763">
        <ele>158.73169</ele>
        <time>2016-06-09T14:12:29Z</time>
      </trkpt>
      <trkpt lat="48.86125" lon="-0.51771">
        <ele>158.73169</ele>
        <time>2016-06-09T14:12:34Z</time>
      </trkpt>
      <trkpt lat="48.8612" lon="-0.51786">
        <ele>155.25906</ele>
        <time>2016-06-09T14:12:44Z</time>
      </trkpt>
      <trkpt lat="48.86117" lon="-0.51795">
        <ele>155.25906</ele>
        <time>2016-06-09T14:12:49Z</time>
      </trkpt>
      <trkpt lat="48.86114" lon="-0.51811">
        <ele>152.41238</ele>
        <time>2016-06-09T14:12:59Z</time>
      </trkpt>
      <trkpt lat="48.86112" lon="-0.51817">
        <ele>152.41238</ele>
        <time>2016-06-09T14:13:04Z</time>
      </trkpt>
      <trkpt lat="48.86108" lon="-0.5183">
        <ele>148.90065</ele>
        <time>2016-06-09T14:13:14Z</time>
      </trkpt>
      <trkpt lat="48.86106" lon="-0.51839">
        <ele>148.90065</ele>
        <time>2016-06-09T14:13:19Z</time>
      </trkpt>
      <trkpt lat="48.86101" lon="-0.51857">
        <ele>145.93588</ele>
        <time>2016-06-09T14:13:29Z</time>
      </trkpt>
      <trkpt lat="48.86099" lon="-0.51864">
        <ele>145.93588</ele>
        <time>2016-06-09T14:13:34Z</time>
      </trkpt>
      <trkpt lat="48.86094" lon="-0.5188">
        <ele>142.98203</ele>
        <time>2016-06-09T14:13:44Z</time>
      </trkpt>
      <trkpt lat="48.86091" lon="-0.51887">
        <ele>142.98203</ele>
        <time>2016-06-09T14:13:49Z</time>
      </trkpt>
      <trkpt lat="48.86081" lon="-0.51908">
        <ele>139.85904</ele>
        <time>2016-06-09T14:14:04Z</time>
      </trkpt>
      <trkpt lat="48.86077" lon="-0.51914">
        <ele>139.85904</ele>
        <time>2016-06-09T14:14:09Z</time>
      </trkpt>
      <trkpt lat="48.8607" lon="-0.51926">
        <ele>136.14093</ele>
        <time>2016-06-09T14:14:19Z</time>
      </trkpt>
      <trkpt lat="48.86066" lon="-0.51933">
        <ele>136.14093</ele>
        <time>2016-06-09T14:14:24Z</time>
      </trkpt>
      <trkpt lat="48.86057" lon="-0.51946">
        <ele>133.14926</ele>
        <time>2016-06-09T14:14:34Z</time>
      </trkpt>
      <trkpt lat="48.86052" lon="-0.5195">
        <ele>133.14926</ele>
        <time>2016-06-09T14:14:39Z</time>
      </trkpt>
      <trkpt lat="48.86047" lon="-0.51955">
        <ele>130.3048</ele>
        <time>2016-06-09T14:14:49Z</time>
      </trkpt>
      <trkpt lat="48.86041" lon="-0.51957">
        <ele>130.3048</ele>
        <time>2016-06-09T14:14:54Z</time>
      </trkpt>
      <trkpt lat="48.86029" lon="-0.51966">
        <ele>127.40156</ele>
        <time>2016-06-09T14:15:04Z</time>
      </trkpt>
      <trkpt lat="48.86024" lon="-0.51968">
        <ele>127.40156</ele>
        <time>2016-06-09T14:15:09Z</time>
      </trkpt>
      <trkpt lat="48.86015" lon="-0.51976">
        <ele>124.709724</ele>
        <time>2016-06-09T14:15:19Z</time>
      </trkpt>
      <trkpt lat="48.86009" lon="-0.51981">
        <ele>124.709724</ele>
        <time>2016-06-09T14:15:24Z</time>
      </trkpt>
      <trkpt lat="48.85998" lon="-0.5199">
        <ele>122.43552</ele>
        <time>2016-06-09T14:15:34Z</time>
      </trkpt>
      <trkpt lat="48.85992" lon="-0.51992">
        <ele>122.43552</ele>
        <time>2016-06-09T14:15:39Z</time>
      </trkpt>
      <trkpt lat="48.85974" lon="-0.52004">
        <ele>120.65324</ele>
        <time>2016-06-09T14:15:54Z</time>
      </trkpt>
      <trkpt lat="48.85969" lon="-0.52009">
        <ele>120.65324</ele>
        <time>2016-06-09T14:15:59Z</time>
      </trkpt>
      <trkpt lat="48.8596" lon="-0.52022">
        <ele>118.99773</ele>
        <time>2016-06-09T14:16:09Z</time>
      </trkpt>
      <trkpt lat="48.85956" lon="-0.5203">
        <ele>118.99773</ele>
        <time>2016-06-09T14:16:14Z</time>
      </trkpt>
      <trkpt lat="48.85948" lon="-0.52042">
        <ele>117.6056</ele>
        <time>2016-06-09T14:16:24Z</time>
      </trkpt>
      <trkpt lat="48.85943" lon="-0.52049">
        <ele>117.6056</ele>
        <time>2016-06-09T14:16:29Z</time>
      </trkpt>
      <trkpt lat="48.85938" lon="-0.52061">
        <ele>115.853065</ele>
        <time>2016-06-09T14:16:39Z</time>
      </trkpt>
      <trkpt lat="48.85936" lon="-0.52067">
        <ele>115.853065</ele>
        <time>2016-06-09T14:16:44Z</time>
      </trkpt>
      <trkpt lat="48.85929" lon="-0.52083">
        <ele>114.474335</ele>
        <time>2016-06-09T14:16:54Z</time>
      </trkpt>
      <trkpt lat="48.85926" lon="-0.52091">
        <ele>114.474335</ele>
        <time>2016-06-09T14:16:59Z</time>
      </trkpt>
      <trkpt lat="48.85918" lon="-0.52107">
        <ele>112.476715</ele>
        <time>2016-06-09T14:17:09Z</time>
      </trkpt>
      <trkpt lat="48.85914" lon="-0.52115">
        <ele>112.476715</ele>
        <time>2016-06-09T14:17:14Z</time>
      </trkpt>
      <trkpt lat="48.85913" lon="-0.52122">
        <ele>111.47833</ele>
        <time>2016-06-09T14:17:29Z</time>
      </trkpt>
      <trkpt lat="48.85913" lon="-0.52122">
        <ele>111.47833</ele>
        <time>2016-06-09T14:17:34Z</time>
      </trkpt>
      <trkpt lat="48.85913" lon="-0.52122">
        <ele>111.47833</ele>
        <time>2016-06-09T14:17:44Z</time>
      </trkpt>
      <trkpt lat="48.85913" lon="-0.52122">
        <ele>111.47833</ele>
        <time>2016-06-09T14:17:49Z</time>
      </trkpt>
      <trkpt lat="48.85909" lon="-0.52131">
        <ele>111.47833</ele>
        <time>2016-06-09T14:17:59Z</time>
      </trkpt>
      <trkpt lat="48.85906" lon="-0.52141">
        <ele>110.7417</ele>
        <time>2016-06-09T14:18:04Z</time>
      </trkpt>
      <trkpt lat="48.859" lon="-0.52147">
        <ele>110.7417</ele>
        <time>2016-06-09T14:18:14Z</time>
      </trkpt>
      <trkpt lat="48.85897" lon="-0.52153">
        <ele>109.49615</ele>
        <time>2016-06-09T14:18:19Z</time>
      </trkpt>
      <trkpt lat="48.85889" lon="-0.52165">
        <ele>108.36911</ele>
        <time>2016-06-09T14:18:29Z</time>
      </trkpt>
      <trkpt lat="48.85881" lon="-0.52168">
        <ele>108.36911</ele>
        <time>2016-06-09T14:18:34Z</time>
      </trkpt>
      <trkpt lat="48.85878" lon="-0.52174">
        <ele>107.19208</ele>
        <time>2016-06-09T14:18:39Z</time>
      </trkpt>
      <trkpt lat="48.85873" lon="-0.52175">
        <ele>107.19208</ele>
        <time>2016-06-09T14:18:44Z</time>
      </trkpt>
      <trkpt lat="48.85868" lon="-0.52179">
        <ele>105.9242</ele>
        <time>2016-06-09T14:18:49Z</time>
      </trkpt>
      <trkpt lat="48.85864" lon="-0.52183">
        <ele>105.9242</ele>
        <time>2016-06-09T14:18:54Z</time>
      </trkpt>
      <trkpt lat="48.85859" lon="-0.52188">
        <ele>104.00898</ele>
        <time>2016-06-09T14:18:59Z</time>
      </trkpt>
      <trkpt lat="48.85852" lon="-0.52204">
        <ele>102.67626</ele>
        <time>2016-06-09T14:19:09Z</time>
      </trkpt>
      <trkpt lat="48.8585" lon="-0.52214">
        <ele>102.67626</ele>
        <time>2016-06-09T14:19:14Z</time>
      </trkpt>
      <trkpt lat="48.8584" lon="-0.5222">
        <ele>101.75237</ele>
        <time>2016-06-09T14:19:24Z</time>
      </trkpt>
      <trkpt lat="48.85836" lon="-0.5222">
        <ele>101.75237</ele>
        <time>2016-06-09T14:19:29Z</time>
      </trkpt>
      <trkpt lat="48.85829" lon="-0.52216">
        <ele>100.58522</ele>
        <time>2016-06-09T14:19:34Z</time>
      </trkpt>
      <trkpt lat="48.85825" lon="-0.52216">
        <ele>100.58522</ele>
        <time>2016-06-09T14:19:39Z</time>
      </trkpt>
      <trkpt lat="48.85817" lon="-0.52211">
        <ele>99.090004</ele>
        <time>2016-06-09T14:19:44Z</time>
      </trkpt>
      <trkpt lat="48.85814" lon="-0.52212">
        <ele>99.090004</ele>
        <time>2016-06-09T14:19:49Z</time>
      </trkpt>
      <trkpt lat="48.85809" lon="-0.52208">
        <ele>99.090004</ele>
        <time>2016-06-09T14:19:54Z</time>
      </trkpt>
      <trkpt lat="48.85797" lon="-0.52201">
        <ele>98.846306</ele>
        <time>2016-06-09T14:20:04Z</time>
      </trkpt>
      <trkpt lat="48.85792" lon="-0.52196">
        <ele>98.846306</ele>
        <time>2016-06-09T14:20:09Z</time>
      </trkpt>
      <trkpt lat="48.85789" lon="-0.52193">
        <ele>99.1236</ele>
        <time>2016-06-09T14:20:19Z</time>
      </trkpt>
      <trkpt lat="48.85789" lon="-0.52193">
        <ele>99.1236</ele>
        <time>2016-06-09T14:20:24Z</time>
      </trkpt>
      <trkpt lat="48.85787" lon="-0.52192">
        <ele>99.1236</ele>
        <time>2016-06-09T14:20:29Z</time>
      </trkpt>
      <trkpt lat="48.85785" lon="-0.52187">
        <ele>99.1236</ele>
        <time>2016-06-09T14:20:34Z</time>
      </trkpt>
      <trkpt lat="48.85784" lon="-0.52184">
        <ele>99.1236</ele>
        <time>2016-06-09T14:20:39Z</time>
      </trkpt>
      <trkpt lat="48.85786" lon="-0.52185">
        <ele>98.89767</ele>
        <time>2016-06-09T14:20:49Z</time>
      </trkpt>
      <trkpt lat="48.85785" lon="-0.52186">
        <ele>98.89767</ele>
        <time>2016-06-09T14:20:54Z</time>
      </trkpt>
      <trkpt lat="48.85785" lon="-0.52185">
        <ele>98.89767</ele>
        <time>2016-06-09T14:21:04Z</time>
      </trkpt>
      <trkpt lat="48.85784" lon="-0.52185">
        <ele>98.89767</ele>
        <time>2016-06-09T14:21:09Z</time>
      </trkpt>
      <trkpt lat="48.85784" lon="-0.52185">
        <ele>98.89767</ele>
        <time>2016-06-09T14:21:14Z</time>
      </trkpt>
      <trkpt lat="48.85785" lon="-0.52187">
        <ele>98.89767</ele>
        <time>2016-06-09T14:21:19Z</time>
      </trkpt>
      <trkpt lat="48.85785" lon="-0.52185">
        <ele>98.89767</ele>
        <time>2016-06-09T14:21:24Z</time>
      </trkpt>
      <trkpt lat="48.85785" lon="-0.52184">
        <ele>98.89767</ele>
        <time>2016-06-09T14:21:29Z</time>
      </trkpt>
      <trkpt lat="48.85785" lon="-0.52184">
        <ele>98.89767</ele>
        <time>2016-06-09T14:21:34Z</time>
      </trkpt>
      <trkpt lat="48.85786" lon="-0.52187">
        <ele>98.89767</ele>
        <time>2016-06-09T14:21:44Z</time>
      </trkpt>
      <trkpt lat="48.85787" lon="-0.52188">
        <ele>99.238495</ele>
        <time>2016-06-09T14:21:49Z</time>
      </trkpt>
      <trkpt lat="48.85787" lon="-0.52188">
        <ele>99.238495</ele>
        <time>2016-06-09T14:21:59Z</time>
      </trkpt>
      <trkpt lat="48.85787" lon="-0.52187">
        <ele>99.238495</ele>
        <time>2016-06-09T14:22:04Z</time>
      </trkpt>
      <trkpt lat="48.85787" lon="-0.52187">
        <ele>99.238495</ele>
        <time>2016-06-09T14:22:14Z</time>
      </trkpt>
      <trkpt lat="48.85787" lon="-0.52187">
        <ele>99.238495</ele>
        <time>2016-06-09T14:22:19Z</time>
      </trkpt>
      <trkpt lat="48.85787" lon="-0.52187">
        <ele>99.238495</ele>
        <time>2016-06-09T14:22:29Z</time>
      </trkpt>
      <trkpt lat="48.85787" lon="-0.52187">
        <ele>99.238495</ele>
        <time>2016-06-09T14:22:34Z</time>
      </trkpt>
      <trkpt lat="48.85787" lon="-0.52187">
        <ele>99.238495</ele>
        <time>2016-06-09T14:22:44Z</time>
      </trkpt>
      <trkpt lat="48.85787" lon="-0.52187">
        <ele>99.238495</ele>
        <time>2016-06-09T14:22:49Z</time>
      </trkpt>
      <trkpt lat="48.85786" lon="-0.52183">
        <ele>99.238495</ele>
        <time>2016-06-09T14:22:59Z</time>
      </trkpt>
      <trkpt lat="48.85788" lon="-0.52179">
        <ele>99.238495</ele>
        <time>2016-06-09T14:23:04Z</time>
      </trkpt>
      <trkpt lat="48.85789" lon="-0.52178">
        <ele>99.04626</ele>
        <time>2016-06-09T14:23:14Z</time>
      </trkpt>
      <trkpt lat="48.8579" lon="-0.52176">
        <ele>99.04626</ele>
        <time>2016-06-09T14:23:19Z</time>
      </trkpt>
      <trkpt lat="48.85791" lon="-0.52173">
        <ele>99.04626</ele>
        <time>2016-06-09T14:23:29Z</time>
      </trkpt>
      <trkpt lat="48.85791" lon="-0.52173">
        <ele>99.04626</ele>
        <time>2016-06-09T14:23:34Z</time>
      </trkpt>
      <trkpt lat="48.85791" lon="-0.52175">
        <ele>99.04626</ele>
        <time>2016-06-09T14:23:44Z</time>
      </trkpt>
      <trkpt lat="48.85791" lon="-0.52172">
        <ele>99.04626</ele>
        <time>2016-06-09T14:23:49Z</time>
      </trkpt>
      <trkpt lat="48.85799" lon="-0.52156">
        <ele>98.55719</ele>
        <time>2016-06-09T14:23:59Z</time>
      </trkpt>
      <trkpt lat="48.858" lon="-0.52149">
        <ele>98.55719</ele>
        <time>2016-06-09T14:24:04Z</time>
      </trkpt>
      <trkpt lat="48.85795" lon="-0.52133">
        <ele>98.09193</ele>
        <time>2016-06-09T14:24:19Z</time>
      </trkpt>
      <trkpt lat="48.85793" lon="-0.52131">
        <ele>98.09193</ele>
        <time>2016-06-09T14:24:24Z</time>
      </trkpt>
      <trkpt lat="48.85784" lon="-0.52122">
        <ele>97.918686</ele>
        <time>2016-06-09T14:24:34Z</time>
      </trkpt>
      <trkpt lat="48.85779" lon="-0.52117">
        <ele>97.918686</ele>
        <time>2016-06-09T14:24:39Z</time>
      </trkpt>
      <trkpt lat="48.85764" lon="-0.52104">
        <ele>98.45815</ele>
        <time>2016-06-09T14:24:49Z</time>
      </trkpt>
      <trkpt lat="48.85759" lon="-0.52101">
        <ele>98.45815</ele>
        <time>2016-06-09T14:24:54Z</time>
      </trkpt>
      <trkpt lat="48.8575" lon="-0.52097">
        <ele>98.46973</ele>
        <time>2016-06-09T14:25:04Z</time>
      </trkpt>
      <trkpt lat="48.85744" lon="-0.52092">
        <ele>98.46973</ele>
        <time>2016-06-09T14:25:09Z</time>
      </trkpt>
      <trkpt lat="48.85731" lon="-0.52086">
        <ele>98.794205</ele>
        <time>2016-06-09T14:25:19Z</time>
      </trkpt>
      <trkpt lat="48.85726" lon="-0.52086">
        <ele>98.794205</ele>
        <time>2016-06-09T14:25:24Z</time>
      </trkpt>
      <trkpt lat="48.85717" lon="-0.52087">
        <ele>99.129005</ele>
        <time>2016-06-09T14:25:34Z</time>
      </trkpt>
      <trkpt lat="48.8571" lon="-0.52088">
        <ele>99.129005</ele>
        <time>2016-06-09T14:25:39Z</time>
      </trkpt>
      <trkpt lat="48.85695" lon="-0.52088">
        <ele>99.41001</ele>
        <time>2016-06-09T14:25:49Z</time>
      </trkpt>
      <trkpt lat="48.8569" lon="-0.5209">
        <ele>99.41001</ele>
        <time>2016-06-09T14:25:54Z</time>
      </trkpt>
      <trkpt lat="48.85684" lon="-0.52093">
        <ele>100.05363</ele>
        <time>2016-06-09T14:26:04Z</time>
      </trkpt>
      <trkpt lat="48.8568" lon="-0.52094">
        <ele>100.05363</ele>
        <time>2016-06-09T14:26:09Z</time>
      </trkpt>
      <trkpt lat="48.85662" lon="-0.52094">
        <ele>100.24865</ele>
        <time>2016-06-09T14:26:24Z</time>
      </trkpt>
      <trkpt lat="48.85656" lon="-0.52096">
        <ele>100.24865</ele>
        <time>2016-06-09T14:26:29Z</time>
      </trkpt>
      <trkpt lat="48.85646" lon="-0.52099">
        <ele>99.70599</ele>
        <time>2016-06-09T14:26:39Z</time>
      </trkpt>
      <trkpt lat="48.85642" lon="-0.52103">
        <ele>99.70599</ele>
        <time>2016-06-09T14:26:44Z</time>
      </trkpt>
      <trkpt lat="48.85631" lon="-0.5211">
        <ele>97.857376</ele>
        <time>2016-06-09T14:26:54Z</time>
      </trkpt>
      <trkpt lat="48.85628" lon="-0.52115">
        <ele>97.857376</ele>
        <time>2016-06-09T14:26:59Z</time>
      </trkpt>
      <trkpt lat="48.8561" lon="-0.52131">
        <ele>97.56666</ele>
        <time>2016-06-09T14:27:09Z</time>
      </trkpt>
      <trkpt lat="48.85606" lon="-0.52138">
        <ele>97.56666</ele>
        <time>2016-06-09T14:27:14Z</time>
      </trkpt>
      <trkpt lat="48.85595" lon="-0.52146">
        <ele>96.90032</ele>
        <time>2016-06-09T14:27:24Z</time>
      </trkpt>
      <trkpt lat="48.85591" lon="-0.52152">
        <ele>96.90032</ele>
        <time>2016-06-09T14:27:29Z</time>
      </trkpt>
      <trkpt lat="48.85581" lon="-0.52162">
        <ele>96.935905</ele>
        <time>2016-06-09T14:27:39Z</time>
      </trkpt>
      <trkpt lat="48.85576" lon="-0.52166">
        <ele>96.935905</ele>
        <time>2016-06-09T14:27:44Z</time>
      </trkpt>
      <trkpt lat="48.85565" lon="-0.52176">
        <ele>97.81964</ele>
        <time>2016-06-09T14:27:54Z</time>
      </trkpt>
      <trkpt lat="48.85559" lon="-0.52175">
        <ele>97.81964</ele>
        <time>2016-06-09T14:27:59Z</time>
      </trkpt>
      <trkpt lat="48.85547" lon="-0.52184">
        <ele>98.69043</ele>
        <time>2016-06-09T14:28:09Z</time>
      </trkpt>
      <trkpt lat="48.85542" lon="-0.52186">
        <ele>98.69043</ele>
        <time>2016-06-09T14:28:14Z</time>
      </trkpt>
      <trkpt lat="48.85533" lon="-0.52195">
        <ele>98.82263</ele>
        <time>2016-06-09T14:28:24Z</time>
      </trkpt>
      <trkpt lat="48.85528" lon="-0.52196">
        <ele>98.82263</ele>
        <time>2016-06-09T14:28:29Z</time>
      </trkpt>
      <trkpt lat="48.85521" lon="-0.52205">
        <ele>98.22343</ele>
        <time>2016-06-09T14:28:44Z</time>
      </trkpt>
      <trkpt lat="48.85517" lon="-0.52213">
        <ele>98.22343</ele>
        <time>2016-06-09T14:28:49Z</time>
      </trkpt>
      <trkpt lat="48.85508" lon="-0.52226">
        <ele>96.858444</ele>
        <time>2016-06-09T14:28:59Z</time>
      </trkpt>
      <trkpt lat="48.85503" lon="-0.52234">
        <ele>96.858444</ele>
        <time>2016-06-09T14:29:04Z</time>
      </trkpt>
      <trkpt lat="48.85493" lon="-0.52236">
        <ele>94.79895</ele>
        <time>2016-06-09T14:29:14Z</time>
      </trkpt>
      <trkpt lat="48.85486" lon="-0.52237">
        <ele>94.79895</ele>
        <time>2016-06-09T14:29:19Z</time>
      </trkpt>
      <trkpt lat="48.85468" lon="-0.52243">
        <ele>92.86246</ele>
        <time>2016-06-09T14:29:29Z</time>
      </trkpt>
      <trkpt lat="48.85459" lon="-0.52245">
        <ele>91.186485</ele>
        <time>2016-06-09T14:29:34Z</time>
      </trkpt>
      <trkpt lat="48.85447" lon="-0.52248">
        <ele>89.92663</ele>
        <time>2016-06-09T14:29:44Z</time>
      </trkpt>
      <trkpt lat="48.85442" lon="-0.52248">
        <ele>89.92663</ele>
        <time>2016-06-09T14:29:49Z</time>
      </trkpt>
      <trkpt lat="48.85419" lon="-0.52258">
        <ele>90.98413</ele>
        <time>2016-06-09T14:30:04Z</time>
      </trkpt>
      <trkpt lat="48.85414" lon="-0.52255">
        <ele>90.98413</ele>
        <time>2016-06-09T14:30:09Z</time>
      </trkpt>
      <trkpt lat="48.85405" lon="-0.52258">
        <ele>91.12791</ele>
        <time>2016-06-09T14:30:19Z</time>
      </trkpt>
      <trkpt lat="48.85401" lon="-0.52257">
        <ele>91.12791</ele>
        <time>2016-06-09T14:30:24Z</time>
      </trkpt>
      <trkpt lat="48.85388" lon="-0.52261">
        <ele>90.50847</ele>
        <time>2016-06-09T14:30:34Z</time>
      </trkpt>
      <trkpt lat="48.85383" lon="-0.52266">
        <ele>90.50847</ele>
        <time>2016-06-09T14:30:39Z</time>
      </trkpt>
      <trkpt lat="48.8537" lon="-0.52268">
        <ele>90.00247</ele>
        <time>2016-06-09T14:30:49Z</time>
      </trkpt>
      <trkpt lat="48.85367" lon="-0.52268">
        <ele>90.00247</ele>
        <time>2016-06-09T14:30:54Z</time>
      </trkpt>
      <trkpt lat="48.8535" lon="-0.52262">
        <ele>89.2114</ele>
        <time>2016-06-09T14:31:04Z</time>
      </trkpt>
      <trkpt lat="48.85343" lon="-0.52262">
        <ele>89.2114</ele>
        <time>2016-06-09T14:31:09Z</time>
      </trkpt>
      <trkpt lat="48.85329" lon="-0.52261">
        <ele>89.294464</ele>
        <time>2016-06-09T14:31:19Z</time>
      </trkpt>
      <trkpt lat="48.85326" lon="-0.52263">
        <ele>89.294464</ele>
        <time>2016-06-09T14:31:24Z</time>
      </trkpt>
      <trkpt lat="48.85315" lon="-0.52263">
        <ele>89.01755</ele>
        <time>2016-06-09T14:31:34Z</time>
      </trkpt>
      <trkpt lat="48.85311" lon="-0.52266">
        <ele>89.01755</ele>
        <time>2016-06-09T14:31:39Z</time>
      </trkpt>
      <trkpt lat="48.853" lon="-0.52272">
        <ele>88.76588</ele>
        <time>2016-06-09T14:31:49Z</time>
      </trkpt>
      <trkpt lat="48.85297" lon="-0.52275">
        <ele>88.76588</ele>
        <time>2016-06-09T14:31:54Z</time>
      </trkpt>
      <trkpt lat="48.85278" lon="-0.52278">
        <ele>88.4208</ele>
        <time>2016-06-09T14:32:09Z</time>
      </trkpt>
      <trkpt lat="48.85273" lon="-0.52278">
        <ele>88.4208</ele>
        <time>2016-06-09T14:32:14Z</time>
      </trkpt>
      <trkpt lat="48.85265" lon="-0.52283">
        <ele>87.94477</ele>
        <time>2016-06-09T14:32:24Z</time>
      </trkpt>
      <trkpt lat="48.85259" lon="-0.52287">
        <ele>87.94477</ele>
        <time>2016-06-09T14:32:29Z</time>
      </trkpt>
      <trkpt lat="48.85248" lon="-0.52295">
        <ele>87.894295</ele>
        <time>2016-06-09T14:32:39Z</time>
      </trkpt>
      <trkpt lat="48.85245" lon="-0.52299">
        <ele>87.894295</ele>
        <time>2016-06-09T14:32:44Z</time>
      </trkpt>
      <trkpt lat="48.85238" lon="-0.52304">
        <ele>87.184235</ele>
        <time>2016-06-09T14:32:54Z</time>
      </trkpt>
      <trkpt lat="48.85234" lon="-0.52305">
        <ele>87.184235</ele>
        <time>2016-06-09T14:32:59Z</time>
      </trkpt>
      <trkpt lat="48.85221" lon="-0.52308">
        <ele>85.834274</ele>
        <time>2016-06-09T14:33:09Z</time>
      </trkpt>
      <trkpt lat="48.85217" lon="-0.52308">
        <ele>85.834274</ele>
        <time>2016-06-09T14:33:14Z</time>
      </trkpt>
      <trkpt lat="48.85205" lon="-0.52314">
        <ele>84.54182</ele>
        <time>2016-06-09T14:33:24Z</time>
      </trkpt>
      <trkpt lat="48.85198" lon="-0.52314">
        <ele>84.54182</ele>
        <time>2016-06-09T14:33:29Z</time>
      </trkpt>
      <trkpt lat="48.85187" lon="-0.5232">
        <ele>83.362076</ele>
        <time>2016-06-09T14:33:39Z</time>
      </trkpt>
      <trkpt lat="48.85181" lon="-0.5232">
        <ele>83.362076</ele>
        <time>2016-06-09T14:33:44Z</time>
      </trkpt>
      <trkpt lat="48.85165" lon="-0.52319">
        <ele>81.783905</ele>
        <time>2016-06-09T14:33:54Z</time>
      </trkpt>
      <trkpt lat="48.85161" lon="-0.52319">
        <ele>81.783905</ele>
        <time>2016-06-09T14:33:59Z</time>
      </trkpt>
      <trkpt lat="48.85152" lon="-0.52323">
        <ele>80.44451</ele>
        <time>2016-06-09T14:34:09Z</time>
      </trkpt>
      <trkpt lat="48.85146" lon="-0.52324">
        <ele>80.44451</ele>
        <time>2016-06-09T14:34:14Z</time>
      </trkpt>
      <trkpt lat="48.85136" lon="-0.52328">
        <ele>78.117836</ele>
        <time>2016-06-09T14:34:24Z</time>
      </trkpt>
      <trkpt lat="48.85129" lon="-0.52334">
        <ele>78.117836</ele>
        <time>2016-06-09T14:34:29Z</time>
      </trkpt>
      <trkpt lat="48.8512" lon="-0.52339">
        <ele>75.80352</ele>
        <time>2016-06-09T14:34:39Z</time>
      </trkpt>
      <trkpt lat="48.85115" lon="-0.52342">
        <ele>75.80352</ele>
        <time>2016-06-09T14:34:44Z</time>
      </trkpt>
      <trkpt lat="48.85105" lon="-0.5235">
        <ele>73.82247</ele>
        <time>2016-06-09T14:34:54Z</time>
      </trkpt>
      <trkpt lat="48.85105" lon="-0.52353">
        <ele>73.82247</ele>
        <time>2016-06-09T14:34:59Z</time>
      </trkpt>
      <trkpt lat="48.85107" lon="-0.52355">
        <ele>73.82247</ele>
        <time>2016-06-09T14:35:04Z</time>
      </trkpt>
      <trkpt lat="48.85105" lon="-0.52355">
        <ele>73.82247</ele>
        <time>2016-06-09T14:35:09Z</time>
      </trkpt>
      <trkpt lat="48.85099" lon="-0.5235">
        <ele>72.528725</ele>
        <time>2016-06-09T14:35:14Z</time>
      </trkpt>
      <trkpt lat="48.85096" lon="-0.52347">
        <ele>72.528725</ele>
        <time>2016-06-09T14:35:19Z</time>
      </trkpt>
      <trkpt lat="48.85089" lon="-0.52336">
        <ele>71.5566</ele>
        <time>2016-06-09T14:35:29Z</time>
      </trkpt>
      <trkpt lat="48.85086" lon="-0.5233">
        <ele>71.5566</ele>
        <time>2016-06-09T14:35:34Z</time>
      </trkpt>
      <trkpt lat="48.8508" lon="-0.5232">
        <ele>71.04197</ele>
        <time>2016-06-09T14:35:39Z</time>
      </trkpt>
      <trkpt lat="48.85081" lon="-0.52317">
        <ele>71.04197</ele>
        <time>2016-06-09T14:35:44Z</time>
      </trkpt>
      <trkpt lat="48.85079" lon="-0.52313">
        <ele>71.04197</ele>
        <time>2016-06-09T14:35:49Z</time>
      </trkpt>
      <trkpt lat="48.85078" lon="-0.52307">
        <ele>70.57615</ele>
        <time>2016-06-09T14:35:54Z</time>
      </trkpt>
      <trkpt lat="48.85073" lon="-0.52298">
        <ele>70.57615</ele>
        <time>2016-06-09T14:35:59Z</time>
      </trkpt>
      <trkpt lat="48.85071" lon="-0.52297">
        <ele>69.66506</ele>
        <time>2016-06-09T14:36:04Z</time>
      </trkpt>
      <trkpt lat="48.85065" lon="-0.52295">
        <ele>69.66506</ele>
        <time>2016-06-09T14:36:09Z</time>
      </trkpt>
      <trkpt lat="48.85064" lon="-0.52282">
        <ele>69.63911</ele>
        <time>2016-06-09T14:36:19Z</time>
      </trkpt>
      <trkpt lat="48.85063" lon="-0.52277">
        <ele>69.63911</ele>
        <time>2016-06-09T14:36:24Z</time>
      </trkpt>
      <trkpt lat="48.85059" lon="-0.5226">
        <ele>69.52356</ele>
        <time>2016-06-09T14:36:34Z</time>
      </trkpt>
      <trkpt lat="48.85055" lon="-0.52256">
        <ele>69.52356</ele>
        <time>2016-06-09T14:36:39Z</time>
      </trkpt>
      <trkpt lat="48.8505" lon="-0.52242">
        <ele>68.79023</ele>
        <time>2016-06-09T14:36:49Z</time>
      </trkpt>
      <trkpt lat="48.85048" lon="-0.52235">
        <ele>68.79023</ele>
        <time>2016-06-09T14:36:54Z</time>
      </trkpt>
      <trkpt lat="48.85039" lon="-0.52218">
        <ele>68.507835</ele>
        <time>2016-06-09T14:37:04Z</time>
      </trkpt>
      <trkpt lat="48.85037" lon="-0.52212">
        <ele>68.507835</ele>
        <time>2016-06-09T14:37:09Z</time>
      </trkpt>
      <trkpt lat="48.8503" lon="-0.52196">
        <ele>68.4836</ele>
        <time>2016-06-09T14:37:19Z</time>
      </trkpt>
      <trkpt lat="48.85026" lon="-0.52188">
        <ele>68.4836</ele>
        <time>2016-06-09T14:37:24Z</time>
      </trkpt>
      <trkpt lat="48.85018" lon="-0.5217">
        <ele>68.20674</ele>
        <time>2016-06-09T14:37:34Z</time>
      </trkpt>
      <trkpt lat="48.85013" lon="-0.52163">
        <ele>68.20674</ele>
        <time>2016-06-09T14:37:39Z</time>
      </trkpt>
      <trkpt lat="48.85008" lon="-0.52151">
        <ele>67.75231</ele>
        <time>2016-06-09T14:37:44Z</time>
      </trkpt>
      <trkpt lat="48.85006" lon="-0.52148">
        <ele>67.75231</ele>
        <time>2016-06-09T14:37:49Z</time>
      </trkpt>
      <trkpt lat="48.85001" lon="-0.52142">
        <ele>67.39212</ele>
        <time>2016-06-09T14:37:54Z</time>
      </trkpt>
      <trkpt lat="48.84992" lon="-0.52128">
        <ele>67.37774</ele>
        <time>2016-06-09T14:37:59Z</time>
      </trkpt>
      <trkpt lat="48.84984" lon="-0.52113">
        <ele>67.37928</ele>
        <time>2016-06-09T14:38:04Z</time>
      </trkpt>
      <trkpt lat="48.84983" lon="-0.52119">
        <ele>67.37928</ele>
        <time>2016-06-09T14:38:09Z</time>
      </trkpt>
      <trkpt lat="48.84974" lon="-0.52095">
        <ele>67.86925</ele>
        <time>2016-06-09T14:38:24Z</time>
      </trkpt>
      <trkpt lat="48.84973" lon="-0.52088">
        <ele>67.86925</ele>
        <time>2016-06-09T14:38:29Z</time>
      </trkpt>
      <trkpt lat="48.84974" lon="-0.52071">
        <ele>68.11678</ele>
        <time>2016-06-09T14:38:39Z</time>
      </trkpt>
      <trkpt lat="48.84977" lon="-0.52064">
        <ele>68.11678</ele>
        <time>2016-06-09T14:38:44Z</time>
      </trkpt>
      <trkpt lat="48.84985" lon="-0.52044">
        <ele>68.59831</ele>
        <time>2016-06-09T14:38:54Z</time>
      </trkpt>
      <trkpt lat="48.84984" lon="-0.52039">
        <ele>68.59831</ele>
        <time>2016-06-09T14:38:59Z</time>
      </trkpt>
      <trkpt lat="48.84988" lon="-0.52031">
        <ele>69.50967</ele>
        <time>2016-06-09T14:39:04Z</time>
      </trkpt>
      <trkpt lat="48.84991" lon="-0.52023">
        <ele>69.50967</ele>
        <time>2016-06-09T14:39:09Z</time>
      </trkpt>
      <trkpt lat="48.84993" lon="-0.52014">
        <ele>70.35378</ele>
        <time>2016-06-09T14:39:14Z</time>
      </trkpt>
      <trkpt lat="48.84999" lon="-0.51985">
        <ele>71.30445</ele>
        <time>2016-06-09T14:39:29Z</time>
      </trkpt>
      <trkpt lat="48.84999" lon="-0.51977">
        <ele>71.30445</ele>
        <time>2016-06-09T14:39:34Z</time>
      </trkpt>
      <trkpt lat="48.84998" lon="-0.51962">
        <ele>72.37834</ele>
        <time>2016-06-09T14:39:44Z</time>
      </trkpt>
      <trkpt lat="48.84996" lon="-0.51955">
        <ele>72.37834</ele>
        <time>2016-06-09T14:39:49Z</time>
      </trkpt>
      <trkpt lat="48.84996" lon="-0.51948">
        <ele>73.02857</ele>
        <time>2016-06-09T14:39:54Z</time>
      </trkpt>
      <trkpt lat="48.84998" lon="-0.51942">
        <ele>73.02857</ele>
        <time>2016-06-09T14:39:59Z</time>
      </trkpt>
      <trkpt lat="48.85001" lon="-0.51936">
        <ele>73.02857</ele>
        <time>2016-06-09T14:40:04Z</time>
      </trkpt>
      <trkpt lat="48.85003" lon="-0.5193">
        <ele>73.34057</ele>
        <time>2016-06-09T14:40:09Z</time>
      </trkpt>
      <trkpt lat="48.85005" lon="-0.51923">
        <ele>73.34057</ele>
        <time>2016-06-09T14:40:14Z</time>
      </trkpt>
      <trkpt lat="48.85008" lon="-0.5191">
        <ele>73.71155</ele>
        <time>2016-06-09T14:40:24Z</time>
      </trkpt>
      <trkpt lat="48.85012" lon="-0.51901">
        <ele>73.71155</ele>
        <time>2016-06-09T14:40:29Z</time>
      </trkpt>
      <trkpt lat="48.85013" lon="-0.51889">
        <ele>74.624756</ele>
        <time>2016-06-09T14:40:39Z</time>
      </trkpt>
      <trkpt lat="48.85015" lon="-0.51885">
        <ele>74.624756</ele>
        <time>2016-06-09T14:40:44Z</time>
      </trkpt>
      <trkpt lat="48.85013" lon="-0.5188">
        <ele>74.624756</ele>
        <time>2016-06-09T14:40:54Z</time>
      </trkpt>
      <trkpt lat="48.85012" lon="-0.51877">
        <ele>75.632996</ele>
        <time>2016-06-09T14:40:59Z</time>
      </trkpt>
      <trkpt lat="48.85021" lon="-0.51871">
        <ele>76.76851</ele>
        <time>2016-06-09T14:41:09Z</time>
      </trkpt>
      <trkpt lat="48.85022" lon="-0.51867">
        <ele>76.76851</ele>
        <time>2016-06-09T14:41:14Z</time>
      </trkpt>
      <trkpt lat="48.85019" lon="-0.51861">
        <ele>76.76851</ele>
        <time>2016-06-09T14:41:24Z</time>
      </trkpt>
      <trkpt lat="48.85017" lon="-0.51853">
        <ele>77.67179</ele>
        <time>2016-06-09T14:41:29Z</time>
      </trkpt>
      <trkpt lat="48.85017" lon="-0.51836">
        <ele>78.51489</ele>
        <time>2016-06-09T14:41:39Z</time>
      </trkpt>
      <trkpt lat="48.85019" lon="-0.51829">
        <ele>78.51489</ele>
        <time>2016-06-09T14:41:44Z</time>
      </trkpt>
      <trkpt lat="48.85018" lon="-0.51824">
        <ele>78.51489</ele>
        <time>2016-06-09T14:41:49Z</time>
      </trkpt>
      <trkpt lat="48.85016" lon="-0.51823">
        <ele>79.24132</ele>
        <time>2016-06-09T14:41:54Z</time>
      </trkpt>
      <trkpt lat="48.85008" lon="-0.51816">
        <ele>79.24132</ele>
        <time>2016-06-09T14:42:04Z</time>
      </trkpt>
      <trkpt lat="48.85" lon="-0.51815">
        <ele>79.395645</ele>
        <time>2016-06-09T14:42:09Z</time>
      </trkpt>
      <trkpt lat="48.84991" lon="-0.51821">
        <ele>79.78257</ele>
        <time>2016-06-09T14:42:19Z</time>
      </trkpt>
      <trkpt lat="48.84991" lon="-0.51821">
        <ele>79.78257</ele>
        <time>2016-06-09T14:42:24Z</time>
      </trkpt>
      <trkpt lat="48.84988" lon="-0.51822">
        <ele>79.78257</ele>
        <time>2016-06-09T14:42:34Z</time>
      </trkpt>
      <trkpt lat="48.84982" lon="-0.51824">
        <ele>79.93656</ele>
        <time>2016-06-09T14:42:39Z</time>
      </trkpt>
      <trkpt lat="48.84974" lon="-0.51829">
        <ele>79.54236</ele>
        <time>2016-06-09T14:42:49Z</time>
      </trkpt>
      <trkpt lat="48.84973" lon="-0.51828">
        <ele>79.54236</ele>
        <time>2016-06-09T14:42:54Z</time>
      </trkpt>
      <trkpt lat="48.84971" lon="-0.51826">
        <ele>79.54236</ele>
        <time>2016-06-09T14:43:04Z</time>
      </trkpt>
      <trkpt lat="48.84971" lon="-0.51826">
        <ele>79.54236</ele>
        <time>2016-06-09T14:43:09Z</time>
      </trkpt>
      <trkpt lat="48.84953" lon="-0.51839">
        <ele>79.07324</ele>
        <time>2016-06-09T14:43:19Z</time>
      </trkpt>
      <trkpt lat="48.84945" lon="-0.5184">
        <ele>79.07324</ele>
        <time>2016-06-09T14:43:24Z</time>
      </trkpt>
      <trkpt lat="48.84946" lon="-0.51846">
        <ele>78.21867</ele>
        <time>2016-06-09T14:43:34Z</time>
      </trkpt>
      <trkpt lat="48.84945" lon="-0.51847">
        <ele>78.21867</ele>
        <time>2016-06-09T14:43:39Z</time>
      </trkpt>
      <trkpt lat="48.84945" lon="-0.51848">
        <ele>78.21867</ele>
        <time>2016-06-09T14:43:49Z</time>
      </trkpt>
      <trkpt lat="48.84945" lon="-0.51848">
        <ele>78.21867</ele>
        <time>2016-06-09T14:43:54Z</time>
      </trkpt>
      <trkpt lat="48.84945" lon="-0.51848">
        <ele>78.21867</ele>
        <time>2016-06-09T14:44:04Z</time>
      </trkpt>
      <trkpt lat="48.84945" lon="-0.51848">
        <ele>78.21867</ele>
        <time>2016-06-09T14:44:09Z</time>
      </trkpt>
      <trkpt lat="48.8493" lon="-0.51886">
        <ele>77.0091</ele>
        <time>2016-06-09T14:44:24Z</time>
      </trkpt>
      <trkpt lat="48.84926" lon="-0.51894">
        <ele>77.0091</ele>
        <time>2016-06-09T14:44:29Z</time>
      </trkpt>
      <trkpt lat="48.84926" lon="-0.51901">
        <ele>77.33283</ele>
        <time>2016-06-09T14:44:39Z</time>
      </trkpt>
      <trkpt lat="48.84926" lon="-0.519">
        <ele>77.33283</ele>
        <time>2016-06-09T14:44:44Z</time>
      </trkpt>
      <trkpt lat="48.84926" lon="-0.519">
        <ele>77.33283</ele>
        <time>2016-06-09T14:44:49Z</time>
      </trkpt>
      <trkpt lat="48.84926" lon="-0.519">
        <ele>77.33283</ele>
        <time>2016-06-09T14:44:54Z</time>
      </trkpt>
      <trkpt lat="48.84926" lon="-0.519">
        <ele>77.33283</ele>
        <time>2016-06-09T14:44:59Z</time>
      </trkpt>
      <trkpt lat="48.84926" lon="-0.519">
        <ele>77.33283</ele>
        <time>2016-06-09T14:45:04Z</time>
      </trkpt>
      <trkpt lat="48.84926" lon="-0.519">
        <ele>77.33283</ele>
        <time>2016-06-09T14:45:09Z</time>
      </trkpt>
      <trkpt lat="48.84926" lon="-0.519">
        <ele>77.33283</ele>
        <time>2016-06-09T14:45:14Z</time>
      </trkpt>
      <trkpt lat="48.84925" lon="-0.519">
        <ele>77.33283</ele>
        <time>2016-06-09T14:45:19Z</time>
      </trkpt>
      <trkpt lat="48.84925" lon="-0.519">
        <ele>77.33283</ele>
        <time>2016-06-09T14:45:24Z</time>
      </trkpt>
      <trkpt lat="48.84925" lon="-0.519">
        <ele>77.33283</ele>
        <time>2016-06-09T14:45:29Z</time>
      </trkpt>
      <trkpt lat="48.84925" lon="-0.519">
        <ele>77.33283</ele>
        <time>2016-06-09T14:45:34Z</time>
      </trkpt>
      <trkpt lat="48.84925" lon="-0.519">
        <ele>77.33283</ele>
        <time>2016-06-09T14:45:39Z</time>
      </trkpt>
      <trkpt lat="48.84925" lon="-0.519">
        <ele>77.33283</ele>
        <time>2016-06-09T14:45:44Z</time>
      </trkpt>
      <trkpt lat="48.84926" lon="-0.519">
        <ele>77.33283</ele>
        <time>2016-06-09T14:45:49Z</time>
      </trkpt>
      <trkpt lat="48.84925" lon="-0.519">
        <ele>77.33283</ele>
        <time>2016-06-09T14:45:54Z</time>
      </trkpt>
      <trkpt lat="48.84926" lon="-0.519">
        <ele>77.33283</ele>
        <time>2016-06-09T14:45:59Z</time>
      </trkpt>
      <trkpt lat="48.84926" lon="-0.519">
        <ele>77.33283</ele>
        <time>2016-06-09T14:46:04Z</time>
      </trkpt>
      <trkpt lat="48.84926" lon="-0.519">
        <ele>77.33283</ele>
        <time>2016-06-09T14:46:09Z</time>
      </trkpt>
      <trkpt lat="48.84926" lon="-0.519">
        <ele>77.33283</ele>
        <time>2016-06-09T14:46:14Z</time>
      </trkpt>
      <trkpt lat="48.84926" lon="-0.519">
        <ele>77.33283</ele>
        <time>2016-06-09T14:46:19Z</time>
      </trkpt>
      <trkpt lat="48.84926" lon="-0.519">
        <ele>77.33283</ele>
        <time>2016-06-09T14:46:24Z</time>
      </trkpt>
      <trkpt lat="48.84926" lon="-0.519">
        <ele>77.33283</ele>
        <time>2016-06-09T14:46:29Z</time>
      </trkpt>
      <trkpt lat="48.84926" lon="-0.519">
        <ele>77.33283</ele>
        <time>2016-06-09T14:46:34Z</time>
      </trkpt>
      <trkpt lat="48.84926" lon="-0.519">
        <ele>77.33283</ele>
        <time>2016-06-09T14:46:39Z</time>
      </trkpt>
      <trkpt lat="48.84926" lon="-0.519">
        <ele>77.33283</ele>
        <time>2016-06-09T14:46:44Z</time>
      </trkpt>
      <trkpt lat="48.84925" lon="-0.519">
        <ele>77.33283</ele>
        <time>2016-06-09T14:46:49Z</time>
      </trkpt>
      <trkpt lat="48.84925" lon="-0.519">
        <ele>77.33283</ele>
        <time>2016-06-09T14:46:54Z</time>
      </trkpt>
      <trkpt lat="48.84923" lon="-0.51909">
        <ele>77.33283</ele>
        <time>2016-06-09T14:47:04Z</time>
      </trkpt>
      <trkpt lat="48.8491" lon="-0.51924">
        <ele>77.217155</ele>
        <time>2016-06-09T14:47:09Z</time>
      </trkpt>
      <trkpt lat="48.84902" lon="-0.51947">
        <ele>77.3719</ele>
        <time>2016-06-09T14:47:19Z</time>
      </trkpt>
      <trkpt lat="48.84898" lon="-0.51954">
        <ele>77.3719</ele>
        <time>2016-06-09T14:47:24Z</time>
      </trkpt>
      <trkpt lat="48.84897" lon="-0.51962">
        <ele>77.44527</ele>
        <time>2016-06-09T14:47:29Z</time>
      </trkpt>
      <trkpt lat="48.84896" lon="-0.5196">
        <ele>77.44527</ele>
        <time>2016-06-09T14:47:34Z</time>
      </trkpt>
      <trkpt lat="48.84898" lon="-0.51963">
        <ele>77.44527</ele>
        <time>2016-06-09T14:47:39Z</time>
      </trkpt>
      <trkpt lat="48.84897" lon="-0.51961">
        <ele>77.44527</ele>
        <time>2016-06-09T14:47:44Z</time>
      </trkpt>
      <trkpt lat="48.849" lon="-0.51964">
        <ele>77.44527</ele>
        <time>2016-06-09T14:47:49Z</time>
      </trkpt>
      <trkpt lat="48.84899" lon="-0.51969">
        <ele>77.48625</ele>
        <time>2016-06-09T14:47:54Z</time>
      </trkpt>
      <trkpt lat="48.84896" lon="-0.51979">
        <ele>77.48625</ele>
        <time>2016-06-09T14:47:59Z</time>
      </trkpt>
      <trkpt lat="48.84884" lon="-0.51985">
        <ele>77.52597</ele>
        <time>2016-06-09T14:48:04Z</time>
      </trkpt>
      <trkpt lat="48.84889" lon="-0.51995">
        <ele>77.52597</ele>
        <time>2016-06-09T14:48:09Z</time>
      </trkpt>
      <trkpt lat="48.84885" lon="-0.52">
        <ele>77.737404</ele>
        <time>2016-06-09T14:48:14Z</time>
      </trkpt>
      <trkpt lat="48.84888" lon="-0.51999">
        <ele>77.737404</ele>
        <time>2016-06-09T14:48:19Z</time>
      </trkpt>
      <trkpt lat="48.84888" lon="-0.51999">
        <ele>77.737404</ele>
        <time>2016-06-09T14:48:24Z</time>
      </trkpt>
      <trkpt lat="48.84888" lon="-0.51999">
        <ele>77.737404</ele>
        <time>2016-06-09T14:48:29Z</time>
      </trkpt>
      <trkpt lat="48.84888" lon="-0.51999">
        <ele>77.737404</ele>
        <time>2016-06-09T14:48:34Z</time>
      </trkpt>
      <trkpt lat="48.84888" lon="-0.51999">
        <ele>77.737404</ele>
        <time>2016-06-09T14:48:39Z</time>
      </trkpt>
      <trkpt lat="48.84889" lon="-0.51999">
        <ele>77.737404</ele>
        <time>2016-06-09T14:48:44Z</time>
      </trkpt>
      <trkpt lat="48.84889" lon="-0.51999">
        <ele>77.737404</ele>
        <time>2016-06-09T14:48:49Z</time>
      </trkpt>
      <trkpt lat="48.84889" lon="-0.51999">
        <ele>77.737404</ele>
        <time>2016-06-09T14:48:54Z</time>
      </trkpt>
      <trkpt lat="48.84889" lon="-0.51999">
        <ele>77.737404</ele>
        <time>2016-06-09T14:48:59Z</time>
      </trkpt>
      <trkpt lat="48.84889" lon="-0.51999">
        <ele>77.737404</ele>
        <time>2016-06-09T14:49:04Z</time>
      </trkpt>
      <trkpt lat="48.84889" lon="-0.51999">
        <ele>77.737404</ele>
        <time>2016-06-09T14:49:09Z</time>
      </trkpt>
      <trkpt lat="48.84889" lon="-0.51999">
        <ele>77.737404</ele>
        <time>2016-06-09T14:49:14Z</time>
      </trkpt>
      <trkpt lat="48.84889" lon="-0.51999">
        <ele>77.737404</ele>
        <time>2016-06-09T14:49:19Z</time>
      </trkpt>
      <trkpt lat="48.84889" lon="-0.51999">
        <ele>77.737404</ele>
        <time>2016-06-09T14:49:24Z</time>
      </trkpt>
      <trkpt lat="48.84889" lon="-0.51999">
        <ele>77.737404</ele>
        <time>2016-06-09T14:49:29Z</time>
      </trkpt>
      <trkpt lat="48.84889" lon="-0.51999">
        <ele>77.737404</ele>
        <time>2016-06-09T14:49:34Z</time>
      </trkpt>
      <trkpt lat="48.84889" lon="-0.51999">
        <ele>77.737404</ele>
        <time>2016-06-09T14:49:39Z</time>
      </trkpt>
      <trkpt lat="48.84889" lon="-0.51999">
        <ele>77.737404</ele>
        <time>2016-06-09T14:49:44Z</time>
      </trkpt>
      <trkpt lat="48.84889" lon="-0.51999">
        <ele>77.737404</ele>
        <time>2016-06-09T14:49:49Z</time>
      </trkpt>
      <trkpt lat="48.84889" lon="-0.51999">
        <ele>77.737404</ele>
        <time>2016-06-09T14:49:54Z</time>
      </trkpt>
      <trkpt lat="48.84889" lon="-0.51999">
        <ele>77.737404</ele>
        <time>2016-06-09T14:49:59Z</time>
      </trkpt>
      <trkpt lat="48.84889" lon="-0.51999">
        <ele>77.737404</ele>
        <time>2016-06-09T14:50:04Z</time>
      </trkpt>
      <trkpt lat="48.84889" lon="-0.51999">
        <ele>77.737404</ele>
        <time>2016-06-09T14:50:09Z</time>
      </trkpt>
      <trkpt lat="48.84889" lon="-0.51999">
        <ele>77.737404</ele>
        <time>2016-06-09T14:50:14Z</time>
      </trkpt>
      <trkpt lat="48.84889" lon="-0.51999">
        <ele>77.737404</ele>
        <time>2016-06-09T14:50:19Z</time>
      </trkpt>
      <trkpt lat="48.84889" lon="-0.51999">
        <ele>77.737404</ele>
        <time>2016-06-09T14:50:24Z</time>
      </trkpt>
      <trkpt lat="48.84889" lon="-0.51999">
        <ele>77.737404</ele>
        <time>2016-06-09T14:50:29Z</time>
      </trkpt>
      <trkpt lat="48.84889" lon="-0.51999">
        <ele>77.737404</ele>
        <time>2016-06-09T14:50:34Z</time>
      </trkpt>
      <trkpt lat="48.84889" lon="-0.51999">
        <ele>77.737404</ele>
        <time>2016-06-09T14:50:39Z</time>
      </trkpt>
      <trkpt lat="48.84889" lon="-0.51999">
        <ele>77.737404</ele>
        <time>2016-06-09T14:50:44Z</time>
      </trkpt>
      <trkpt lat="48.84889" lon="-0.51999">
        <ele>77.737404</ele>
        <time>2016-06-09T14:50:49Z</time>
      </trkpt>
      <trkpt lat="48.84889" lon="-0.51999">
        <ele>77.737404</ele>
        <time>2016-06-09T14:50:54Z</time>
      </trkpt>
      <trkpt lat="48.84889" lon="-0.51999">
        <ele>77.737404</ele>
        <time>2016-06-09T14:50:59Z</time>
      </trkpt>
      <trkpt lat="48.84889" lon="-0.51999">
        <ele>77.737404</ele>
        <time>2016-06-09T14:51:04Z</time>
      </trkpt>
      <trkpt lat="48.84889" lon="-0.51999">
        <ele>77.737404</ele>
        <time>2016-06-09T14:51:09Z</time>
      </trkpt>
      <trkpt lat="48.84889" lon="-0.51999">
        <ele>77.737404</ele>
        <time>2016-06-09T14:51:14Z</time>
      </trkpt>
      <trkpt lat="48.84889" lon="-0.51999">
        <ele>77.737404</ele>
        <time>2016-06-09T14:51:19Z</time>
      </trkpt>
      <trkpt lat="48.84889" lon="-0.52">
        <ele>77.737404</ele>
        <time>2016-06-09T14:51:24Z</time>
      </trkpt>
      <trkpt lat="48.84889" lon="-0.52">
        <ele>77.737404</ele>
        <time>2016-06-09T14:51:29Z</time>
      </trkpt>
      <trkpt lat="48.84889" lon="-0.52">
        <ele>77.737404</ele>
        <time>2016-06-09T14:51:34Z</time>
      </trkpt>
      <trkpt lat="48.84889" lon="-0.52">
        <ele>77.737404</ele>
        <time>2016-06-09T14:51:39Z</time>
      </trkpt>
      <trkpt lat="48.84889" lon="-0.52">
        <ele>77.737404</ele>
        <time>2016-06-09T14:51:44Z</time>
      </trkpt>
      <trkpt lat="48.84889" lon="-0.52">
        <ele>77.737404</ele>
        <time>2016-06-09T14:51:49Z</time>
      </trkpt>
      <trkpt lat="48.84888" lon="-0.52">
        <ele>77.737404</ele>
        <time>2016-06-09T14:51:54Z</time>
      </trkpt>
      <trkpt lat="48.84887" lon="-0.52008">
        <ele>78.95771</ele>
        <time>2016-06-09T14:51:59Z</time>
      </trkpt>
      <trkpt lat="48.84887" lon="-0.52009">
        <ele>78.95771</ele>
        <time>2016-06-09T14:52:04Z</time>
      </trkpt>
      <trkpt lat="48.84887" lon="-0.52009">
        <ele>78.95771</ele>
        <time>2016-06-09T14:52:09Z</time>
      </trkpt>
      <trkpt lat="48.84887" lon="-0.52016">
        <ele>78.95771</ele>
        <time>2016-06-09T14:52:14Z</time>
      </trkpt>
      <trkpt lat="48.84886" lon="-0.52014">
        <ele>78.95771</ele>
        <time>2016-06-09T14:52:19Z</time>
      </trkpt>
      <trkpt lat="48.84883" lon="-0.52021">
        <ele>79.53868</ele>
        <time>2016-06-09T14:52:24Z</time>
      </trkpt>
      <trkpt lat="48.84879" lon="-0.52025">
        <ele>79.53868</ele>
        <time>2016-06-09T14:52:29Z</time>
      </trkpt>
      <trkpt lat="48.84876" lon="-0.52032">
        <ele>80.231964</ele>
        <time>2016-06-09T14:52:34Z</time>
      </trkpt>
      <trkpt lat="48.84872" lon="-0.52038">
        <ele>80.231964</ele>
        <time>2016-06-09T14:52:39Z</time>
      </trkpt>
      <trkpt lat="48.84869" lon="-0.52043">
        <ele>80.99877</ele>
        <time>2016-06-09T14:52:44Z</time>
      </trkpt>
      <trkpt lat="48.84866" lon="-0.52049">
        <ele>80.99877</ele>
        <time>2016-06-09T14:52:49Z</time>
      </trkpt>
      <trkpt lat="48.84865" lon="-0.52054">
        <ele>80.99877</ele>
        <time>2016-06-09T14:52:54Z</time>
      </trkpt>
      <trkpt lat="48.84861" lon="-0.52063">
        <ele>81.61564</ele>
        <time>2016-06-09T14:52:59Z</time>
      </trkpt>
      <trkpt lat="48.84857" lon="-0.52069">
        <ele>81.61564</ele>
        <time>2016-06-09T14:53:09Z</time>
      </trkpt>
      <trkpt lat="48.84854" lon="-0.52074">
        <ele>81.64542</ele>
        <time>2016-06-09T14:53:14Z</time>
      </trkpt>
      <trkpt lat="48.8485" lon="-0.52082">
        <ele>81.64542</ele>
        <time>2016-06-09T14:53:24Z</time>
      </trkpt>
      <trkpt lat="48.84847" lon="-0.52089">
        <ele>81.736755</ele>
        <time>2016-06-09T14:53:29Z</time>
      </trkpt>
      <trkpt lat="48.84842" lon="-0.52099">
        <ele>81.736755</ele>
        <time>2016-06-09T14:53:39Z</time>
      </trkpt>
      <trkpt lat="48.84838" lon="-0.52104">
        <ele>82.00056</ele>
        <time>2016-06-09T14:53:44Z</time>
      </trkpt>
      <trkpt lat="48.84834" lon="-0.52115">
        <ele>82.00056</ele>
        <time>2016-06-09T14:53:54Z</time>
      </trkpt>
      <trkpt lat="48.84831" lon="-0.52121">
        <ele>82.69766</ele>
        <time>2016-06-09T14:53:59Z</time>
      </trkpt>
      <trkpt lat="48.84825" lon="-0.52134">
        <ele>83.16065</ele>
        <time>2016-06-09T14:54:14Z</time>
      </trkpt>
      <trkpt lat="48.84821" lon="-0.52137">
        <ele>83.16065</ele>
        <time>2016-06-09T14:54:19Z</time>
      </trkpt>
      <trkpt lat="48.84814" lon="-0.52152">
        <ele>84.587654</ele>
        <time>2016-06-09T14:54:29Z</time>
      </trkpt>
      <trkpt lat="48.84813" lon="-0.52158">
        <ele>84.587654</ele>
        <time>2016-06-09T14:54:34Z</time>
      </trkpt>
      <trkpt lat="48.84809" lon="-0.5217">
        <ele>85.924446</ele>
        <time>2016-06-09T14:54:44Z</time>
      </trkpt>
      <trkpt lat="48.84807" lon="-0.52176">
        <ele>85.924446</ele>
        <time>2016-06-09T14:54:49Z</time>
      </trkpt>
      <trkpt lat="48.84803" lon="-0.5218">
        <ele>87.30419</ele>
        <time>2016-06-09T14:54:59Z</time>
      </trkpt>
      <trkpt lat="48.84801" lon="-0.52185">
        <ele>87.30419</ele>
        <time>2016-06-09T14:55:04Z</time>
      </trkpt>
      <trkpt lat="48.84796" lon="-0.522">
        <ele>89.080795</ele>
        <time>2016-06-09T14:55:14Z</time>
      </trkpt>
      <trkpt lat="48.84794" lon="-0.52205">
        <ele>89.080795</ele>
        <time>2016-06-09T14:55:19Z</time>
      </trkpt>
      <trkpt lat="48.84792" lon="-0.52217">
        <ele>91.0623</ele>
        <time>2016-06-09T14:55:29Z</time>
      </trkpt>
      <trkpt lat="48.8479" lon="-0.52223">
        <ele>91.0623</ele>
        <time>2016-06-09T14:55:34Z</time>
      </trkpt>
      <trkpt lat="48.84788" lon="-0.52232">
        <ele>92.99829</ele>
        <time>2016-06-09T14:55:44Z</time>
      </trkpt>
      <trkpt lat="48.84786" lon="-0.52238">
        <ele>92.99829</ele>
        <time>2016-06-09T14:55:49Z</time>
      </trkpt>
      <trkpt lat="48.84782" lon="-0.52249">
        <ele>95.16135</ele>
        <time>2016-06-09T14:55:59Z</time>
      </trkpt>
      <trkpt lat="48.8478" lon="-0.52253">
        <ele>95.16135</ele>
        <time>2016-06-09T14:56:04Z</time>
      </trkpt>
      <trkpt lat="48.84776" lon="-0.52263">
        <ele>97.50082</ele>
        <time>2016-06-09T14:56:14Z</time>
      </trkpt>
      <trkpt lat="48.84775" lon="-0.52268">
        <ele>97.50082</ele>
        <time>2016-06-09T14:56:19Z</time>
      </trkpt>
      <trkpt lat="48.8477" lon="-0.52276">
        <ele>99.681175</ele>
        <time>2016-06-09T14:56:29Z</time>
      </trkpt>
      <trkpt lat="48.84769" lon="-0.52283">
        <ele>99.681175</ele>
        <time>2016-06-09T14:56:34Z</time>
      </trkpt>
      <trkpt lat="48.8476" lon="-0.523">
        <ele>102.29996</ele>
        <time>2016-06-09T14:56:49Z</time>
      </trkpt>
      <trkpt lat="48.84758" lon="-0.52304">
        <ele>102.29996</ele>
        <time>2016-06-09T14:56:54Z</time>
      </trkpt>
      <trkpt lat="48.84755" lon="-0.52308">
        <ele>102.29996</ele>
        <time>2016-06-09T14:57:04Z</time>
      </trkpt>
      <trkpt lat="48.84755" lon="-0.52308">
        <ele>102.29996</ele>
        <time>2016-06-09T14:57:09Z</time>
      </trkpt>
      <trkpt lat="48.84755" lon="-0.52308">
        <ele>102.29996</ele>
        <time>2016-06-09T14:57:14Z</time>
      </trkpt>
      <trkpt lat="48.84755" lon="-0.52308">
        <ele>102.29996</ele>
        <time>2016-06-09T14:57:19Z</time>
      </trkpt>
      <trkpt lat="48.84755" lon="-0.52308">
        <ele>102.29996</ele>
        <time>2016-06-09T14:57:24Z</time>
      </trkpt>
      <trkpt lat="48.84755" lon="-0.52308">
        <ele>102.29996</ele>
        <time>2016-06-09T14:57:29Z</time>
      </trkpt>
      <trkpt lat="48.84757" lon="-0.52309">
        <ele>102.29996</ele>
        <time>2016-06-09T14:57:34Z</time>
      </trkpt>
      <trkpt lat="48.84757" lon="-0.52308">
        <ele>105.016235</ele>
        <time>2016-06-09T14:57:44Z</time>
      </trkpt>
      <trkpt lat="48.84757" lon="-0.52309">
        <ele>105.016235</ele>
        <time>2016-06-09T14:57:49Z</time>
      </trkpt>
      <trkpt lat="48.84751" lon="-0.52318">
        <ele>105.016235</ele>
        <time>2016-06-09T14:58:04Z</time>
      </trkpt>
      <trkpt lat="48.84749" lon="-0.52322">
        <ele>107.88862</ele>
        <time>2016-06-09T14:58:09Z</time>
      </trkpt>
      <trkpt lat="48.8474" lon="-0.52331">
        <ele>111.1729</ele>
        <time>2016-06-09T14:58:19Z</time>
      </trkpt>
      <trkpt lat="48.8474" lon="-0.52335">
        <ele>111.1729</ele>
        <time>2016-06-09T14:58:24Z</time>
      </trkpt>
      <trkpt lat="48.84737" lon="-0.52339">
        <ele>111.1729</ele>
        <time>2016-06-09T14:58:29Z</time>
      </trkpt>
      <trkpt lat="48.84738" lon="-0.52342">
        <ele>111.1729</ele>
        <time>2016-06-09T14:58:34Z</time>
      </trkpt>
      <trkpt lat="48.84738" lon="-0.52342">
        <ele>111.1729</ele>
        <time>2016-06-09T14:58:39Z</time>
      </trkpt>
      <trkpt lat="48.84735" lon="-0.52344">
        <ele>113.85127</ele>
        <time>2016-06-09T14:58:44Z</time>
      </trkpt>
      <trkpt lat="48.84732" lon="-0.52348">
        <ele>113.85127</ele>
        <time>2016-06-09T14:58:49Z</time>
      </trkpt>
      <trkpt lat="48.8473" lon="-0.52352">
        <ele>113.85127</ele>
        <time>2016-06-09T14:58:54Z</time>
      </trkpt>
      <trkpt lat="48.84725" lon="-0.5236">
        <ele>116.63983</ele>
        <time>2016-06-09T14:59:04Z</time>
      </trkpt>
      <trkpt lat="48.84722" lon="-0.52364">
        <ele>116.63983</ele>
        <time>2016-06-09T14:59:09Z</time>
      </trkpt>
      <trkpt lat="48.84715" lon="-0.52373">
        <ele>119.55342</ele>
        <time>2016-06-09T14:59:19Z</time>
      </trkpt>
      <trkpt lat="48.84711" lon="-0.52377">
        <ele>119.55342</ele>
        <time>2016-06-09T14:59:24Z</time>
      </trkpt>
      <trkpt lat="48.84703" lon="-0.52386">
        <ele>122.92264</ele>
        <time>2016-06-09T14:59:34Z</time>
      </trkpt>
      <trkpt lat="48.84698" lon="-0.52389">
        <ele>122.92264</ele>
        <time>2016-06-09T14:59:39Z</time>
      </trkpt>
      <trkpt lat="48.8469" lon="-0.52397">
        <ele>126.18804</ele>
        <time>2016-06-09T14:59:49Z</time>
      </trkpt>
      <trkpt lat="48.84688" lon="-0.52403">
        <ele>126.18804</ele>
        <time>2016-06-09T14:59:54Z</time>
      </trkpt>
      <trkpt lat="48.84678" lon="-0.52411">
        <ele>129.27849</ele>
        <time>2016-06-09T15:00:04Z</time>
      </trkpt>
      <trkpt lat="48.84676" lon="-0.52417">
        <ele>129.27849</ele>
        <time>2016-06-09T15:00:09Z</time>
      </trkpt>
      <trkpt lat="48.8467" lon="-0.52426">
        <ele>132.11432</ele>
        <time>2016-06-09T15:00:19Z</time>
      </trkpt>
      <trkpt lat="48.8467" lon="-0.52427">
        <ele>132.11432</ele>
        <time>2016-06-09T15:00:24Z</time>
      </trkpt>
      <trkpt lat="48.84661" lon="-0.52433">
        <ele>134.86761</ele>
        <time>2016-06-09T15:00:34Z</time>
      </trkpt>
      <trkpt lat="48.84656" lon="-0.52436">
        <ele>134.86761</ele>
        <time>2016-06-09T15:00:39Z</time>
      </trkpt>
      <trkpt lat="48.84641" lon="-0.52452">
        <ele>137.64061</ele>
        <time>2016-06-09T15:00:54Z</time>
      </trkpt>
      <trkpt lat="48.84637" lon="-0.52458">
        <ele>137.64061</ele>
        <time>2016-06-09T15:00:59Z</time>
      </trkpt>
      <trkpt lat="48.84626" lon="-0.5247">
        <ele>140.88843</ele>
        <time>2016-06-09T15:01:09Z</time>
      </trkpt>
      <trkpt lat="48.84622" lon="-0.52476">
        <ele>140.88843</ele>
        <time>2016-06-09T15:01:14Z</time>
      </trkpt>
      <trkpt lat="48.84618" lon="-0.52489">
        <ele>143.73462</ele>
        <time>2016-06-09T15:01:24Z</time>
      </trkpt>
      <trkpt lat="48.84616" lon="-0.52496">
        <ele>143.73462</ele>
        <time>2016-06-09T15:01:29Z</time>
      </trkpt>
      <trkpt lat="48.84614" lon="-0.52501">
        <ele>143.73462</ele>
        <time>2016-06-09T15:01:34Z</time>
      </trkpt>
      <trkpt lat="48.84612" lon="-0.52507">
        <ele>146.03133</ele>
        <time>2016-06-09T15:01:39Z</time>
      </trkpt>
      <trkpt lat="48.84611" lon="-0.52508">
        <ele>146.03133</ele>
        <time>2016-06-09T15:01:44Z</time>
      </trkpt>
      <trkpt lat="48.84612" lon="-0.52508">
        <ele>146.03133</ele>
        <time>2016-06-09T15:01:49Z</time>
      </trkpt>
      <trkpt lat="48.84612" lon="-0.52508">
        <ele>146.03133</ele>
        <time>2016-06-09T15:01:54Z</time>
      </trkpt>
      <trkpt lat="48.84612" lon="-0.52508">
        <ele>146.03133</ele>
        <time>2016-06-09T15:01:59Z</time>
      </trkpt>
      <trkpt lat="48.84612" lon="-0.52508">
        <ele>146.03133</ele>
        <time>2016-06-09T15:02:04Z</time>
      </trkpt>
      <trkpt lat="48.84612" lon="-0.52508">
        <ele>146.03133</ele>
        <time>2016-06-09T15:02:09Z</time>
      </trkpt>
      <trkpt lat="48.84612" lon="-0.52508">
        <ele>146.03133</ele>
        <time>2016-06-09T15:02:14Z</time>
      </trkpt>
      <trkpt lat="48.84612" lon="-0.52508">
        <ele>146.03133</ele>
        <time>2016-06-09T15:02:19Z</time>
      </trkpt>
      <trkpt lat="48.84612" lon="-0.52508">
        <ele>146.03133</ele>
        <time>2016-06-09T15:02:24Z</time>
      </trkpt>
      <trkpt lat="48.84612" lon="-0.52508">
        <ele>146.03133</ele>
        <time>2016-06-09T15:02:29Z</time>
      </trkpt>
      <trkpt lat="48.84612" lon="-0.52508">
        <ele>146.03133</ele>
        <time>2016-06-09T15:02:34Z</time>
      </trkpt>
      <trkpt lat="48.84612" lon="-0.52508">
        <ele>146.03133</ele>
        <time>2016-06-09T15:02:39Z</time>
      </trkpt>
      <trkpt lat="48.84612" lon="-0.52508">
        <ele>146.03133</ele>
        <time>2016-06-09T15:02:44Z</time>
      </trkpt>
      <trkpt lat="48.84612" lon="-0.52511">
        <ele>146.03133</ele>
        <time>2016-06-09T15:02:49Z</time>
      </trkpt>
      <trkpt lat="48.84611" lon="-0.5251">
        <ele>146.03133</ele>
        <time>2016-06-09T15:02:54Z</time>
      </trkpt>
      <trkpt lat="48.84606" lon="-0.52519">
        <ele>147.41277</ele>
        <time>2016-06-09T15:03:04Z</time>
      </trkpt>
      <trkpt lat="48.84604" lon="-0.52523">
        <ele>147.41277</ele>
        <time>2016-06-09T15:03:09Z</time>
      </trkpt>
      <trkpt lat="48.846" lon="-0.52536">
        <ele>148.56587</ele>
        <time>2016-06-09T15:03:19Z</time>
      </trkpt>
      <trkpt lat="48.84597" lon="-0.52543">
        <ele>148.56587</ele>
        <time>2016-06-09T15:03:24Z</time>
      </trkpt>
      <trkpt lat="48.84593" lon="-0.52556">
        <ele>149.10481</ele>
        <time>2016-06-09T15:03:34Z</time>
      </trkpt>
      <trkpt lat="48.8459" lon="-0.52563">
        <ele>149.10481</ele>
        <time>2016-06-09T15:03:39Z</time>
      </trkpt>
      <trkpt lat="48.8458" lon="-0.52582">
        <ele>149.53859</ele>
        <time>2016-06-09T15:03:54Z</time>
      </trkpt>
      <trkpt lat="48.84576" lon="-0.52588">
        <ele>149.53859</ele>
        <time>2016-06-09T15:03:59Z</time>
      </trkpt>
      <trkpt lat="48.8457" lon="-0.526">
        <ele>149.60431</ele>
        <time>2016-06-09T15:04:09Z</time>
      </trkpt>
      <trkpt lat="48.84566" lon="-0.52608">
        <ele>149.60431</ele>
        <time>2016-06-09T15:04:14Z</time>
      </trkpt>
      <trkpt lat="48.84559" lon="-0.52621">
        <ele>149.86652</ele>
        <time>2016-06-09T15:04:24Z</time>
      </trkpt>
      <trkpt lat="48.84556" lon="-0.52627">
        <ele>149.86652</ele>
        <time>2016-06-09T15:04:29Z</time>
      </trkpt>
      <trkpt lat="48.8455" lon="-0.52643">
        <ele>149.92558</ele>
        <time>2016-06-09T15:04:39Z</time>
      </trkpt>
      <trkpt lat="48.84547" lon="-0.52649">
        <ele>149.92558</ele>
        <time>2016-06-09T15:04:44Z</time>
      </trkpt>
      <trkpt lat="48.84542" lon="-0.52664">
        <ele>149.57033</ele>
        <time>2016-06-09T15:04:54Z</time>
      </trkpt>
      <trkpt lat="48.84539" lon="-0.52672">
        <ele>149.57033</ele>
        <time>2016-06-09T15:04:59Z</time>
      </trkpt>
      <trkpt lat="48.84533" lon="-0.52687">
        <ele>149.55748</ele>
        <time>2016-06-09T15:05:09Z</time>
      </trkpt>
      <trkpt lat="48.84529" lon="-0.52695">
        <ele>149.55748</ele>
        <time>2016-06-09T15:05:14Z</time>
      </trkpt>
      <trkpt lat="48.84522" lon="-0.52713">
        <ele>149.67935</ele>
        <time>2016-06-09T15:05:24Z</time>
      </trkpt>
      <trkpt lat="48.8452" lon="-0.5272">
        <ele>149.67935</ele>
        <time>2016-06-09T15:05:29Z</time>
      </trkpt>
      <trkpt lat="48.84518" lon="-0.52728">
        <ele>149.39726</ele>
        <time>2016-06-09T15:05:34Z</time>
      </trkpt>
      <trkpt lat="48.84514" lon="-0.52734">
        <ele>149.39726</ele>
        <time>2016-06-09T15:05:39Z</time>
      </trkpt>
      <trkpt lat="48.84511" lon="-0.52742">
        <ele>149.13556</ele>
        <time>2016-06-09T15:05:44Z</time>
      </trkpt>
      <trkpt lat="48.84508" lon="-0.52749">
        <ele>149.13556</ele>
        <time>2016-06-09T15:05:49Z</time>
      </trkpt>
      <trkpt lat="48.84505" lon="-0.52764">
        <ele>148.73973</ele>
        <time>2016-06-09T15:05:59Z</time>
      </trkpt>
      <trkpt lat="48.84502" lon="-0.52769">
        <ele>148.73973</ele>
        <time>2016-06-09T15:06:04Z</time>
      </trkpt>
      <trkpt lat="48.84497" lon="-0.52787">
        <ele>148.84515</ele>
        <time>2016-06-09T15:06:14Z</time>
      </trkpt>
      <trkpt lat="48.84498" lon="-0.52791">
        <ele>148.84515</ele>
        <time>2016-06-09T15:06:19Z</time>
      </trkpt>
      <trkpt lat="48.84497" lon="-0.52795">
        <ele>148.84515</ele>
        <time>2016-06-09T15:06:29Z</time>
      </trkpt>
      <trkpt lat="48.84497" lon="-0.52795">
        <ele>148.84515</ele>
        <time>2016-06-09T15:06:34Z</time>
      </trkpt>
      <trkpt lat="48.84497" lon="-0.52795">
        <ele>148.84515</ele>
        <time>2016-06-09T15:06:39Z</time>
      </trkpt>
      <trkpt lat="48.84497" lon="-0.52795">
        <ele>148.84515</ele>
        <time>2016-06-09T15:06:44Z</time>
      </trkpt>
      <trkpt lat="48.84497" lon="-0.52795">
        <ele>148.84515</ele>
        <time>2016-06-09T15:06:49Z</time>
      </trkpt>
      <trkpt lat="48.84497" lon="-0.52795">
        <ele>148.84515</ele>
        <time>2016-06-09T15:06:54Z</time>
      </trkpt>
      <trkpt lat="48.84498" lon="-0.52796">
        <ele>148.84515</ele>
        <time>2016-06-09T15:07:04Z</time>
      </trkpt>
      <trkpt lat="48.84498" lon="-0.52796">
        <ele>148.84515</ele>
        <time>2016-06-09T15:07:09Z</time>
      </trkpt>
      <trkpt lat="48.84498" lon="-0.52796">
        <ele>148.84515</ele>
        <time>2016-06-09T15:07:19Z</time>
      </trkpt>
      <trkpt lat="48.84498" lon="-0.52796">
        <ele>148.84515</ele>
        <time>2016-06-09T15:07:24Z</time>
      </trkpt>
      <trkpt lat="48.84497" lon="-0.52794">
        <ele>148.3818</ele>
        <time>2016-06-09T15:07:29Z</time>
      </trkpt>
      <trkpt lat="48.84497" lon="-0.52795">
        <ele>148.3818</ele>
        <time>2016-06-09T15:07:34Z</time>
      </trkpt>
      <trkpt lat="48.84497" lon="-0.52794">
        <ele>148.3818</ele>
        <time>2016-06-09T15:07:39Z</time>
      </trkpt>
      <trkpt lat="48.84497" lon="-0.52794">
        <ele>148.3818</ele>
        <time>2016-06-09T15:07:44Z</time>
      </trkpt>
      <trkpt lat="48.84497" lon="-0.52794">
        <ele>148.3818</ele>
        <time>2016-06-09T15:07:49Z</time>
      </trkpt>
      <trkpt lat="48.84496" lon="-0.52794">
        <ele>148.3818</ele>
        <time>2016-06-09T15:07:54Z</time>
      </trkpt>
      <trkpt lat="48.84496" lon="-0.52793">
        <ele>148.3818</ele>
        <time>2016-06-09T15:07:59Z</time>
      </trkpt>
      <trkpt lat="48.84496" lon="-0.52792">
        <ele>148.3818</ele>
        <time>2016-06-09T15:08:04Z</time>
      </trkpt>
      <trkpt lat="48.84496" lon="-0.52792">
        <ele>148.3818</ele>
        <time>2016-06-09T15:08:09Z</time>
      </trkpt>
      <trkpt lat="48.84496" lon="-0.52793">
        <ele>148.3818</ele>
        <time>2016-06-09T15:08:14Z</time>
      </trkpt>
      <trkpt lat="48.84496" lon="-0.52793">
        <ele>148.3818</ele>
        <time>2016-06-09T15:08:24Z</time>
      </trkpt>
      <trkpt lat="48.84497" lon="-0.52792">
        <ele>148.3818</ele>
        <time>2016-06-09T15:08:29Z</time>
      </trkpt>
      <trkpt lat="48.84498" lon="-0.52794">
        <ele>148.3818</ele>
        <time>2016-06-09T15:08:39Z</time>
      </trkpt>
      <trkpt lat="48.84498" lon="-0.52794">
        <ele>148.3818</ele>
        <time>2016-06-09T15:08:44Z</time>
      </trkpt>
      <trkpt lat="48.84498" lon="-0.52794">
        <ele>148.3818</ele>
        <time>2016-06-09T15:08:54Z</time>
      </trkpt>
      <trkpt lat="48.84498" lon="-0.52794">
        <ele>148.3818</ele>
        <time>2016-06-09T15:08:59Z</time>
      </trkpt>
      <trkpt lat="48.84498" lon="-0.52794">
        <ele>148.3818</ele>
        <time>2016-06-09T15:09:09Z</time>
      </trkpt>
      <trkpt lat="48.84498" lon="-0.52794">
        <ele>148.3818</ele>
        <time>2016-06-09T15:09:14Z</time>
      </trkpt>
      <trkpt lat="48.84498" lon="-0.52794">
        <ele>148.3818</ele>
        <time>2016-06-09T15:09:24Z</time>
      </trkpt>
      <trkpt lat="48.84498" lon="-0.52794">
        <ele>148.3818</ele>
        <time>2016-06-09T15:09:29Z</time>
      </trkpt>
      <trkpt lat="48.84498" lon="-0.52794">
        <ele>148.3818</ele>
        <time>2016-06-09T15:09:39Z</time>
      </trkpt>
      <trkpt lat="48.84496" lon="-0.52794">
        <ele>148.14677</ele>
        <time>2016-06-09T15:09:44Z</time>
      </trkpt>
      <trkpt lat="48.84493" lon="-0.528">
        <ele>148.14677</ele>
        <time>2016-06-09T15:09:54Z</time>
      </trkpt>
      <trkpt lat="48.84491" lon="-0.52808">
        <ele>147.94116</ele>
        <time>2016-06-09T15:09:59Z</time>
      </trkpt>
      <trkpt lat="48.84489" lon="-0.52816">
        <ele>147.94116</ele>
        <time>2016-06-09T15:10:09Z</time>
      </trkpt>
      <trkpt lat="48.84487" lon="-0.52823">
        <ele>147.24908</ele>
        <time>2016-06-09T15:10:14Z</time>
      </trkpt>
      <trkpt lat="48.84484" lon="-0.52833">
        <ele>147.24908</ele>
        <time>2016-06-09T15:10:24Z</time>
      </trkpt>
      <trkpt lat="48.84482" lon="-0.52843">
        <ele>146.57376</ele>
        <time>2016-06-09T15:10:29Z</time>
      </trkpt>
      <trkpt lat="48.84476" lon="-0.5286">
        <ele>145.80486</ele>
        <time>2016-06-09T15:10:39Z</time>
      </trkpt>
      <trkpt lat="48.84473" lon="-0.52868">
        <ele>145.80486</ele>
        <time>2016-06-09T15:10:44Z</time>
      </trkpt>
      <trkpt lat="48.84466" lon="-0.52889">
        <ele>144.81148</ele>
        <time>2016-06-09T15:10:59Z</time>
      </trkpt>
      <trkpt lat="48.84462" lon="-0.52896">
        <ele>144.81148</ele>
        <time>2016-06-09T15:11:04Z</time>
      </trkpt>
      <trkpt lat="48.84457" lon="-0.52915">
        <ele>143.81871</ele>
        <time>2016-06-09T15:11:14Z</time>
      </trkpt>
      <trkpt lat="48.84457" lon="-0.52924">
        <ele>143.81871</ele>
        <time>2016-06-09T15:11:19Z</time>
      </trkpt>
      <trkpt lat="48.84458" lon="-0.5294">
        <ele>142.19913</ele>
        <time>2016-06-09T15:11:29Z</time>
      </trkpt>
      <trkpt lat="48.84459" lon="-0.52948">
        <ele>142.19913</ele>
        <time>2016-06-09T15:11:34Z</time>
      </trkpt>
      <trkpt lat="48.84463" lon="-0.52963">
        <ele>140.16562</ele>
        <time>2016-06-09T15:11:44Z</time>
      </trkpt>
      <trkpt lat="48.84462" lon="-0.52973">
        <ele>140.16562</ele>
        <time>2016-06-09T15:11:49Z</time>
      </trkpt>
      <trkpt lat="48.84464" lon="-0.52991">
        <ele>137.91641</ele>
        <time>2016-06-09T15:11:59Z</time>
      </trkpt>
      <trkpt lat="48.84466" lon="-0.52998">
        <ele>137.91641</ele>
        <time>2016-06-09T15:12:04Z</time>
      </trkpt>
      <trkpt lat="48.84468" lon="-0.53012">
        <ele>135.56358</ele>
        <time>2016-06-09T15:12:14Z</time>
      </trkpt>
      <trkpt lat="48.84471" lon="-0.53022">
        <ele>135.56358</ele>
        <time>2016-06-09T15:12:19Z</time>
      </trkpt>
      <trkpt lat="48.84473" lon="-0.53038">
        <ele>133.44162</ele>
        <time>2016-06-09T15:12:29Z</time>
      </trkpt>
      <trkpt lat="48.84474" lon="-0.53046">
        <ele>133.44162</ele>
        <time>2016-06-09T15:12:34Z</time>
      </trkpt>
      <trkpt lat="48.84475" lon="-0.53066">
        <ele>131.55698</ele>
        <time>2016-06-09T15:12:44Z</time>
      </trkpt>
      <trkpt lat="48.84477" lon="-0.53075">
        <ele>131.55698</ele>
        <time>2016-06-09T15:12:49Z</time>
      </trkpt>
      <trkpt lat="48.84486" lon="-0.53095">
        <ele>130.20296</ele>
        <time>2016-06-09T15:13:04Z</time>
      </trkpt>
      <trkpt lat="48.84489" lon="-0.53101">
        <ele>130.20296</ele>
        <time>2016-06-09T15:13:09Z</time>
      </trkpt>
      <trkpt lat="48.8449" lon="-0.53102">
        <ele>130.20296</ele>
        <time>2016-06-09T15:13:19Z</time>
      </trkpt>
      <trkpt lat="48.84492" lon="-0.53102">
        <ele>130.20296</ele>
        <time>2016-06-09T15:13:24Z</time>
      </trkpt>
      <trkpt lat="48.84495" lon="-0.53104">
        <ele>128.38145</ele>
        <time>2016-06-09T15:13:34Z</time>
      </trkpt>
      <trkpt lat="48.84495" lon="-0.53106">
        <ele>128.38145</ele>
        <time>2016-06-09T15:13:39Z</time>
      </trkpt>
      <trkpt lat="48.84492" lon="-0.53111">
        <ele>128.38145</ele>
        <time>2016-06-09T15:13:49Z</time>
      </trkpt>
      <trkpt lat="48.84493" lon="-0.5311">
        <ele>128.38145</ele>
        <time>2016-06-09T15:13:54Z</time>
      </trkpt>
      <trkpt lat="48.84492" lon="-0.5311">
        <ele>128.38145</ele>
        <time>2016-06-09T15:14:04Z</time>
      </trkpt>
      <trkpt lat="48.84491" lon="-0.53111">
        <ele>128.38145</ele>
        <time>2016-06-09T15:14:09Z</time>
      </trkpt>
      <trkpt lat="48.84489" lon="-0.53114">
        <ele>126.95572</ele>
        <time>2016-06-09T15:14:19Z</time>
      </trkpt>
      <trkpt lat="48.84494" lon="-0.53112">
        <ele>126.95572</ele>
        <time>2016-06-09T15:14:24Z</time>
      </trkpt>
      <trkpt lat="48.84495" lon="-0.53112">
        <ele>126.95572</ele>
        <time>2016-06-09T15:14:34Z</time>
      </trkpt>
      <trkpt lat="48.84496" lon="-0.53114">
        <ele>126.95572</ele>
        <time>2016-06-09T15:14:39Z</time>
      </trkpt>
      <trkpt lat="48.84495" lon="-0.53116">
        <ele>126.032524</ele>
        <time>2016-06-09T15:14:54Z</time>
      </trkpt>
      <trkpt lat="48.8449" lon="-0.53122">
        <ele>126.032524</ele>
        <time>2016-06-09T15:14:59Z</time>
      </trkpt>
      <trkpt lat="48.84484" lon="-0.53126">
        <ele>125.06066</ele>
        <time>2016-06-09T15:15:04Z</time>
      </trkpt>
      <trkpt lat="48.84477" lon="-0.5313">
        <ele>125.06066</ele>
        <time>2016-06-09T15:15:09Z</time>
      </trkpt>
      <trkpt lat="48.84471" lon="-0.53134">
        <ele>124.552505</ele>
        <time>2016-06-09T15:15:14Z</time>
      </trkpt>
      <trkpt lat="48.84467" lon="-0.53137">
        <ele>124.552505</ele>
        <time>2016-06-09T15:15:19Z</time>
      </trkpt>
      <trkpt lat="48.84455" lon="-0.53142">
        <ele>123.79955</ele>
        <time>2016-06-09T15:15:29Z</time>
      </trkpt>
      <trkpt lat="48.84447" lon="-0.53143">
        <ele>123.79955</ele>
        <time>2016-06-09T15:15:34Z</time>
      </trkpt>
      <trkpt lat="48.84431" lon="-0.53157">
        <ele>124.26427</ele>
        <time>2016-06-09T15:15:49Z</time>
      </trkpt>
      <trkpt lat="48.84429" lon="-0.53159">
        <ele>124.26427</ele>
        <time>2016-06-09T15:15:54Z</time>
      </trkpt>
      <trkpt lat="48.84422" lon="-0.53166">
        <ele>124.22847</ele>
        <time>2016-06-09T15:16:04Z</time>
      </trkpt>
      <trkpt lat="48.84416" lon="-0.53169">
        <ele>124.22847</ele>
        <time>2016-06-09T15:16:09Z</time>
      </trkpt>
      <trkpt lat="48.84405" lon="-0.53176">
        <ele>124.21986</ele>
        <time>2016-06-09T15:16:19Z</time>
      </trkpt>
      <trkpt lat="48.84401" lon="-0.53181">
        <ele>124.21986</ele>
        <time>2016-06-09T15:16:24Z</time>
      </trkpt>
      <trkpt lat="48.84392" lon="-0.53186">
        <ele>124.53974</ele>
        <time>2016-06-09T15:16:34Z</time>
      </trkpt>
      <trkpt lat="48.84391" lon="-0.53189">
        <ele>124.53974</ele>
        <time>2016-06-09T15:16:39Z</time>
      </trkpt>
      <trkpt lat="48.8439" lon="-0.53189">
        <ele>124.53974</ele>
        <time>2016-06-09T15:16:49Z</time>
      </trkpt>
      <trkpt lat="48.8439" lon="-0.53189">
        <ele>124.53974</ele>
        <time>2016-06-09T15:16:54Z</time>
      </trkpt>
      <trkpt lat="48.84391" lon="-0.5319">
        <ele>124.53974</ele>
        <time>2016-06-09T15:17:04Z</time>
      </trkpt>
      <trkpt lat="48.84391" lon="-0.5319">
        <ele>124.53974</ele>
        <time>2016-06-09T15:17:09Z</time>
      </trkpt>
      <trkpt lat="48.8439" lon="-0.53191">
        <ele>124.53974</ele>
        <time>2016-06-09T15:17:19Z</time>
      </trkpt>
      <trkpt lat="48.84388" lon="-0.53196">
        <ele>124.53974</ele>
        <time>2016-06-09T15:17:24Z</time>
      </trkpt>
      <trkpt lat="48.84387" lon="-0.53199">
        <ele>124.84656</ele>
        <time>2016-06-09T15:17:34Z</time>
      </trkpt>
      <trkpt lat="48.84387" lon="-0.53199">
        <ele>124.84656</ele>
        <time>2016-06-09T15:17:39Z</time>
      </trkpt>
      <trkpt lat="48.84388" lon="-0.53199">
        <ele>124.84656</ele>
        <time>2016-06-09T15:17:44Z</time>
      </trkpt>
      <trkpt lat="48.84388" lon="-0.53199">
        <ele>124.84656</ele>
        <time>2016-06-09T15:17:49Z</time>
      </trkpt>
      <trkpt lat="48.84388" lon="-0.53199">
        <ele>124.84656</ele>
        <time>2016-06-09T15:17:54Z</time>
      </trkpt>
      <trkpt lat="48.84389" lon="-0.53199">
        <ele>124.84656</ele>
        <time>2016-06-09T15:18:04Z</time>
      </trkpt>
      <trkpt lat="48.84389" lon="-0.53199">
        <ele>124.84656</ele>
        <time>2016-06-09T15:18:09Z</time>
      </trkpt>
      <trkpt lat="48.84389" lon="-0.53199">
        <ele>124.84656</ele>
        <time>2016-06-09T15:18:19Z</time>
      </trkpt>
      <trkpt lat="48.84389" lon="-0.53199">
        <ele>124.84656</ele>
        <time>2016-06-09T15:18:24Z</time>
      </trkpt>
      <trkpt lat="48.84389" lon="-0.53199">
        <ele>124.84656</ele>
        <time>2016-06-09T15:18:34Z</time>
      </trkpt>
      <trkpt lat="48.8439" lon="-0.53198">
        <ele>124.84656</ele>
        <time>2016-06-09T15:18:39Z</time>
      </trkpt>
      <trkpt lat="48.84391" lon="-0.532">
        <ele>124.84656</ele>
        <time>2016-06-09T15:18:54Z</time>
      </trkpt>
      <trkpt lat="48.84389" lon="-0.53199">
        <ele>124.84656</ele>
        <time>2016-06-09T15:18:59Z</time>
      </trkpt>
      <trkpt lat="48.8439" lon="-0.53199">
        <ele>124.84656</ele>
        <time>2016-06-09T15:19:09Z</time>
      </trkpt>
      <trkpt lat="48.8439" lon="-0.53199">
        <ele>124.84656</ele>
        <time>2016-06-09T15:19:14Z</time>
      </trkpt>
      <trkpt lat="48.8439" lon="-0.53199">
        <ele>124.84656</ele>
        <time>2016-06-09T15:19:19Z</time>
      </trkpt>
      <trkpt lat="48.8439" lon="-0.53199">
        <ele>124.84656</ele>
        <time>2016-06-09T15:19:24Z</time>
      </trkpt>
      <trkpt lat="48.8439" lon="-0.53199">
        <ele>124.84656</ele>
        <time>2016-06-09T15:19:29Z</time>
      </trkpt>
      <trkpt lat="48.8439" lon="-0.53199">
        <ele>124.84656</ele>
        <time>2016-06-09T15:19:34Z</time>
      </trkpt>
      <trkpt lat="48.8439" lon="-0.53199">
        <ele>124.84656</ele>
        <time>2016-06-09T15:19:39Z</time>
      </trkpt>
      <trkpt lat="48.8439" lon="-0.53199">
        <ele>124.84656</ele>
        <time>2016-06-09T15:19:44Z</time>
      </trkpt>
      <trkpt lat="48.8439" lon="-0.53199">
        <ele>124.84656</ele>
        <time>2016-06-09T15:19:49Z</time>
      </trkpt>
      <trkpt lat="48.8439" lon="-0.53199">
        <ele>124.84656</ele>
        <time>2016-06-09T15:19:54Z</time>
      </trkpt>
      <trkpt lat="48.8439" lon="-0.53199">
        <ele>124.84656</ele>
        <time>2016-06-09T15:19:59Z</time>
      </trkpt>
      <trkpt lat="48.8439" lon="-0.53199">
        <ele>124.84656</ele>
        <time>2016-06-09T15:20:04Z</time>
      </trkpt>
      <trkpt lat="48.8439" lon="-0.53199">
        <ele>124.84656</ele>
        <time>2016-06-09T15:20:09Z</time>
      </trkpt>
      <trkpt lat="48.8439" lon="-0.53199">
        <ele>124.84656</ele>
        <time>2016-06-09T15:20:14Z</time>
      </trkpt>
      <trkpt lat="48.8439" lon="-0.53199">
        <ele>124.84656</ele>
        <time>2016-06-09T15:20:19Z</time>
      </trkpt>
      <trkpt lat="48.8439" lon="-0.53199">
        <ele>124.84656</ele>
        <time>2016-06-09T15:20:24Z</time>
      </trkpt>
      <trkpt lat="48.8439" lon="-0.53199">
        <ele>124.84656</ele>
        <time>2016-06-09T15:20:29Z</time>
      </trkpt>
      <trkpt lat="48.84389" lon="-0.532">
        <ele>124.84656</ele>
        <time>2016-06-09T15:20:34Z</time>
      </trkpt>
      <trkpt lat="48.84387" lon="-0.532">
        <ele>125.25603</ele>
        <time>2016-06-09T15:20:39Z</time>
      </trkpt>
      <trkpt lat="48.84387" lon="-0.53199">
        <ele>125.25603</ele>
        <time>2016-06-09T15:20:44Z</time>
      </trkpt>
      <trkpt lat="48.84387" lon="-0.53199">
        <ele>125.25603</ele>
        <time>2016-06-09T15:20:49Z</time>
      </trkpt>
      <trkpt lat="48.84387" lon="-0.53199">
        <ele>125.25603</ele>
        <time>2016-06-09T15:20:54Z</time>
      </trkpt>
      <trkpt lat="48.84388" lon="-0.53199">
        <ele>125.25603</ele>
        <time>2016-06-09T15:20:59Z</time>
      </trkpt>
      <trkpt lat="48.84388" lon="-0.53199">
        <ele>125.25603</ele>
        <time>2016-06-09T15:21:04Z</time>
      </trkpt>
      <trkpt lat="48.84388" lon="-0.53199">
        <ele>125.25603</ele>
        <time>2016-06-09T15:21:09Z</time>
      </trkpt>
      <trkpt lat="48.84388" lon="-0.53199">
        <ele>125.25603</ele>
        <time>2016-06-09T15:21:14Z</time>
      </trkpt>
      <trkpt lat="48.84388" lon="-0.53199">
        <ele>125.25603</ele>
        <time>2016-06-09T15:21:19Z</time>
      </trkpt>
      <trkpt lat="48.84388" lon="-0.53199">
        <ele>125.25603</ele>
        <time>2016-06-09T15:21:24Z</time>
      </trkpt>
      <trkpt lat="48.84385" lon="-0.53203">
        <ele>125.25603</ele>
        <time>2016-06-09T15:21:29Z</time>
      </trkpt>
      <trkpt lat="48.84386" lon="-0.53204">
        <ele>125.25603</ele>
        <time>2016-06-09T15:21:34Z</time>
      </trkpt>
      <trkpt lat="48.84389" lon="-0.53204">
        <ele>125.25603</ele>
        <time>2016-06-09T15:21:39Z</time>
      </trkpt>
      <trkpt lat="48.84388" lon="-0.53204">
        <ele>125.96141</ele>
        <time>2016-06-09T15:21:44Z</time>
      </trkpt>
      <trkpt lat="48.84388" lon="-0.53204">
        <ele>125.96141</ele>
        <time>2016-06-09T15:21:49Z</time>
      </trkpt>
      <trkpt lat="48.84388" lon="-0.53204">
        <ele>125.96141</ele>
        <time>2016-06-09T15:21:54Z</time>
      </trkpt>
      <trkpt lat="48.84388" lon="-0.53204">
        <ele>125.96141</ele>
        <time>2016-06-09T15:21:59Z</time>
      </trkpt>
      <trkpt lat="48.84388" lon="-0.53203">
        <ele>125.96141</ele>
        <time>2016-06-09T15:22:04Z</time>
      </trkpt>
      <trkpt lat="48.84388" lon="-0.53203">
        <ele>125.96141</ele>
        <time>2016-06-09T15:22:09Z</time>
      </trkpt>
      <trkpt lat="48.84388" lon="-0.53203">
        <ele>125.96141</ele>
        <time>2016-06-09T15:22:14Z</time>
      </trkpt>
      <trkpt lat="48.84388" lon="-0.53203">
        <ele>125.96141</ele>
        <time>2016-06-09T15:22:24Z</time>
      </trkpt>
      <trkpt lat="48.84388" lon="-0.53203">
        <ele>125.96141</ele>
        <time>2016-06-09T15:22:29Z</time>
      </trkpt>
      <trkpt lat="48.84388" lon="-0.53203">
        <ele>125.96141</ele>
        <time>2016-06-09T15:22:34Z</time>
      </trkpt>
      <trkpt lat="48.84388" lon="-0.53203">
        <ele>125.96141</ele>
        <time>2016-06-09T15:22:39Z</time>
      </trkpt>
      <trkpt lat="48.84388" lon="-0.53203">
        <ele>125.96141</ele>
        <time>2016-06-09T15:22:44Z</time>
      </trkpt>
      <trkpt lat="48.84396" lon="-0.53211">
        <ele>127.270515</ele>
        <time>2016-06-09T15:22:54Z</time>
      </trkpt>
      <trkpt lat="48.84399" lon="-0.53208">
        <ele>127.270515</ele>
        <time>2016-06-09T15:22:59Z</time>
      </trkpt>
      <trkpt lat="48.844" lon="-0.53206">
        <ele>127.270515</ele>
        <time>2016-06-09T15:23:09Z</time>
      </trkpt>
      <trkpt lat="48.84396" lon="-0.53201">
        <ele>128.80383</ele>
        <time>2016-06-09T15:23:14Z</time>
      </trkpt>
      <trkpt lat="48.8439" lon="-0.53201">
        <ele>128.80383</ele>
        <time>2016-06-09T15:23:19Z</time>
      </trkpt>
      <trkpt lat="48.84392" lon="-0.53202">
        <ele>128.80383</ele>
        <time>2016-06-09T15:23:24Z</time>
      </trkpt>
      <trkpt lat="48.84395" lon="-0.5319">
        <ele>128.63817</ele>
        <time>2016-06-09T15:23:34Z</time>
      </trkpt>
      <trkpt lat="48.84395" lon="-0.53183">
        <ele>128.63817</ele>
        <time>2016-06-09T15:23:39Z</time>
      </trkpt>
      <trkpt lat="48.84384" lon="-0.53153">
        <ele>128.7288</ele>
        <time>2016-06-09T15:23:54Z</time>
      </trkpt>
      <trkpt lat="48.84382" lon="-0.53145">
        <ele>128.7288</ele>
        <time>2016-06-09T15:23:59Z</time>
      </trkpt>
      <trkpt lat="48.84378" lon="-0.53128">
        <ele>128.63844</ele>
        <time>2016-06-09T15:24:09Z</time>
      </trkpt>
      <trkpt lat="48.84375" lon="-0.5312">
        <ele>128.63844</ele>
        <time>2016-06-09T15:24:14Z</time>
      </trkpt>
      <trkpt lat="48.8437" lon="-0.531">
        <ele>128.69734</ele>
        <time>2016-06-09T15:24:24Z</time>
      </trkpt>
      <trkpt lat="48.84367" lon="-0.53091">
        <ele>128.69734</ele>
        <time>2016-06-09T15:24:29Z</time>
      </trkpt>
      <trkpt lat="48.84364" lon="-0.53082">
        <ele>128.87955</ele>
        <time>2016-06-09T15:24:34Z</time>
      </trkpt>
      <trkpt lat="48.84361" lon="-0.53074">
        <ele>128.87955</ele>
        <time>2016-06-09T15:24:39Z</time>
      </trkpt>
      <trkpt lat="48.8436" lon="-0.53075">
        <ele>128.87955</ele>
        <time>2016-06-09T15:24:44Z</time>
      </trkpt>
      <trkpt lat="48.84357" lon="-0.53066">
        <ele>128.54095</ele>
        <time>2016-06-09T15:24:49Z</time>
      </trkpt>
      <trkpt lat="48.84355" lon="-0.53058">
        <ele>128.54095</ele>
        <time>2016-06-09T15:24:54Z</time>
      </trkpt>
      <trkpt lat="48.84353" lon="-0.53054">
        <ele>128.54095</ele>
        <time>2016-06-09T15:24:59Z</time>
      </trkpt>
      <trkpt lat="48.84351" lon="-0.53045">
        <ele>127.83555</ele>
        <time>2016-06-09T15:25:04Z</time>
      </trkpt>
      <trkpt lat="48.84346" lon="-0.53039">
        <ele>127.83555</ele>
        <time>2016-06-09T15:25:09Z</time>
      </trkpt>
      <trkpt lat="48.84339" lon="-0.53035">
        <ele>127.49786</ele>
        <time>2016-06-09T15:25:14Z</time>
      </trkpt>
      <trkpt lat="48.84331" lon="-0.5303">
        <ele>127.49786</ele>
        <time>2016-06-09T15:25:19Z</time>
      </trkpt>
      <trkpt lat="48.84324" lon="-0.53027">
        <ele>127.458015</ele>
        <time>2016-06-09T15:25:24Z</time>
      </trkpt>
      <trkpt lat="48.84322" lon="-0.5302">
        <ele>127.458015</ele>
        <time>2016-06-09T15:25:29Z</time>
      </trkpt>
      <trkpt lat="48.84321" lon="-0.53014">
        <ele>127.50628</ele>
        <time>2016-06-09T15:25:34Z</time>
      </trkpt>
      <trkpt lat="48.84317" lon="-0.53009">
        <ele>127.50628</ele>
        <time>2016-06-09T15:25:39Z</time>
      </trkpt>
      <trkpt lat="48.8431" lon="-0.52999">
        <ele>127.64979</ele>
        <time>2016-06-09T15:25:44Z</time>
      </trkpt>
      <trkpt lat="48.84307" lon="-0.52992">
        <ele>127.64979</ele>
        <time>2016-06-09T15:25:49Z</time>
      </trkpt>
      <trkpt lat="48.84301" lon="-0.52977">
        <ele>127.822815</ele>
        <time>2016-06-09T15:25:59Z</time>
      </trkpt>
      <trkpt lat="48.84299" lon="-0.52973">
        <ele>127.822815</ele>
        <time>2016-06-09T15:26:04Z</time>
      </trkpt>
      <trkpt lat="48.84292" lon="-0.52964">
        <ele>127.834656</ele>
        <time>2016-06-09T15:26:14Z</time>
      </trkpt>
      <trkpt lat="48.84288" lon="-0.52957">
        <ele>127.834656</ele>
        <time>2016-06-09T15:26:19Z</time>
      </trkpt>
      <trkpt lat="48.84278" lon="-0.52934">
        <ele>128.3737</ele>
        <time>2016-06-09T15:26:34Z</time>
      </trkpt>
      <trkpt lat="48.84276" lon="-0.52926">
        <ele>128.3737</ele>
        <time>2016-06-09T15:26:39Z</time>
      </trkpt>
      <trkpt lat="48.8427" lon="-0.52914">
        <ele>128.9234</ele>
        <time>2016-06-09T15:26:49Z</time>
      </trkpt>
      <trkpt lat="48.84268" lon="-0.52909">
        <ele>128.9234</ele>
        <time>2016-06-09T15:26:54Z</time>
      </trkpt>
      <trkpt lat="48.84258" lon="-0.529">
        <ele>129.97066</ele>
        <time>2016-06-09T15:27:04Z</time>
      </trkpt>
      <trkpt lat="48.84254" lon="-0.52899">
        <ele>129.97066</ele>
        <time>2016-06-09T15:27:09Z</time>
      </trkpt>
      <trkpt lat="48.84251" lon="-0.52895">
        <ele>129.97066</ele>
        <time>2016-06-09T15:27:14Z</time>
      </trkpt>
      <trkpt lat="48.8425" lon="-0.52894">
        <ele>131.20143</ele>
        <time>2016-06-09T15:27:19Z</time>
      </trkpt>
      <trkpt lat="48.8425" lon="-0.52894">
        <ele>131.20143</ele>
        <time>2016-06-09T15:27:24Z</time>
      </trkpt>
      <trkpt lat="48.8425" lon="-0.52894">
        <ele>131.20143</ele>
        <time>2016-06-09T15:27:29Z</time>
      </trkpt>
      <trkpt lat="48.8425" lon="-0.52894">
        <ele>131.20143</ele>
        <time>2016-06-09T15:27:34Z</time>
      </trkpt>
      <trkpt lat="48.8425" lon="-0.52894">
        <ele>131.20143</ele>
        <time>2016-06-09T15:27:39Z</time>
      </trkpt>
      <trkpt lat="48.8425" lon="-0.52894">
        <ele>131.20143</ele>
        <time>2016-06-09T15:27:44Z</time>
      </trkpt>
      <trkpt lat="48.8425" lon="-0.52894">
        <ele>131.20143</ele>
        <time>2016-06-09T15:27:49Z</time>
      </trkpt>
      <trkpt lat="48.8425" lon="-0.52894">
        <ele>131.20143</ele>
        <time>2016-06-09T15:27:54Z</time>
      </trkpt>
      <trkpt lat="48.8425" lon="-0.52894">
        <ele>131.20143</ele>
        <time>2016-06-09T15:27:59Z</time>
      </trkpt>
      <trkpt lat="48.8425" lon="-0.52894">
        <ele>131.20143</ele>
        <time>2016-06-09T15:28:04Z</time>
      </trkpt>
      <trkpt lat="48.8425" lon="-0.52894">
        <ele>131.20143</ele>
        <time>2016-06-09T15:28:09Z</time>
      </trkpt>
      <trkpt lat="48.8425" lon="-0.52894">
        <ele>131.20143</ele>
        <time>2016-06-09T15:28:14Z</time>
      </trkpt>
      <trkpt lat="48.84243" lon="-0.52893">
        <ele>131.20143</ele>
        <time>2016-06-09T15:28:19Z</time>
      </trkpt>
      <trkpt lat="48.84237" lon="-0.52893">
        <ele>132.71332</ele>
        <time>2016-06-09T15:28:24Z</time>
      </trkpt>
      <trkpt lat="48.84234" lon="-0.52896">
        <ele>132.71332</ele>
        <time>2016-06-09T15:28:29Z</time>
      </trkpt>
      <trkpt lat="48.84227" lon="-0.52895">
        <ele>134.65367</ele>
        <time>2016-06-09T15:28:34Z</time>
      </trkpt>
      <trkpt lat="48.84223" lon="-0.52897">
        <ele>134.65367</ele>
        <time>2016-06-09T15:28:39Z</time>
      </trkpt>
      <trkpt lat="48.84216" lon="-0.52901">
        <ele>136.68225</ele>
        <time>2016-06-09T15:28:44Z</time>
      </trkpt>
      <trkpt lat="48.84211" lon="-0.529">
        <ele>136.68225</ele>
        <time>2016-06-09T15:28:49Z</time>
      </trkpt>
      <trkpt lat="48.84213" lon="-0.52903">
        <ele>136.68225</ele>
        <time>2016-06-09T15:28:54Z</time>
      </trkpt>
      <trkpt lat="48.84213" lon="-0.52904">
        <ele>136.68225</ele>
        <time>2016-06-09T15:28:59Z</time>
      </trkpt>
      <trkpt lat="48.84213" lon="-0.52904">
        <ele>136.68225</ele>
        <time>2016-06-09T15:29:04Z</time>
      </trkpt>
      <trkpt lat="48.84213" lon="-0.52904">
        <ele>136.68225</ele>
        <time>2016-06-09T15:29:09Z</time>
      </trkpt>
      <trkpt lat="48.84207" lon="-0.52903">
        <ele>138.67097</ele>
        <time>2016-06-09T15:29:14Z</time>
      </trkpt>
      <trkpt lat="48.84202" lon="-0.52897">
        <ele>138.67097</ele>
        <time>2016-06-09T15:29:19Z</time>
      </trkpt>
      <trkpt lat="48.84196" lon="-0.52893">
        <ele>140.14108</ele>
        <time>2016-06-09T15:29:24Z</time>
      </trkpt>
      <trkpt lat="48.84194" lon="-0.52891">
        <ele>140.14108</ele>
        <time>2016-06-09T15:29:29Z</time>
      </trkpt>
      <trkpt lat="48.84189" lon="-0.5289">
        <ele>140.14108</ele>
        <time>2016-06-09T15:29:34Z</time>
      </trkpt>
      <trkpt lat="48.84184" lon="-0.52887">
        <ele>141.28456</ele>
        <time>2016-06-09T15:29:39Z</time>
      </trkpt>
      <trkpt lat="48.84179" lon="-0.52884">
        <ele>141.28456</ele>
        <time>2016-06-09T15:29:44Z</time>
      </trkpt>
      <trkpt lat="48.84176" lon="-0.52882">
        <ele>141.28456</ele>
        <time>2016-06-09T15:29:49Z</time>
      </trkpt>
      <trkpt lat="48.84171" lon="-0.52878">
        <ele>142.41005</ele>
        <time>2016-06-09T15:29:54Z</time>
      </trkpt>
      <trkpt lat="48.84165" lon="-0.52872">
        <ele>142.41005</ele>
        <time>2016-06-09T15:29:59Z</time>
      </trkpt>
      <trkpt lat="48.84162" lon="-0.52868">
        <ele>143.76039</ele>
        <time>2016-06-09T15:30:04Z</time>
      </trkpt>
      <trkpt lat="48.84157" lon="-0.52863">
        <ele>143.76039</ele>
        <time>2016-06-09T15:30:09Z</time>
      </trkpt>
      <trkpt lat="48.84154" lon="-0.52859">
        <ele>144.88274</ele>
        <time>2016-06-09T15:30:14Z</time>
      </trkpt>
      <trkpt lat="48.84153" lon="-0.52858">
        <ele>144.88274</ele>
        <time>2016-06-09T15:30:19Z</time>
      </trkpt>
      <trkpt lat="48.84144" lon="-0.52849">
        <ele>146.26614</ele>
        <time>2016-06-09T15:30:29Z</time>
      </trkpt>
      <trkpt lat="48.84135" lon="-0.52841">
        <ele>148.709</ele>
        <time>2016-06-09T15:30:34Z</time>
      </trkpt>
      <trkpt lat="48.84132" lon="-0.5283">
        <ele>148.709</ele>
        <time>2016-06-09T15:30:44Z</time>
      </trkpt>
      <trkpt lat="48.84128" lon="-0.52822">
        <ele>150.48384</ele>
        <time>2016-06-09T15:30:49Z</time>
      </trkpt>
      <trkpt lat="48.84126" lon="-0.52818">
        <ele>150.48384</ele>
        <time>2016-06-09T15:30:54Z</time>
      </trkpt>
      <trkpt lat="48.84123" lon="-0.52816">
        <ele>150.48384</ele>
        <time>2016-06-09T15:30:59Z</time>
      </trkpt>
      <trkpt lat="48.84117" lon="-0.52811">
        <ele>151.88</ele>
        <time>2016-06-09T15:31:04Z</time>
      </trkpt>
      <trkpt lat="48.84112" lon="-0.52803">
        <ele>151.88</ele>
        <time>2016-06-09T15:31:09Z</time>
      </trkpt>
      <trkpt lat="48.84101" lon="-0.52798">
        <ele>154.14667</ele>
        <time>2016-06-09T15:31:19Z</time>
      </trkpt>
      <trkpt lat="48.84096" lon="-0.52794">
        <ele>154.14667</ele>
        <time>2016-06-09T15:31:24Z</time>
      </trkpt>
      <trkpt lat="48.84092" lon="-0.52793">
        <ele>154.14667</ele>
        <time>2016-06-09T15:31:29Z</time>
      </trkpt>
      <trkpt lat="48.84088" lon="-0.52792">
        <ele>155.74408</ele>
        <time>2016-06-09T15:31:34Z</time>
      </trkpt>
      <trkpt lat="48.84084" lon="-0.5279">
        <ele>155.74408</ele>
        <time>2016-06-09T15:31:39Z</time>
      </trkpt>
      <trkpt lat="48.84082" lon="-0.52786">
        <ele>155.74408</ele>
        <time>2016-06-09T15:31:44Z</time>
      </trkpt>
      <trkpt lat="48.84079" lon="-0.5278">
        <ele>157.26514</ele>
        <time>2016-06-09T15:31:49Z</time>
      </trkpt>
      <trkpt lat="48.84075" lon="-0.52777">
        <ele>157.26514</ele>
        <time>2016-06-09T15:31:54Z</time>
      </trkpt>
      <trkpt lat="48.84073" lon="-0.52776">
        <ele>157.26514</ele>
        <time>2016-06-09T15:31:59Z</time>
      </trkpt>
      <trkpt lat="48.84068" lon="-0.52774">
        <ele>158.49577</ele>
        <time>2016-06-09T15:32:04Z</time>
      </trkpt>
      <trkpt lat="48.8406" lon="-0.52769">
        <ele>158.49577</ele>
        <time>2016-06-09T15:32:19Z</time>
      </trkpt>
      <trkpt lat="48.84054" lon="-0.52767">
        <ele>158.86386</ele>
        <time>2016-06-09T15:32:24Z</time>
      </trkpt>
      <trkpt lat="48.84045" lon="-0.52765">
        <ele>159.5136</ele>
        <time>2016-06-09T15:32:34Z</time>
      </trkpt>
      <trkpt lat="48.84041" lon="-0.52763">
        <ele>159.5136</ele>
        <time>2016-06-09T15:32:39Z</time>
      </trkpt>
      <trkpt lat="48.84029" lon="-0.52756">
        <ele>160.7262</ele>
        <time>2016-06-09T15:32:49Z</time>
      </trkpt>
      <trkpt lat="48.84023" lon="-0.52753">
        <ele>160.7262</ele>
        <time>2016-06-09T15:32:54Z</time>
      </trkpt>
      <trkpt lat="48.84016" lon="-0.52751">
        <ele>162.24202</ele>
        <time>2016-06-09T15:33:04Z</time>
      </trkpt>
      <trkpt lat="48.84012" lon="-0.52749">
        <ele>162.24202</ele>
        <time>2016-06-09T15:33:09Z</time>
      </trkpt>
      <trkpt lat="48.84002" lon="-0.5274">
        <ele>163.81972</ele>
        <time>2016-06-09T15:33:19Z</time>
      </trkpt>
      <trkpt lat="48.83998" lon="-0.52737">
        <ele>163.81972</ele>
        <time>2016-06-09T15:33:24Z</time>
      </trkpt>
      <trkpt lat="48.83995" lon="-0.52735">
        <ele>163.81972</ele>
        <time>2016-06-09T15:33:34Z</time>
      </trkpt>
      <trkpt lat="48.83993" lon="-0.52733">
        <ele>166.30206</ele>
        <time>2016-06-09T15:33:39Z</time>
      </trkpt>
      <trkpt lat="48.8397" lon="-0.52716">
        <ele>169.30017</ele>
        <time>2016-06-09T15:33:54Z</time>
      </trkpt>
      <trkpt lat="48.83962" lon="-0.52711">
        <ele>169.30017</ele>
        <time>2016-06-09T15:33:59Z</time>
      </trkpt>
      <trkpt lat="48.83947" lon="-0.52701">
        <ele>172.72626</ele>
        <time>2016-06-09T15:34:09Z</time>
      </trkpt>
      <trkpt lat="48.83942" lon="-0.52699">
        <ele>172.72626</ele>
        <time>2016-06-09T15:34:14Z</time>
      </trkpt>
      <trkpt lat="48.83934" lon="-0.52695">
        <ele>175.08559</ele>
        <time>2016-06-09T15:34:24Z</time>
      </trkpt>
      <trkpt lat="48.83929" lon="-0.52693">
        <ele>175.08559</ele>
        <time>2016-06-09T15:34:29Z</time>
      </trkpt>
      <trkpt lat="48.8392" lon="-0.52684">
        <ele>177.6048</ele>
        <time>2016-06-09T15:34:39Z</time>
      </trkpt>
      <trkpt lat="48.83915" lon="-0.52681">
        <ele>177.6048</ele>
        <time>2016-06-09T15:34:44Z</time>
      </trkpt>
      <trkpt lat="48.83906" lon="-0.52672">
        <ele>179.86371</ele>
        <time>2016-06-09T15:34:54Z</time>
      </trkpt>
      <trkpt lat="48.83901" lon="-0.52668">
        <ele>179.86371</ele>
        <time>2016-06-09T15:34:59Z</time>
      </trkpt>
      <trkpt lat="48.83895" lon="-0.52667">
        <ele>181.57475</ele>
        <time>2016-06-09T15:35:04Z</time>
      </trkpt>
      <trkpt lat="48.83891" lon="-0.52659">
        <ele>181.57475</ele>
        <time>2016-06-09T15:35:09Z</time>
      </trkpt>
      <trkpt lat="48.83886" lon="-0.52653">
        <ele>183.71255</ele>
        <time>2016-06-09T15:35:14Z</time>
      </trkpt>
      <trkpt lat="48.83883" lon="-0.52649">
        <ele>183.71255</ele>
        <time>2016-06-09T15:35:19Z</time>
      </trkpt>
      <trkpt lat="48.83877" lon="-0.52643">
        <ele>185.50739</ele>
        <time>2016-06-09T15:35:24Z</time>
      </trkpt>
      <trkpt lat="48.83865" lon="-0.52634">
        <ele>186.8092</ele>
        <time>2016-06-09T15:35:34Z</time>
      </trkpt>
      <trkpt lat="48.83861" lon="-0.5263">
        <ele>186.8092</ele>
        <time>2016-06-09T15:35:39Z</time>
      </trkpt>
      <trkpt lat="48.83852" lon="-0.52619">
        <ele>187.8408</ele>
        <time>2016-06-09T15:35:49Z</time>
      </trkpt>
      <trkpt lat="48.83848" lon="-0.52616">
        <ele>187.8408</ele>
        <time>2016-06-09T15:35:54Z</time>
      </trkpt>
      <trkpt lat="48.83838" lon="-0.52608">
        <ele>188.76627</ele>
        <time>2016-06-09T15:36:04Z</time>
      </trkpt>
      <trkpt lat="48.83834" lon="-0.52603">
        <ele>188.76627</ele>
        <time>2016-06-09T15:36:09Z</time>
      </trkpt>
      <trkpt lat="48.83825" lon="-0.52592">
        <ele>190.2424</ele>
        <time>2016-06-09T15:36:19Z</time>
      </trkpt>
      <trkpt lat="48.83819" lon="-0.52585">
        <ele>190.2424</ele>
        <time>2016-06-09T15:36:24Z</time>
      </trkpt>
      <trkpt lat="48.83805" lon="-0.52564">
        <ele>191.55057</ele>
        <time>2016-06-09T15:36:39Z</time>
      </trkpt>
      <trkpt lat="48.83806" lon="-0.52566">
        <ele>191.55057</ele>
        <time>2016-06-09T15:36:44Z</time>
      </trkpt>
      <trkpt lat="48.83806" lon="-0.52566">
        <ele>191.55057</ele>
        <time>2016-06-09T15:36:54Z</time>
      </trkpt>
      <trkpt lat="48.83806" lon="-0.52566">
        <ele>191.55057</ele>
        <time>2016-06-09T15:36:59Z</time>
      </trkpt>
      <trkpt lat="48.83806" lon="-0.52566">
        <ele>191.55057</ele>
        <time>2016-06-09T15:37:04Z</time>
      </trkpt>
      <trkpt lat="48.83806" lon="-0.52566">
        <ele>187.8</ele>
        <time>2016-06-09T15:37:29Z</time>
      </trkpt>
      <trkpt lat="48.83806" lon="-0.52566">
        <ele>187.8</ele>
        <time>2016-06-09T15:37:34Z</time>
      </trkpt>
      <trkpt lat="48.83806" lon="-0.52566">
        <ele>187.8</ele>
        <time>2016-06-09T15:37:44Z</time>
      </trkpt>
      <trkpt lat="48.83806" lon="-0.52566">
        <ele>187.8</ele>
        <time>2016-06-09T15:37:49Z</time>
      </trkpt>
      <trkpt lat="48.83806" lon="-0.52566">
        <ele>187.8</ele>
        <time>2016-06-09T15:37:54Z</time>
      </trkpt>
      <trkpt lat="48.83806" lon="-0.52566">
        <ele>187.8</ele>
        <time>2016-06-09T15:37:59Z</time>
      </trkpt>
      <trkpt lat="48.83806" lon="-0.52566">
        <ele>187.8</ele>
        <time>2016-06-09T15:38:04Z</time>
      </trkpt>
      <trkpt lat="48.83806" lon="-0.52566">
        <ele>187.8</ele>
        <time>2016-06-09T15:38:09Z</time>
      </trkpt>
      <trkpt lat="48.83806" lon="-0.52566">
        <ele>187.8</ele>
        <time>2016-06-09T15:38:14Z</time>
      </trkpt>
      <trkpt lat="48.83805" lon="-0.52566">
        <ele>187.8</ele>
        <time>2016-06-09T15:38:19Z</time>
      </trkpt>
      <trkpt lat="48.83806" lon="-0.52566">
        <ele>187.8</ele>
        <time>2016-06-09T15:38:24Z</time>
      </trkpt>
      <trkpt lat="48.83806" lon="-0.52566">
        <ele>187.8</ele>
        <time>2016-06-09T15:38:29Z</time>
      </trkpt>
      <trkpt lat="48.83806" lon="-0.52566">
        <ele>187.8</ele>
        <time>2016-06-09T15:38:34Z</time>
      </trkpt>
      <trkpt lat="48.83806" lon="-0.52566">
        <ele>187.8</ele>
        <time>2016-06-09T15:38:39Z</time>
      </trkpt>
      <trkpt lat="48.83806" lon="-0.52566">
        <ele>187.8</ele>
        <time>2016-06-09T15:38:44Z</time>
      </trkpt>
      <trkpt lat="48.83805" lon="-0.52566">
        <ele>187.8</ele>
        <time>2016-06-09T15:38:49Z</time>
      </trkpt>
      <trkpt lat="48.83805" lon="-0.52566">
        <ele>187.8</ele>
        <time>2016-06-09T15:38:54Z</time>
      </trkpt>
      <trkpt lat="48.83805" lon="-0.52566">
        <ele>187.8</ele>
        <time>2016-06-09T15:38:59Z</time>
      </trkpt>
      <trkpt lat="48.83805" lon="-0.52566">
        <ele>187.8</ele>
        <time>2016-06-09T15:39:04Z</time>
      </trkpt>
      <trkpt lat="48.83805" lon="-0.52566">
        <ele>187.8</ele>
        <time>2016-06-09T15:39:09Z</time>
      </trkpt>
      <trkpt lat="48.83805" lon="-0.52566">
        <ele>187.8</ele>
        <time>2016-06-09T15:39:14Z</time>
      </trkpt>
      <trkpt lat="48.83805" lon="-0.52566">
        <ele>187.8</ele>
        <time>2016-06-09T15:39:19Z</time>
      </trkpt>
      <trkpt lat="48.83805" lon="-0.52566">
        <ele>187.8</ele>
        <time>2016-06-09T15:39:24Z</time>
      </trkpt>
      <trkpt lat="48.83805" lon="-0.52566">
        <ele>187.8</ele>
        <time>2016-06-09T15:39:29Z</time>
      </trkpt>
      <trkpt lat="48.83805" lon="-0.52566">
        <ele>187.8</ele>
        <time>2016-06-09T15:39:34Z</time>
      </trkpt>
      <trkpt lat="48.83805" lon="-0.52566">
        <ele>187.8</ele>
        <time>2016-06-09T15:39:39Z</time>
      </trkpt>
      <trkpt lat="48.83805" lon="-0.52566">
        <ele>187.8</ele>
        <time>2016-06-09T15:39:44Z</time>
      </trkpt>
      <trkpt lat="48.83805" lon="-0.52566">
        <ele>187.8</ele>
        <time>2016-06-09T15:39:49Z</time>
      </trkpt>
      <trkpt lat="48.83805" lon="-0.52566">
        <ele>187.8</ele>
        <time>2016-06-09T15:39:54Z</time>
      </trkpt>
      <trkpt lat="48.83805" lon="-0.52566">
        <ele>187.8</ele>
        <time>2016-06-09T15:39:59Z</time>
      </trkpt>
      <trkpt lat="48.83805" lon="-0.52566">
        <ele>187.8</ele>
        <time>2016-06-09T15:40:04Z</time>
      </trkpt>
      <trkpt lat="48.83805" lon="-0.52566">
        <ele>187.8</ele>
        <time>2016-06-09T15:40:09Z</time>
      </trkpt>
      <trkpt lat="48.83805" lon="-0.52566">
        <ele>187.8</ele>
        <time>2016-06-09T15:40:14Z</time>
      </trkpt>
      <trkpt lat="48.83805" lon="-0.52566">
        <ele>187.8</ele>
        <time>2016-06-09T15:40:19Z</time>
      </trkpt>
      <trkpt lat="48.83805" lon="-0.52566">
        <ele>187.8</ele>
        <time>2016-06-09T15:40:24Z</time>
      </trkpt>
      <trkpt lat="48.83805" lon="-0.52566">
        <ele>187.8</ele>
        <time>2016-06-09T15:40:29Z</time>
      </trkpt>
      <trkpt lat="48.83805" lon="-0.52566">
        <ele>187.8</ele>
        <time>2016-06-09T15:40:34Z</time>
      </trkpt>
      <trkpt lat="48.83805" lon="-0.52566">
        <ele>187.8</ele>
        <time>2016-06-09T15:40:39Z</time>
      </trkpt>
      <trkpt lat="48.83805" lon="-0.52566">
        <ele>187.8</ele>
        <time>2016-06-09T15:40:44Z</time>
      </trkpt>
      <trkpt lat="48.83805" lon="-0.52566">
        <ele>187.8</ele>
        <time>2016-06-09T15:40:49Z</time>
      </trkpt>
      <trkpt lat="48.83805" lon="-0.52566">
        <ele>187.8</ele>
        <time>2016-06-09T15:40:54Z</time>
      </trkpt>
      <trkpt lat="48.83805" lon="-0.52566">
        <ele>187.8</ele>
        <time>2016-06-09T15:40:59Z</time>
      </trkpt>
      <trkpt lat="48.83805" lon="-0.52566">
        <ele>187.8</ele>
        <time>2016-06-09T15:41:04Z</time>
      </trkpt>
      <trkpt lat="48.83805" lon="-0.52566">
        <ele>187.8</ele>
        <time>2016-06-09T15:41:09Z</time>
      </trkpt>
      <trkpt lat="48.83805" lon="-0.52566">
        <ele>187.8</ele>
        <time>2016-06-09T15:41:14Z</time>
      </trkpt>
      <trkpt lat="48.83805" lon="-0.52566">
        <ele>187.8</ele>
        <time>2016-06-09T15:41:24Z</time>
      </trkpt>
      <trkpt lat="48.83805" lon="-0.52566">
        <ele>187.8</ele>
        <time>2016-06-09T15:41:29Z</time>
      </trkpt>
      <trkpt lat="48.83805" lon="-0.52566">
        <ele>187.8</ele>
        <time>2016-06-09T15:41:34Z</time>
      </trkpt>
      <trkpt lat="48.83814" lon="-0.52571">
        <ele>183.44054</ele>
        <time>2016-06-09T15:41:39Z</time>
      </trkpt>
      <trkpt lat="48.83813" lon="-0.52572">
        <ele>183.44054</ele>
        <time>2016-06-09T15:41:44Z</time>
      </trkpt>
      <trkpt lat="48.83822" lon="-0.52566">
        <ele>185.02588</ele>
        <time>2016-06-09T15:41:54Z</time>
      </trkpt>
      <trkpt lat="48.83826" lon="-0.52566">
        <ele>185.02588</ele>
        <time>2016-06-09T15:41:59Z</time>
      </trkpt>
      <trkpt lat="48.83835" lon="-0.5256">
        <ele>185.25542</ele>
        <time>2016-06-09T15:42:09Z</time>
      </trkpt>
      <trkpt lat="48.83841" lon="-0.52557">
        <ele>185.25542</ele>
        <time>2016-06-09T15:42:14Z</time>
      </trkpt>
      <trkpt lat="48.83853" lon="-0.52549">
        <ele>185.60374</ele>
        <time>2016-06-09T15:42:24Z</time>
      </trkpt>
      <trkpt lat="48.83859" lon="-0.52545">
        <ele>185.60374</ele>
        <time>2016-06-09T15:42:29Z</time>
      </trkpt>
      <trkpt lat="48.83872" lon="-0.5254">
        <ele>185.85669</ele>
        <time>2016-06-09T15:42:39Z</time>
      </trkpt>
      <trkpt lat="48.83877" lon="-0.52537">
        <ele>185.85669</ele>
        <time>2016-06-09T15:42:44Z</time>
      </trkpt>
      <trkpt lat="48.83897" lon="-0.52527">
        <ele>185.78491</ele>
        <time>2016-06-09T15:42:59Z</time>
      </trkpt>
      <trkpt lat="48.83904" lon="-0.52524">
        <ele>185.78491</ele>
        <time>2016-06-09T15:43:04Z</time>
      </trkpt>
      <trkpt lat="48.83912" lon="-0.52518">
        <ele>185.70415</ele>
        <time>2016-06-09T15:43:14Z</time>
      </trkpt>
      <trkpt lat="48.83918" lon="-0.52515">
        <ele>185.70415</ele>
        <time>2016-06-09T15:43:19Z</time>
      </trkpt>
      <trkpt lat="48.83929" lon="-0.52511">
        <ele>185.72823</ele>
        <time>2016-06-09T15:43:29Z</time>
      </trkpt>
      <trkpt lat="48.83934" lon="-0.52509">
        <ele>185.72823</ele>
        <time>2016-06-09T15:43:34Z</time>
      </trkpt>
      <trkpt lat="48.83948" lon="-0.52505">
        <ele>185.37196</ele>
        <time>2016-06-09T15:43:44Z</time>
      </trkpt>
      <trkpt lat="48.83954" lon="-0.52503">
        <ele>185.37196</ele>
        <time>2016-06-09T15:43:49Z</time>
      </trkpt>
      <trkpt lat="48.83966" lon="-0.525">
        <ele>185.20132</ele>
        <time>2016-06-09T15:43:59Z</time>
      </trkpt>
      <trkpt lat="48.83974" lon="-0.52498">
        <ele>185.20132</ele>
        <time>2016-06-09T15:44:04Z</time>
      </trkpt>
      <trkpt lat="48.83985" lon="-0.52494">
        <ele>184.80692</ele>
        <time>2016-06-09T15:44:14Z</time>
      </trkpt>
      <trkpt lat="48.83992" lon="-0.52492">
        <ele>184.80692</ele>
        <time>2016-06-09T15:44:19Z</time>
      </trkpt>
      <trkpt lat="48.84004" lon="-0.52492">
        <ele>184.57837</ele>
        <time>2016-06-09T15:44:29Z</time>
      </trkpt>
      <trkpt lat="48.8401" lon="-0.52491">
        <ele>184.57837</ele>
        <time>2016-06-09T15:44:34Z</time>
      </trkpt>
      <trkpt lat="48.84016" lon="-0.52488">
        <ele>184.3118</ele>
        <time>2016-06-09T15:44:39Z</time>
      </trkpt>
      <trkpt lat="48.8402" lon="-0.52486">
        <ele>184.3118</ele>
        <time>2016-06-09T15:44:44Z</time>
      </trkpt>
      <trkpt lat="48.84025" lon="-0.52485">
        <ele>183.6557</ele>
        <time>2016-06-09T15:44:49Z</time>
      </trkpt>
      <trkpt lat="48.8403" lon="-0.52485">
        <ele>183.6557</ele>
        <time>2016-06-09T15:44:54Z</time>
      </trkpt>
      <trkpt lat="48.84034" lon="-0.52483">
        <ele>183.00928</ele>
        <time>2016-06-09T15:44:59Z</time>
      </trkpt>
      <trkpt lat="48.8404" lon="-0.52484">
        <ele>183.00928</ele>
        <time>2016-06-09T15:45:04Z</time>
      </trkpt>
      <trkpt lat="48.84047" lon="-0.52489">
        <ele>182.40233</ele>
        <time>2016-06-09T15:45:09Z</time>
      </trkpt>
      <trkpt lat="48.84057" lon="-0.52497">
        <ele>180.86264</ele>
        <time>2016-06-09T15:45:19Z</time>
      </trkpt>
      <trkpt lat="48.84066" lon="-0.52497">
        <ele>179.8461</ele>
        <time>2016-06-09T15:45:24Z</time>
      </trkpt>
      <trkpt lat="48.84076" lon="-0.52504">
        <ele>178.39719</ele>
        <time>2016-06-09T15:45:34Z</time>
      </trkpt>
      <trkpt lat="48.84084" lon="-0.52509">
        <ele>178.39719</ele>
        <time>2016-06-09T15:45:39Z</time>
      </trkpt>
      <trkpt lat="48.84096" lon="-0.52513">
        <ele>176.82588</ele>
        <time>2016-06-09T15:45:49Z</time>
      </trkpt>
      <trkpt lat="48.841" lon="-0.52518">
        <ele>176.82588</ele>
        <time>2016-06-09T15:45:54Z</time>
      </trkpt>
      <trkpt lat="48.84118" lon="-0.52533">
        <ele>175.35518</ele>
        <time>2016-06-09T15:46:09Z</time>
      </trkpt>
      <trkpt lat="48.84123" lon="-0.52539">
        <ele>175.35518</ele>
        <time>2016-06-09T15:46:14Z</time>
      </trkpt>
      <trkpt lat="48.84128" lon="-0.52545">
        <ele>174.25296</ele>
        <time>2016-06-09T15:46:19Z</time>
      </trkpt>
      <trkpt lat="48.84136" lon="-0.52548">
        <ele>174.25296</ele>
        <time>2016-06-09T15:46:24Z</time>
      </trkpt>
      <trkpt lat="48.84141" lon="-0.52551">
        <ele>172.86586</ele>
        <time>2016-06-09T15:46:29Z</time>
      </trkpt>
      <trkpt lat="48.84142" lon="-0.5256">
        <ele>172.86586</ele>
        <time>2016-06-09T15:46:34Z</time>
      </trkpt>
      <trkpt lat="48.84147" lon="-0.52563">
        <ele>171.8042</ele>
        <time>2016-06-09T15:46:39Z</time>
      </trkpt>
      <trkpt lat="48.84153" lon="-0.52566">
        <ele>171.8042</ele>
        <time>2016-06-09T15:46:44Z</time>
      </trkpt>
      <trkpt lat="48.84158" lon="-0.52572">
        <ele>170.65479</ele>
        <time>2016-06-09T15:46:49Z</time>
      </trkpt>
      <trkpt lat="48.84164" lon="-0.52574">
        <ele>170.65479</ele>
        <time>2016-06-09T15:46:54Z</time>
      </trkpt>
      <trkpt lat="48.84171" lon="-0.52577">
        <ele>170.03215</ele>
        <time>2016-06-09T15:46:59Z</time>
      </trkpt>
      <trkpt lat="48.84179" lon="-0.52577">
        <ele>170.03215</ele>
        <time>2016-06-09T15:47:04Z</time>
      </trkpt>
      <trkpt lat="48.84183" lon="-0.52577">
        <ele>169.48424</ele>
        <time>2016-06-09T15:47:09Z</time>
      </trkpt>
      <trkpt lat="48.84188" lon="-0.52579">
        <ele>169.48424</ele>
        <time>2016-06-09T15:47:14Z</time>
      </trkpt>
      <trkpt lat="48.84201" lon="-0.52582">
        <ele>169.27199</ele>
        <time>2016-06-09T15:47:19Z</time>
      </trkpt>
      <trkpt lat="48.8421" lon="-0.52582">
        <ele>169.27199</ele>
        <time>2016-06-09T15:47:29Z</time>
      </trkpt>
      <trkpt lat="48.84214" lon="-0.52586">
        <ele>168.35526</ele>
        <time>2016-06-09T15:47:34Z</time>
      </trkpt>
      <trkpt lat="48.84228" lon="-0.52592">
        <ele>167.32509</ele>
        <time>2016-06-09T15:47:44Z</time>
      </trkpt>
      <trkpt lat="48.84234" lon="-0.52598">
        <ele>167.32509</ele>
        <time>2016-06-09T15:47:49Z</time>
      </trkpt>
      <trkpt lat="48.84238" lon="-0.52603">
        <ele>166.31572</ele>
        <time>2016-06-09T15:47:54Z</time>
      </trkpt>
      <trkpt lat="48.8425" lon="-0.52612">
        <ele>165.81122</ele>
        <time>2016-06-09T15:47:59Z</time>
      </trkpt>
      <trkpt lat="48.84257" lon="-0.52619">
        <ele>165.81122</ele>
        <time>2016-06-09T15:48:09Z</time>
      </trkpt>
      <trkpt lat="48.84263" lon="-0.52626">
        <ele>164.9421</ele>
        <time>2016-06-09T15:48:14Z</time>
      </trkpt>
      <trkpt lat="48.84272" lon="-0.52631">
        <ele>163.40009</ele>
        <time>2016-06-09T15:48:24Z</time>
      </trkpt>
      <trkpt lat="48.84277" lon="-0.5264">
        <ele>163.40009</ele>
        <time>2016-06-09T15:48:29Z</time>
      </trkpt>
      <trkpt lat="48.84295" lon="-0.5265">
        <ele>162.23483</ele>
        <time>2016-06-09T15:48:39Z</time>
      </trkpt>
      <trkpt lat="48.84299" lon="-0.52652">
        <ele>162.23483</ele>
        <time>2016-06-09T15:48:44Z</time>
      </trkpt>
      <trkpt lat="48.84304" lon="-0.52658">
        <ele>160.96172</ele>
        <time>2016-06-09T15:48:49Z</time>
      </trkpt>
      <trkpt lat="48.84309" lon="-0.52658">
        <ele>160.96172</ele>
        <time>2016-06-09T15:48:54Z</time>
      </trkpt>
      <trkpt lat="48.84313" lon="-0.5266">
        <ele>160.96172</ele>
        <time>2016-06-09T15:48:59Z</time>
      </trkpt>
      <trkpt lat="48.84316" lon="-0.52661">
        <ele>159.75813</ele>
        <time>2016-06-09T15:49:04Z</time>
      </trkpt>
      <trkpt lat="48.84325" lon="-0.52666">
        <ele>158.49446</ele>
        <time>2016-06-09T15:49:09Z</time>
      </trkpt>
      <trkpt lat="48.84326" lon="-0.52675">
        <ele>158.49446</ele>
        <time>2016-06-09T15:49:14Z</time>
      </trkpt>
      <trkpt lat="48.8433" lon="-0.52681">
        <ele>157.09093</ele>
        <time>2016-06-09T15:49:19Z</time>
      </trkpt>
      <trkpt lat="48.84329" lon="-0.52682">
        <ele>157.09093</ele>
        <time>2016-06-09T15:49:24Z</time>
      </trkpt>
      <trkpt lat="48.84329" lon="-0.52682">
        <ele>157.09093</ele>
        <time>2016-06-09T15:49:29Z</time>
      </trkpt>
      <trkpt lat="48.84328" lon="-0.52683">
        <ele>157.09093</ele>
        <time>2016-06-09T15:49:34Z</time>
      </trkpt>
      <trkpt lat="48.84328" lon="-0.52683">
        <ele>157.09093</ele>
        <time>2016-06-09T15:49:39Z</time>
      </trkpt>
      <trkpt lat="48.84328" lon="-0.52684">
        <ele>157.09093</ele>
        <time>2016-06-09T15:49:44Z</time>
      </trkpt>
      <trkpt lat="48.84328" lon="-0.52683">
        <ele>157.09093</ele>
        <time>2016-06-09T15:49:49Z</time>
      </trkpt>
      <trkpt lat="48.84329" lon="-0.52683">
        <ele>157.09093</ele>
        <time>2016-06-09T15:49:54Z</time>
      </trkpt>
      <trkpt lat="48.84335" lon="-0.52675">
        <ele>156.0328</ele>
        <time>2016-06-09T15:49:59Z</time>
      </trkpt>
      <trkpt lat="48.84353" lon="-0.52665">
        <ele>155.89613</ele>
        <time>2016-06-09T15:50:09Z</time>
      </trkpt>
      <trkpt lat="48.84361" lon="-0.52659">
        <ele>155.53403</ele>
        <time>2016-06-09T15:50:14Z</time>
      </trkpt>
      <trkpt lat="48.84372" lon="-0.52647">
        <ele>154.31345</ele>
        <time>2016-06-09T15:50:24Z</time>
      </trkpt>
      <trkpt lat="48.84378" lon="-0.52644">
        <ele>154.31345</ele>
        <time>2016-06-09T15:50:29Z</time>
      </trkpt>
      <trkpt lat="48.84388" lon="-0.52636">
        <ele>153.09937</ele>
        <time>2016-06-09T15:50:39Z</time>
      </trkpt>
      <trkpt lat="48.84391" lon="-0.5263">
        <ele>153.09937</ele>
        <time>2016-06-09T15:50:44Z</time>
      </trkpt>
      <trkpt lat="48.84397" lon="-0.52625">
        <ele>151.68655</ele>
        <time>2016-06-09T15:50:49Z</time>
      </trkpt>
      <trkpt lat="48.84401" lon="-0.52623">
        <ele>151.68655</ele>
        <time>2016-06-09T15:50:54Z</time>
      </trkpt>
      <trkpt lat="48.84417" lon="-0.52603">
        <ele>150.79129</ele>
        <time>2016-06-09T15:51:09Z</time>
      </trkpt>
      <trkpt lat="48.84422" lon="-0.52597">
        <ele>150.79129</ele>
        <time>2016-06-09T15:51:14Z</time>
      </trkpt>
      <trkpt lat="48.84431" lon="-0.5259">
        <ele>149.69292</ele>
        <time>2016-06-09T15:51:24Z</time>
      </trkpt>
      <trkpt lat="48.84435" lon="-0.52582">
        <ele>149.69292</ele>
        <time>2016-06-09T15:51:29Z</time>
      </trkpt>
      <trkpt lat="48.84439" lon="-0.52576">
        <ele>148.8871</ele>
        <time>2016-06-09T15:51:34Z</time>
      </trkpt>
      <trkpt lat="48.84444" lon="-0.52576">
        <ele>148.8871</ele>
        <time>2016-06-09T15:51:39Z</time>
      </trkpt>
      <trkpt lat="48.84452" lon="-0.52569">
        <ele>147.94785</ele>
        <time>2016-06-09T15:51:44Z</time>
      </trkpt>
      <trkpt lat="48.8446" lon="-0.52563">
        <ele>147.94785</ele>
        <time>2016-06-09T15:51:49Z</time>
      </trkpt>
      <trkpt lat="48.84466" lon="-0.52559">
        <ele>147.35278</ele>
        <time>2016-06-09T15:51:54Z</time>
      </trkpt>
      <trkpt lat="48.8447" lon="-0.52559">
        <ele>147.35278</ele>
        <time>2016-06-09T15:51:59Z</time>
      </trkpt>
      <trkpt lat="48.84474" lon="-0.52558">
        <ele>147.35278</ele>
        <time>2016-06-09T15:52:04Z</time>
      </trkpt>
      <trkpt lat="48.84478" lon="-0.52555">
        <ele>146.54808</ele>
        <time>2016-06-09T15:52:09Z</time>
      </trkpt>
      <trkpt lat="48.84476" lon="-0.52556">
        <ele>146.54808</ele>
        <time>2016-06-09T15:52:14Z</time>
      </trkpt>
      <trkpt lat="48.84485" lon="-0.52551">
        <ele>146.39503</ele>
        <time>2016-06-09T15:52:24Z</time>
      </trkpt>
      <trkpt lat="48.84495" lon="-0.5255">
        <ele>146.7209</ele>
        <time>2016-06-09T15:52:29Z</time>
      </trkpt>
      <trkpt lat="48.84502" lon="-0.52549">
        <ele>146.7209</ele>
        <time>2016-06-09T15:52:39Z</time>
      </trkpt>
      <trkpt lat="48.84509" lon="-0.52548">
        <ele>146.1114</ele>
        <time>2016-06-09T15:52:44Z</time>
      </trkpt>
      <trkpt lat="48.84521" lon="-0.52547">
        <ele>145.42342</ele>
        <time>2016-06-09T15:52:54Z</time>
      </trkpt>
      <trkpt lat="48.84526" lon="-0.52543">
        <ele>145.42342</ele>
        <time>2016-06-09T15:52:59Z</time>
      </trkpt>
      <trkpt lat="48.84535" lon="-0.52534">
        <ele>144.81358</ele>
        <time>2016-06-09T15:53:09Z</time>
      </trkpt>
      <trkpt lat="48.8454" lon="-0.5253">
        <ele>144.81358</ele>
        <time>2016-06-09T15:53:14Z</time>
      </trkpt>
      <trkpt lat="48.84551" lon="-0.52515">
        <ele>144.07993</ele>
        <time>2016-06-09T15:53:24Z</time>
      </trkpt>
      <trkpt lat="48.84556" lon="-0.52509">
        <ele>144.07993</ele>
        <time>2016-06-09T15:53:29Z</time>
      </trkpt>
      <trkpt lat="48.84565" lon="-0.52499">
        <ele>142.96257</ele>
        <time>2016-06-09T15:53:39Z</time>
      </trkpt>
      <trkpt lat="48.84568" lon="-0.52496">
        <ele>142.96257</ele>
        <time>2016-06-09T15:53:44Z</time>
      </trkpt>
      <trkpt lat="48.84574" lon="-0.52486">
        <ele>141.68858</ele>
        <time>2016-06-09T15:53:54Z</time>
      </trkpt>
      <trkpt lat="48.8458" lon="-0.5248">
        <ele>141.68858</ele>
        <time>2016-06-09T15:53:59Z</time>
      </trkpt>
      <trkpt lat="48.84592" lon="-0.52485">
        <ele>140.72035</ele>
        <time>2016-06-09T15:54:09Z</time>
      </trkpt>
      <trkpt lat="48.84597" lon="-0.52489">
        <ele>140.72035</ele>
        <time>2016-06-09T15:54:14Z</time>
      </trkpt>
      <trkpt lat="48.84601" lon="-0.52494">
        <ele>139.78038</ele>
        <time>2016-06-09T15:54:19Z</time>
      </trkpt>
      <trkpt lat="48.84603" lon="-0.52504">
        <ele>139.78038</ele>
        <time>2016-06-09T15:54:24Z</time>
      </trkpt>
      <trkpt lat="48.84605" lon="-0.52513">
        <ele>138.77782</ele>
        <time>2016-06-09T15:54:29Z</time>
      </trkpt>
      <trkpt lat="48.84613" lon="-0.52516">
        <ele>138.77782</ele>
        <time>2016-06-09T15:54:39Z</time>
      </trkpt>
      <trkpt lat="48.84616" lon="-0.5251">
        <ele>137.89635</ele>
        <time>2016-06-09T15:54:44Z</time>
      </trkpt>
      <trkpt lat="48.84621" lon="-0.52498">
        <ele>137.2152</ele>
        <time>2016-06-09T15:54:54Z</time>
      </trkpt>
      <trkpt lat="48.84628" lon="-0.52489">
        <ele>137.2152</ele>
        <time>2016-06-09T15:54:59Z</time>
      </trkpt>
      <trkpt lat="48.84639" lon="-0.52477">
        <ele>136.48193</ele>
        <time>2016-06-09T15:55:09Z</time>
      </trkpt>
      <trkpt lat="48.84644" lon="-0.52471">
        <ele>136.48193</ele>
        <time>2016-06-09T15:55:14Z</time>
      </trkpt>
      <trkpt lat="48.84652" lon="-0.5246">
        <ele>135.87729</ele>
        <time>2016-06-09T15:55:24Z</time>
      </trkpt>
      <trkpt lat="48.84655" lon="-0.52458">
        <ele>135.87729</ele>
        <time>2016-06-09T15:55:29Z</time>
      </trkpt>
      <trkpt lat="48.84664" lon="-0.52444">
        <ele>135.02359</ele>
        <time>2016-06-09T15:55:39Z</time>
      </trkpt>
      <trkpt lat="48.84669" lon="-0.52439">
        <ele>135.02359</ele>
        <time>2016-06-09T15:55:44Z</time>
      </trkpt>
      <trkpt lat="48.84678" lon="-0.52427">
        <ele>134.27794</ele>
        <time>2016-06-09T15:55:54Z</time>
      </trkpt>
      <trkpt lat="48.84684" lon="-0.52418">
        <ele>134.27794</ele>
        <time>2016-06-09T15:55:59Z</time>
      </trkpt>
      <trkpt lat="48.84692" lon="-0.52409">
        <ele>133.48553</ele>
        <time>2016-06-09T15:56:09Z</time>
      </trkpt>
      <trkpt lat="48.84698" lon="-0.52404">
        <ele>133.48553</ele>
        <time>2016-06-09T15:56:14Z</time>
      </trkpt>
      <trkpt lat="48.84708" lon="-0.52393">
        <ele>132.3</ele>
        <time>2016-06-09T15:56:24Z</time>
      </trkpt>
      <trkpt lat="48.84712" lon="-0.52387">
        <ele>132.3</ele>
        <time>2016-06-09T15:56:29Z</time>
      </trkpt>
      <trkpt lat="48.84721" lon="-0.52375">
        <ele>130.81163</ele>
        <time>2016-06-09T15:56:44Z</time>
      </trkpt>
      <trkpt lat="48.84724" lon="-0.52369">
        <ele>130.81163</ele>
        <time>2016-06-09T15:56:49Z</time>
      </trkpt>
      <trkpt lat="48.84733" lon="-0.52356">
        <ele>128.9296</ele>
        <time>2016-06-09T15:56:59Z</time>
      </trkpt>
      <trkpt lat="48.84738" lon="-0.5235">
        <ele>128.9296</ele>
        <time>2016-06-09T15:57:04Z</time>
      </trkpt>
      <trkpt lat="48.84745" lon="-0.52336">
        <ele>126.817986</ele>
        <time>2016-06-09T15:57:14Z</time>
      </trkpt>
      <trkpt lat="48.84748" lon="-0.52331">
        <ele>126.817986</ele>
        <time>2016-06-09T15:57:19Z</time>
      </trkpt>
      <trkpt lat="48.84752" lon="-0.52324">
        <ele>124.59941</ele>
        <time>2016-06-09T15:57:24Z</time>
      </trkpt>
      <trkpt lat="48.84758" lon="-0.52317">
        <ele>124.59941</ele>
        <time>2016-06-09T15:57:29Z</time>
      </trkpt>
      <trkpt lat="48.84761" lon="-0.52311">
        <ele>122.67684</ele>
        <time>2016-06-09T15:57:34Z</time>
      </trkpt>
      <trkpt lat="48.84766" lon="-0.52305">
        <ele>122.67684</ele>
        <time>2016-06-09T15:57:39Z</time>
      </trkpt>
      <trkpt lat="48.84768" lon="-0.52298">
        <ele>120.36469</ele>
        <time>2016-06-09T15:57:44Z</time>
      </trkpt>
      <trkpt lat="48.84771" lon="-0.52291">
        <ele>120.36469</ele>
        <time>2016-06-09T15:57:49Z</time>
      </trkpt>
      <trkpt lat="48.84777" lon="-0.52273">
        <ele>117.97117</ele>
        <time>2016-06-09T15:57:59Z</time>
      </trkpt>
      <trkpt lat="48.84779" lon="-0.52266">
        <ele>117.97117</ele>
        <time>2016-06-09T15:58:04Z</time>
      </trkpt>
      <trkpt lat="48.84786" lon="-0.52252">
        <ele>115.3619</ele>
        <time>2016-06-09T15:58:14Z</time>
      </trkpt>
      <trkpt lat="48.84788" lon="-0.52245">
        <ele>115.3619</ele>
        <time>2016-06-09T15:58:19Z</time>
      </trkpt>
      <trkpt lat="48.84791" lon="-0.52233">
        <ele>112.03773</ele>
        <time>2016-06-09T15:58:29Z</time>
      </trkpt>
      <trkpt lat="48.84793" lon="-0.52225">
        <ele>112.03773</ele>
        <time>2016-06-09T15:58:34Z</time>
      </trkpt>
      <trkpt lat="48.84798" lon="-0.52209">
        <ele>108.80926</ele>
        <time>2016-06-09T15:58:44Z</time>
      </trkpt>
      <trkpt lat="48.84802" lon="-0.52198">
        <ele>108.80926</ele>
        <time>2016-06-09T15:58:49Z</time>
      </trkpt>
      <trkpt lat="48.84808" lon="-0.52184">
        <ele>105.83417</ele>
        <time>2016-06-09T15:58:59Z</time>
      </trkpt>
      <trkpt lat="48.84811" lon="-0.52175">
        <ele>105.83417</ele>
        <time>2016-06-09T15:59:04Z</time>
      </trkpt>
      <trkpt lat="48.84817" lon="-0.52163">
        <ele>102.55077</ele>
        <time>2016-06-09T15:59:14Z</time>
      </trkpt>
      <trkpt lat="48.84821" lon="-0.52156">
        <ele>102.55077</ele>
        <time>2016-06-09T15:59:19Z</time>
      </trkpt>
      <trkpt lat="48.84828" lon="-0.5214">
        <ele>99.44959</ele>
        <time>2016-06-09T15:59:29Z</time>
      </trkpt>
      <trkpt lat="48.84831" lon="-0.52131">
        <ele>99.44959</ele>
        <time>2016-06-09T15:59:34Z</time>
      </trkpt>
      <trkpt lat="48.84835" lon="-0.52124">
        <ele>96.60922</ele>
        <time>2016-06-09T15:59:39Z</time>
      </trkpt>
      <trkpt lat="48.84838" lon="-0.52117">
        <ele>96.60922</ele>
        <time>2016-06-09T15:59:44Z</time>
      </trkpt>
      <trkpt lat="48.84841" lon="-0.52109">
        <ele>93.81329</ele>
        <time>2016-06-09T15:59:49Z</time>
      </trkpt>
      <trkpt lat="48.84844" lon="-0.52101">
        <ele>93.81329</ele>
        <time>2016-06-09T15:59:54Z</time>
      </trkpt>
      <trkpt lat="48.84848" lon="-0.52095">
        <ele>91.04864</ele>
        <time>2016-06-09T15:59:59Z</time>
      </trkpt>
      <trkpt lat="48.8485" lon="-0.52091">
        <ele>91.04864</ele>
        <time>2016-06-09T16:00:04Z</time>
      </trkpt>
      <trkpt lat="48.84856" lon="-0.5208">
        <ele>88.25959</ele>
        <time>2016-06-09T16:00:09Z</time>
      </trkpt>
      <trkpt lat="48.8486" lon="-0.52074">
        <ele>88.25959</ele>
        <time>2016-06-09T16:00:14Z</time>
      </trkpt>
      <trkpt lat="48.84863" lon="-0.52067">
        <ele>85.6108</ele>
        <time>2016-06-09T16:00:19Z</time>
      </trkpt>
      <trkpt lat="48.84867" lon="-0.5206">
        <ele>85.6108</ele>
        <time>2016-06-09T16:00:24Z</time>
      </trkpt>
      <trkpt lat="48.84871" lon="-0.52053">
        <ele>82.98035</ele>
        <time>2016-06-09T16:00:29Z</time>
      </trkpt>
      <trkpt lat="48.84875" lon="-0.52045">
        <ele>82.98035</ele>
        <time>2016-06-09T16:00:34Z</time>
      </trkpt>
      <trkpt lat="48.8488" lon="-0.52037">
        <ele>80.60111</ele>
        <time>2016-06-09T16:00:39Z</time>
      </trkpt>
      <trkpt lat="48.84884" lon="-0.52029">
        <ele>80.60111</ele>
        <time>2016-06-09T16:00:44Z</time>
      </trkpt>
      <trkpt lat="48.84887" lon="-0.52022">
        <ele>78.50063</ele>
        <time>2016-06-09T16:00:49Z</time>
      </trkpt>
      <trkpt lat="48.8489" lon="-0.52013">
        <ele>78.50063</ele>
        <time>2016-06-09T16:00:54Z</time>
      </trkpt>
      <trkpt lat="48.84892" lon="-0.52008">
        <ele>76.83327</ele>
        <time>2016-06-09T16:00:59Z</time>
      </trkpt>
      <trkpt lat="48.84891" lon="-0.51996">
        <ele>76.83327</ele>
        <time>2016-06-09T16:01:04Z</time>
      </trkpt>
      <trkpt lat="48.84894" lon="-0.51991">
        <ele>74.50048</ele>
        <time>2016-06-09T16:01:09Z</time>
      </trkpt>
      <trkpt lat="48.84899" lon="-0.51982">
        <ele>74.50048</ele>
        <time>2016-06-09T16:01:14Z</time>
      </trkpt>
      <trkpt lat="48.84902" lon="-0.51974">
        <ele>72.13014</ele>
        <time>2016-06-09T16:01:19Z</time>
      </trkpt>
      <trkpt lat="48.84905" lon="-0.51965">
        <ele>72.13014</ele>
        <time>2016-06-09T16:01:24Z</time>
      </trkpt>
      <trkpt lat="48.84908" lon="-0.51956">
        <ele>69.95791</ele>
        <time>2016-06-09T16:01:29Z</time>
      </trkpt>
      <trkpt lat="48.84909" lon="-0.51948">
        <ele>69.95791</ele>
        <time>2016-06-09T16:01:34Z</time>
      </trkpt>
      <trkpt lat="48.8491" lon="-0.51939">
        <ele>68.33126</ele>
        <time>2016-06-09T16:01:39Z</time>
      </trkpt>
      <trkpt lat="48.84918" lon="-0.51929">
        <ele>67.28206</ele>
        <time>2016-06-09T16:01:44Z</time>
      </trkpt>
      <trkpt lat="48.84917" lon="-0.51923">
        <ele>67.28206</ele>
        <time>2016-06-09T16:01:49Z</time>
      </trkpt>
      <trkpt lat="48.84919" lon="-0.51913">
        <ele>66.23228</ele>
        <time>2016-06-09T16:01:54Z</time>
      </trkpt>
      <trkpt lat="48.84921" lon="-0.51903">
        <ele>66.23228</ele>
        <time>2016-06-09T16:01:59Z</time>
      </trkpt>
      <trkpt lat="48.84926" lon="-0.51896">
        <ele>65.26646</ele>
        <time>2016-06-09T16:02:04Z</time>
      </trkpt>
      <trkpt lat="48.8493" lon="-0.51887">
        <ele>65.26646</ele>
        <time>2016-06-09T16:02:09Z</time>
      </trkpt>
      <trkpt lat="48.84945" lon="-0.51876">
        <ele>64.938644</ele>
        <time>2016-06-09T16:02:14Z</time>
      </trkpt>
      <trkpt lat="48.8494" lon="-0.51871">
        <ele>64.938644</ele>
        <time>2016-06-09T16:02:19Z</time>
      </trkpt>
      <trkpt lat="48.84943" lon="-0.51865">
        <ele>64.77941</ele>
        <time>2016-06-09T16:02:24Z</time>
      </trkpt>
      <trkpt lat="48.84944" lon="-0.51855">
        <ele>64.77941</ele>
        <time>2016-06-09T16:02:29Z</time>
      </trkpt>
      <trkpt lat="48.84947" lon="-0.5185">
        <ele>65.03128</ele>
        <time>2016-06-09T16:02:34Z</time>
      </trkpt>
      <trkpt lat="48.84951" lon="-0.51845">
        <ele>65.03128</ele>
        <time>2016-06-09T16:02:39Z</time>
      </trkpt>
      <trkpt lat="48.84956" lon="-0.5184">
        <ele>65.398476</ele>
        <time>2016-06-09T16:02:44Z</time>
      </trkpt>
      <trkpt lat="48.84968" lon="-0.51834">
        <ele>65.64991</ele>
        <time>2016-06-09T16:02:49Z</time>
      </trkpt>
      <trkpt lat="48.8497" lon="-0.51828">
        <ele>65.64991</ele>
        <time>2016-06-09T16:02:54Z</time>
      </trkpt>
      <trkpt lat="48.84976" lon="-0.51823">
        <ele>66.00456</ele>
        <time>2016-06-09T16:02:59Z</time>
      </trkpt>
      <trkpt lat="48.84981" lon="-0.51821">
        <ele>66.00456</ele>
        <time>2016-06-09T16:03:04Z</time>
      </trkpt>
      <trkpt lat="48.84989" lon="-0.51819">
        <ele>66.40542</ele>
        <time>2016-06-09T16:03:09Z</time>
      </trkpt>
      <trkpt lat="48.84998" lon="-0.51815">
        <ele>66.40542</ele>
        <time>2016-06-09T16:03:14Z</time>
      </trkpt>
      <trkpt lat="48.85003" lon="-0.51814">
        <ele>67.10243</ele>
        <time>2016-06-09T16:03:19Z</time>
      </trkpt>
      <trkpt lat="48.85007" lon="-0.51811">
        <ele>67.10243</ele>
        <time>2016-06-09T16:03:24Z</time>
      </trkpt>
      <trkpt lat="48.85013" lon="-0.51813">
        <ele>67.547646</ele>
        <time>2016-06-09T16:03:29Z</time>
      </trkpt>
      <trkpt lat="48.85018" lon="-0.51815">
        <ele>67.547646</ele>
        <time>2016-06-09T16:03:34Z</time>
      </trkpt>
      <trkpt lat="48.85021" lon="-0.51813">
        <ele>67.547646</ele>
        <time>2016-06-09T16:03:39Z</time>
      </trkpt>
      <trkpt lat="48.85021" lon="-0.51811">
        <ele>68.012955</ele>
        <time>2016-06-09T16:03:44Z</time>
      </trkpt>
      <trkpt lat="48.85024" lon="-0.51805">
        <ele>68.012955</ele>
        <time>2016-06-09T16:03:49Z</time>
      </trkpt>
      <trkpt lat="48.85029" lon="-0.51797">
        <ele>68.44743</ele>
        <time>2016-06-09T16:03:54Z</time>
      </trkpt>
      <trkpt lat="48.85032" lon="-0.51789">
        <ele>68.44743</ele>
        <time>2016-06-09T16:03:59Z</time>
      </trkpt>
      <trkpt lat="48.8503" lon="-0.5178">
        <ele>69.26552</ele>
        <time>2016-06-09T16:04:04Z</time>
      </trkpt>
      <trkpt lat="48.85028" lon="-0.51773">
        <ele>69.26552</ele>
        <time>2016-06-09T16:04:09Z</time>
      </trkpt>
      <trkpt lat="48.85028" lon="-0.51768">
        <ele>69.26552</ele>
        <time>2016-06-09T16:04:14Z</time>
      </trkpt>
      <trkpt lat="48.85028" lon="-0.51763">
        <ele>70.30226</ele>
        <time>2016-06-09T16:04:19Z</time>
      </trkpt>
      <trkpt lat="48.85027" lon="-0.51758">
        <ele>70.30226</ele>
        <time>2016-06-09T16:04:24Z</time>
      </trkpt>
      <trkpt lat="48.85027" lon="-0.51757">
        <ele>70.30226</ele>
        <time>2016-06-09T16:04:29Z</time>
      </trkpt>
      <trkpt lat="48.85027" lon="-0.51756">
        <ele>70.30226</ele>
        <time>2016-06-09T16:04:34Z</time>
      </trkpt>
      <trkpt lat="48.85027" lon="-0.51758">
        <ele>70.30226</ele>
        <time>2016-06-09T16:04:39Z</time>
      </trkpt>
      <trkpt lat="48.85028" lon="-0.5176">
        <ele>70.30226</ele>
        <time>2016-06-09T16:04:44Z</time>
      </trkpt>
      <trkpt lat="48.85028" lon="-0.51753">
        <ele>71.231346</ele>
        <time>2016-06-09T16:04:54Z</time>
      </trkpt>
      <trkpt lat="48.85027" lon="-0.51747">
        <ele>71.231346</ele>
        <time>2016-06-09T16:04:59Z</time>
      </trkpt>
      <trkpt lat="48.85026" lon="-0.51734">
        <ele>72.06814</ele>
        <time>2016-06-09T16:05:09Z</time>
      </trkpt>
      <trkpt lat="48.85029" lon="-0.51733">
        <ele>72.06814</ele>
        <time>2016-06-09T16:05:14Z</time>
      </trkpt>
      <trkpt lat="48.8503" lon="-0.51728">
        <ele>72.06814</ele>
        <time>2016-06-09T16:05:19Z</time>
      </trkpt>
      <trkpt lat="48.85028" lon="-0.51729">
        <ele>72.06814</ele>
        <time>2016-06-09T16:05:24Z</time>
      </trkpt>
      <trkpt lat="48.85028" lon="-0.5173">
        <ele>72.06814</ele>
        <time>2016-06-09T16:05:29Z</time>
      </trkpt>
      <trkpt lat="48.8503" lon="-0.51725">
        <ele>72.20735</ele>
        <time>2016-06-09T16:05:34Z</time>
      </trkpt>
      <trkpt lat="48.85029" lon="-0.51725">
        <ele>72.20735</ele>
        <time>2016-06-09T16:05:44Z</time>
      </trkpt>
      <trkpt lat="48.8503" lon="-0.51726">
        <ele>72.20735</ele>
        <time>2016-06-09T16:05:49Z</time>
      </trkpt>
      <trkpt lat="48.85031" lon="-0.51726">
        <ele>72.20735</ele>
        <time>2016-06-09T16:05:59Z</time>
      </trkpt>
      <trkpt lat="48.8503" lon="-0.51727">
        <ele>72.20735</ele>
        <time>2016-06-09T16:06:04Z</time>
      </trkpt>
      <trkpt lat="48.85031" lon="-0.51727">
        <ele>72.20735</ele>
        <time>2016-06-09T16:06:19Z</time>
      </trkpt>
      <trkpt lat="48.85031" lon="-0.51727">
        <ele>72.20735</ele>
        <time>2016-06-09T16:06:24Z</time>
      </trkpt>
      <trkpt lat="48.85031" lon="-0.51727">
        <ele>72.20735</ele>
        <time>2016-06-09T16:06:34Z</time>
      </trkpt>
      <trkpt lat="48.85031" lon="-0.51727">
        <ele>72.20735</ele>
        <time>2016-06-09T16:06:39Z</time>
      </trkpt>
      <trkpt lat="48.85031" lon="-0.51727">
        <ele>72.20735</ele>
        <time>2016-06-09T16:06:49Z</time>
      </trkpt>
      <trkpt lat="48.85031" lon="-0.51727">
        <ele>72.20735</ele>
        <time>2016-06-09T16:06:54Z</time>
      </trkpt>
      <trkpt lat="48.85031" lon="-0.51727">
        <ele>72.20735</ele>
        <time>2016-06-09T16:07:04Z</time>
      </trkpt>
      <trkpt lat="48.85031" lon="-0.51727">
        <ele>72.20735</ele>
        <time>2016-06-09T16:07:09Z</time>
      </trkpt>
      <trkpt lat="48.8503" lon="-0.51727">
        <ele>72.20735</ele>
        <time>2016-06-09T16:07:19Z</time>
      </trkpt>
      <trkpt lat="48.8503" lon="-0.51727">
        <ele>72.20735</ele>
        <time>2016-06-09T16:07:24Z</time>
      </trkpt>
      <trkpt lat="48.85029" lon="-0.51728">
        <ele>72.20735</ele>
        <time>2016-06-09T16:07:34Z</time>
      </trkpt>
      <trkpt lat="48.85029" lon="-0.51729">
        <ele>72.20735</ele>
        <time>2016-06-09T16:07:39Z</time>
      </trkpt>
      <trkpt lat="48.85028" lon="-0.5173">
        <ele>73.31036</ele>
        <time>2016-06-09T16:07:49Z</time>
      </trkpt>
      <trkpt lat="48.85028" lon="-0.51731">
        <ele>73.31036</ele>
        <time>2016-06-09T16:07:54Z</time>
      </trkpt>
      <trkpt lat="48.85027" lon="-0.51731">
        <ele>73.31036</ele>
        <time>2016-06-09T16:08:04Z</time>
      </trkpt>
      <trkpt lat="48.85027" lon="-0.51731">
        <ele>73.31036</ele>
        <time>2016-06-09T16:08:09Z</time>
      </trkpt>
      <trkpt lat="48.85029" lon="-0.51734">
        <ele>73.31036</ele>
        <time>2016-06-09T16:08:19Z</time>
      </trkpt>
      <trkpt lat="48.8503" lon="-0.5174">
        <ele>73.31036</ele>
        <time>2016-06-09T16:08:24Z</time>
      </trkpt>
      <trkpt lat="48.85023" lon="-0.5174">
        <ele>75.01093</ele>
        <time>2016-06-09T16:08:39Z</time>
      </trkpt>
      <trkpt lat="48.85022" lon="-0.5174">
        <ele>75.01093</ele>
        <time>2016-06-09T16:08:44Z</time>
      </trkpt>
      <trkpt lat="48.85028" lon="-0.51738">
        <ele>75.01093</ele>
        <time>2016-06-09T16:08:54Z</time>
      </trkpt>
      <trkpt lat="48.85028" lon="-0.51738">
        <ele>75.01093</ele>
        <time>2016-06-09T16:08:59Z</time>
      </trkpt>
      <trkpt lat="48.85028" lon="-0.51738">
        <ele>75.01093</ele>
        <time>2016-06-09T16:09:09Z</time>
      </trkpt>
      <trkpt lat="48.85028" lon="-0.51738">
        <ele>75.01093</ele>
        <time>2016-06-09T16:09:14Z</time>
      </trkpt>
      <trkpt lat="48.85026" lon="-0.51745">
        <ele>76.75207</ele>
        <time>2016-06-09T16:09:24Z</time>
      </trkpt>
      <trkpt lat="48.85026" lon="-0.51744">
        <ele>76.75207</ele>
        <time>2016-06-09T16:09:29Z</time>
      </trkpt>
      <trkpt lat="48.85026" lon="-0.51743">
        <ele>76.75207</ele>
        <time>2016-06-09T16:09:34Z</time>
      </trkpt>
      <trkpt lat="48.85026" lon="-0.51743">
        <ele>76.75207</ele>
        <time>2016-06-09T16:09:39Z</time>
      </trkpt>
      <trkpt lat="48.85026" lon="-0.51743">
        <ele>76.75207</ele>
        <time>2016-06-09T16:09:44Z</time>
      </trkpt>
      <trkpt lat="48.85026" lon="-0.51743">
        <ele>76.75207</ele>
        <time>2016-06-09T16:09:49Z</time>
      </trkpt>
      <trkpt lat="48.85026" lon="-0.51743">
        <ele>76.75207</ele>
        <time>2016-06-09T16:09:54Z</time>
      </trkpt>
      <trkpt lat="48.85026" lon="-0.51743">
        <ele>76.75207</ele>
        <time>2016-06-09T16:09:59Z</time>
      </trkpt>
      <trkpt lat="48.85026" lon="-0.51743">
        <ele>76.75207</ele>
        <time>2016-06-09T16:10:04Z</time>
      </trkpt>
      <trkpt lat="48.85027" lon="-0.51742">
        <ele>76.75207</ele>
        <time>2016-06-09T16:10:09Z</time>
      </trkpt>
      <trkpt lat="48.85035" lon="-0.51741">
        <ele>77.83047</ele>
        <time>2016-06-09T16:10:14Z</time>
      </trkpt>
      <trkpt lat="48.85033" lon="-0.5174">
        <ele>77.83047</ele>
        <time>2016-06-09T16:10:19Z</time>
      </trkpt>
      <trkpt lat="48.85032" lon="-0.5174">
        <ele>77.83047</ele>
        <time>2016-06-09T16:10:24Z</time>
      </trkpt>
      <trkpt lat="48.85032" lon="-0.5174">
        <ele>77.83047</ele>
        <time>2016-06-09T16:10:29Z</time>
      </trkpt>
      <trkpt lat="48.85032" lon="-0.5174">
        <ele>77.83047</ele>
        <time>2016-06-09T16:10:34Z</time>
      </trkpt>
      <trkpt lat="48.85032" lon="-0.5174">
        <ele>77.83047</ele>
        <time>2016-06-09T16:10:39Z</time>
      </trkpt>
      <trkpt lat="48.85032" lon="-0.5174">
        <ele>77.83047</ele>
        <time>2016-06-09T16:10:44Z</time>
      </trkpt>
      <trkpt lat="48.85032" lon="-0.5174">
        <ele>77.83047</ele>
        <time>2016-06-09T16:10:49Z</time>
      </trkpt>
      <trkpt lat="48.85032" lon="-0.5174">
        <ele>77.83047</ele>
        <time>2016-06-09T16:10:54Z</time>
      </trkpt>
      <trkpt lat="48.85032" lon="-0.5174">
        <ele>77.83047</ele>
        <time>2016-06-09T16:10:59Z</time>
      </trkpt>
      <trkpt lat="48.85032" lon="-0.5174">
        <ele>77.83047</ele>
        <time>2016-06-09T16:11:04Z</time>
      </trkpt>
      <trkpt lat="48.85032" lon="-0.5174">
        <ele>77.83047</ele>
        <time>2016-06-09T16:11:09Z</time>
      </trkpt>
      <trkpt lat="48.85032" lon="-0.5174">
        <ele>77.83047</ele>
        <time>2016-06-09T16:11:14Z</time>
      </trkpt>
      <trkpt lat="48.85031" lon="-0.51733">
        <ele>77.83047</ele>
        <time>2016-06-09T16:11:24Z</time>
      </trkpt>
      <trkpt lat="48.85029" lon="-0.51725">
        <ele>78.27405</ele>
        <time>2016-06-09T16:11:29Z</time>
      </trkpt>
      <trkpt lat="48.8503" lon="-0.51708">
        <ele>79.07629</ele>
        <time>2016-06-09T16:11:39Z</time>
      </trkpt>
      <trkpt lat="48.85033" lon="-0.51698">
        <ele>79.07629</ele>
        <time>2016-06-09T16:11:44Z</time>
      </trkpt>
      <trkpt lat="48.85037" lon="-0.51692">
        <ele>78.69224</ele>
        <time>2016-06-09T16:11:49Z</time>
      </trkpt>
      <trkpt lat="48.85035" lon="-0.5168">
        <ele>78.69224</ele>
        <time>2016-06-09T16:11:54Z</time>
      </trkpt>
      <trkpt lat="48.85038" lon="-0.51677">
        <ele>78.72064</ele>
        <time>2016-06-09T16:11:59Z</time>
      </trkpt>
      <trkpt lat="48.85038" lon="-0.51677">
        <ele>78.72064</ele>
        <time>2016-06-09T16:12:04Z</time>
      </trkpt>
      <trkpt lat="48.85038" lon="-0.51677">
        <ele>78.72064</ele>
        <time>2016-06-09T16:12:09Z</time>
      </trkpt>
      <trkpt lat="48.85038" lon="-0.51677">
        <ele>78.72064</ele>
        <time>2016-06-09T16:12:14Z</time>
      </trkpt>
      <trkpt lat="48.85038" lon="-0.51677">
        <ele>78.72064</ele>
        <time>2016-06-09T16:12:19Z</time>
      </trkpt>
      <trkpt lat="48.85042" lon="-0.51667">
        <ele>78.72064</ele>
        <time>2016-06-09T16:12:24Z</time>
      </trkpt>
      <trkpt lat="48.85043" lon="-0.51657">
        <ele>79.71937</ele>
        <time>2016-06-09T16:12:29Z</time>
      </trkpt>
      <trkpt lat="48.85042" lon="-0.51648">
        <ele>79.71937</ele>
        <time>2016-06-09T16:12:34Z</time>
      </trkpt>
      <trkpt lat="48.85042" lon="-0.5164">
        <ele>81.1939</ele>
        <time>2016-06-09T16:12:39Z</time>
      </trkpt>
      <trkpt lat="48.8504" lon="-0.51632">
        <ele>81.1939</ele>
        <time>2016-06-09T16:12:44Z</time>
      </trkpt>
      <trkpt lat="48.85039" lon="-0.51624">
        <ele>82.19492</ele>
        <time>2016-06-09T16:12:49Z</time>
      </trkpt>
      <trkpt lat="48.8504" lon="-0.51615">
        <ele>82.19492</ele>
        <time>2016-06-09T16:12:54Z</time>
      </trkpt>
      <trkpt lat="48.85044" lon="-0.51609">
        <ele>82.70913</ele>
        <time>2016-06-09T16:12:59Z</time>
      </trkpt>
      <trkpt lat="48.85051" lon="-0.51602">
        <ele>82.70913</ele>
        <time>2016-06-09T16:13:04Z</time>
      </trkpt>
      <trkpt lat="48.85059" lon="-0.51597">
        <ele>84.05157</ele>
        <time>2016-06-09T16:13:09Z</time>
      </trkpt>
      <trkpt lat="48.85062" lon="-0.51598">
        <ele>84.05157</ele>
        <time>2016-06-09T16:13:14Z</time>
      </trkpt>
      <trkpt lat="48.85068" lon="-0.51598">
        <ele>84.57065</ele>
        <time>2016-06-09T16:13:19Z</time>
      </trkpt>
      <trkpt lat="48.85071" lon="-0.51595">
        <ele>84.57065</ele>
        <time>2016-06-09T16:13:24Z</time>
      </trkpt>
      <trkpt lat="48.8507" lon="-0.51596">
        <ele>84.57065</ele>
        <time>2016-06-09T16:13:29Z</time>
      </trkpt>
      <trkpt lat="48.8507" lon="-0.51596">
        <ele>84.57065</ele>
        <time>2016-06-09T16:13:34Z</time>
      </trkpt>
      <trkpt lat="48.85068" lon="-0.51598">
        <ele>84.57065</ele>
        <time>2016-06-09T16:13:39Z</time>
      </trkpt>
      <trkpt lat="48.85068" lon="-0.51597">
        <ele>84.57065</ele>
        <time>2016-06-09T16:13:44Z</time>
      </trkpt>
      <trkpt lat="48.85069" lon="-0.51596">
        <ele>84.57065</ele>
        <time>2016-06-09T16:13:49Z</time>
      </trkpt>
      <trkpt lat="48.85069" lon="-0.51596">
        <ele>84.57065</ele>
        <time>2016-06-09T16:13:54Z</time>
      </trkpt>
      <trkpt lat="48.85069" lon="-0.51596">
        <ele>84.57065</ele>
        <time>2016-06-09T16:13:59Z</time>
      </trkpt>
      <trkpt lat="48.85069" lon="-0.51596">
        <ele>84.57065</ele>
        <time>2016-06-09T16:14:04Z</time>
      </trkpt>
      <trkpt lat="48.85069" lon="-0.51596">
        <ele>84.57065</ele>
        <time>2016-06-09T16:14:09Z</time>
      </trkpt>
      <trkpt lat="48.85069" lon="-0.51596">
        <ele>84.57065</ele>
        <time>2016-06-09T16:14:14Z</time>
      </trkpt>
      <trkpt lat="48.85069" lon="-0.51596">
        <ele>84.57065</ele>
        <time>2016-06-09T16:14:19Z</time>
      </trkpt>
      <trkpt lat="48.85069" lon="-0.51582">
        <ele>84.49683</ele>
        <time>2016-06-09T16:14:29Z</time>
      </trkpt>
      <trkpt lat="48.85067" lon="-0.5157">
        <ele>84.49683</ele>
        <time>2016-06-09T16:14:34Z</time>
      </trkpt>
      <trkpt lat="48.85064" lon="-0.51566">
        <ele>84.50664</ele>
        <time>2016-06-09T16:14:39Z</time>
      </trkpt>
      <trkpt lat="48.85064" lon="-0.51558">
        <ele>84.50664</ele>
        <time>2016-06-09T16:14:44Z</time>
      </trkpt>
      <trkpt lat="48.85061" lon="-0.51552">
        <ele>84.36212</ele>
        <time>2016-06-09T16:14:49Z</time>
      </trkpt>
      <trkpt lat="48.8506" lon="-0.51544">
        <ele>84.36212</ele>
        <time>2016-06-09T16:14:54Z</time>
      </trkpt>
      <trkpt lat="48.85058" lon="-0.51535">
        <ele>84.23254</ele>
        <time>2016-06-09T16:14:59Z</time>
      </trkpt>
      <trkpt lat="48.85057" lon="-0.51529">
        <ele>84.23254</ele>
        <time>2016-06-09T16:15:04Z</time>
      </trkpt>
      <trkpt lat="48.85056" lon="-0.51521">
        <ele>83.828064</ele>
        <time>2016-06-09T16:15:09Z</time>
      </trkpt>
      <trkpt lat="48.85053" lon="-0.51506">
        <ele>83.27018</ele>
        <time>2016-06-09T16:15:19Z</time>
      </trkpt>
      <trkpt lat="48.85052" lon="-0.51499">
        <ele>83.27018</ele>
        <time>2016-06-09T16:15:24Z</time>
      </trkpt>
      <trkpt lat="48.85047" lon="-0.51481">
        <ele>83.34933</ele>
        <time>2016-06-09T16:15:34Z</time>
      </trkpt>
      <trkpt lat="48.85045" lon="-0.51472">
        <ele>83.34933</ele>
        <time>2016-06-09T16:15:39Z</time>
      </trkpt>
      <trkpt lat="48.85045" lon="-0.51466">
        <ele>84.53684</ele>
        <time>2016-06-09T16:15:49Z</time>
      </trkpt>
      <trkpt lat="48.85043" lon="-0.51461">
        <ele>84.53684</ele>
        <time>2016-06-09T16:15:54Z</time>
      </trkpt>
      <trkpt lat="48.85037" lon="-0.51447">
        <ele>85.709984</ele>
        <time>2016-06-09T16:16:04Z</time>
      </trkpt>
      <trkpt lat="48.85037" lon="-0.51447">
        <ele>85.709984</ele>
        <time>2016-06-09T16:16:09Z</time>
      </trkpt>
      <trkpt lat="48.85032" lon="-0.51428">
        <ele>86.75099</ele>
        <time>2016-06-09T16:16:24Z</time>
      </trkpt>
      <trkpt lat="48.85029" lon="-0.51424">
        <ele>86.75099</ele>
        <time>2016-06-09T16:16:29Z</time>
      </trkpt>
      <trkpt lat="48.8502" lon="-0.51408">
        <ele>88.38709</ele>
        <time>2016-06-09T16:16:39Z</time>
      </trkpt>
      <trkpt lat="48.85017" lon="-0.51398">
        <ele>88.38709</ele>
        <time>2016-06-09T16:16:44Z</time>
      </trkpt>
      <trkpt lat="48.85013" lon="-0.51383">
        <ele>90.324974</ele>
        <time>2016-06-09T16:16:54Z</time>
      </trkpt>
      <trkpt lat="48.8501" lon="-0.51375">
        <ele>90.324974</ele>
        <time>2016-06-09T16:16:59Z</time>
      </trkpt>
      <trkpt lat="48.85007" lon="-0.51363">
        <ele>92.6092</ele>
        <time>2016-06-09T16:17:09Z</time>
      </trkpt>
      <trkpt lat="48.85006" lon="-0.51356">
        <ele>92.6092</ele>
        <time>2016-06-09T16:17:14Z</time>
      </trkpt>
      <trkpt lat="48.85004" lon="-0.51343">
        <ele>94.17053</ele>
        <time>2016-06-09T16:17:24Z</time>
      </trkpt>
      <trkpt lat="48.85002" lon="-0.51336">
        <ele>94.17053</ele>
        <time>2016-06-09T16:17:29Z</time>
      </trkpt>
      <trkpt lat="48.84999" lon="-0.51319">
        <ele>95.96598</ele>
        <time>2016-06-09T16:17:39Z</time>
      </trkpt>
      <trkpt lat="48.84997" lon="-0.51311">
        <ele>95.96598</ele>
        <time>2016-06-09T16:17:44Z</time>
      </trkpt>
      <trkpt lat="48.84993" lon="-0.51297">
        <ele>97.84413</ele>
        <time>2016-06-09T16:17:54Z</time>
      </trkpt>
      <trkpt lat="48.84991" lon="-0.5129">
        <ele>97.84413</ele>
        <time>2016-06-09T16:17:59Z</time>
      </trkpt>
      <trkpt lat="48.84988" lon="-0.51284">
        <ele>99.751045</ele>
        <time>2016-06-09T16:18:04Z</time>
      </trkpt>
      <trkpt lat="48.84986" lon="-0.51276">
        <ele>99.751045</ele>
        <time>2016-06-09T16:18:09Z</time>
      </trkpt>
      <trkpt lat="48.84982" lon="-0.51271">
        <ele>101.80975</ele>
        <time>2016-06-09T16:18:14Z</time>
      </trkpt>
      <trkpt lat="48.84978" lon="-0.51266">
        <ele>101.80975</ele>
        <time>2016-06-09T16:18:19Z</time>
      </trkpt>
      <trkpt lat="48.84978" lon="-0.51264">
        <ele>101.80975</ele>
        <time>2016-06-09T16:18:24Z</time>
      </trkpt>
      <trkpt lat="48.84977" lon="-0.51253">
        <ele>103.93223</ele>
        <time>2016-06-09T16:18:34Z</time>
      </trkpt>
      <trkpt lat="48.84975" lon="-0.51244">
        <ele>103.93223</ele>
        <time>2016-06-09T16:18:39Z</time>
      </trkpt>
      <trkpt lat="48.84971" lon="-0.51229">
        <ele>106.065674</ele>
        <time>2016-06-09T16:18:49Z</time>
      </trkpt>
      <trkpt lat="48.8497" lon="-0.51225">
        <ele>106.065674</ele>
        <time>2016-06-09T16:18:54Z</time>
      </trkpt>
      <trkpt lat="48.84967" lon="-0.51212">
        <ele>108.36308</ele>
        <time>2016-06-09T16:19:04Z</time>
      </trkpt>
      <trkpt lat="48.84964" lon="-0.51201">
        <ele>108.36308</ele>
        <time>2016-06-09T16:19:09Z</time>
      </trkpt>
      <trkpt lat="48.8496" lon="-0.51189">
        <ele>110.591194</ele>
        <time>2016-06-09T16:19:19Z</time>
      </trkpt>
      <trkpt lat="48.84959" lon="-0.51182">
        <ele>110.591194</ele>
        <time>2016-06-09T16:19:24Z</time>
      </trkpt>
      <trkpt lat="48.84958" lon="-0.51177">
        <ele>110.591194</ele>
        <time>2016-06-09T16:19:39Z</time>
      </trkpt>
      <trkpt lat="48.84958" lon="-0.51176">
        <ele>112.64952</ele>
        <time>2016-06-09T16:19:44Z</time>
      </trkpt>
      <trkpt lat="48.84959" lon="-0.51175">
        <ele>112.64952</ele>
        <time>2016-06-09T16:19:54Z</time>
      </trkpt>
      <trkpt lat="48.84959" lon="-0.51175">
        <ele>112.64952</ele>
        <time>2016-06-09T16:19:59Z</time>
      </trkpt>
      <trkpt lat="48.84955" lon="-0.51162">
        <ele>114.344734</ele>
        <time>2016-06-09T16:20:09Z</time>
      </trkpt>
      <trkpt lat="48.84954" lon="-0.51156">
        <ele>114.344734</ele>
        <time>2016-06-09T16:20:14Z</time>
      </trkpt>
      <trkpt lat="48.84949" lon="-0.51143">
        <ele>115.931206</ele>
        <time>2016-06-09T16:20:24Z</time>
      </trkpt>
      <trkpt lat="48.84947" lon="-0.51139">
        <ele>115.931206</ele>
        <time>2016-06-09T16:20:29Z</time>
      </trkpt>
      <trkpt lat="48.84944" lon="-0.51127">
        <ele>118.077446</ele>
        <time>2016-06-09T16:20:39Z</time>
      </trkpt>
      <trkpt lat="48.84943" lon="-0.51123">
        <ele>118.077446</ele>
        <time>2016-06-09T16:20:44Z</time>
      </trkpt>
      <trkpt lat="48.84938" lon="-0.5111">
        <ele>120.23411</ele>
        <time>2016-06-09T16:20:54Z</time>
      </trkpt>
      <trkpt lat="48.84936" lon="-0.51103">
        <ele>120.23411</ele>
        <time>2016-06-09T16:20:59Z</time>
      </trkpt>
      <trkpt lat="48.84934" lon="-0.51092">
        <ele>121.402336</ele>
        <time>2016-06-09T16:21:09Z</time>
      </trkpt>
      <trkpt lat="48.84934" lon="-0.51084">
        <ele>121.402336</ele>
        <time>2016-06-09T16:21:14Z</time>
      </trkpt>
      <trkpt lat="48.84929" lon="-0.51072">
        <ele>122.74922</ele>
        <time>2016-06-09T16:21:29Z</time>
      </trkpt>
      <trkpt lat="48.84927" lon="-0.51064">
        <ele>122.74922</ele>
        <time>2016-06-09T16:21:34Z</time>
      </trkpt>
      <trkpt lat="48.84925" lon="-0.51051">
        <ele>123.53993</ele>
        <time>2016-06-09T16:21:44Z</time>
      </trkpt>
      <trkpt lat="48.84924" lon="-0.51045">
        <ele>123.53993</ele>
        <time>2016-06-09T16:21:49Z</time>
      </trkpt>
      <trkpt lat="48.84918" lon="-0.5104">
        <ele>125.2426</ele>
        <time>2016-06-09T16:21:59Z</time>
      </trkpt>
      <trkpt lat="48.84918" lon="-0.51036">
        <ele>125.2426</ele>
        <time>2016-06-09T16:22:04Z</time>
      </trkpt>
      <trkpt lat="48.84914" lon="-0.51027">
        <ele>126.88043</ele>
        <time>2016-06-09T16:22:14Z</time>
      </trkpt>
      <trkpt lat="48.84914" lon="-0.51022">
        <ele>126.88043</ele>
        <time>2016-06-09T16:22:19Z</time>
      </trkpt>
      <trkpt lat="48.84913" lon="-0.51018">
        <ele>126.88043</ele>
        <time>2016-06-09T16:22:29Z</time>
      </trkpt>
      <trkpt lat="48.84914" lon="-0.51013">
        <ele>127.93783</ele>
        <time>2016-06-09T16:22:34Z</time>
      </trkpt>
      <trkpt lat="48.84911" lon="-0.51002">
        <ele>127.93783</ele>
        <time>2016-06-09T16:22:44Z</time>
      </trkpt>
      <trkpt lat="48.84909" lon="-0.50999">
        <ele>128.91875</ele>
        <time>2016-06-09T16:22:49Z</time>
      </trkpt>
      <trkpt lat="48.84909" lon="-0.50995">
        <ele>128.91875</ele>
        <time>2016-06-09T16:22:59Z</time>
      </trkpt>
      <trkpt lat="48.84904" lon="-0.50984">
        <ele>129.98781</ele>
        <time>2016-06-09T16:23:04Z</time>
      </trkpt>
      <trkpt lat="48.84898" lon="-0.50961">
        <ele>130.9227</ele>
        <time>2016-06-09T16:23:19Z</time>
      </trkpt>
      <trkpt lat="48.84898" lon="-0.50956">
        <ele>130.9227</ele>
        <time>2016-06-09T16:23:24Z</time>
      </trkpt>
      <trkpt lat="48.84898" lon="-0.5094">
        <ele>133.54991</ele>
        <time>2016-06-09T16:23:34Z</time>
      </trkpt>
      <trkpt lat="48.84898" lon="-0.50934">
        <ele>133.54991</ele>
        <time>2016-06-09T16:23:39Z</time>
      </trkpt>
      <trkpt lat="48.84899" lon="-0.50923">
        <ele>135.91103</ele>
        <time>2016-06-09T16:23:49Z</time>
      </trkpt>
      <trkpt lat="48.849" lon="-0.50918">
        <ele>135.91103</ele>
        <time>2016-06-09T16:23:54Z</time>
      </trkpt>
      <trkpt lat="48.84898" lon="-0.50911">
        <ele>135.91103</ele>
        <time>2016-06-09T16:24:04Z</time>
      </trkpt>
      <trkpt lat="48.84897" lon="-0.50909">
        <ele>138.58461</ele>
        <time>2016-06-09T16:24:09Z</time>
      </trkpt>
      <trkpt lat="48.84898" lon="-0.50905">
        <ele>138.58461</ele>
        <time>2016-06-09T16:24:19Z</time>
      </trkpt>
      <trkpt lat="48.84898" lon="-0.50905">
        <ele>138.58461</ele>
        <time>2016-06-09T16:24:24Z</time>
      </trkpt>
      <trkpt lat="48.84901" lon="-0.50884">
        <ele>141.05392</ele>
        <time>2016-06-09T16:24:34Z</time>
      </trkpt>
      <trkpt lat="48.84901" lon="-0.50875">
        <ele>141.05392</ele>
        <time>2016-06-09T16:24:39Z</time>
      </trkpt>
      <trkpt lat="48.8489" lon="-0.50855">
        <ele>143.37404</ele>
        <time>2016-06-09T16:24:49Z</time>
      </trkpt>
      <trkpt lat="48.84898" lon="-0.50852">
        <ele>143.37404</ele>
        <time>2016-06-09T16:24:54Z</time>
      </trkpt>
      <trkpt lat="48.84906" lon="-0.50847">
        <ele>146.20178</ele>
        <time>2016-06-09T16:25:04Z</time>
      </trkpt>
      <trkpt lat="48.84905" lon="-0.50844">
        <ele>146.20178</ele>
        <time>2016-06-09T16:25:09Z</time>
      </trkpt>
      <trkpt lat="48.84905" lon="-0.50834">
        <ele>146.20178</ele>
        <time>2016-06-09T16:25:24Z</time>
      </trkpt>
      <trkpt lat="48.84905" lon="-0.5082">
        <ele>147.36307</ele>
        <time>2016-06-09T16:25:29Z</time>
      </trkpt>
      <trkpt lat="48.84903" lon="-0.50799">
        <ele>149.5607</ele>
        <time>2016-06-09T16:25:39Z</time>
      </trkpt>
      <trkpt lat="48.84901" lon="-0.50794">
        <ele>149.5607</ele>
        <time>2016-06-09T16:25:44Z</time>
      </trkpt>
      <trkpt lat="48.84902" lon="-0.50787">
        <ele>149.5607</ele>
        <time>2016-06-09T16:25:54Z</time>
      </trkpt>
      <trkpt lat="48.84903" lon="-0.50785">
        <ele>152.24097</ele>
        <time>2016-06-09T16:25:59Z</time>
      </trkpt>
      <trkpt lat="48.84902" lon="-0.50784">
        <ele>152.24097</ele>
        <time>2016-06-09T16:26:09Z</time>
      </trkpt>
      <trkpt lat="48.84902" lon="-0.50776">
        <ele>152.24097</ele>
        <time>2016-06-09T16:26:14Z</time>
      </trkpt>
      <trkpt lat="48.84903" lon="-0.50765">
        <ele>153.95284</ele>
        <time>2016-06-09T16:26:19Z</time>
      </trkpt>
      <trkpt lat="48.84903" lon="-0.50762">
        <ele>153.95284</ele>
        <time>2016-06-09T16:26:24Z</time>
      </trkpt>
      <trkpt lat="48.84903" lon="-0.50759">
        <ele>153.95284</ele>
        <time>2016-06-09T16:26:29Z</time>
      </trkpt>
      <trkpt lat="48.84902" lon="-0.50754">
        <ele>153.95284</ele>
        <time>2016-06-09T16:26:39Z</time>
      </trkpt>
      <trkpt lat="48.84902" lon="-0.50753">
        <ele>153.95284</ele>
        <time>2016-06-09T16:26:44Z</time>
      </trkpt>
      <trkpt lat="48.84902" lon="-0.50753">
        <ele>153.95284</ele>
        <time>2016-06-09T16:26:54Z</time>
      </trkpt>
      <trkpt lat="48.84903" lon="-0.50741">
        <ele>156.25136</ele>
        <time>2016-06-09T16:26:59Z</time>
      </trkpt>
      <trkpt lat="48.84904" lon="-0.50725">
        <ele>157.67911</ele>
        <time>2016-06-09T16:27:14Z</time>
      </trkpt>
      <trkpt lat="48.84903" lon="-0.50713">
        <ele>157.67911</ele>
        <time>2016-06-09T16:27:19Z</time>
      </trkpt>
      <trkpt lat="48.84902" lon="-0.50692">
        <ele>159.22285</ele>
        <time>2016-06-09T16:27:29Z</time>
      </trkpt>
      <trkpt lat="48.84899" lon="-0.50684">
        <ele>159.22285</ele>
        <time>2016-06-09T16:27:34Z</time>
      </trkpt>
      <trkpt lat="48.84895" lon="-0.50663">
        <ele>161.11932</ele>
        <time>2016-06-09T16:27:44Z</time>
      </trkpt>
      <trkpt lat="48.84896" lon="-0.50662">
        <ele>161.11932</ele>
        <time>2016-06-09T16:27:49Z</time>
      </trkpt>
      <trkpt lat="48.84903" lon="-0.50648">
        <ele>164.49484</ele>
        <time>2016-06-09T16:27:59Z</time>
      </trkpt>
      <trkpt lat="48.84905" lon="-0.50639">
        <ele>164.49484</ele>
        <time>2016-06-09T16:28:04Z</time>
      </trkpt>
      <trkpt lat="48.84906" lon="-0.50627">
        <ele>167.1464</ele>
        <time>2016-06-09T16:28:14Z</time>
      </trkpt>
      <trkpt lat="48.84903" lon="-0.50621">
        <ele>167.1464</ele>
        <time>2016-06-09T16:28:19Z</time>
      </trkpt>
      <trkpt lat="48.84904" lon="-0.50614">
        <ele>169.81628</ele>
        <time>2016-06-09T16:28:24Z</time>
      </trkpt>
      <trkpt lat="48.84904" lon="-0.50607">
        <ele>169.81628</ele>
        <time>2016-06-09T16:28:29Z</time>
      </trkpt>
      <trkpt lat="48.84905" lon="-0.50596">
        <ele>172.025</ele>
        <time>2016-06-09T16:28:34Z</time>
      </trkpt>
      <trkpt lat="48.84905" lon="-0.50589">
        <ele>172.025</ele>
        <time>2016-06-09T16:28:39Z</time>
      </trkpt>
      <trkpt lat="48.84907" lon="-0.50582">
        <ele>173.54576</ele>
        <time>2016-06-09T16:28:44Z</time>
      </trkpt>
      <trkpt lat="48.84908" lon="-0.50579">
        <ele>173.54576</ele>
        <time>2016-06-09T16:28:49Z</time>
      </trkpt>
      <trkpt lat="48.84909" lon="-0.50582">
        <ele>173.54576</ele>
        <time>2016-06-09T16:28:54Z</time>
      </trkpt>
      <trkpt lat="48.84909" lon="-0.5058">
        <ele>173.54576</ele>
        <time>2016-06-09T16:28:59Z</time>
      </trkpt>
      <trkpt lat="48.84909" lon="-0.50577">
        <ele>173.54576</ele>
        <time>2016-06-09T16:29:04Z</time>
      </trkpt>
      <trkpt lat="48.84909" lon="-0.50576">
        <ele>173.54576</ele>
        <time>2016-06-09T16:29:09Z</time>
      </trkpt>
      <trkpt lat="48.8491" lon="-0.50564">
        <ele>175.09282</ele>
        <time>2016-06-09T16:29:14Z</time>
      </trkpt>
      <trkpt lat="48.8492" lon="-0.50543">
        <ele>176.59293</ele>
        <time>2016-06-09T16:29:24Z</time>
      </trkpt>
      <trkpt lat="48.84921" lon="-0.50533">
        <ele>176.59293</ele>
        <time>2016-06-09T16:29:29Z</time>
      </trkpt>
      <trkpt lat="48.84925" lon="-0.50524">
        <ele>178.56932</ele>
        <time>2016-06-09T16:29:44Z</time>
      </trkpt>
      <trkpt lat="48.84926" lon="-0.50522">
        <ele>178.56932</ele>
        <time>2016-06-09T16:29:49Z</time>
      </trkpt>
      <trkpt lat="48.84933" lon="-0.50495">
        <ele>178.94029</ele>
        <time>2016-06-09T16:29:59Z</time>
      </trkpt>
      <trkpt lat="48.84932" lon="-0.5049">
        <ele>178.94029</ele>
        <time>2016-06-09T16:30:04Z</time>
      </trkpt>
      <trkpt lat="48.84942" lon="-0.5047">
        <ele>179.39885</ele>
        <time>2016-06-09T16:30:14Z</time>
      </trkpt>
      <trkpt lat="48.84939" lon="-0.50466">
        <ele>179.39885</ele>
        <time>2016-06-09T16:30:19Z</time>
      </trkpt>
      <trkpt lat="48.84941" lon="-0.50459">
        <ele>181.0378</ele>
        <time>2016-06-09T16:30:29Z</time>
      </trkpt>
      <trkpt lat="48.84941" lon="-0.50455">
        <ele>181.0378</ele>
        <time>2016-06-09T16:30:34Z</time>
      </trkpt>
      <trkpt lat="48.84941" lon="-0.50455">
        <ele>181.0378</ele>
        <time>2016-06-09T16:30:44Z</time>
      </trkpt>
      <trkpt lat="48.84945" lon="-0.50443">
        <ele>182.14272</ele>
        <time>2016-06-09T16:30:49Z</time>
      </trkpt>
      <trkpt lat="48.84946" lon="-0.50435">
        <ele>182.14272</ele>
        <time>2016-06-09T16:30:59Z</time>
      </trkpt>
      <trkpt lat="48.84946" lon="-0.50434">
        <ele>182.14272</ele>
        <time>2016-06-09T16:31:04Z</time>
      </trkpt>
      <trkpt lat="48.84957" lon="-0.50396">
        <ele>183.18741</ele>
        <time>2016-06-09T16:31:14Z</time>
      </trkpt>
      <trkpt lat="48.84959" lon="-0.50384">
        <ele>183.18741</ele>
        <time>2016-06-09T16:31:19Z</time>
      </trkpt>
      <trkpt lat="48.84968" lon="-0.50369">
        <ele>183.55907</ele>
        <time>2016-06-09T16:31:29Z</time>
      </trkpt>
      <trkpt lat="48.84964" lon="-0.50361">
        <ele>183.55907</ele>
        <time>2016-06-09T16:31:34Z</time>
      </trkpt>
      <trkpt lat="48.8497" lon="-0.50347">
        <ele>184.07521</ele>
        <time>2016-06-09T16:31:44Z</time>
      </trkpt>
      <trkpt lat="48.8497" lon="-0.50339">
        <ele>184.07521</ele>
        <time>2016-06-09T16:31:49Z</time>
      </trkpt>
      <trkpt lat="48.84975" lon="-0.50319">
        <ele>184.4265</ele>
        <time>2016-06-09T16:32:04Z</time>
      </trkpt>
      <trkpt lat="48.84979" lon="-0.50314">
        <ele>184.4265</ele>
        <time>2016-06-09T16:32:09Z</time>
      </trkpt>
      <trkpt lat="48.8498" lon="-0.50299">
        <ele>184.39877</ele>
        <time>2016-06-09T16:32:19Z</time>
      </trkpt>
      <trkpt lat="48.84981" lon="-0.50289">
        <ele>184.39877</ele>
        <time>2016-06-09T16:32:24Z</time>
      </trkpt>
      <trkpt lat="48.84987" lon="-0.50271">
        <ele>183.8235</ele>
        <time>2016-06-09T16:32:34Z</time>
      </trkpt>
      <trkpt lat="48.84988" lon="-0.50262">
        <ele>183.8235</ele>
        <time>2016-06-09T16:32:39Z</time>
      </trkpt>
      <trkpt lat="48.84989" lon="-0.50245">
        <ele>183.65562</ele>
        <time>2016-06-09T16:32:49Z</time>
      </trkpt>
      <trkpt lat="48.84993" lon="-0.5024">
        <ele>183.65562</ele>
        <time>2016-06-09T16:32:54Z</time>
      </trkpt>
      <trkpt lat="48.84996" lon="-0.50227">
        <ele>182.70357</ele>
        <time>2016-06-09T16:33:04Z</time>
      </trkpt>
      <trkpt lat="48.84999" lon="-0.50216">
        <ele>182.70357</ele>
        <time>2016-06-09T16:33:09Z</time>
      </trkpt>
      <trkpt lat="48.85005" lon="-0.50207">
        <ele>181.88295</ele>
        <time>2016-06-09T16:33:19Z</time>
      </trkpt>
      <trkpt lat="48.85005" lon="-0.50204">
        <ele>181.88295</ele>
        <time>2016-06-09T16:33:24Z</time>
      </trkpt>
      <trkpt lat="48.85006" lon="-0.50201">
        <ele>181.88295</ele>
        <time>2016-06-09T16:33:34Z</time>
      </trkpt>
      <trkpt lat="48.8501" lon="-0.50192">
        <ele>180.75906</ele>
        <time>2016-06-09T16:33:39Z</time>
      </trkpt>
      <trkpt lat="48.8501" lon="-0.50176">
        <ele>179.52074</ele>
        <time>2016-06-09T16:33:44Z</time>
      </trkpt>
      <trkpt lat="48.85011" lon="-0.50164">
        <ele>179.52074</ele>
        <time>2016-06-09T16:33:49Z</time>
      </trkpt>
      <trkpt lat="48.85014" lon="-0.50151">
        <ele>178.05492</ele>
        <time>2016-06-09T16:33:54Z</time>
      </trkpt>
      <trkpt lat="48.85014" lon="-0.50138">
        <ele>178.05492</ele>
        <time>2016-06-09T16:33:59Z</time>
      </trkpt>
      <trkpt lat="48.85015" lon="-0.50129">
        <ele>177.98665</ele>
        <time>2016-06-09T16:34:04Z</time>
      </trkpt>
      <trkpt lat="48.85019" lon="-0.50117">
        <ele>177.98665</ele>
        <time>2016-06-09T16:34:09Z</time>
      </trkpt>
      <trkpt lat="48.85022" lon="-0.50111">
        <ele>178.07948</ele>
        <time>2016-06-09T16:34:14Z</time>
      </trkpt>
      <trkpt lat="48.85024" lon="-0.50106">
        <ele>178.07948</ele>
        <time>2016-06-09T16:34:19Z</time>
      </trkpt>
      <trkpt lat="48.85023" lon="-0.50098">
        <ele>178.25354</ele>
        <time>2016-06-09T16:34:24Z</time>
      </trkpt>
      <trkpt lat="48.85025" lon="-0.50091">
        <ele>178.25354</ele>
        <time>2016-06-09T16:34:29Z</time>
      </trkpt>
      <trkpt lat="48.85026" lon="-0.50086">
        <ele>178.25354</ele>
        <time>2016-06-09T16:34:34Z</time>
      </trkpt>
      <trkpt lat="48.85027" lon="-0.50074">
        <ele>178.96771</ele>
        <time>2016-06-09T16:34:39Z</time>
      </trkpt>
      <trkpt lat="48.85027" lon="-0.50063">
        <ele>178.96771</ele>
        <time>2016-06-09T16:34:44Z</time>
      </trkpt>
      <trkpt lat="48.85028" lon="-0.50054">
        <ele>180.19868</ele>
        <time>2016-06-09T16:34:49Z</time>
      </trkpt>
      <trkpt lat="48.85031" lon="-0.50046">
        <ele>180.19868</ele>
        <time>2016-06-09T16:34:54Z</time>
      </trkpt>
      <trkpt lat="48.85031" lon="-0.50037">
        <ele>181.27483</ele>
        <time>2016-06-09T16:34:59Z</time>
      </trkpt>
      <trkpt lat="48.85033" lon="-0.5003">
        <ele>181.27483</ele>
        <time>2016-06-09T16:35:04Z</time>
      </trkpt>
      <trkpt lat="48.85036" lon="-0.50016">
        <ele>181.77585</ele>
        <time>2016-06-09T16:35:14Z</time>
      </trkpt>
      <trkpt lat="48.85037" lon="-0.50013">
        <ele>181.77585</ele>
        <time>2016-06-09T16:35:19Z</time>
      </trkpt>
      <trkpt lat="48.85047" lon="-0.49992">
        <ele>182.35144</ele>
        <time>2016-06-09T16:35:34Z</time>
      </trkpt>
      <trkpt lat="48.8505" lon="-0.49976">
        <ele>183.35823</ele>
        <time>2016-06-09T16:35:39Z</time>
      </trkpt>
      <trkpt lat="48.85059" lon="-0.49962">
        <ele>183.77065</ele>
        <time>2016-06-09T16:35:49Z</time>
      </trkpt>
      <trkpt lat="48.85062" lon="-0.49957">
        <ele>183.77065</ele>
        <time>2016-06-09T16:35:54Z</time>
      </trkpt>
      <trkpt lat="48.85065" lon="-0.49935">
        <ele>183.98027</ele>
        <time>2016-06-09T16:36:04Z</time>
      </trkpt>
      <trkpt lat="48.85067" lon="-0.49929">
        <ele>183.98027</ele>
        <time>2016-06-09T16:36:09Z</time>
      </trkpt>
      <trkpt lat="48.85064" lon="-0.49906">
        <ele>185.0565</ele>
        <time>2016-06-09T16:36:19Z</time>
      </trkpt>
      <trkpt lat="48.85065" lon="-0.49898">
        <ele>185.0565</ele>
        <time>2016-06-09T16:36:24Z</time>
      </trkpt>
      <trkpt lat="48.85067" lon="-0.49883">
        <ele>185.75394</ele>
        <time>2016-06-09T16:36:34Z</time>
      </trkpt>
      <trkpt lat="48.85068" lon="-0.49871">
        <ele>185.75394</ele>
        <time>2016-06-09T16:36:39Z</time>
      </trkpt>
      <trkpt lat="48.85068" lon="-0.49854">
        <ele>186.21657</ele>
        <time>2016-06-09T16:36:49Z</time>
      </trkpt>
      <trkpt lat="48.85068" lon="-0.49844">
        <ele>186.21657</ele>
        <time>2016-06-09T16:36:54Z</time>
      </trkpt>
      <trkpt lat="48.85067" lon="-0.49826">
        <ele>186.63608</ele>
        <time>2016-06-09T16:37:04Z</time>
      </trkpt>
      <trkpt lat="48.85066" lon="-0.49818">
        <ele>186.63608</ele>
        <time>2016-06-09T16:37:09Z</time>
      </trkpt>
      <trkpt lat="48.85065" lon="-0.49792">
        <ele>187.4062</ele>
        <time>2016-06-09T16:37:24Z</time>
      </trkpt>
      <trkpt lat="48.85065" lon="-0.49792">
        <ele>187.4062</ele>
        <time>2016-06-09T16:37:29Z</time>
      </trkpt>
      <trkpt lat="48.85065" lon="-0.49792">
        <ele>187.4062</ele>
        <time>2016-06-09T16:37:39Z</time>
      </trkpt>
      <trkpt lat="48.85065" lon="-0.49792">
        <ele>187.4062</ele>
        <time>2016-06-09T16:37:44Z</time>
      </trkpt>
      <trkpt lat="48.85065" lon="-0.49792">
        <ele>187.4062</ele>
        <time>2016-06-09T16:37:54Z</time>
      </trkpt>
      <trkpt lat="48.85065" lon="-0.49792">
        <ele>187.4062</ele>
        <time>2016-06-09T16:37:59Z</time>
      </trkpt>
      <trkpt lat="48.85065" lon="-0.49792">
        <ele>187.4062</ele>
        <time>2016-06-09T16:38:09Z</time>
      </trkpt>
      <trkpt lat="48.85065" lon="-0.49792">
        <ele>187.4062</ele>
        <time>2016-06-09T16:38:14Z</time>
      </trkpt>
      <trkpt lat="48.85065" lon="-0.49792">
        <ele>187.4062</ele>
        <time>2016-06-09T16:38:19Z</time>
      </trkpt>
      <trkpt lat="48.85065" lon="-0.49792">
        <ele>187.4062</ele>
        <time>2016-06-09T16:38:24Z</time>
      </trkpt>
      <trkpt lat="48.85065" lon="-0.49792">
        <ele>187.4062</ele>
        <time>2016-06-09T16:38:29Z</time>
      </trkpt>
      <trkpt lat="48.85065" lon="-0.49792">
        <ele>187.4062</ele>
        <time>2016-06-09T16:38:34Z</time>
      </trkpt>
      <trkpt lat="48.85065" lon="-0.49792">
        <ele>187.4062</ele>
        <time>2016-06-09T16:38:44Z</time>
      </trkpt>
      <trkpt lat="48.85065" lon="-0.49792">
        <ele>187.4062</ele>
        <time>2016-06-09T16:38:49Z</time>
      </trkpt>
      <trkpt lat="48.85065" lon="-0.49792">
        <ele>187.4062</ele>
        <time>2016-06-09T16:38:59Z</time>
      </trkpt>
      <trkpt lat="48.85065" lon="-0.49792">
        <ele>187.4062</ele>
        <time>2016-06-09T16:39:04Z</time>
      </trkpt>
      <trkpt lat="48.85065" lon="-0.49792">
        <ele>187.4062</ele>
        <time>2016-06-09T16:39:14Z</time>
      </trkpt>
      <trkpt lat="48.85065" lon="-0.49792">
        <ele>187.4062</ele>
        <time>2016-06-09T16:39:19Z</time>
      </trkpt>
      <trkpt lat="48.85067" lon="-0.49789">
        <ele>187.4062</ele>
        <time>2016-06-09T16:39:29Z</time>
      </trkpt>
      <trkpt lat="48.85067" lon="-0.4979">
        <ele>187.4062</ele>
        <time>2016-06-09T16:39:34Z</time>
      </trkpt>
      <trkpt lat="48.85067" lon="-0.4979">
        <ele>187.4062</ele>
        <time>2016-06-09T16:39:44Z</time>
      </trkpt>
      <trkpt lat="48.85067" lon="-0.4979">
        <ele>187.4062</ele>
        <time>2016-06-09T16:39:49Z</time>
      </trkpt>
      <trkpt lat="48.85066" lon="-0.49791">
        <ele>187.4062</ele>
        <time>2016-06-09T16:40:04Z</time>
      </trkpt>
      <trkpt lat="48.85067" lon="-0.4979">
        <ele>187.4062</ele>
        <time>2016-06-09T16:40:09Z</time>
      </trkpt>
      <trkpt lat="48.85069" lon="-0.4979">
        <ele>187.4062</ele>
        <time>2016-06-09T16:40:19Z</time>
      </trkpt>
      <trkpt lat="48.85069" lon="-0.49788">
        <ele>189.64009</ele>
        <time>2016-06-09T16:40:24Z</time>
      </trkpt>
      <trkpt lat="48.85069" lon="-0.49788">
        <ele>189.64009</ele>
        <time>2016-06-09T16:40:34Z</time>
      </trkpt>
      <trkpt lat="48.85069" lon="-0.49788">
        <ele>189.64009</ele>
        <time>2016-06-09T16:40:39Z</time>
      </trkpt>
      <trkpt lat="48.85069" lon="-0.49788">
        <ele>189.64009</ele>
        <time>2016-06-09T16:40:49Z</time>
      </trkpt>
      <trkpt lat="48.85068" lon="-0.49789">
        <ele>189.64009</ele>
        <time>2016-06-09T16:40:54Z</time>
      </trkpt>
      <trkpt lat="48.85067" lon="-0.49787">
        <ele>189.64009</ele>
        <time>2016-06-09T16:41:04Z</time>
      </trkpt>
      <trkpt lat="48.85067" lon="-0.49787">
        <ele>189.64009</ele>
        <time>2016-06-09T16:41:09Z</time>
      </trkpt>
      <trkpt lat="48.85065" lon="-0.49788">
        <ele>189.64009</ele>
        <time>2016-06-09T16:41:19Z</time>
      </trkpt>
      <trkpt lat="48.85066" lon="-0.49788">
        <ele>189.64009</ele>
        <time>2016-06-09T16:41:24Z</time>
      </trkpt>
      <trkpt lat="48.85065" lon="-0.49788">
        <ele>189.64009</ele>
        <time>2016-06-09T16:41:34Z</time>
      </trkpt>
      <trkpt lat="48.85065" lon="-0.49788">
        <ele>189.64009</ele>
        <time>2016-06-09T16:41:39Z</time>
      </trkpt>
      <trkpt lat="48.85065" lon="-0.49788">
        <ele>189.64009</ele>
        <time>2016-06-09T16:41:54Z</time>
      </trkpt>
      <trkpt lat="48.85065" lon="-0.49788">
        <ele>189.64009</ele>
        <time>2016-06-09T16:41:59Z</time>
      </trkpt>
      <trkpt lat="48.85065" lon="-0.49788">
        <ele>189.64009</ele>
        <time>2016-06-09T16:42:09Z</time>
      </trkpt>
      <trkpt lat="48.85065" lon="-0.49788">
        <ele>189.64009</ele>
        <time>2016-06-09T16:42:14Z</time>
      </trkpt>
      <trkpt lat="48.85064" lon="-0.49788">
        <ele>189.64009</ele>
        <time>2016-06-09T16:42:24Z</time>
      </trkpt>
      <trkpt lat="48.85065" lon="-0.49783">
        <ele>190.92067</ele>
        <time>2016-06-09T16:42:29Z</time>
      </trkpt>
      <trkpt lat="48.85068" lon="-0.49768">
        <ele>192.75793</ele>
        <time>2016-06-09T16:42:39Z</time>
      </trkpt>
      <trkpt lat="48.85068" lon="-0.49761">
        <ele>192.75793</ele>
        <time>2016-06-09T16:42:44Z</time>
      </trkpt>
      <trkpt lat="48.8507" lon="-0.49749">
        <ele>195.07935</ele>
        <time>2016-06-09T16:42:54Z</time>
      </trkpt>
      <trkpt lat="48.8507" lon="-0.49741">
        <ele>195.07935</ele>
        <time>2016-06-09T16:42:59Z</time>
      </trkpt>
      <trkpt lat="48.85068" lon="-0.49728">
        <ele>197.45609</ele>
        <time>2016-06-09T16:43:09Z</time>
      </trkpt>
      <trkpt lat="48.85066" lon="-0.4972">
        <ele>197.45609</ele>
        <time>2016-06-09T16:43:14Z</time>
      </trkpt>
      <trkpt lat="48.85066" lon="-0.49707">
        <ele>199.505</ele>
        <time>2016-06-09T16:43:24Z</time>
      </trkpt>
      <trkpt lat="48.85066" lon="-0.49696">
        <ele>199.505</ele>
        <time>2016-06-09T16:43:29Z</time>
      </trkpt>
      <trkpt lat="48.85065" lon="-0.4968">
        <ele>201.01614</ele>
        <time>2016-06-09T16:43:39Z</time>
      </trkpt>
      <trkpt lat="48.85064" lon="-0.49672">
        <ele>201.01614</ele>
        <time>2016-06-09T16:43:44Z</time>
      </trkpt>
      <trkpt lat="48.85065" lon="-0.49646">
        <ele>202.15674</ele>
        <time>2016-06-09T16:43:59Z</time>
      </trkpt>
      <trkpt lat="48.85066" lon="-0.49638">
        <ele>202.15674</ele>
        <time>2016-06-09T16:44:04Z</time>
      </trkpt>
      <trkpt lat="48.85065" lon="-0.49625">
        <ele>203.54391</ele>
        <time>2016-06-09T16:44:14Z</time>
      </trkpt>
      <trkpt lat="48.85065" lon="-0.49618">
        <ele>203.54391</ele>
        <time>2016-06-09T16:44:19Z</time>
      </trkpt>
      <trkpt lat="48.85065" lon="-0.49602">
        <ele>204.30768</ele>
        <time>2016-06-09T16:44:29Z</time>
      </trkpt>
      <trkpt lat="48.85064" lon="-0.49595">
        <ele>204.30768</ele>
        <time>2016-06-09T16:44:34Z</time>
      </trkpt>
      <trkpt lat="48.85062" lon="-0.49581">
        <ele>204.26341</ele>
        <time>2016-06-09T16:44:44Z</time>
      </trkpt>
      <trkpt lat="48.85062" lon="-0.4958">
        <ele>204.26341</ele>
        <time>2016-06-09T16:44:49Z</time>
      </trkpt>
      <trkpt lat="48.85065" lon="-0.4958">
        <ele>204.26341</ele>
        <time>2016-06-09T16:44:59Z</time>
      </trkpt>
      <trkpt lat="48.85065" lon="-0.49579">
        <ele>204.26341</ele>
        <time>2016-06-09T16:45:04Z</time>
      </trkpt>
      <trkpt lat="48.85066" lon="-0.49577">
        <ele>204.26341</ele>
        <time>2016-06-09T16:45:14Z</time>
      </trkpt>
      <trkpt lat="48.85067" lon="-0.49577">
        <ele>204.26341</ele>
        <time>2016-06-09T16:45:19Z</time>
      </trkpt>
      <trkpt lat="48.85067" lon="-0.49578">
        <ele>204.26341</ele>
        <time>2016-06-09T16:45:29Z</time>
      </trkpt>
      <trkpt lat="48.85068" lon="-0.49578">
        <ele>204.26341</ele>
        <time>2016-06-09T16:45:34Z</time>
      </trkpt>
      <trkpt lat="48.85067" lon="-0.4958">
        <ele>204.26341</ele>
        <time>2016-06-09T16:45:44Z</time>
      </trkpt>
      <trkpt lat="48.85065" lon="-0.49581">
        <ele>204.4528</ele>
        <time>2016-06-09T16:45:49Z</time>
      </trkpt>
      <trkpt lat="48.85065" lon="-0.49581">
        <ele>204.4528</ele>
        <time>2016-06-09T16:45:59Z</time>
      </trkpt>
      <trkpt lat="48.85065" lon="-0.49581">
        <ele>204.4528</ele>
        <time>2016-06-09T16:46:04Z</time>
      </trkpt>
      <trkpt lat="48.85065" lon="-0.4958">
        <ele>204.4528</ele>
        <time>2016-06-09T16:46:14Z</time>
      </trkpt>
      <trkpt lat="48.85064" lon="-0.4958">
        <ele>204.4528</ele>
        <time>2016-06-09T16:46:19Z</time>
      </trkpt>
      <trkpt lat="48.85064" lon="-0.49581">
        <ele>204.4528</ele>
        <time>2016-06-09T16:46:34Z</time>
      </trkpt>
      <trkpt lat="48.85064" lon="-0.49581">
        <ele>204.4528</ele>
        <time>2016-06-09T16:46:39Z</time>
      </trkpt>
      <trkpt lat="48.85063" lon="-0.4958">
        <ele>204.4528</ele>
        <time>2016-06-09T16:46:49Z</time>
      </trkpt>
      <trkpt lat="48.85063" lon="-0.49581">
        <ele>204.4528</ele>
        <time>2016-06-09T16:46:54Z</time>
      </trkpt>
      <trkpt lat="48.85065" lon="-0.49579">
        <ele>204.4528</ele>
        <time>2016-06-09T16:47:04Z</time>
      </trkpt>
      <trkpt lat="48.85065" lon="-0.49579">
        <ele>204.4528</ele>
        <time>2016-06-09T16:47:09Z</time>
      </trkpt>
      <trkpt lat="48.85065" lon="-0.4958">
        <ele>204.4528</ele>
        <time>2016-06-09T16:47:19Z</time>
      </trkpt>
      <trkpt lat="48.85066" lon="-0.4958">
        <ele>204.4528</ele>
        <time>2016-06-09T16:47:24Z</time>
      </trkpt>
      <trkpt lat="48.85065" lon="-0.4958">
        <ele>204.4528</ele>
        <time>2016-06-09T16:47:34Z</time>
      </trkpt>
      <trkpt lat="48.85065" lon="-0.4958">
        <ele>204.4528</ele>
        <time>2016-06-09T16:47:39Z</time>
      </trkpt>
      <trkpt lat="48.85065" lon="-0.4958">
        <ele>204.4528</ele>
        <time>2016-06-09T16:47:49Z</time>
      </trkpt>
      <trkpt lat="48.85065" lon="-0.4958">
        <ele>204.4528</ele>
        <time>2016-06-09T16:47:54Z</time>
      </trkpt>
      <trkpt lat="48.85065" lon="-0.4958">
        <ele>204.4528</ele>
        <time>2016-06-09T16:48:04Z</time>
      </trkpt>
      <trkpt lat="48.85065" lon="-0.4958">
        <ele>204.4528</ele>
        <time>2016-06-09T16:48:09Z</time>
      </trkpt>
      <trkpt lat="48.85065" lon="-0.4958">
        <ele>204.4528</ele>
        <time>2016-06-09T16:48:24Z</time>
      </trkpt>
      <trkpt lat="48.85065" lon="-0.4958">
        <ele>204.4528</ele>
        <time>2016-06-09T16:48:29Z</time>
      </trkpt>
      <trkpt lat="48.85065" lon="-0.4958">
        <ele>204.4528</ele>
        <time>2016-06-09T16:48:39Z</time>
      </trkpt>
      <trkpt lat="48.85065" lon="-0.4958">
        <ele>204.4528</ele>
        <time>2016-06-09T16:48:44Z</time>
      </trkpt>
      <trkpt lat="48.85065" lon="-0.4958">
        <ele>204.4528</ele>
        <time>2016-06-09T16:48:54Z</time>
      </trkpt>
      <trkpt lat="48.85065" lon="-0.4958">
        <ele>204.4528</ele>
        <time>2016-06-09T16:48:59Z</time>
      </trkpt>
      <trkpt lat="48.85065" lon="-0.4958">
        <ele>204.4528</ele>
        <time>2016-06-09T16:49:24Z</time>
      </trkpt>
      <trkpt lat="48.85065" lon="-0.4958">
        <ele>204.4528</ele>
        <time>2016-06-09T16:49:29Z</time>
      </trkpt>
      <trkpt lat="48.85065" lon="-0.4958">
        <ele>204.4528</ele>
        <time>2016-06-09T16:49:39Z</time>
      </trkpt>
      <trkpt lat="48.85065" lon="-0.4958">
        <ele>204.4528</ele>
        <time>2016-06-09T16:49:44Z</time>
      </trkpt>
      <trkpt lat="48.85065" lon="-0.49562">
        <ele>204.81723</ele>
        <time>2016-06-09T16:49:54Z</time>
      </trkpt>
      <trkpt lat="48.85066" lon="-0.4955">
        <ele>204.81723</ele>
        <time>2016-06-09T16:49:59Z</time>
      </trkpt>
      <trkpt lat="48.85066" lon="-0.49527">
        <ele>205.04243</ele>
        <time>2016-06-09T16:50:09Z</time>
      </trkpt>
      <trkpt lat="48.85068" lon="-0.4952">
        <ele>205.04243</ele>
        <time>2016-06-09T16:50:14Z</time>
      </trkpt>
      <trkpt lat="48.85069" lon="-0.49499">
        <ele>205.48618</ele>
        <time>2016-06-09T16:50:24Z</time>
      </trkpt>
      <trkpt lat="48.85068" lon="-0.49493">
        <ele>205.48618</ele>
        <time>2016-06-09T16:50:29Z</time>
      </trkpt>
      <trkpt lat="48.85063" lon="-0.49483">
        <ele>205.80193</ele>
        <time>2016-06-09T16:50:39Z</time>
      </trkpt>
      <trkpt lat="48.85065" lon="-0.49471">
        <ele>205.80193</ele>
        <time>2016-06-09T16:50:44Z</time>
      </trkpt>
      <trkpt lat="48.85068" lon="-0.49446">
        <ele>205.97165</ele>
        <time>2016-06-09T16:50:59Z</time>
      </trkpt>
      <trkpt lat="48.85071" lon="-0.49434">
        <ele>205.97165</ele>
        <time>2016-06-09T16:51:04Z</time>
      </trkpt>
      <trkpt lat="48.85066" lon="-0.49431">
        <ele>205.79164</ele>
        <time>2016-06-09T16:51:14Z</time>
      </trkpt>
      <trkpt lat="48.85066" lon="-0.49415">
        <ele>205.6794</ele>
        <time>2016-06-09T16:51:19Z</time>
      </trkpt>
      <trkpt lat="48.85062" lon="-0.49399">
        <ele>205.5604</ele>
        <time>2016-06-09T16:51:29Z</time>
      </trkpt>
      <trkpt lat="48.85061" lon="-0.49393">
        <ele>205.5604</ele>
        <time>2016-06-09T16:51:34Z</time>
      </trkpt>
      <trkpt lat="48.85055" lon="-0.49372">
        <ele>204.6738</ele>
        <time>2016-06-09T16:51:44Z</time>
      </trkpt>
      <trkpt lat="48.85051" lon="-0.49361">
        <ele>204.6738</ele>
        <time>2016-06-09T16:51:49Z</time>
      </trkpt>
      <trkpt lat="48.85046" lon="-0.49348">
        <ele>204.5361</ele>
        <time>2016-06-09T16:51:59Z</time>
      </trkpt>
      <trkpt lat="48.85044" lon="-0.49342">
        <ele>204.5361</ele>
        <time>2016-06-09T16:52:04Z</time>
      </trkpt>
      <trkpt lat="48.85035" lon="-0.49332">
        <ele>205.22443</ele>
        <time>2016-06-09T16:52:14Z</time>
      </trkpt>
      <trkpt lat="48.85032" lon="-0.49328">
        <ele>205.22443</ele>
        <time>2016-06-09T16:52:19Z</time>
      </trkpt>
      <trkpt lat="48.85029" lon="-0.49311">
        <ele>206.08734</ele>
        <time>2016-06-09T16:52:29Z</time>
      </trkpt>
      <trkpt lat="48.85026" lon="-0.49298">
        <ele>206.08734</ele>
        <time>2016-06-09T16:52:34Z</time>
      </trkpt>
      <trkpt lat="48.85022" lon="-0.49285">
        <ele>207.09712</ele>
        <time>2016-06-09T16:52:44Z</time>
      </trkpt>
      <trkpt lat="48.85021" lon="-0.49276">
        <ele>207.09712</ele>
        <time>2016-06-09T16:52:49Z</time>
      </trkpt>
      <trkpt lat="48.85018" lon="-0.49263">
        <ele>207.79533</ele>
        <time>2016-06-09T16:52:59Z</time>
      </trkpt>
      <trkpt lat="48.85016" lon="-0.49253">
        <ele>207.79533</ele>
        <time>2016-06-09T16:53:04Z</time>
      </trkpt>
      <trkpt lat="48.85013" lon="-0.49232">
        <ele>208.3633</ele>
        <time>2016-06-09T16:53:14Z</time>
      </trkpt>
      <trkpt lat="48.85013" lon="-0.49225">
        <ele>208.3633</ele>
        <time>2016-06-09T16:53:19Z</time>
      </trkpt>
      <trkpt lat="48.8501" lon="-0.49206">
        <ele>208.79643</ele>
        <time>2016-06-09T16:53:29Z</time>
      </trkpt>
      <trkpt lat="48.85008" lon="-0.49203">
        <ele>208.79643</ele>
        <time>2016-06-09T16:53:34Z</time>
      </trkpt>
      <trkpt lat="48.85004" lon="-0.49171">
        <ele>209.56636</ele>
        <time>2016-06-09T16:53:49Z</time>
      </trkpt>
      <trkpt lat="48.85004" lon="-0.49154">
        <ele>210.14359</ele>
        <time>2016-06-09T16:53:54Z</time>
      </trkpt>
      <trkpt lat="48.85002" lon="-0.49144">
        <ele>210.14359</ele>
        <time>2016-06-09T16:54:04Z</time>
      </trkpt>
      <trkpt lat="48.85003" lon="-0.49147">
        <ele>210.14359</ele>
        <time>2016-06-09T16:54:09Z</time>
      </trkpt>
      <trkpt lat="48.85002" lon="-0.49119">
        <ele>210.6721</ele>
        <time>2016-06-09T16:54:19Z</time>
      </trkpt>
      <trkpt lat="48.85002" lon="-0.49106">
        <ele>210.6721</ele>
        <time>2016-06-09T16:54:24Z</time>
      </trkpt>
      <trkpt lat="48.84997" lon="-0.49097">
        <ele>211.2854</ele>
        <time>2016-06-09T16:54:34Z</time>
      </trkpt>
      <trkpt lat="48.84996" lon="-0.49082">
        <ele>211.70345</ele>
        <time>2016-06-09T16:54:39Z</time>
      </trkpt>
      <trkpt lat="48.84994" lon="-0.49059">
        <ele>210.7161</ele>
        <time>2016-06-09T16:54:49Z</time>
      </trkpt>
      <trkpt lat="48.84994" lon="-0.49053">
        <ele>210.7161</ele>
        <time>2016-06-09T16:54:54Z</time>
      </trkpt>
      <trkpt lat="48.84991" lon="-0.49034">
        <ele>210.53505</ele>
        <time>2016-06-09T16:55:04Z</time>
      </trkpt>
      <trkpt lat="48.84989" lon="-0.49022">
        <ele>210.53505</ele>
        <time>2016-06-09T16:55:09Z</time>
      </trkpt>
      <trkpt lat="48.84987" lon="-0.49006">
        <ele>210.36821</ele>
        <time>2016-06-09T16:55:19Z</time>
      </trkpt>
      <trkpt lat="48.84985" lon="-0.49002">
        <ele>210.36821</ele>
        <time>2016-06-09T16:55:24Z</time>
      </trkpt>
      <trkpt lat="48.84981" lon="-0.4898">
        <ele>210.62009</ele>
        <time>2016-06-09T16:55:34Z</time>
      </trkpt>
      <trkpt lat="48.84981" lon="-0.48965">
        <ele>210.64108</ele>
        <time>2016-06-09T16:55:39Z</time>
      </trkpt>
      <trkpt lat="48.84976" lon="-0.48937">
        <ele>209.75783</ele>
        <time>2016-06-09T16:55:49Z</time>
      </trkpt>
      <trkpt lat="48.84976" lon="-0.48932">
        <ele>209.75783</ele>
        <time>2016-06-09T16:55:54Z</time>
      </trkpt>
      <trkpt lat="48.84975" lon="-0.4891">
        <ele>208.3289</ele>
        <time>2016-06-09T16:56:04Z</time>
      </trkpt>
      <trkpt lat="48.84976" lon="-0.48892">
        <ele>207.04828</ele>
        <time>2016-06-09T16:56:09Z</time>
      </trkpt>
      <trkpt lat="48.84973" lon="-0.48888">
        <ele>207.04828</ele>
        <time>2016-06-09T16:56:19Z</time>
      </trkpt>
      <trkpt lat="48.84974" lon="-0.48876">
        <ele>206.34232</ele>
        <time>2016-06-09T16:56:24Z</time>
      </trkpt>
      <trkpt lat="48.84971" lon="-0.48853">
        <ele>206.89261</ele>
        <time>2016-06-09T16:56:39Z</time>
      </trkpt>
      <trkpt lat="48.84972" lon="-0.48849">
        <ele>206.89261</ele>
        <time>2016-06-09T16:56:44Z</time>
      </trkpt>
      <trkpt lat="48.84971" lon="-0.48824">
        <ele>207.15097</ele>
        <time>2016-06-09T16:56:54Z</time>
      </trkpt>
      <trkpt lat="48.8497" lon="-0.48813">
        <ele>207.15097</ele>
        <time>2016-06-09T16:56:59Z</time>
      </trkpt>
      <trkpt lat="48.84973" lon="-0.48788">
        <ele>206.87984</ele>
        <time>2016-06-09T16:57:09Z</time>
      </trkpt>
      <trkpt lat="48.84972" lon="-0.48778">
        <ele>206.87984</ele>
        <time>2016-06-09T16:57:14Z</time>
      </trkpt>
      <trkpt lat="48.84968" lon="-0.48765">
        <ele>206.84048</ele>
        <time>2016-06-09T16:57:24Z</time>
      </trkpt>
      <trkpt lat="48.84966" lon="-0.48758">
        <ele>206.84048</ele>
        <time>2016-06-09T16:57:29Z</time>
      </trkpt>
      <trkpt lat="48.84965" lon="-0.4873">
        <ele>206.62787</ele>
        <time>2016-06-09T16:57:39Z</time>
      </trkpt>
      <trkpt lat="48.84961" lon="-0.48724">
        <ele>206.62787</ele>
        <time>2016-06-09T16:57:44Z</time>
      </trkpt>
      <trkpt lat="48.84958" lon="-0.48706">
        <ele>206.77502</ele>
        <time>2016-06-09T16:57:54Z</time>
      </trkpt>
      <trkpt lat="48.84955" lon="-0.48698">
        <ele>206.77502</ele>
        <time>2016-06-09T16:57:59Z</time>
      </trkpt>
      <trkpt lat="48.84949" lon="-0.48685">
        <ele>207.64505</ele>
        <time>2016-06-09T16:58:09Z</time>
      </trkpt>
      <trkpt lat="48.84947" lon="-0.48678">
        <ele>207.64505</ele>
        <time>2016-06-09T16:58:14Z</time>
      </trkpt>
      <trkpt lat="48.84943" lon="-0.48671">
        <ele>208.14563</ele>
        <time>2016-06-09T16:58:24Z</time>
      </trkpt>
      <trkpt lat="48.84938" lon="-0.48666">
        <ele>208.14563</ele>
        <time>2016-06-09T16:58:29Z</time>
      </trkpt>
      <trkpt lat="48.84931" lon="-0.4864">
        <ele>209.08142</ele>
        <time>2016-06-09T16:58:44Z</time>
      </trkpt>
      <trkpt lat="48.84929" lon="-0.48634">
        <ele>209.08142</ele>
        <time>2016-06-09T16:58:49Z</time>
      </trkpt>
      <trkpt lat="48.84924" lon="-0.48614">
        <ele>210.59146</ele>
        <time>2016-06-09T16:58:59Z</time>
      </trkpt>
      <trkpt lat="48.84922" lon="-0.48612">
        <ele>210.59146</ele>
        <time>2016-06-09T16:59:04Z</time>
      </trkpt>
      <trkpt lat="48.84919" lon="-0.48593">
        <ele>211.83739</ele>
        <time>2016-06-09T16:59:14Z</time>
      </trkpt>
      <trkpt lat="48.8492" lon="-0.48568">
        <ele>213.12398</ele>
        <time>2016-06-09T16:59:19Z</time>
      </trkpt>
      <trkpt lat="48.84918" lon="-0.48549">
        <ele>213.88322</ele>
        <time>2016-06-09T16:59:29Z</time>
      </trkpt>
      <trkpt lat="48.84917" lon="-0.48545">
        <ele>213.88322</ele>
        <time>2016-06-09T16:59:34Z</time>
      </trkpt>
      <trkpt lat="48.84919" lon="-0.48531">
        <ele>214.05147</ele>
        <time>2016-06-09T16:59:44Z</time>
      </trkpt>
      <trkpt lat="48.8492" lon="-0.48518">
        <ele>214.05147</ele>
        <time>2016-06-09T16:59:49Z</time>
      </trkpt>
      <trkpt lat="48.84919" lon="-0.48505">
        <ele>214.36403</ele>
        <time>2016-06-09T16:59:59Z</time>
      </trkpt>
      <trkpt lat="48.84919" lon="-0.48495">
        <ele>214.36403</ele>
        <time>2016-06-09T17:00:04Z</time>
      </trkpt>
      <trkpt lat="48.84917" lon="-0.48469">
        <ele>213.77245</ele>
        <time>2016-06-09T17:00:14Z</time>
      </trkpt>
      <trkpt lat="48.84919" lon="-0.48466">
        <ele>213.77245</ele>
        <time>2016-06-09T17:00:19Z</time>
      </trkpt>
      <trkpt lat="48.84921" lon="-0.48436">
        <ele>213.19566</ele>
        <time>2016-06-09T17:00:29Z</time>
      </trkpt>
      <trkpt lat="48.84922" lon="-0.48434">
        <ele>213.19566</ele>
        <time>2016-06-09T17:00:34Z</time>
      </trkpt>
      <trkpt lat="48.84921" lon="-0.48412">
        <ele>213.3842</ele>
        <time>2016-06-09T17:00:49Z</time>
      </trkpt>
      <trkpt lat="48.84922" lon="-0.48406">
        <ele>213.3842</ele>
        <time>2016-06-09T17:00:54Z</time>
      </trkpt>
      <trkpt lat="48.84924" lon="-0.48378">
        <ele>213.17229</ele>
        <time>2016-06-09T17:01:04Z</time>
      </trkpt>
      <trkpt lat="48.84925" lon="-0.48373">
        <ele>213.17229</ele>
        <time>2016-06-09T17:01:09Z</time>
      </trkpt>
      <trkpt lat="48.84928" lon="-0.48349">
        <ele>213.12372</ele>
        <time>2016-06-09T17:01:19Z</time>
      </trkpt>
      <trkpt lat="48.84931" lon="-0.48341">
        <ele>213.12372</ele>
        <time>2016-06-09T17:01:24Z</time>
      </trkpt>
      <trkpt lat="48.84938" lon="-0.48322">
        <ele>212.92459</ele>
        <time>2016-06-09T17:01:34Z</time>
      </trkpt>
      <trkpt lat="48.84939" lon="-0.48317">
        <ele>212.92459</ele>
        <time>2016-06-09T17:01:39Z</time>
      </trkpt>
      <trkpt lat="48.84942" lon="-0.48302">
        <ele>213.32207</ele>
        <time>2016-06-09T17:01:49Z</time>
      </trkpt>
      <trkpt lat="48.84943" lon="-0.48294">
        <ele>213.32207</ele>
        <time>2016-06-09T17:01:54Z</time>
      </trkpt>
      <trkpt lat="48.84948" lon="-0.48279">
        <ele>214.45909</ele>
        <time>2016-06-09T17:02:04Z</time>
      </trkpt>
      <trkpt lat="48.84951" lon="-0.48269">
        <ele>214.45909</ele>
        <time>2016-06-09T17:02:09Z</time>
      </trkpt>
      <trkpt lat="48.84958" lon="-0.4825">
        <ele>214.79436</ele>
        <time>2016-06-09T17:02:19Z</time>
      </trkpt>
      <trkpt lat="48.8496" lon="-0.48241">
        <ele>214.79436</ele>
        <time>2016-06-09T17:02:24Z</time>
      </trkpt>
      <trkpt lat="48.84965" lon="-0.48229">
        <ele>214.93399</ele>
        <time>2016-06-09T17:02:34Z</time>
      </trkpt>
      <trkpt lat="48.84968" lon="-0.48212">
        <ele>214.6187</ele>
        <time>2016-06-09T17:02:39Z</time>
      </trkpt>
      <trkpt lat="48.84974" lon="-0.48191">
        <ele>213.78241</ele>
        <time>2016-06-09T17:02:49Z</time>
      </trkpt>
      <trkpt lat="48.84976" lon="-0.48183">
        <ele>213.78241</ele>
        <time>2016-06-09T17:02:54Z</time>
      </trkpt>
      <trkpt lat="48.84979" lon="-0.48166">
        <ele>213.84973</ele>
        <time>2016-06-09T17:03:04Z</time>
      </trkpt>
      <trkpt lat="48.84981" lon="-0.48156">
        <ele>213.84973</ele>
        <time>2016-06-09T17:03:09Z</time>
      </trkpt>
      <trkpt lat="48.84984" lon="-0.48142">
        <ele>214.30786</ele>
        <time>2016-06-09T17:03:19Z</time>
      </trkpt>
      <trkpt lat="48.84985" lon="-0.48136">
        <ele>214.30786</ele>
        <time>2016-06-09T17:03:24Z</time>
      </trkpt>
      <trkpt lat="48.8499" lon="-0.48103">
        <ele>214.76704</ele>
        <time>2016-06-09T17:03:39Z</time>
      </trkpt>
      <trkpt lat="48.84989" lon="-0.48097">
        <ele>214.76704</ele>
        <time>2016-06-09T17:03:44Z</time>
      </trkpt>
      <trkpt lat="48.84991" lon="-0.48082">
        <ele>215.71634</ele>
        <time>2016-06-09T17:03:54Z</time>
      </trkpt>
      <trkpt lat="48.84992" lon="-0.48075">
        <ele>215.71634</ele>
        <time>2016-06-09T17:03:59Z</time>
      </trkpt>
      <trkpt lat="48.84997" lon="-0.48059">
        <ele>216.49791</ele>
        <time>2016-06-09T17:04:09Z</time>
      </trkpt>
      <trkpt lat="48.84997" lon="-0.48054">
        <ele>216.49791</ele>
        <time>2016-06-09T17:04:14Z</time>
      </trkpt>
      <trkpt lat="48.85004" lon="-0.48041">
        <ele>216.61795</ele>
        <time>2016-06-09T17:04:24Z</time>
      </trkpt>
      <trkpt lat="48.85009" lon="-0.48032">
        <ele>216.61795</ele>
        <time>2016-06-09T17:04:29Z</time>
      </trkpt>
      <trkpt lat="48.8501" lon="-0.48033">
        <ele>216.61795</ele>
        <time>2016-06-09T17:04:39Z</time>
      </trkpt>
      <trkpt lat="48.8501" lon="-0.48032">
        <ele>216.61795</ele>
        <time>2016-06-09T17:04:44Z</time>
      </trkpt>
      <trkpt lat="48.84999" lon="-0.48024">
        <ele>216.77371</ele>
        <time>2016-06-09T17:04:54Z</time>
      </trkpt>
      <trkpt lat="48.85004" lon="-0.48025">
        <ele>216.77371</ele>
        <time>2016-06-09T17:04:59Z</time>
      </trkpt>
      <trkpt lat="48.85008" lon="-0.48032">
        <ele>216.27086</ele>
        <time>2016-06-09T17:05:09Z</time>
      </trkpt>
      <trkpt lat="48.85015" lon="-0.48031">
        <ele>216.27086</ele>
        <time>2016-06-09T17:05:14Z</time>
      </trkpt>
      <trkpt lat="48.85005" lon="-0.48022">
        <ele>216.90343</ele>
        <time>2016-06-09T17:05:24Z</time>
      </trkpt>
      <trkpt lat="48.85005" lon="-0.48024">
        <ele>216.90343</ele>
        <time>2016-06-09T17:05:29Z</time>
      </trkpt>
      <trkpt lat="48.85004" lon="-0.48024">
        <ele>216.90343</ele>
        <time>2016-06-09T17:05:39Z</time>
      </trkpt>
      <trkpt lat="48.85004" lon="-0.48024">
        <ele>216.90343</ele>
        <time>2016-06-09T17:05:44Z</time>
      </trkpt>
      <trkpt lat="48.85004" lon="-0.48024">
        <ele>216.90343</ele>
        <time>2016-06-09T17:05:54Z</time>
      </trkpt>
      <trkpt lat="48.85004" lon="-0.48024">
        <ele>216.90343</ele>
        <time>2016-06-09T17:05:59Z</time>
      </trkpt>
      <trkpt lat="48.85003" lon="-0.48024">
        <ele>216.90343</ele>
        <time>2016-06-09T17:06:09Z</time>
      </trkpt>
      <trkpt lat="48.85003" lon="-0.48024">
        <ele>216.90343</ele>
        <time>2016-06-09T17:06:14Z</time>
      </trkpt>
      <trkpt lat="48.85003" lon="-0.48024">
        <ele>216.90343</ele>
        <time>2016-06-09T17:06:29Z</time>
      </trkpt>
      <trkpt lat="48.85003" lon="-0.48024">
        <ele>216.90343</ele>
        <time>2016-06-09T17:06:34Z</time>
      </trkpt>
      <trkpt lat="48.85004" lon="-0.48024">
        <ele>216.90343</ele>
        <time>2016-06-09T17:06:44Z</time>
      </trkpt>
      <trkpt lat="48.85004" lon="-0.48024">
        <ele>216.90343</ele>
        <time>2016-06-09T17:06:49Z</time>
      </trkpt>
      <trkpt lat="48.85004" lon="-0.48024">
        <ele>216.90343</ele>
        <time>2016-06-09T17:06:59Z</time>
      </trkpt>
      <trkpt lat="48.85004" lon="-0.48024">
        <ele>216.90343</ele>
        <time>2016-06-09T17:07:04Z</time>
      </trkpt>
      <trkpt lat="48.85004" lon="-0.48024">
        <ele>216.90343</ele>
        <time>2016-06-09T17:07:14Z</time>
      </trkpt>
      <trkpt lat="48.85004" lon="-0.48024">
        <ele>216.90343</ele>
        <time>2016-06-09T17:07:19Z</time>
      </trkpt>
      <trkpt lat="48.85004" lon="-0.48024">
        <ele>216.90343</ele>
        <time>2016-06-09T17:07:29Z</time>
      </trkpt>
      <trkpt lat="48.85004" lon="-0.48024">
        <ele>216.90343</ele>
        <time>2016-06-09T17:07:34Z</time>
      </trkpt>
      <trkpt lat="48.85004" lon="-0.48024">
        <ele>216.90343</ele>
        <time>2016-06-09T17:07:44Z</time>
      </trkpt>
      <trkpt lat="48.85004" lon="-0.48024">
        <ele>216.90343</ele>
        <time>2016-06-09T17:07:49Z</time>
      </trkpt>
      <trkpt lat="48.85003" lon="-0.48024">
        <ele>216.90343</ele>
        <time>2016-06-09T17:07:59Z</time>
      </trkpt>
      <trkpt lat="48.85003" lon="-0.48024">
        <ele>216.90343</ele>
        <time>2016-06-09T17:08:04Z</time>
      </trkpt>
      <trkpt lat="48.85003" lon="-0.48024">
        <ele>216.90343</ele>
        <time>2016-06-09T17:08:19Z</time>
      </trkpt>
      <trkpt lat="48.85003" lon="-0.48024">
        <ele>216.90343</ele>
        <time>2016-06-09T17:08:24Z</time>
      </trkpt>
      <trkpt lat="48.85004" lon="-0.48024">
        <ele>216.90343</ele>
        <time>2016-06-09T17:08:34Z</time>
      </trkpt>
      <trkpt lat="48.85004" lon="-0.48024">
        <ele>216.90343</ele>
        <time>2016-06-09T17:08:39Z</time>
      </trkpt>
      <trkpt lat="48.85004" lon="-0.48024">
        <ele>216.90343</ele>
        <time>2016-06-09T17:08:49Z</time>
      </trkpt>
      <trkpt lat="48.85004" lon="-0.48024">
        <ele>216.90343</ele>
        <time>2016-06-09T17:08:54Z</time>
      </trkpt>
      <trkpt lat="48.85004" lon="-0.48024">
        <ele>216.90343</ele>
        <time>2016-06-09T17:09:04Z</time>
      </trkpt>
      <trkpt lat="48.85004" lon="-0.48024">
        <ele>216.90343</ele>
        <time>2016-06-09T17:09:09Z</time>
      </trkpt>
      <trkpt lat="48.85004" lon="-0.48024">
        <ele>216.90343</ele>
        <time>2016-06-09T17:09:19Z</time>
      </trkpt>
      <trkpt lat="48.85004" lon="-0.48024">
        <ele>216.90343</ele>
        <time>2016-06-09T17:09:24Z</time>
      </trkpt>
      <trkpt lat="48.85004" lon="-0.48024">
        <ele>216.90343</ele>
        <time>2016-06-09T17:09:34Z</time>
      </trkpt>
      <trkpt lat="48.85004" lon="-0.48024">
        <ele>216.90343</ele>
        <time>2016-06-09T17:09:39Z</time>
      </trkpt>
      <trkpt lat="48.85004" lon="-0.48024">
        <ele>216.90343</ele>
        <time>2016-06-09T17:09:49Z</time>
      </trkpt>
      <trkpt lat="48.85004" lon="-0.48024">
        <ele>216.90343</ele>
        <time>2016-06-09T17:09:54Z</time>
      </trkpt>
      <trkpt lat="48.85004" lon="-0.48021">
        <ele>216.90343</ele>
        <time>2016-06-09T17:10:04Z</time>
      </trkpt>
      <trkpt lat="48.85004" lon="-0.48014">
        <ele>217.57793</ele>
        <time>2016-06-09T17:10:09Z</time>
      </trkpt>
      <trkpt lat="48.85006" lon="-0.48013">
        <ele>217.57793</ele>
        <time>2016-06-09T17:10:24Z</time>
      </trkpt>
      <trkpt lat="48.85006" lon="-0.48013">
        <ele>217.57793</ele>
        <time>2016-06-09T17:10:29Z</time>
      </trkpt>
      <trkpt lat="48.85006" lon="-0.48013">
        <ele>217.57793</ele>
        <time>2016-06-09T17:10:39Z</time>
      </trkpt>
      <trkpt lat="48.85006" lon="-0.48013">
        <ele>217.57793</ele>
        <time>2016-06-09T17:10:44Z</time>
      </trkpt>
      <trkpt lat="48.85006" lon="-0.48013">
        <ele>217.57793</ele>
        <time>2016-06-09T17:10:54Z</time>
      </trkpt>
      <trkpt lat="48.85006" lon="-0.48013">
        <ele>217.57793</ele>
        <time>2016-06-09T17:10:59Z</time>
      </trkpt>
      <trkpt lat="48.85006" lon="-0.48013">
        <ele>217.57793</ele>
        <time>2016-06-09T17:11:09Z</time>
      </trkpt>
      <trkpt lat="48.85006" lon="-0.48013">
        <ele>217.57793</ele>
        <time>2016-06-09T17:11:14Z</time>
      </trkpt>
      <trkpt lat="48.85006" lon="-0.48013">
        <ele>217.57793</ele>
        <time>2016-06-09T17:11:24Z</time>
      </trkpt>
      <trkpt lat="48.85006" lon="-0.48013">
        <ele>217.57793</ele>
        <time>2016-06-09T17:11:29Z</time>
      </trkpt>
      <trkpt lat="48.85006" lon="-0.48013">
        <ele>217.57793</ele>
        <time>2016-06-09T17:11:39Z</time>
      </trkpt>
      <trkpt lat="48.85006" lon="-0.48013">
        <ele>217.57793</ele>
        <time>2016-06-09T17:11:44Z</time>
      </trkpt>
      <trkpt lat="48.85006" lon="-0.48013">
        <ele>217.57793</ele>
        <time>2016-06-09T17:11:54Z</time>
      </trkpt>
      <trkpt lat="48.85006" lon="-0.48013">
        <ele>217.57793</ele>
        <time>2016-06-09T17:11:59Z</time>
      </trkpt>
      <trkpt lat="48.85006" lon="-0.48013">
        <ele>217.57793</ele>
        <time>2016-06-09T17:12:14Z</time>
      </trkpt>
      <trkpt lat="48.85006" lon="-0.48013">
        <ele>217.57793</ele>
        <time>2016-06-09T17:12:19Z</time>
      </trkpt>
      <trkpt lat="48.85006" lon="-0.48013">
        <ele>217.57793</ele>
        <time>2016-06-09T17:12:29Z</time>
      </trkpt>
      <trkpt lat="48.85006" lon="-0.48013">
        <ele>217.57793</ele>
        <time>2016-06-09T17:12:34Z</time>
      </trkpt>
      <trkpt lat="48.85006" lon="-0.48013">
        <ele>217.57793</ele>
        <time>2016-06-09T17:12:44Z</time>
      </trkpt>
      <trkpt lat="48.85006" lon="-0.48013">
        <ele>217.57793</ele>
        <time>2016-06-09T17:12:49Z</time>
      </trkpt>
      <trkpt lat="48.85006" lon="-0.48013">
        <ele>217.57793</ele>
        <time>2016-06-09T17:12:59Z</time>
      </trkpt>
      <trkpt lat="48.85006" lon="-0.48013">
        <ele>217.57793</ele>
        <time>2016-06-09T17:13:04Z</time>
      </trkpt>
      <trkpt lat="48.85006" lon="-0.48013">
        <ele>217.57793</ele>
        <time>2016-06-09T17:13:14Z</time>
      </trkpt>
      <trkpt lat="48.85006" lon="-0.48013">
        <ele>217.57793</ele>
        <time>2016-06-09T17:13:19Z</time>
      </trkpt>
      <trkpt lat="48.85006" lon="-0.48013">
        <ele>217.57793</ele>
        <time>2016-06-09T17:13:29Z</time>
      </trkpt>
      <trkpt lat="48.85006" lon="-0.48013">
        <ele>217.57793</ele>
        <time>2016-06-09T17:13:34Z</time>
      </trkpt>
      <trkpt lat="48.85006" lon="-0.48013">
        <ele>217.57793</ele>
        <time>2016-06-09T17:13:44Z</time>
      </trkpt>
      <trkpt lat="48.85006" lon="-0.48013">
        <ele>217.57793</ele>
        <time>2016-06-09T17:13:49Z</time>
      </trkpt>
      <trkpt lat="48.85006" lon="-0.48013">
        <ele>217.57793</ele>
        <time>2016-06-09T17:13:59Z</time>
      </trkpt>
      <trkpt lat="48.85006" lon="-0.48013">
        <ele>217.57793</ele>
        <time>2016-06-09T17:14:04Z</time>
      </trkpt>
      <trkpt lat="48.85006" lon="-0.48013">
        <ele>217.57793</ele>
        <time>2016-06-09T17:14:19Z</time>
      </trkpt>
      <trkpt lat="48.85006" lon="-0.48013">
        <ele>217.57793</ele>
        <time>2016-06-09T17:14:24Z</time>
      </trkpt>
      <trkpt lat="48.85006" lon="-0.48013">
        <ele>217.57793</ele>
        <time>2016-06-09T17:14:34Z</time>
      </trkpt>
      <trkpt lat="48.85006" lon="-0.48013">
        <ele>217.57793</ele>
        <time>2016-06-09T17:14:39Z</time>
      </trkpt>
      <trkpt lat="48.85006" lon="-0.48013">
        <ele>217.57793</ele>
        <time>2016-06-09T17:14:49Z</time>
      </trkpt>
      <trkpt lat="48.85006" lon="-0.48013">
        <ele>217.57793</ele>
        <time>2016-06-09T17:14:54Z</time>
      </trkpt>
      <trkpt lat="48.85006" lon="-0.48013">
        <ele>217.57793</ele>
        <time>2016-06-09T17:15:04Z</time>
      </trkpt>
      <trkpt lat="48.85006" lon="-0.48013">
        <ele>217.57793</ele>
        <time>2016-06-09T17:15:09Z</time>
      </trkpt>
      <trkpt lat="48.85006" lon="-0.48013">
        <ele>217.57793</ele>
        <time>2016-06-09T17:15:19Z</time>
      </trkpt>
      <trkpt lat="48.85006" lon="-0.48013">
        <ele>217.57793</ele>
        <time>2016-06-09T17:15:24Z</time>
      </trkpt>
      <trkpt lat="48.85006" lon="-0.48013">
        <ele>217.57793</ele>
        <time>2016-06-09T17:15:34Z</time>
      </trkpt>
      <trkpt lat="48.85006" lon="-0.48013">
        <ele>217.57793</ele>
        <time>2016-06-09T17:15:39Z</time>
      </trkpt>
      <trkpt lat="48.85006" lon="-0.48013">
        <ele>217.57793</ele>
        <time>2016-06-09T17:15:44Z</time>
      </trkpt>
      <trkpt lat="48.85006" lon="-0.48013">
        <ele>217.57793</ele>
        <time>2016-06-09T17:15:49Z</time>
      </trkpt>
      <trkpt lat="48.85006" lon="-0.48013">
        <ele>217.57793</ele>
        <time>2016-06-09T17:15:59Z</time>
      </trkpt>
      <trkpt lat="48.85006" lon="-0.48013">
        <ele>217.57793</ele>
        <time>2016-06-09T17:16:04Z</time>
      </trkpt>
      <trkpt lat="48.85006" lon="-0.48013">
        <ele>217.57793</ele>
        <time>2016-06-09T17:16:14Z</time>
      </trkpt>
      <trkpt lat="48.85006" lon="-0.48013">
        <ele>217.57793</ele>
        <time>2016-06-09T17:16:19Z</time>
      </trkpt>
      <trkpt lat="48.85006" lon="-0.48013">
        <ele>217.57793</ele>
        <time>2016-06-09T17:16:29Z</time>
      </trkpt>
      <trkpt lat="48.85006" lon="-0.48013">
        <ele>217.57793</ele>
        <time>2016-06-09T17:16:34Z</time>
      </trkpt>
      <trkpt lat="48.85004" lon="-0.48013">
        <ele>217.57793</ele>
        <time>2016-06-09T17:16:44Z</time>
      </trkpt>
      <trkpt lat="48.85004" lon="-0.48013">
        <ele>217.57793</ele>
        <time>2016-06-09T17:16:49Z</time>
      </trkpt>
      <trkpt lat="48.85003" lon="-0.48013">
        <ele>217.57793</ele>
        <time>2016-06-09T17:16:54Z</time>
      </trkpt>
      <trkpt lat="48.85004" lon="-0.48014">
        <ele>217.57793</ele>
        <time>2016-06-09T17:16:59Z</time>
      </trkpt>
      <trkpt lat="48.85004" lon="-0.48014">
        <ele>217.57793</ele>
        <time>2016-06-09T17:17:09Z</time>
      </trkpt>
      <trkpt lat="48.85004" lon="-0.48014">
        <ele>217.57793</ele>
        <time>2016-06-09T17:17:14Z</time>
      </trkpt>
      <trkpt lat="48.85004" lon="-0.48014">
        <ele>217.57793</ele>
        <time>2016-06-09T17:17:24Z</time>
      </trkpt>
      <trkpt lat="48.85004" lon="-0.48014">
        <ele>217.57793</ele>
        <time>2016-06-09T17:17:29Z</time>
      </trkpt>
      <trkpt lat="48.85004" lon="-0.48014">
        <ele>217.57793</ele>
        <time>2016-06-09T17:17:34Z</time>
      </trkpt>
      <trkpt lat="48.85004" lon="-0.48014">
        <ele>217.57793</ele>
        <time>2016-06-09T17:17:39Z</time>
      </trkpt>
      <trkpt lat="48.85004" lon="-0.48014">
        <ele>217.57793</ele>
        <time>2016-06-09T17:17:49Z</time>
      </trkpt>
      <trkpt lat="48.85004" lon="-0.48014">
        <ele>217.57793</ele>
        <time>2016-06-09T17:17:54Z</time>
      </trkpt>
      <trkpt lat="48.85004" lon="-0.48014">
        <ele>217.57793</ele>
        <time>2016-06-09T17:17:59Z</time>
      </trkpt>
      <trkpt lat="48.85004" lon="-0.48014">
        <ele>217.57793</ele>
        <time>2016-06-09T17:18:04Z</time>
      </trkpt>
      <trkpt lat="48.85004" lon="-0.48014">
        <ele>217.57793</ele>
        <time>2016-06-09T17:18:09Z</time>
      </trkpt>
      <trkpt lat="48.85004" lon="-0.48014">
        <ele>217.57793</ele>
        <time>2016-06-09T17:18:14Z</time>
      </trkpt>
      <trkpt lat="48.85007" lon="-0.48011">
        <ele>218.9816</ele>
        <time>2016-06-09T17:18:19Z</time>
      </trkpt>
      <trkpt lat="48.85007" lon="-0.48013">
        <ele>218.9816</ele>
        <time>2016-06-09T17:18:29Z</time>
      </trkpt>
      <trkpt lat="48.85007" lon="-0.48013">
        <ele>218.9816</ele>
        <time>2016-06-09T17:18:34Z</time>
      </trkpt>
      <trkpt lat="48.85005" lon="-0.48013">
        <ele>218.9816</ele>
        <time>2016-06-09T17:18:44Z</time>
      </trkpt>
      <trkpt lat="48.85005" lon="-0.48011">
        <ele>218.9816</ele>
        <time>2016-06-09T17:18:49Z</time>
      </trkpt>
      <trkpt lat="48.85002" lon="-0.48018">
        <ele>219.34253</ele>
        <time>2016-06-09T17:18:59Z</time>
      </trkpt>
      <trkpt lat="48.85002" lon="-0.48016">
        <ele>219.34253</ele>
        <time>2016-06-09T17:19:04Z</time>
      </trkpt>
      <trkpt lat="48.85001" lon="-0.48015">
        <ele>219.34253</ele>
        <time>2016-06-09T17:19:14Z</time>
      </trkpt>
      <trkpt lat="48.85001" lon="-0.48015">
        <ele>219.34253</ele>
        <time>2016-06-09T17:19:19Z</time>
      </trkpt>
      <trkpt lat="48.85001" lon="-0.48016">
        <ele>219.34253</ele>
        <time>2016-06-09T17:19:34Z</time>
      </trkpt>
      <trkpt lat="48.85001" lon="-0.48016">
        <ele>219.34253</ele>
        <time>2016-06-09T17:19:39Z</time>
      </trkpt>
      <trkpt lat="48.85001" lon="-0.48016">
        <ele>219.34253</ele>
        <time>2016-06-09T17:19:49Z</time>
      </trkpt>
      <trkpt lat="48.85001" lon="-0.48016">
        <ele>219.34253</ele>
        <time>2016-06-09T17:19:54Z</time>
      </trkpt>
      <trkpt lat="48.85002" lon="-0.48016">
        <ele>219.34253</ele>
        <time>2016-06-09T17:20:04Z</time>
      </trkpt>
      <trkpt lat="48.85005" lon="-0.48018">
        <ele>219.34253</ele>
        <time>2016-06-09T17:20:09Z</time>
      </trkpt>
      <trkpt lat="48.8501" lon="-0.48006">
        <ele>219.48618</ele>
        <time>2016-06-09T17:20:19Z</time>
      </trkpt>
      <trkpt lat="48.85014" lon="-0.48001">
        <ele>219.48618</ele>
        <time>2016-06-09T17:20:24Z</time>
      </trkpt>
      <trkpt lat="48.85023" lon="-0.47981">
        <ele>219.9474</ele>
        <time>2016-06-09T17:20:34Z</time>
      </trkpt>
      <trkpt lat="48.85025" lon="-0.47973">
        <ele>219.9474</ele>
        <time>2016-06-09T17:20:39Z</time>
      </trkpt>
      <trkpt lat="48.85031" lon="-0.47955">
        <ele>220.64449</ele>
        <time>2016-06-09T17:20:49Z</time>
      </trkpt>
      <trkpt lat="48.85033" lon="-0.47947">
        <ele>220.64449</ele>
        <time>2016-06-09T17:20:54Z</time>
      </trkpt>
      <trkpt lat="48.85043" lon="-0.47923">
        <ele>221.38576</ele>
        <time>2016-06-09T17:21:09Z</time>
      </trkpt>
      <trkpt lat="48.85046" lon="-0.47916">
        <ele>221.38576</ele>
        <time>2016-06-09T17:21:14Z</time>
      </trkpt>
      <trkpt lat="48.85056" lon="-0.47899">
        <ele>222.13763</ele>
        <time>2016-06-09T17:21:24Z</time>
      </trkpt>
      <trkpt lat="48.8506" lon="-0.47893">
        <ele>222.13763</ele>
        <time>2016-06-09T17:21:29Z</time>
      </trkpt>
      <trkpt lat="48.8507" lon="-0.47879">
        <ele>222.92665</ele>
        <time>2016-06-09T17:21:39Z</time>
      </trkpt>
      <trkpt lat="48.85075" lon="-0.47872">
        <ele>222.92665</ele>
        <time>2016-06-09T17:21:44Z</time>
      </trkpt>
      <trkpt lat="48.85085" lon="-0.47859">
        <ele>223.8061</ele>
        <time>2016-06-09T17:21:54Z</time>
      </trkpt>
      <trkpt lat="48.85089" lon="-0.47852">
        <ele>223.8061</ele>
        <time>2016-06-09T17:21:59Z</time>
      </trkpt>
      <trkpt lat="48.85099" lon="-0.47839">
        <ele>224.47934</ele>
        <time>2016-06-09T17:22:09Z</time>
      </trkpt>
      <trkpt lat="48.85102" lon="-0.47835">
        <ele>224.47934</ele>
        <time>2016-06-09T17:22:14Z</time>
      </trkpt>
      <trkpt lat="48.85107" lon="-0.47829">
        <ele>224.71527</ele>
        <time>2016-06-09T17:22:19Z</time>
      </trkpt>
      <trkpt lat="48.85111" lon="-0.47823">
        <ele>224.71527</ele>
        <time>2016-06-09T17:22:24Z</time>
      </trkpt>
      <trkpt lat="48.85115" lon="-0.47817">
        <ele>225.02164</ele>
        <time>2016-06-09T17:22:29Z</time>
      </trkpt>
      <trkpt lat="48.85119" lon="-0.47812">
        <ele>225.02164</ele>
        <time>2016-06-09T17:22:34Z</time>
      </trkpt>
      <trkpt lat="48.8512" lon="-0.47805">
        <ele>224.80228</ele>
        <time>2016-06-09T17:22:39Z</time>
      </trkpt>
      <trkpt lat="48.85122" lon="-0.47797">
        <ele>224.80228</ele>
        <time>2016-06-09T17:22:44Z</time>
      </trkpt>
      <trkpt lat="48.85127" lon="-0.4779">
        <ele>224.63039</ele>
        <time>2016-06-09T17:22:49Z</time>
      </trkpt>
      <trkpt lat="48.8514" lon="-0.47776">
        <ele>225.13785</ele>
        <time>2016-06-09T17:22:59Z</time>
      </trkpt>
      <trkpt lat="48.85146" lon="-0.47771">
        <ele>225.13785</ele>
        <time>2016-06-09T17:23:04Z</time>
      </trkpt>
      <trkpt lat="48.85154" lon="-0.47761">
        <ele>225.66885</ele>
        <time>2016-06-09T17:23:14Z</time>
      </trkpt>
      <trkpt lat="48.85158" lon="-0.47753">
        <ele>225.66885</ele>
        <time>2016-06-09T17:23:19Z</time>
      </trkpt>
      <trkpt lat="48.85168" lon="-0.47741">
        <ele>226.12012</ele>
        <time>2016-06-09T17:23:29Z</time>
      </trkpt>
      <trkpt lat="48.85173" lon="-0.47735">
        <ele>226.12012</ele>
        <time>2016-06-09T17:23:34Z</time>
      </trkpt>
      <trkpt lat="48.85181" lon="-0.47723">
        <ele>226.65558</ele>
        <time>2016-06-09T17:23:44Z</time>
      </trkpt>
      <trkpt lat="48.85187" lon="-0.47717">
        <ele>226.65558</ele>
        <time>2016-06-09T17:23:49Z</time>
      </trkpt>
      <trkpt lat="48.85196" lon="-0.47706">
        <ele>226.92256</ele>
        <time>2016-06-09T17:23:59Z</time>
      </trkpt>
      <trkpt lat="48.85204" lon="-0.47698">
        <ele>227.84879</ele>
        <time>2016-06-09T17:24:04Z</time>
      </trkpt>
      <trkpt lat="48.85213" lon="-0.47685">
        <ele>228.75003</ele>
        <time>2016-06-09T17:24:14Z</time>
      </trkpt>
      <trkpt lat="48.85215" lon="-0.4768">
        <ele>228.75003</ele>
        <time>2016-06-09T17:24:19Z</time>
      </trkpt>
      <trkpt lat="48.85229" lon="-0.47658">
        <ele>229.95798</ele>
        <time>2016-06-09T17:24:34Z</time>
      </trkpt>
      <trkpt lat="48.85235" lon="-0.47652">
        <ele>229.95798</ele>
        <time>2016-06-09T17:24:39Z</time>
      </trkpt>
      <trkpt lat="48.85246" lon="-0.47637">
        <ele>231.87996</ele>
        <time>2016-06-09T17:24:49Z</time>
      </trkpt>
      <trkpt lat="48.85251" lon="-0.4763">
        <ele>231.87996</ele>
        <time>2016-06-09T17:24:54Z</time>
      </trkpt>
      <trkpt lat="48.85256" lon="-0.47617">
        <ele>233.1621</ele>
        <time>2016-06-09T17:25:04Z</time>
      </trkpt>
      <trkpt lat="48.8526" lon="-0.4761">
        <ele>233.1621</ele>
        <time>2016-06-09T17:25:09Z</time>
      </trkpt>
      <trkpt lat="48.85267" lon="-0.47595">
        <ele>234.42526</ele>
        <time>2016-06-09T17:25:19Z</time>
      </trkpt>
      <trkpt lat="48.85269" lon="-0.47588">
        <ele>234.42526</ele>
        <time>2016-06-09T17:25:24Z</time>
      </trkpt>
      <trkpt lat="48.85277" lon="-0.47571">
        <ele>235.36572</ele>
        <time>2016-06-09T17:25:34Z</time>
      </trkpt>
      <trkpt lat="48.8528" lon="-0.47562">
        <ele>235.36572</ele>
        <time>2016-06-09T17:25:39Z</time>
      </trkpt>
      <trkpt lat="48.85285" lon="-0.47546">
        <ele>235.97679</ele>
        <time>2016-06-09T17:25:49Z</time>
      </trkpt>
      <trkpt lat="48.85287" lon="-0.47537">
        <ele>235.97679</ele>
        <time>2016-06-09T17:25:54Z</time>
      </trkpt>
      <trkpt lat="48.85292" lon="-0.47513">
        <ele>236.22447</ele>
        <time>2016-06-09T17:26:09Z</time>
      </trkpt>
      <trkpt lat="48.85295" lon="-0.47505">
        <ele>236.22447</ele>
        <time>2016-06-09T17:26:14Z</time>
      </trkpt>
      <trkpt lat="48.853" lon="-0.47487">
        <ele>236.62593</ele>
        <time>2016-06-09T17:26:24Z</time>
      </trkpt>
      <trkpt lat="48.85301" lon="-0.47481">
        <ele>236.62593</ele>
        <time>2016-06-09T17:26:29Z</time>
      </trkpt>
      <trkpt lat="48.85304" lon="-0.47471">
        <ele>236.43498</ele>
        <time>2016-06-09T17:26:34Z</time>
      </trkpt>
      <trkpt lat="48.85306" lon="-0.47461">
        <ele>236.43498</ele>
        <time>2016-06-09T17:26:39Z</time>
      </trkpt>
      <trkpt lat="48.85308" lon="-0.47453">
        <ele>236.07167</ele>
        <time>2016-06-09T17:26:44Z</time>
      </trkpt>
      <trkpt lat="48.8531" lon="-0.47445">
        <ele>236.07167</ele>
        <time>2016-06-09T17:26:49Z</time>
      </trkpt>
      <trkpt lat="48.85312" lon="-0.47438">
        <ele>235.4645</ele>
        <time>2016-06-09T17:26:54Z</time>
      </trkpt>
      <trkpt lat="48.85315" lon="-0.4743">
        <ele>235.4645</ele>
        <time>2016-06-09T17:26:59Z</time>
      </trkpt>
      <trkpt lat="48.85316" lon="-0.47425">
        <ele>234.74968</ele>
        <time>2016-06-09T17:27:04Z</time>
      </trkpt>
      <trkpt lat="48.85316" lon="-0.47425">
        <ele>234.74968</ele>
        <time>2016-06-09T17:27:09Z</time>
      </trkpt>
      <trkpt lat="48.8532" lon="-0.47417">
        <ele>234.74968</ele>
        <time>2016-06-09T17:27:14Z</time>
      </trkpt>
      <trkpt lat="48.85327" lon="-0.47401">
        <ele>234.21227</ele>
        <time>2016-06-09T17:27:24Z</time>
      </trkpt>
      <trkpt lat="48.85328" lon="-0.47394">
        <ele>234.21227</ele>
        <time>2016-06-09T17:27:29Z</time>
      </trkpt>
      <trkpt lat="48.85333" lon="-0.47391">
        <ele>233.4818</ele>
        <time>2016-06-09T17:27:39Z</time>
      </trkpt>
      <trkpt lat="48.85336" lon="-0.47388">
        <ele>233.4818</ele>
        <time>2016-06-09T17:27:44Z</time>
      </trkpt>
      <trkpt lat="48.85342" lon="-0.47384">
        <ele>232.66228</ele>
        <time>2016-06-09T17:27:49Z</time>
      </trkpt>
      <trkpt lat="48.8535" lon="-0.47377">
        <ele>232.66228</ele>
        <time>2016-06-09T17:27:54Z</time>
      </trkpt>
      <trkpt lat="48.8535" lon="-0.47374">
        <ele>232.03766</ele>
        <time>2016-06-09T17:27:59Z</time>
      </trkpt>
      <trkpt lat="48.85349" lon="-0.47374">
        <ele>232.03766</ele>
        <time>2016-06-09T17:28:04Z</time>
      </trkpt>
      <trkpt lat="48.85349" lon="-0.47374">
        <ele>232.03766</ele>
        <time>2016-06-09T17:28:09Z</time>
      </trkpt>
      <trkpt lat="48.85349" lon="-0.47376">
        <ele>232.03766</ele>
        <time>2016-06-09T17:28:14Z</time>
      </trkpt>
      <trkpt lat="48.85345" lon="-0.47376">
        <ele>232.03766</ele>
        <time>2016-06-09T17:28:19Z</time>
      </trkpt>
      <trkpt lat="48.85346" lon="-0.47375">
        <ele>232.03766</ele>
        <time>2016-06-09T17:28:24Z</time>
      </trkpt>
      <trkpt lat="48.85345" lon="-0.47376">
        <ele>232.03766</ele>
        <time>2016-06-09T17:28:29Z</time>
      </trkpt>
      <trkpt lat="48.85345" lon="-0.47376">
        <ele>232.03766</ele>
        <time>2016-06-09T17:28:34Z</time>
      </trkpt>
      <trkpt lat="48.85345" lon="-0.47376">
        <ele>232.03766</ele>
        <time>2016-06-09T17:28:39Z</time>
      </trkpt>
      <trkpt lat="48.85346" lon="-0.47376">
        <ele>232.03766</ele>
        <time>2016-06-09T17:28:44Z</time>
      </trkpt>
      <trkpt lat="48.85351" lon="-0.4737">
        <ele>231.36609</ele>
        <time>2016-06-09T17:28:49Z</time>
      </trkpt>
      <trkpt lat="48.85359" lon="-0.47362">
        <ele>230.6253</ele>
        <time>2016-06-09T17:28:59Z</time>
      </trkpt>
      <trkpt lat="48.85366" lon="-0.47356">
        <ele>230.6253</ele>
        <time>2016-06-09T17:29:04Z</time>
      </trkpt>
      <trkpt lat="48.85375" lon="-0.47347">
        <ele>229.86691</ele>
        <time>2016-06-09T17:29:09Z</time>
      </trkpt>
      <trkpt lat="48.85378" lon="-0.47343">
        <ele>229.86691</ele>
        <time>2016-06-09T17:29:14Z</time>
      </trkpt>
      <trkpt lat="48.85386" lon="-0.47334">
        <ele>229.06667</ele>
        <time>2016-06-09T17:29:19Z</time>
      </trkpt>
      <trkpt lat="48.85392" lon="-0.4733">
        <ele>229.06667</ele>
        <time>2016-06-09T17:29:24Z</time>
      </trkpt>
      <trkpt lat="48.85408" lon="-0.47314">
        <ele>228.50476</ele>
        <time>2016-06-09T17:29:39Z</time>
      </trkpt>
      <trkpt lat="48.85411" lon="-0.47309">
        <ele>228.50476</ele>
        <time>2016-06-09T17:29:44Z</time>
      </trkpt>
      <trkpt lat="48.85418" lon="-0.47298">
        <ele>227.82048</ele>
        <time>2016-06-09T17:29:54Z</time>
      </trkpt>
      <trkpt lat="48.85423" lon="-0.47293">
        <ele>227.82048</ele>
        <time>2016-06-09T17:29:59Z</time>
      </trkpt>
      <trkpt lat="48.85437" lon="-0.47283">
        <ele>227.83269</ele>
        <time>2016-06-09T17:30:09Z</time>
      </trkpt>
      <trkpt lat="48.8544" lon="-0.47276">
        <ele>227.83269</ele>
        <time>2016-06-09T17:30:14Z</time>
      </trkpt>
      <trkpt lat="48.85443" lon="-0.47259">
        <ele>227.00679</ele>
        <time>2016-06-09T17:30:24Z</time>
      </trkpt>
      <trkpt lat="48.85445" lon="-0.47251">
        <ele>227.00679</ele>
        <time>2016-06-09T17:30:29Z</time>
      </trkpt>
      <trkpt lat="48.85447" lon="-0.47233">
        <ele>226.37302</ele>
        <time>2016-06-09T17:30:39Z</time>
      </trkpt>
      <trkpt lat="48.85445" lon="-0.47223">
        <ele>226.37302</ele>
        <time>2016-06-09T17:30:44Z</time>
      </trkpt>
      <trkpt lat="48.85434" lon="-0.47207">
        <ele>225.12723</ele>
        <time>2016-06-09T17:30:54Z</time>
      </trkpt>
      <trkpt lat="48.85433" lon="-0.47202">
        <ele>225.12723</ele>
        <time>2016-06-09T17:30:59Z</time>
      </trkpt>
      <trkpt lat="48.8542" lon="-0.47176">
        <ele>224.35614</ele>
        <time>2016-06-09T17:31:14Z</time>
      </trkpt>
      <trkpt lat="48.8542" lon="-0.47172">
        <ele>224.35614</ele>
        <time>2016-06-09T17:31:19Z</time>
      </trkpt>
      <trkpt lat="48.85414" lon="-0.4716">
        <ele>223.40802</ele>
        <time>2016-06-09T17:31:24Z</time>
      </trkpt>
      <trkpt lat="48.85413" lon="-0.47153">
        <ele>223.40802</ele>
        <time>2016-06-09T17:31:29Z</time>
      </trkpt>
      <trkpt lat="48.85412" lon="-0.47142">
        <ele>222.58727</ele>
        <time>2016-06-09T17:31:34Z</time>
      </trkpt>
      <trkpt lat="48.85411" lon="-0.47131">
        <ele>222.58727</ele>
        <time>2016-06-09T17:31:39Z</time>
      </trkpt>
      <trkpt lat="48.85413" lon="-0.4712">
        <ele>222.01698</ele>
        <time>2016-06-09T17:31:44Z</time>
      </trkpt>
      <trkpt lat="48.85415" lon="-0.47116">
        <ele>222.01698</ele>
        <time>2016-06-09T17:31:54Z</time>
      </trkpt>
      <trkpt lat="48.85415" lon="-0.47105">
        <ele>221.96896</ele>
        <time>2016-06-09T17:31:59Z</time>
      </trkpt>
      <trkpt lat="48.8542" lon="-0.47089">
        <ele>221.8</ele>
        <time>2016-06-09T17:32:09Z</time>
      </trkpt>
      <trkpt lat="48.85416" lon="-0.47084">
        <ele>221.8</ele>
        <time>2016-06-09T17:32:14Z</time>
      </trkpt>
      <trkpt lat="48.8542" lon="-0.47062">
        <ele>220.62616</ele>
        <time>2016-06-09T17:32:24Z</time>
      </trkpt>
      <trkpt lat="48.85424" lon="-0.47057">
        <ele>220.62616</ele>
        <time>2016-06-09T17:32:29Z</time>
      </trkpt>
      <trkpt lat="48.85433" lon="-0.47053">
        <ele>219.10112</ele>
        <time>2016-06-09T17:32:39Z</time>
      </trkpt>
      <trkpt lat="48.85436" lon="-0.47051">
        <ele>219.10112</ele>
        <time>2016-06-09T17:32:44Z</time>
      </trkpt>
      <trkpt lat="48.85452" lon="-0.47042">
        <ele>217.65851</ele>
        <time>2016-06-09T17:32:54Z</time>
      </trkpt>
      <trkpt lat="48.85457" lon="-0.47043">
        <ele>217.65851</ele>
        <time>2016-06-09T17:32:59Z</time>
      </trkpt>
      <trkpt lat="48.85468" lon="-0.47042">
        <ele>215.38835</ele>
        <time>2016-06-09T17:33:09Z</time>
      </trkpt>
      <trkpt lat="48.85474" lon="-0.47043">
        <ele>215.38835</ele>
        <time>2016-06-09T17:33:14Z</time>
      </trkpt>
      <trkpt lat="48.85504" lon="-0.47036">
        <ele>214.66344</ele>
        <time>2016-06-09T17:33:29Z</time>
      </trkpt>
      <trkpt lat="48.85506" lon="-0.47038">
        <ele>214.66344</ele>
        <time>2016-06-09T17:33:34Z</time>
      </trkpt>
      <trkpt lat="48.85512" lon="-0.47028">
        <ele>212.76364</ele>
        <time>2016-06-09T17:33:44Z</time>
      </trkpt>
      <trkpt lat="48.8551" lon="-0.47028">
        <ele>212.76364</ele>
        <time>2016-06-09T17:33:49Z</time>
      </trkpt>
      <trkpt lat="48.85513" lon="-0.47027">
        <ele>212.76364</ele>
        <time>2016-06-09T17:33:59Z</time>
      </trkpt>
      <trkpt lat="48.85521" lon="-0.47019">
        <ele>209.65054</ele>
        <time>2016-06-09T17:34:04Z</time>
      </trkpt>
      <trkpt lat="48.85539" lon="-0.47005">
        <ele>208.02992</ele>
        <time>2016-06-09T17:34:14Z</time>
      </trkpt>
      <trkpt lat="48.85547" lon="-0.46998">
        <ele>208.02992</ele>
        <time>2016-06-09T17:34:19Z</time>
      </trkpt>
      <trkpt lat="48.85557" lon="-0.46991">
        <ele>207.04675</ele>
        <time>2016-06-09T17:34:29Z</time>
      </trkpt>
      <trkpt lat="48.85566" lon="-0.46986">
        <ele>206.39684</ele>
        <time>2016-06-09T17:34:34Z</time>
      </trkpt>
      <trkpt lat="48.85576" lon="-0.46973">
        <ele>205.6964</ele>
        <time>2016-06-09T17:34:44Z</time>
      </trkpt>
      <trkpt lat="48.85579" lon="-0.46964">
        <ele>205.6964</ele>
        <time>2016-06-09T17:34:49Z</time>
      </trkpt>
      <trkpt lat="48.85586" lon="-0.46952">
        <ele>204.50343</ele>
        <time>2016-06-09T17:34:59Z</time>
      </trkpt>
      <trkpt lat="48.85591" lon="-0.46947">
        <ele>204.50343</ele>
        <time>2016-06-09T17:35:04Z</time>
      </trkpt>
      <trkpt lat="48.85597" lon="-0.46936">
        <ele>203.62016</ele>
        <time>2016-06-09T17:35:14Z</time>
      </trkpt>
      <trkpt lat="48.85601" lon="-0.46925">
        <ele>203.62016</ele>
        <time>2016-06-09T17:35:19Z</time>
      </trkpt>
      <trkpt lat="48.85609" lon="-0.46909">
        <ele>202.56401</ele>
        <time>2016-06-09T17:35:29Z</time>
      </trkpt>
      <trkpt lat="48.85607" lon="-0.46909">
        <ele>202.56401</ele>
        <time>2016-06-09T17:35:34Z</time>
      </trkpt>
      <trkpt lat="48.85604" lon="-0.4691">
        <ele>202.56401</ele>
        <time>2016-06-09T17:35:44Z</time>
      </trkpt>
      <trkpt lat="48.85604" lon="-0.4691">
        <ele>202.56401</ele>
        <time>2016-06-09T17:35:49Z</time>
      </trkpt>
      <trkpt lat="48.85603" lon="-0.4691">
        <ele>202.56401</ele>
        <time>2016-06-09T17:36:04Z</time>
      </trkpt>
      <trkpt lat="48.85603" lon="-0.4691">
        <ele>202.56401</ele>
        <time>2016-06-09T17:36:09Z</time>
      </trkpt>
      <trkpt lat="48.85603" lon="-0.4691">
        <ele>202.56401</ele>
        <time>2016-06-09T17:36:19Z</time>
      </trkpt>
      <trkpt lat="48.85603" lon="-0.4691">
        <ele>202.56401</ele>
        <time>2016-06-09T17:36:24Z</time>
      </trkpt>
      <trkpt lat="48.85603" lon="-0.4691">
        <ele>202.56401</ele>
        <time>2016-06-09T17:36:34Z</time>
      </trkpt>
      <trkpt lat="48.85603" lon="-0.46909">
        <ele>202.56401</ele>
        <time>2016-06-09T17:36:39Z</time>
      </trkpt>
      <trkpt lat="48.85603" lon="-0.46909">
        <ele>202.56401</ele>
        <time>2016-06-09T17:36:49Z</time>
      </trkpt>
      <trkpt lat="48.85603" lon="-0.46909">
        <ele>202.56401</ele>
        <time>2016-06-09T17:36:54Z</time>
      </trkpt>
      <trkpt lat="48.85604" lon="-0.46903">
        <ele>202.22841</ele>
        <time>2016-06-09T17:37:09Z</time>
      </trkpt>
      <trkpt lat="48.85605" lon="-0.469">
        <ele>202.22841</ele>
        <time>2016-06-09T17:37:14Z</time>
      </trkpt>
      <trkpt lat="48.85609" lon="-0.46884">
        <ele>201.24858</ele>
        <time>2016-06-09T17:37:24Z</time>
      </trkpt>
      <trkpt lat="48.85614" lon="-0.46875">
        <ele>201.24858</ele>
        <time>2016-06-09T17:37:29Z</time>
      </trkpt>
      <trkpt lat="48.85615" lon="-0.46856">
        <ele>200.03339</ele>
        <time>2016-06-09T17:37:39Z</time>
      </trkpt>
      <trkpt lat="48.85618" lon="-0.46849">
        <ele>200.03339</ele>
        <time>2016-06-09T17:37:44Z</time>
      </trkpt>
      <trkpt lat="48.85618" lon="-0.46836">
        <ele>199.22163</ele>
        <time>2016-06-09T17:37:49Z</time>
      </trkpt>
      <trkpt lat="48.85617" lon="-0.46825">
        <ele>199.22163</ele>
        <time>2016-06-09T17:37:54Z</time>
      </trkpt>
      <trkpt lat="48.85622" lon="-0.4681">
        <ele>198.43843</ele>
        <time>2016-06-09T17:38:04Z</time>
      </trkpt>
      <trkpt lat="48.85627" lon="-0.46804">
        <ele>198.43843</ele>
        <time>2016-06-09T17:38:09Z</time>
      </trkpt>
      <trkpt lat="48.85632" lon="-0.46784">
        <ele>197.3795</ele>
        <time>2016-06-09T17:38:19Z</time>
      </trkpt>
      <trkpt lat="48.85633" lon="-0.46776">
        <ele>197.3795</ele>
        <time>2016-06-09T17:38:24Z</time>
      </trkpt>
      <trkpt lat="48.85639" lon="-0.46761">
        <ele>197.06061</ele>
        <time>2016-06-09T17:38:34Z</time>
      </trkpt>
      <trkpt lat="48.8564" lon="-0.46754">
        <ele>197.06061</ele>
        <time>2016-06-09T17:38:39Z</time>
      </trkpt>
      <trkpt lat="48.85647" lon="-0.4674">
        <ele>196.23026</ele>
        <time>2016-06-09T17:38:49Z</time>
      </trkpt>
      <trkpt lat="48.8565" lon="-0.46731">
        <ele>196.23026</ele>
        <time>2016-06-09T17:38:54Z</time>
      </trkpt>
      <trkpt lat="48.8566" lon="-0.46702">
        <ele>195.8631</ele>
        <time>2016-06-09T17:39:09Z</time>
      </trkpt>
      <trkpt lat="48.85662" lon="-0.46694">
        <ele>195.8631</ele>
        <time>2016-06-09T17:39:14Z</time>
      </trkpt>
      <trkpt lat="48.8567" lon="-0.46676">
        <ele>195.53502</ele>
        <time>2016-06-09T17:39:24Z</time>
      </trkpt>
      <trkpt lat="48.85671" lon="-0.46668">
        <ele>195.53502</ele>
        <time>2016-06-09T17:39:29Z</time>
      </trkpt>
      <trkpt lat="48.85672" lon="-0.46655">
        <ele>194.16113</ele>
        <time>2016-06-09T17:39:39Z</time>
      </trkpt>
      <trkpt lat="48.85675" lon="-0.46645">
        <ele>194.16113</ele>
        <time>2016-06-09T17:39:44Z</time>
      </trkpt>
      <trkpt lat="48.85676" lon="-0.46635">
        <ele>193.20343</ele>
        <time>2016-06-09T17:39:49Z</time>
      </trkpt>
      <trkpt lat="48.85676" lon="-0.46625">
        <ele>193.20343</ele>
        <time>2016-06-09T17:39:54Z</time>
      </trkpt>
      <trkpt lat="48.85677" lon="-0.46617">
        <ele>192.6751</ele>
        <time>2016-06-09T17:39:59Z</time>
      </trkpt>
      <trkpt lat="48.85677" lon="-0.46607">
        <ele>192.6751</ele>
        <time>2016-06-09T17:40:04Z</time>
      </trkpt>
      <trkpt lat="48.85674" lon="-0.46602">
        <ele>191.89532</ele>
        <time>2016-06-09T17:40:14Z</time>
      </trkpt>
      <trkpt lat="48.85676" lon="-0.46596">
        <ele>191.89532</ele>
        <time>2016-06-09T17:40:19Z</time>
      </trkpt>
      <trkpt lat="48.85672" lon="-0.46573">
        <ele>191.17072</ele>
        <time>2016-06-09T17:40:29Z</time>
      </trkpt>
      <trkpt lat="48.85676" lon="-0.46561">
        <ele>191.17072</ele>
        <time>2016-06-09T17:40:34Z</time>
      </trkpt>
      <trkpt lat="48.85675" lon="-0.4655">
        <ele>189.89168</ele>
        <time>2016-06-09T17:40:39Z</time>
      </trkpt>
      <trkpt lat="48.85671" lon="-0.46544">
        <ele>189.89168</ele>
        <time>2016-06-09T17:40:44Z</time>
      </trkpt>
      <trkpt lat="48.85667" lon="-0.46532">
        <ele>188.59013</ele>
        <time>2016-06-09T17:40:49Z</time>
      </trkpt>
      <trkpt lat="48.85668" lon="-0.46522">
        <ele>188.59013</ele>
        <time>2016-06-09T17:40:54Z</time>
      </trkpt>
      <trkpt lat="48.85666" lon="-0.46509">
        <ele>188.10484</ele>
        <time>2016-06-09T17:40:59Z</time>
      </trkpt>
      <trkpt lat="48.85668" lon="-0.465">
        <ele>188.10484</ele>
        <time>2016-06-09T17:41:04Z</time>
      </trkpt>
      <trkpt lat="48.85666" lon="-0.46484">
        <ele>187.81277</ele>
        <time>2016-06-09T17:41:14Z</time>
      </trkpt>
      <trkpt lat="48.85671" lon="-0.46474">
        <ele>187.81277</ele>
        <time>2016-06-09T17:41:19Z</time>
      </trkpt>
      <trkpt lat="48.85673" lon="-0.4646">
        <ele>186.86226</ele>
        <time>2016-06-09T17:41:29Z</time>
      </trkpt>
      <trkpt lat="48.85676" lon="-0.46452">
        <ele>186.86226</ele>
        <time>2016-06-09T17:41:34Z</time>
      </trkpt>
      <trkpt lat="48.85683" lon="-0.46436">
        <ele>185.96474</ele>
        <time>2016-06-09T17:41:44Z</time>
      </trkpt>
      <trkpt lat="48.85687" lon="-0.46429">
        <ele>185.96474</ele>
        <time>2016-06-09T17:41:49Z</time>
      </trkpt>
      <trkpt lat="48.85696" lon="-0.4642">
        <ele>184.87137</ele>
        <time>2016-06-09T17:41:59Z</time>
      </trkpt>
      <trkpt lat="48.85704" lon="-0.46416">
        <ele>184.87137</ele>
        <time>2016-06-09T17:42:04Z</time>
      </trkpt>
      <trkpt lat="48.85717" lon="-0.46413">
        <ele>183.20798</ele>
        <time>2016-06-09T17:42:14Z</time>
      </trkpt>
      <trkpt lat="48.8572" lon="-0.4641">
        <ele>183.20798</ele>
        <time>2016-06-09T17:42:19Z</time>
      </trkpt>
      <trkpt lat="48.85734" lon="-0.46412">
        <ele>180.1683</ele>
        <time>2016-06-09T17:42:29Z</time>
      </trkpt>
      <trkpt lat="48.85737" lon="-0.46411">
        <ele>180.1683</ele>
        <time>2016-06-09T17:42:34Z</time>
      </trkpt>
      <trkpt lat="48.85747" lon="-0.46409">
        <ele>177.43022</ele>
        <time>2016-06-09T17:42:44Z</time>
      </trkpt>
      <trkpt lat="48.85753" lon="-0.46409">
        <ele>177.43022</ele>
        <time>2016-06-09T17:42:49Z</time>
      </trkpt>
      <trkpt lat="48.85759" lon="-0.46405">
        <ele>175.26483</ele>
        <time>2016-06-09T17:42:54Z</time>
      </trkpt>
      <trkpt lat="48.85763" lon="-0.464">
        <ele>175.26483</ele>
        <time>2016-06-09T17:42:59Z</time>
      </trkpt>
      <trkpt lat="48.85768" lon="-0.46388">
        <ele>173.59027</ele>
        <time>2016-06-09T17:43:09Z</time>
      </trkpt>
      <trkpt lat="48.85771" lon="-0.46382">
        <ele>173.59027</ele>
        <time>2016-06-09T17:43:14Z</time>
      </trkpt>
      <trkpt lat="48.85777" lon="-0.46365">
        <ele>172.90564</ele>
        <time>2016-06-09T17:43:24Z</time>
      </trkpt>
      <trkpt lat="48.85779" lon="-0.46356">
        <ele>172.90564</ele>
        <time>2016-06-09T17:43:29Z</time>
      </trkpt>
      <trkpt lat="48.85785" lon="-0.46341">
        <ele>172.31595</ele>
        <time>2016-06-09T17:43:39Z</time>
      </trkpt>
      <trkpt lat="48.85789" lon="-0.46332">
        <ele>172.31595</ele>
        <time>2016-06-09T17:43:44Z</time>
      </trkpt>
      <trkpt lat="48.858" lon="-0.46308">
        <ele>171.69774</ele>
        <time>2016-06-09T17:43:59Z</time>
      </trkpt>
      <trkpt lat="48.85801" lon="-0.46301">
        <ele>171.69774</ele>
        <time>2016-06-09T17:44:04Z</time>
      </trkpt>
      <trkpt lat="48.85805" lon="-0.46283">
        <ele>171.31139</ele>
        <time>2016-06-09T17:44:14Z</time>
      </trkpt>
      <trkpt lat="48.85807" lon="-0.46274">
        <ele>171.31139</ele>
        <time>2016-06-09T17:44:19Z</time>
      </trkpt>
      <trkpt lat="48.85811" lon="-0.46256">
        <ele>171.15244</ele>
        <time>2016-06-09T17:44:29Z</time>
      </trkpt>
      <trkpt lat="48.85812" lon="-0.46248">
        <ele>171.15244</ele>
        <time>2016-06-09T17:44:34Z</time>
      </trkpt>
      <trkpt lat="48.85817" lon="-0.46229">
        <ele>171.30255</ele>
        <time>2016-06-09T17:44:44Z</time>
      </trkpt>
      <trkpt lat="48.85818" lon="-0.4622">
        <ele>171.30255</ele>
        <time>2016-06-09T17:44:49Z</time>
      </trkpt>
      <trkpt lat="48.85823" lon="-0.46202">
        <ele>171.0295</ele>
        <time>2016-06-09T17:44:59Z</time>
      </trkpt>
      <trkpt lat="48.85823" lon="-0.46194">
        <ele>171.0295</ele>
        <time>2016-06-09T17:45:04Z</time>
      </trkpt>
      <trkpt lat="48.85823" lon="-0.46185">
        <ele>170.72243</ele>
        <time>2016-06-09T17:45:09Z</time>
      </trkpt>
      <trkpt lat="48.85826" lon="-0.46177">
        <ele>170.72243</ele>
        <time>2016-06-09T17:45:14Z</time>
      </trkpt>
      <trkpt lat="48.85825" lon="-0.4617">
        <ele>170.25204</ele>
        <time>2016-06-09T17:45:19Z</time>
      </trkpt>
      <trkpt lat="48.85823" lon="-0.46164">
        <ele>170.25204</ele>
        <time>2016-06-09T17:45:24Z</time>
      </trkpt>
      <trkpt lat="48.85823" lon="-0.46156">
        <ele>170.34923</ele>
        <time>2016-06-09T17:45:29Z</time>
      </trkpt>
      <trkpt lat="48.85822" lon="-0.4615">
        <ele>170.34923</ele>
        <time>2016-06-09T17:45:34Z</time>
      </trkpt>
      <trkpt lat="48.8582" lon="-0.46149">
        <ele>170.34923</ele>
        <time>2016-06-09T17:45:39Z</time>
      </trkpt>
      <trkpt lat="48.85819" lon="-0.46155">
        <ele>170.13321</ele>
        <time>2016-06-09T17:45:44Z</time>
      </trkpt>
      <trkpt lat="48.85819" lon="-0.46161">
        <ele>170.13321</ele>
        <time>2016-06-09T17:45:49Z</time>
      </trkpt>
      <trkpt lat="48.85817" lon="-0.46163">
        <ele>170.13321</ele>
        <time>2016-06-09T17:45:59Z</time>
      </trkpt>
      <trkpt lat="48.85818" lon="-0.46164">
        <ele>170.13321</ele>
        <time>2016-06-09T17:46:04Z</time>
      </trkpt>
      <trkpt lat="48.85817" lon="-0.46163">
        <ele>170.13321</ele>
        <time>2016-06-09T17:46:19Z</time>
      </trkpt>
      <trkpt lat="48.85813" lon="-0.46165">
        <ele>169.71112</ele>
        <time>2016-06-09T17:46:24Z</time>
      </trkpt>
      <trkpt lat="48.85797" lon="-0.46172">
        <ele>168.72168</ele>
        <time>2016-06-09T17:46:34Z</time>
      </trkpt>
      <trkpt lat="48.85791" lon="-0.46175">
        <ele>168.72168</ele>
        <time>2016-06-09T17:46:39Z</time>
      </trkpt>
      <trkpt lat="48.85785" lon="-0.46177">
        <ele>168.30168</ele>
        <time>2016-06-09T17:46:44Z</time>
      </trkpt>
      <trkpt lat="48.8578" lon="-0.46181">
        <ele>168.30168</ele>
        <time>2016-06-09T17:46:49Z</time>
      </trkpt>
      <trkpt lat="48.85776" lon="-0.46183">
        <ele>167.94644</ele>
        <time>2016-06-09T17:46:54Z</time>
      </trkpt>
      <trkpt lat="48.85772" lon="-0.46188">
        <ele>167.94644</ele>
        <time>2016-06-09T17:46:59Z</time>
      </trkpt>
      <trkpt lat="48.85766" lon="-0.46194">
        <ele>167.67819</ele>
        <time>2016-06-09T17:47:04Z</time>
      </trkpt>
      <trkpt lat="48.85765" lon="-0.46196">
        <ele>167.67819</ele>
        <time>2016-06-09T17:47:09Z</time>
      </trkpt>
      <trkpt lat="48.85765" lon="-0.46197">
        <ele>167.67819</ele>
        <time>2016-06-09T17:47:14Z</time>
      </trkpt>
      <trkpt lat="48.85764" lon="-0.46197">
        <ele>167.67819</ele>
        <time>2016-06-09T17:47:19Z</time>
      </trkpt>
      <trkpt lat="48.8576" lon="-0.46201">
        <ele>167.84877</ele>
        <time>2016-06-09T17:47:29Z</time>
      </trkpt>
      <trkpt lat="48.85754" lon="-0.46205">
        <ele>167.84877</ele>
        <time>2016-06-09T17:47:34Z</time>
      </trkpt>
      <trkpt lat="48.85742" lon="-0.46213">
        <ele>168.26414</ele>
        <time>2016-06-09T17:47:44Z</time>
      </trkpt>
      <trkpt lat="48.8574" lon="-0.46216">
        <ele>168.26414</ele>
        <time>2016-06-09T17:47:49Z</time>
      </trkpt>
      <trkpt lat="48.8573" lon="-0.46223">
        <ele>168.39809</ele>
        <time>2016-06-09T17:47:59Z</time>
      </trkpt>
      <trkpt lat="48.85724" lon="-0.46228">
        <ele>168.39809</ele>
        <time>2016-06-09T17:48:04Z</time>
      </trkpt>
      <trkpt lat="48.85712" lon="-0.46233">
        <ele>168.80142</ele>
        <time>2016-06-09T17:48:14Z</time>
      </trkpt>
      <trkpt lat="48.85707" lon="-0.46234">
        <ele>168.80142</ele>
        <time>2016-06-09T17:48:19Z</time>
      </trkpt>
      <trkpt lat="48.85696" lon="-0.4624">
        <ele>169.29208</ele>
        <time>2016-06-09T17:48:29Z</time>
      </trkpt>
      <trkpt lat="48.85691" lon="-0.46241">
        <ele>169.29208</ele>
        <time>2016-06-09T17:48:34Z</time>
      </trkpt>
      <trkpt lat="48.85681" lon="-0.46247">
        <ele>169.9462</ele>
        <time>2016-06-09T17:48:44Z</time>
      </trkpt>
      <trkpt lat="48.8568" lon="-0.46248">
        <ele>169.9462</ele>
        <time>2016-06-09T17:48:49Z</time>
      </trkpt>
      <trkpt lat="48.85668" lon="-0.46247">
        <ele>171.55447</ele>
        <time>2016-06-09T17:48:59Z</time>
      </trkpt>
      <trkpt lat="48.85663" lon="-0.46244">
        <ele>171.55447</ele>
        <time>2016-06-09T17:49:04Z</time>
      </trkpt>
      <trkpt lat="48.85661" lon="-0.46241">
        <ele>171.55447</ele>
        <time>2016-06-09T17:49:09Z</time>
      </trkpt>
      <trkpt lat="48.85654" lon="-0.46236">
        <ele>173.03114</ele>
        <time>2016-06-09T17:49:14Z</time>
      </trkpt>
      <trkpt lat="48.85647" lon="-0.46228">
        <ele>174.59558</ele>
        <time>2016-06-09T17:49:24Z</time>
      </trkpt>
      <trkpt lat="48.85641" lon="-0.46224">
        <ele>174.59558</ele>
        <time>2016-06-09T17:49:29Z</time>
      </trkpt>
      <trkpt lat="48.85625" lon="-0.46225">
        <ele>176.06181</ele>
        <time>2016-06-09T17:49:44Z</time>
      </trkpt>
      <trkpt lat="48.85618" lon="-0.46223">
        <ele>176.06181</ele>
        <time>2016-06-09T17:49:49Z</time>
      </trkpt>
      <trkpt lat="48.85605" lon="-0.46217">
        <ele>177.47412</ele>
        <time>2016-06-09T17:49:59Z</time>
      </trkpt>
      <trkpt lat="48.856" lon="-0.46211">
        <ele>177.47412</ele>
        <time>2016-06-09T17:50:04Z</time>
      </trkpt>
      <trkpt lat="48.85596" lon="-0.46195">
        <ele>178.28291</ele>
        <time>2016-06-09T17:50:14Z</time>
      </trkpt>
      <trkpt lat="48.85593" lon="-0.46186">
        <ele>178.28291</ele>
        <time>2016-06-09T17:50:19Z</time>
      </trkpt>
      <trkpt lat="48.85593" lon="-0.46167">
        <ele>179.72456</ele>
        <time>2016-06-09T17:50:29Z</time>
      </trkpt>
      <trkpt lat="48.85594" lon="-0.46159">
        <ele>179.72456</ele>
        <time>2016-06-09T17:50:34Z</time>
      </trkpt>
      <trkpt lat="48.85592" lon="-0.46153">
        <ele>180.98305</ele>
        <time>2016-06-09T17:50:39Z</time>
      </trkpt>
      <trkpt lat="48.85592" lon="-0.46147">
        <ele>180.98305</ele>
        <time>2016-06-09T17:50:44Z</time>
      </trkpt>
      <trkpt lat="48.85588" lon="-0.46139">
        <ele>182.0956</ele>
        <time>2016-06-09T17:50:49Z</time>
      </trkpt>
      <trkpt lat="48.85581" lon="-0.46124">
        <ele>183.03958</ele>
        <time>2016-06-09T17:50:59Z</time>
      </trkpt>
      <trkpt lat="48.85578" lon="-0.46116">
        <ele>183.03958</ele>
        <time>2016-06-09T17:51:04Z</time>
      </trkpt>
      <trkpt lat="48.85568" lon="-0.46096">
        <ele>184.11174</ele>
        <time>2016-06-09T17:51:19Z</time>
      </trkpt>
      <trkpt lat="48.85566" lon="-0.46088">
        <ele>184.11174</ele>
        <time>2016-06-09T17:51:24Z</time>
      </trkpt>
      <trkpt lat="48.85564" lon="-0.4607">
        <ele>185.31294</ele>
        <time>2016-06-09T17:51:34Z</time>
      </trkpt>
      <trkpt lat="48.85559" lon="-0.46065">
        <ele>185.31294</ele>
        <time>2016-06-09T17:51:39Z</time>
      </trkpt>
      <trkpt lat="48.85556" lon="-0.46054">
        <ele>186.05298</ele>
        <time>2016-06-09T17:51:49Z</time>
      </trkpt>
      <trkpt lat="48.85559" lon="-0.46047">
        <ele>186.05298</ele>
        <time>2016-06-09T17:51:54Z</time>
      </trkpt>
      <trkpt lat="48.85561" lon="-0.46028">
        <ele>186.86725</ele>
        <time>2016-06-09T17:52:04Z</time>
      </trkpt>
      <trkpt lat="48.85565" lon="-0.46021">
        <ele>186.86725</ele>
        <time>2016-06-09T17:52:09Z</time>
      </trkpt>
      <trkpt lat="48.85573" lon="-0.4601">
        <ele>186.56566</ele>
        <time>2016-06-09T17:52:19Z</time>
      </trkpt>
      <trkpt lat="48.85579" lon="-0.46002">
        <ele>186.56566</ele>
        <time>2016-06-09T17:52:24Z</time>
      </trkpt>
      <trkpt lat="48.85589" lon="-0.45995">
        <ele>186.10962</ele>
        <time>2016-06-09T17:52:34Z</time>
      </trkpt>
      <trkpt lat="48.85595" lon="-0.4599">
        <ele>186.10962</ele>
        <time>2016-06-09T17:52:39Z</time>
      </trkpt>
      <trkpt lat="48.85604" lon="-0.45979">
        <ele>185.85727</ele>
        <time>2016-06-09T17:52:49Z</time>
      </trkpt>
      <trkpt lat="48.8561" lon="-0.45974">
        <ele>185.85727</ele>
        <time>2016-06-09T17:52:54Z</time>
      </trkpt>
      <trkpt lat="48.85617" lon="-0.45963">
        <ele>185.63557</ele>
        <time>2016-06-09T17:53:04Z</time>
      </trkpt>
      <trkpt lat="48.85619" lon="-0.45956">
        <ele>185.63557</ele>
        <time>2016-06-09T17:53:09Z</time>
      </trkpt>
      <trkpt lat="48.85624" lon="-0.45952">
        <ele>185.37073</ele>
        <time>2016-06-09T17:53:19Z</time>
      </trkpt>
      <trkpt lat="48.85624" lon="-0.45952">
        <ele>185.37073</ele>
        <time>2016-06-09T17:53:24Z</time>
      </trkpt>
      <trkpt lat="48.85623" lon="-0.45955">
        <ele>185.37073</ele>
        <time>2016-06-09T17:53:39Z</time>
      </trkpt>
      <trkpt lat="48.85625" lon="-0.45952">
        <ele>185.37073</ele>
        <time>2016-06-09T17:53:44Z</time>
      </trkpt>
      <trkpt lat="48.85632" lon="-0.45936">
        <ele>185.09546</ele>
        <time>2016-06-09T17:53:54Z</time>
      </trkpt>
      <trkpt lat="48.85634" lon="-0.45925">
        <ele>185.09546</ele>
        <time>2016-06-09T17:53:59Z</time>
      </trkpt>
      <trkpt lat="48.8564" lon="-0.45908">
        <ele>184.68167</ele>
        <time>2016-06-09T17:54:09Z</time>
      </trkpt>
      <trkpt lat="48.85641" lon="-0.45897">
        <ele>184.68167</ele>
        <time>2016-06-09T17:54:14Z</time>
      </trkpt>
      <trkpt lat="48.85641" lon="-0.45886">
        <ele>184.52994</ele>
        <time>2016-06-09T17:54:19Z</time>
      </trkpt>
      <trkpt lat="48.85642" lon="-0.45877">
        <ele>184.52994</ele>
        <time>2016-06-09T17:54:24Z</time>
      </trkpt>
      <trkpt lat="48.85642" lon="-0.45867">
        <ele>184.62167</ele>
        <time>2016-06-09T17:54:29Z</time>
      </trkpt>
      <trkpt lat="48.85641" lon="-0.45857">
        <ele>184.62167</ele>
        <time>2016-06-09T17:54:34Z</time>
      </trkpt>
      <trkpt lat="48.8564" lon="-0.4585">
        <ele>184.57874</ele>
        <time>2016-06-09T17:54:39Z</time>
      </trkpt>
      <trkpt lat="48.8564" lon="-0.4584">
        <ele>184.57874</ele>
        <time>2016-06-09T17:54:44Z</time>
      </trkpt>
      <trkpt lat="48.85639" lon="-0.45822">
        <ele>184.61327</ele>
        <time>2016-06-09T17:54:54Z</time>
      </trkpt>
      <trkpt lat="48.85638" lon="-0.45809">
        <ele>184.61327</ele>
        <time>2016-06-09T17:54:59Z</time>
      </trkpt>
      <trkpt lat="48.85635" lon="-0.4579">
        <ele>184.82076</ele>
        <time>2016-06-09T17:55:09Z</time>
      </trkpt>
      <trkpt lat="48.85634" lon="-0.45779">
        <ele>184.82076</ele>
        <time>2016-06-09T17:55:14Z</time>
      </trkpt>
      <trkpt lat="48.85633" lon="-0.45766">
        <ele>184.23721</ele>
        <time>2016-06-09T17:55:24Z</time>
      </trkpt>
      <trkpt lat="48.85631" lon="-0.45754">
        <ele>184.23721</ele>
        <time>2016-06-09T17:55:29Z</time>
      </trkpt>
      <trkpt lat="48.85627" lon="-0.4574">
        <ele>183.68669</ele>
        <time>2016-06-09T17:55:39Z</time>
      </trkpt>
      <trkpt lat="48.85625" lon="-0.45731">
        <ele>183.68669</ele>
        <time>2016-06-09T17:55:44Z</time>
      </trkpt>
      <trkpt lat="48.85624" lon="-0.45708">
        <ele>183.41383</ele>
        <time>2016-06-09T17:55:54Z</time>
      </trkpt>
      <trkpt lat="48.85626" lon="-0.45702">
        <ele>183.41383</ele>
        <time>2016-06-09T17:55:59Z</time>
      </trkpt>
      <trkpt lat="48.85633" lon="-0.45677">
        <ele>183.63011</ele>
        <time>2016-06-09T17:56:09Z</time>
      </trkpt>
      <trkpt lat="48.85636" lon="-0.45665">
        <ele>183.63011</ele>
        <time>2016-06-09T17:56:14Z</time>
      </trkpt>
      <trkpt lat="48.85644" lon="-0.45649">
        <ele>182.06589</ele>
        <time>2016-06-09T17:56:29Z</time>
      </trkpt>
      <trkpt lat="48.85647" lon="-0.45643">
        <ele>182.06589</ele>
        <time>2016-06-09T17:56:34Z</time>
      </trkpt>
      <trkpt lat="48.85651" lon="-0.45619">
        <ele>180.4133</ele>
        <time>2016-06-09T17:56:44Z</time>
      </trkpt>
      <trkpt lat="48.85651" lon="-0.45613">
        <ele>180.4133</ele>
        <time>2016-06-09T17:56:49Z</time>
      </trkpt>
      <trkpt lat="48.85655" lon="-0.45612">
        <ele>180.4133</ele>
        <time>2016-06-09T17:56:59Z</time>
      </trkpt>
      <trkpt lat="48.85658" lon="-0.45614">
        <ele>178.48233</ele>
        <time>2016-06-09T17:57:04Z</time>
      </trkpt>
      <trkpt lat="48.85662" lon="-0.4561">
        <ele>178.48233</ele>
        <time>2016-06-09T17:57:14Z</time>
      </trkpt>
      <trkpt lat="48.85664" lon="-0.45601">
        <ele>176.31383</ele>
        <time>2016-06-09T17:57:19Z</time>
      </trkpt>
      <trkpt lat="48.85671" lon="-0.45586">
        <ele>173.65805</ele>
        <time>2016-06-09T17:57:29Z</time>
      </trkpt>
      <trkpt lat="48.85673" lon="-0.45579">
        <ele>173.65805</ele>
        <time>2016-06-09T17:57:34Z</time>
      </trkpt>
      <trkpt lat="48.85679" lon="-0.45561">
        <ele>171.88457</ele>
        <time>2016-06-09T17:57:44Z</time>
      </trkpt>
      <trkpt lat="48.85683" lon="-0.45551">
        <ele>171.88457</ele>
        <time>2016-06-09T17:57:49Z</time>
      </trkpt>
      <trkpt lat="48.85689" lon="-0.45538">
        <ele>170.47281</ele>
        <time>2016-06-09T17:57:59Z</time>
      </trkpt>
      <trkpt lat="48.85691" lon="-0.45528">
        <ele>170.47281</ele>
        <time>2016-06-09T17:58:04Z</time>
      </trkpt>
      <trkpt lat="48.85698" lon="-0.4551">
        <ele>169.0979</ele>
        <time>2016-06-09T17:58:19Z</time>
      </trkpt>
      <trkpt lat="48.85701" lon="-0.45505">
        <ele>169.0979</ele>
        <time>2016-06-09T17:58:24Z</time>
      </trkpt>
      <trkpt lat="48.85703" lon="-0.45502">
        <ele>169.0979</ele>
        <time>2016-06-09T17:58:29Z</time>
      </trkpt>
      <trkpt lat="48.85708" lon="-0.4549">
        <ele>167.28568</ele>
        <time>2016-06-09T17:58:34Z</time>
      </trkpt>
      <trkpt lat="48.85713" lon="-0.4548">
        <ele>167.28568</ele>
        <time>2016-06-09T17:58:39Z</time>
      </trkpt>
      <trkpt lat="48.85723" lon="-0.45461">
        <ele>165.86612</ele>
        <time>2016-06-09T17:58:49Z</time>
      </trkpt>
      <trkpt lat="48.85728" lon="-0.45451">
        <ele>165.86612</ele>
        <time>2016-06-09T17:58:54Z</time>
      </trkpt>
      <trkpt lat="48.85734" lon="-0.45435">
        <ele>165.04506</ele>
        <time>2016-06-09T17:59:04Z</time>
      </trkpt>
      <trkpt lat="48.85737" lon="-0.45428">
        <ele>165.04506</ele>
        <time>2016-06-09T17:59:09Z</time>
      </trkpt>
      <trkpt lat="48.85743" lon="-0.45417">
        <ele>163.33966</ele>
        <time>2016-06-09T17:59:19Z</time>
      </trkpt>
      <trkpt lat="48.85748" lon="-0.45411">
        <ele>163.33966</ele>
        <time>2016-06-09T17:59:24Z</time>
      </trkpt>
      <trkpt lat="48.85755" lon="-0.45394">
        <ele>161.59773</ele>
        <time>2016-06-09T17:59:34Z</time>
      </trkpt>
      <trkpt lat="48.85759" lon="-0.45386">
        <ele>161.59773</ele>
        <time>2016-06-09T17:59:39Z</time>
      </trkpt>
      <trkpt lat="48.85764" lon="-0.45373">
        <ele>159.45193</ele>
        <time>2016-06-09T17:59:49Z</time>
      </trkpt>
      <trkpt lat="48.85767" lon="-0.45365">
        <ele>159.45193</ele>
        <time>2016-06-09T17:59:54Z</time>
      </trkpt>
      <trkpt lat="48.85774" lon="-0.45345">
        <ele>158.36427</ele>
        <time>2016-06-09T18:00:09Z</time>
      </trkpt>
      <trkpt lat="48.85774" lon="-0.4534">
        <ele>158.36427</ele>
        <time>2016-06-09T18:00:14Z</time>
      </trkpt>
      <trkpt lat="48.85778" lon="-0.45325">
        <ele>157.27962</ele>
        <time>2016-06-09T18:00:24Z</time>
      </trkpt>
      <trkpt lat="48.85778" lon="-0.45327">
        <ele>157.27962</ele>
        <time>2016-06-09T18:00:29Z</time>
      </trkpt>
      <trkpt lat="48.85782" lon="-0.45322">
        <ele>157.27962</ele>
        <time>2016-06-09T18:00:34Z</time>
      </trkpt>
      <trkpt lat="48.85788" lon="-0.45309">
        <ele>155.4364</ele>
        <time>2016-06-09T18:00:44Z</time>
      </trkpt>
      <trkpt lat="48.8579" lon="-0.45303">
        <ele>155.4364</ele>
        <time>2016-06-09T18:00:49Z</time>
      </trkpt>
      <trkpt lat="48.85798" lon="-0.45291">
        <ele>154.11974</ele>
        <time>2016-06-09T18:01:04Z</time>
      </trkpt>
      <trkpt lat="48.85798" lon="-0.45285">
        <ele>154.11974</ele>
        <time>2016-06-09T18:01:09Z</time>
      </trkpt>
      <trkpt lat="48.85797" lon="-0.45281">
        <ele>154.11974</ele>
        <time>2016-06-09T18:01:19Z</time>
      </trkpt>
      <trkpt lat="48.85796" lon="-0.45278">
        <ele>154.11974</ele>
        <time>2016-06-09T18:01:24Z</time>
      </trkpt>
      <trkpt lat="48.85794" lon="-0.45276">
        <ele>152.24176</ele>
        <time>2016-06-09T18:01:34Z</time>
      </trkpt>
      <trkpt lat="48.8579" lon="-0.4527">
        <ele>152.24176</ele>
        <time>2016-06-09T18:01:39Z</time>
      </trkpt>
      <trkpt lat="48.85788" lon="-0.45265">
        <ele>150.95766</ele>
        <time>2016-06-09T18:01:49Z</time>
      </trkpt>
      <trkpt lat="48.85779" lon="-0.45257">
        <ele>149.43369</ele>
        <time>2016-06-09T18:01:54Z</time>
      </trkpt>
      <trkpt lat="48.85766" lon="-0.45241">
        <ele>148.26694</ele>
        <time>2016-06-09T18:02:04Z</time>
      </trkpt>
      <trkpt lat="48.85757" lon="-0.45232">
        <ele>147.27457</ele>
        <time>2016-06-09T18:02:09Z</time>
      </trkpt>
      <trkpt lat="48.85743" lon="-0.45216">
        <ele>146.60362</ele>
        <time>2016-06-09T18:02:19Z</time>
      </trkpt>
      <trkpt lat="48.85737" lon="-0.45209">
        <ele>146.60362</ele>
        <time>2016-06-09T18:02:24Z</time>
      </trkpt>
      <trkpt lat="48.85729" lon="-0.45205">
        <ele>145.19315</ele>
        <time>2016-06-09T18:02:34Z</time>
      </trkpt>
      <trkpt lat="48.85727" lon="-0.45204">
        <ele>145.19315</ele>
        <time>2016-06-09T18:02:39Z</time>
      </trkpt>
      <trkpt lat="48.85722" lon="-0.45203">
        <ele>145.19315</ele>
        <time>2016-06-09T18:02:44Z</time>
      </trkpt>
      <trkpt lat="48.85717" lon="-0.45201">
        <ele>143.37355</ele>
        <time>2016-06-09T18:02:49Z</time>
      </trkpt>
      <trkpt lat="48.85696" lon="-0.452">
        <ele>140.77467</ele>
        <time>2016-06-09T18:03:04Z</time>
      </trkpt>
      <trkpt lat="48.8569" lon="-0.45201">
        <ele>140.77467</ele>
        <time>2016-06-09T18:03:09Z</time>
      </trkpt>
      <trkpt lat="48.85682" lon="-0.45204">
        <ele>138.29495</ele>
        <time>2016-06-09T18:03:19Z</time>
      </trkpt>
      <trkpt lat="48.8568" lon="-0.452">
        <ele>138.29495</ele>
        <time>2016-06-09T18:03:24Z</time>
      </trkpt>
      <trkpt lat="48.85677" lon="-0.45194">
        <ele>138.29495</ele>
        <time>2016-06-09T18:03:34Z</time>
      </trkpt>
      <trkpt lat="48.85678" lon="-0.45195">
        <ele>138.29495</ele>
        <time>2016-06-09T18:03:39Z</time>
      </trkpt>
      <trkpt lat="48.85676" lon="-0.45192">
        <ele>137.05463</ele>
        <time>2016-06-09T18:03:49Z</time>
      </trkpt>
      <trkpt lat="48.85676" lon="-0.45191">
        <ele>137.05463</ele>
        <time>2016-06-09T18:03:54Z</time>
      </trkpt>
      <trkpt lat="48.85676" lon="-0.45192">
        <ele>137.05463</ele>
        <time>2016-06-09T18:04:04Z</time>
      </trkpt>
      <trkpt lat="48.85676" lon="-0.45192">
        <ele>137.05463</ele>
        <time>2016-06-09T18:04:09Z</time>
      </trkpt>
      <trkpt lat="48.85676" lon="-0.45192">
        <ele>137.05463</ele>
        <time>2016-06-09T18:04:19Z</time>
      </trkpt>
      <trkpt lat="48.85676" lon="-0.45192">
        <ele>137.05463</ele>
        <time>2016-06-09T18:04:24Z</time>
      </trkpt>
      <trkpt lat="48.85675" lon="-0.45191">
        <ele>137.05463</ele>
        <time>2016-06-09T18:04:34Z</time>
      </trkpt>
      <trkpt lat="48.85675" lon="-0.45187">
        <ele>137.05463</ele>
        <time>2016-06-09T18:04:39Z</time>
      </trkpt>
      <trkpt lat="48.85675" lon="-0.45172">
        <ele>135.00404</ele>
        <time>2016-06-09T18:04:54Z</time>
      </trkpt>
      <trkpt lat="48.85675" lon="-0.45167">
        <ele>135.00404</ele>
        <time>2016-06-09T18:04:59Z</time>
      </trkpt>
      <trkpt lat="48.85679" lon="-0.45157">
        <ele>132.89796</ele>
        <time>2016-06-09T18:05:09Z</time>
      </trkpt>
      <trkpt lat="48.85685" lon="-0.45152">
        <ele>132.89796</ele>
        <time>2016-06-09T18:05:14Z</time>
      </trkpt>
      <trkpt lat="48.85686" lon="-0.45152">
        <ele>132.89796</ele>
        <time>2016-06-09T18:05:24Z</time>
      </trkpt>
      <trkpt lat="48.8569" lon="-0.45149">
        <ele>131.56538</ele>
        <time>2016-06-09T18:05:29Z</time>
      </trkpt>
      <trkpt lat="48.85693" lon="-0.45147">
        <ele>131.56538</ele>
        <time>2016-06-09T18:05:34Z</time>
      </trkpt>
      <trkpt lat="48.85697" lon="-0.45142">
        <ele>131.56538</ele>
        <time>2016-06-09T18:05:39Z</time>
      </trkpt>
      <trkpt lat="48.85702" lon="-0.45134">
        <ele>130.72012</ele>
        <time>2016-06-09T18:05:44Z</time>
      </trkpt>
      <trkpt lat="48.85705" lon="-0.45132">
        <ele>130.72012</ele>
        <time>2016-06-09T18:05:49Z</time>
      </trkpt>
      <trkpt lat="48.85708" lon="-0.45126">
        <ele>130.72012</ele>
        <time>2016-06-09T18:05:54Z</time>
      </trkpt>
      <trkpt lat="48.85712" lon="-0.45123">
        <ele>129.62003</ele>
        <time>2016-06-09T18:05:59Z</time>
      </trkpt>
      <trkpt lat="48.85721" lon="-0.45111">
        <ele>127.7365</ele>
        <time>2016-06-09T18:06:09Z</time>
      </trkpt>
      <trkpt lat="48.85726" lon="-0.45109">
        <ele>127.7365</ele>
        <time>2016-06-09T18:06:14Z</time>
      </trkpt>
      <trkpt lat="48.85733" lon="-0.45109">
        <ele>126.38334</ele>
        <time>2016-06-09T18:06:24Z</time>
      </trkpt>
      <trkpt lat="48.8574" lon="-0.45102">
        <ele>126.38334</ele>
        <time>2016-06-09T18:06:29Z</time>
      </trkpt>
      <trkpt lat="48.85746" lon="-0.45098">
        <ele>125.20541</ele>
        <time>2016-06-09T18:06:39Z</time>
      </trkpt>
      <trkpt lat="48.85749" lon="-0.45093">
        <ele>125.20541</ele>
        <time>2016-06-09T18:06:44Z</time>
      </trkpt>
      <trkpt lat="48.85759" lon="-0.4509">
        <ele>125.58798</ele>
        <time>2016-06-09T18:06:54Z</time>
      </trkpt>
      <trkpt lat="48.85764" lon="-0.45085">
        <ele>125.58798</ele>
        <time>2016-06-09T18:06:59Z</time>
      </trkpt>
      <trkpt lat="48.85776" lon="-0.45072">
        <ele>126.76376</ele>
        <time>2016-06-09T18:07:14Z</time>
      </trkpt>
      <trkpt lat="48.85779" lon="-0.45067">
        <ele>126.76376</ele>
        <time>2016-06-09T18:07:19Z</time>
      </trkpt>
      <trkpt lat="48.85786" lon="-0.45054">
        <ele>128.61038</ele>
        <time>2016-06-09T18:07:29Z</time>
      </trkpt>
      <trkpt lat="48.8579" lon="-0.45047">
        <ele>128.61038</ele>
        <time>2016-06-09T18:07:34Z</time>
      </trkpt>
      <trkpt lat="48.85792" lon="-0.4504">
        <ele>130.36404</ele>
        <time>2016-06-09T18:07:39Z</time>
      </trkpt>
      <trkpt lat="48.85795" lon="-0.45034">
        <ele>130.36404</ele>
        <time>2016-06-09T18:07:44Z</time>
      </trkpt>
      <trkpt lat="48.85798" lon="-0.45026">
        <ele>131.95137</ele>
        <time>2016-06-09T18:07:49Z</time>
      </trkpt>
      <trkpt lat="48.85802" lon="-0.45019">
        <ele>131.95137</ele>
        <time>2016-06-09T18:07:54Z</time>
      </trkpt>
      <trkpt lat="48.85808" lon="-0.45002">
        <ele>133.92456</ele>
        <time>2016-06-09T18:08:04Z</time>
      </trkpt>
      <trkpt lat="48.85812" lon="-0.44996">
        <ele>133.92456</ele>
        <time>2016-06-09T18:08:09Z</time>
      </trkpt>
      <trkpt lat="48.85815" lon="-0.44979">
        <ele>135.75658</ele>
        <time>2016-06-09T18:08:19Z</time>
      </trkpt>
      <trkpt lat="48.85819" lon="-0.44969">
        <ele>135.75658</ele>
        <time>2016-06-09T18:08:24Z</time>
      </trkpt>
      <trkpt lat="48.85822" lon="-0.44954">
        <ele>137.83865</ele>
        <time>2016-06-09T18:08:34Z</time>
      </trkpt>
      <trkpt lat="48.85825" lon="-0.44946">
        <ele>137.83865</ele>
        <time>2016-06-09T18:08:39Z</time>
      </trkpt>
      <trkpt lat="48.85828" lon="-0.44932">
        <ele>139.79764</ele>
        <time>2016-06-09T18:08:49Z</time>
      </trkpt>
      <trkpt lat="48.8583" lon="-0.44926">
        <ele>139.79764</ele>
        <time>2016-06-09T18:08:54Z</time>
      </trkpt>
      <trkpt lat="48.85833" lon="-0.44918">
        <ele>141.6774</ele>
        <time>2016-06-09T18:08:59Z</time>
      </trkpt>
      <trkpt lat="48.85834" lon="-0.44908">
        <ele>141.6774</ele>
        <time>2016-06-09T18:09:04Z</time>
      </trkpt>
      <trkpt lat="48.85835" lon="-0.44902">
        <ele>143.46126</ele>
        <time>2016-06-09T18:09:09Z</time>
      </trkpt>
      <trkpt lat="48.85838" lon="-0.44893">
        <ele>143.46126</ele>
        <time>2016-06-09T18:09:14Z</time>
      </trkpt>
      <trkpt lat="48.8584" lon="-0.44885">
        <ele>145.39352</ele>
        <time>2016-06-09T18:09:19Z</time>
      </trkpt>
      <trkpt lat="48.85843" lon="-0.44876">
        <ele>145.39352</ele>
        <time>2016-06-09T18:09:24Z</time>
      </trkpt>
      <trkpt lat="48.85846" lon="-0.44869">
        <ele>147.45534</ele>
        <time>2016-06-09T18:09:29Z</time>
      </trkpt>
      <trkpt lat="48.85849" lon="-0.44859">
        <ele>147.45534</ele>
        <time>2016-06-09T18:09:34Z</time>
      </trkpt>
      <trkpt lat="48.85851" lon="-0.44853">
        <ele>149.6146</ele>
        <time>2016-06-09T18:09:39Z</time>
      </trkpt>
      <trkpt lat="48.85854" lon="-0.44844">
        <ele>149.6146</ele>
        <time>2016-06-09T18:09:44Z</time>
      </trkpt>
      <trkpt lat="48.85856" lon="-0.44838">
        <ele>151.40912</ele>
        <time>2016-06-09T18:09:49Z</time>
      </trkpt>
      <trkpt lat="48.85858" lon="-0.44831">
        <ele>151.40912</ele>
        <time>2016-06-09T18:09:54Z</time>
      </trkpt>
      <trkpt lat="48.85861" lon="-0.44825">
        <ele>152.78659</ele>
        <time>2016-06-09T18:09:59Z</time>
      </trkpt>
      <trkpt lat="48.85862" lon="-0.44819">
        <ele>152.78659</ele>
        <time>2016-06-09T18:10:04Z</time>
      </trkpt>
      <trkpt lat="48.85865" lon="-0.44811">
        <ele>153.98808</ele>
        <time>2016-06-09T18:10:09Z</time>
      </trkpt>
      <trkpt lat="48.8587" lon="-0.44793">
        <ele>155.26648</ele>
        <time>2016-06-09T18:10:24Z</time>
      </trkpt>
      <trkpt lat="48.85872" lon="-0.44785">
        <ele>155.26648</ele>
        <time>2016-06-09T18:10:29Z</time>
      </trkpt>
      <trkpt lat="48.85876" lon="-0.44768">
        <ele>156.6255</ele>
        <time>2016-06-09T18:10:39Z</time>
      </trkpt>
      <trkpt lat="48.85878" lon="-0.4476">
        <ele>156.6255</ele>
        <time>2016-06-09T18:10:44Z</time>
      </trkpt>
      <trkpt lat="48.85882" lon="-0.44745">
        <ele>158.03972</ele>
        <time>2016-06-09T18:10:54Z</time>
      </trkpt>
      <trkpt lat="48.85884" lon="-0.44738">
        <ele>158.03972</ele>
        <time>2016-06-09T18:10:59Z</time>
      </trkpt>
      <trkpt lat="48.85888" lon="-0.44723">
        <ele>159.39919</ele>
        <time>2016-06-09T18:11:09Z</time>
      </trkpt>
      <trkpt lat="48.8589" lon="-0.44715">
        <ele>159.39919</ele>
        <time>2016-06-09T18:11:14Z</time>
      </trkpt>
      <trkpt lat="48.85892" lon="-0.44701">
        <ele>160.90495</ele>
        <time>2016-06-09T18:11:24Z</time>
      </trkpt>
      <trkpt lat="48.85894" lon="-0.44693">
        <ele>160.90495</ele>
        <time>2016-06-09T18:11:29Z</time>
      </trkpt>
      <trkpt lat="48.85896" lon="-0.44678">
        <ele>162.32521</ele>
        <time>2016-06-09T18:11:39Z</time>
      </trkpt>
      <trkpt lat="48.85896" lon="-0.44669">
        <ele>162.32521</ele>
        <time>2016-06-09T18:11:44Z</time>
      </trkpt>
      <trkpt lat="48.85898" lon="-0.44651">
        <ele>163.73383</ele>
        <time>2016-06-09T18:11:54Z</time>
      </trkpt>
      <trkpt lat="48.85899" lon="-0.44642">
        <ele>163.73383</ele>
        <time>2016-06-09T18:11:59Z</time>
      </trkpt>
      <trkpt lat="48.85902" lon="-0.44619">
        <ele>165.04094</ele>
        <time>2016-06-09T18:12:14Z</time>
      </trkpt>
      <trkpt lat="48.85902" lon="-0.4461">
        <ele>165.04094</ele>
        <time>2016-06-09T18:12:19Z</time>
      </trkpt>
      <trkpt lat="48.85902" lon="-0.44594">
        <ele>166.45197</ele>
        <time>2016-06-09T18:12:29Z</time>
      </trkpt>
      <trkpt lat="48.85902" lon="-0.44585">
        <ele>166.45197</ele>
        <time>2016-06-09T18:12:34Z</time>
      </trkpt>
      <trkpt lat="48.85901" lon="-0.4457">
        <ele>167.6672</ele>
        <time>2016-06-09T18:12:44Z</time>
      </trkpt>
      <trkpt lat="48.85901" lon="-0.44562">
        <ele>167.6672</ele>
        <time>2016-06-09T18:12:49Z</time>
      </trkpt>
      <trkpt lat="48.859" lon="-0.44551">
        <ele>168.88524</ele>
        <time>2016-06-09T18:12:54Z</time>
      </trkpt>
      <trkpt lat="48.859" lon="-0.44543">
        <ele>168.88524</ele>
        <time>2016-06-09T18:12:59Z</time>
      </trkpt>
      <trkpt lat="48.859" lon="-0.44536">
        <ele>169.94434</ele>
        <time>2016-06-09T18:13:04Z</time>
      </trkpt>
      <trkpt lat="48.859" lon="-0.44528">
        <ele>169.94434</ele>
        <time>2016-06-09T18:13:09Z</time>
      </trkpt>
      <trkpt lat="48.859" lon="-0.44519">
        <ele>170.72415</ele>
        <time>2016-06-09T18:13:14Z</time>
      </trkpt>
      <trkpt lat="48.859" lon="-0.4451">
        <ele>170.72415</ele>
        <time>2016-06-09T18:13:19Z</time>
      </trkpt>
      <trkpt lat="48.859" lon="-0.44501">
        <ele>171.53203</ele>
        <time>2016-06-09T18:13:24Z</time>
      </trkpt>
      <trkpt lat="48.85901" lon="-0.44483">
        <ele>172.29251</ele>
        <time>2016-06-09T18:13:34Z</time>
      </trkpt>
      <trkpt lat="48.85901" lon="-0.44474">
        <ele>172.29251</ele>
        <time>2016-06-09T18:13:39Z</time>
      </trkpt>
      <trkpt lat="48.85901" lon="-0.44466">
        <ele>172.9072</ele>
        <time>2016-06-09T18:13:44Z</time>
      </trkpt>
      <trkpt lat="48.85902" lon="-0.44458">
        <ele>172.9072</ele>
        <time>2016-06-09T18:13:49Z</time>
      </trkpt>
      <trkpt lat="48.85902" lon="-0.44447">
        <ele>173.3863</ele>
        <time>2016-06-09T18:13:54Z</time>
      </trkpt>
      <trkpt lat="48.85902" lon="-0.4444">
        <ele>173.3863</ele>
        <time>2016-06-09T18:13:59Z</time>
      </trkpt>
      <trkpt lat="48.85901" lon="-0.44429">
        <ele>173.48044</ele>
        <time>2016-06-09T18:14:04Z</time>
      </trkpt>
      <trkpt lat="48.85902" lon="-0.44418">
        <ele>173.48044</ele>
        <time>2016-06-09T18:14:09Z</time>
      </trkpt>
      <trkpt lat="48.85901" lon="-0.44406">
        <ele>173.24794</ele>
        <time>2016-06-09T18:14:19Z</time>
      </trkpt>
      <trkpt lat="48.85901" lon="-0.44398">
        <ele>173.24794</ele>
        <time>2016-06-09T18:14:24Z</time>
      </trkpt>
      <trkpt lat="48.859" lon="-0.44377">
        <ele>173.33473</ele>
        <time>2016-06-09T18:14:34Z</time>
      </trkpt>
      <trkpt lat="48.859" lon="-0.44369">
        <ele>173.33473</ele>
        <time>2016-06-09T18:14:39Z</time>
      </trkpt>
      <trkpt lat="48.859" lon="-0.44363">
        <ele>173.41621</ele>
        <time>2016-06-09T18:14:44Z</time>
      </trkpt>
      <trkpt lat="48.859" lon="-0.44363">
        <ele>173.41621</ele>
        <time>2016-06-09T18:14:49Z</time>
      </trkpt>
      <trkpt lat="48.85901" lon="-0.44364">
        <ele>173.41621</ele>
        <time>2016-06-09T18:14:54Z</time>
      </trkpt>
      <trkpt lat="48.85901" lon="-0.4436">
        <ele>173.41621</ele>
        <time>2016-06-09T18:14:59Z</time>
      </trkpt>
      <trkpt lat="48.85903" lon="-0.44358">
        <ele>173.41621</ele>
        <time>2016-06-09T18:15:09Z</time>
      </trkpt>
      <trkpt lat="48.85904" lon="-0.44356">
        <ele>173.41621</ele>
        <time>2016-06-09T18:15:14Z</time>
      </trkpt>
      <trkpt lat="48.85903" lon="-0.44357">
        <ele>173.41621</ele>
        <time>2016-06-09T18:15:24Z</time>
      </trkpt>
      <trkpt lat="48.85903" lon="-0.44358">
        <ele>173.41621</ele>
        <time>2016-06-09T18:15:29Z</time>
      </trkpt>
      <trkpt lat="48.85904" lon="-0.4436">
        <ele>173.81137</ele>
        <time>2016-06-09T18:15:39Z</time>
      </trkpt>
      <trkpt lat="48.85904" lon="-0.4436">
        <ele>173.81137</ele>
        <time>2016-06-09T18:15:44Z</time>
      </trkpt>
      <trkpt lat="48.85904" lon="-0.4436">
        <ele>173.81137</ele>
        <time>2016-06-09T18:15:49Z</time>
      </trkpt>
      <trkpt lat="48.85905" lon="-0.44357">
        <ele>173.81137</ele>
        <time>2016-06-09T18:15:54Z</time>
      </trkpt>
      <trkpt lat="48.85904" lon="-0.44356">
        <ele>173.81137</ele>
        <time>2016-06-09T18:15:59Z</time>
      </trkpt>
      <trkpt lat="48.85904" lon="-0.44357">
        <ele>173.81137</ele>
        <time>2016-06-09T18:16:04Z</time>
      </trkpt>
      <trkpt lat="48.85902" lon="-0.44359">
        <ele>173.81137</ele>
        <time>2016-06-09T18:16:09Z</time>
      </trkpt>
      <trkpt lat="48.85902" lon="-0.44357">
        <ele>173.81137</ele>
        <time>2016-06-09T18:16:19Z</time>
      </trkpt>
      <trkpt lat="48.85903" lon="-0.44357">
        <ele>173.81137</ele>
        <time>2016-06-09T18:16:24Z</time>
      </trkpt>
      <trkpt lat="48.85903" lon="-0.44357">
        <ele>173.81137</ele>
        <time>2016-06-09T18:16:34Z</time>
      </trkpt>
      <trkpt lat="48.85903" lon="-0.44358">
        <ele>174.03677</ele>
        <time>2016-06-09T18:16:39Z</time>
      </trkpt>
      <trkpt lat="48.85904" lon="-0.44359">
        <ele>174.03677</ele>
        <time>2016-06-09T18:16:54Z</time>
      </trkpt>
      <trkpt lat="48.85904" lon="-0.44358">
        <ele>174.03677</ele>
        <time>2016-06-09T18:16:59Z</time>
      </trkpt>
      <trkpt lat="48.85904" lon="-0.44358">
        <ele>174.03677</ele>
        <time>2016-06-09T18:17:09Z</time>
      </trkpt>
      <trkpt lat="48.85904" lon="-0.44358">
        <ele>174.03677</ele>
        <time>2016-06-09T18:17:14Z</time>
      </trkpt>
      <trkpt lat="48.85904" lon="-0.44358">
        <ele>174.03677</ele>
        <time>2016-06-09T18:17:24Z</time>
      </trkpt>
      <trkpt lat="48.85903" lon="-0.44357">
        <ele>174.03677</ele>
        <time>2016-06-09T18:17:29Z</time>
      </trkpt>
      <trkpt lat="48.85903" lon="-0.44358">
        <ele>174.03677</ele>
        <time>2016-06-09T18:17:39Z</time>
      </trkpt>
      <trkpt lat="48.85903" lon="-0.44358">
        <ele>174.03677</ele>
        <time>2016-06-09T18:17:44Z</time>
      </trkpt>
      <trkpt lat="48.85903" lon="-0.44358">
        <ele>174.03677</ele>
        <time>2016-06-09T18:17:54Z</time>
      </trkpt>
      <trkpt lat="48.85903" lon="-0.44358">
        <ele>174.03677</ele>
        <time>2016-06-09T18:17:59Z</time>
      </trkpt>
      <trkpt lat="48.85903" lon="-0.44357">
        <ele>174.03677</ele>
        <time>2016-06-09T18:18:09Z</time>
      </trkpt>
      <trkpt lat="48.85901" lon="-0.44357">
        <ele>174.03677</ele>
        <time>2016-06-09T18:18:14Z</time>
      </trkpt>
      <trkpt lat="48.85902" lon="-0.44356">
        <ele>174.03677</ele>
        <time>2016-06-09T18:18:24Z</time>
      </trkpt>
      <trkpt lat="48.85902" lon="-0.44355">
        <ele>174.03677</ele>
        <time>2016-06-09T18:18:29Z</time>
      </trkpt>
      <trkpt lat="48.85902" lon="-0.44357">
        <ele>174.03677</ele>
        <time>2016-06-09T18:18:44Z</time>
      </trkpt>
      <trkpt lat="48.85903" lon="-0.44355">
        <ele>174.26471</ele>
        <time>2016-06-09T18:18:49Z</time>
      </trkpt>
      <trkpt lat="48.85901" lon="-0.44354">
        <ele>174.26471</ele>
        <time>2016-06-09T18:18:59Z</time>
      </trkpt>
      <trkpt lat="48.85901" lon="-0.44355">
        <ele>174.26471</ele>
        <time>2016-06-09T18:19:04Z</time>
      </trkpt>
      <trkpt lat="48.85901" lon="-0.44355">
        <ele>174.26471</ele>
        <time>2016-06-09T18:19:14Z</time>
      </trkpt>
      <trkpt lat="48.85901" lon="-0.44355">
        <ele>174.26471</ele>
        <time>2016-06-09T18:19:19Z</time>
      </trkpt>
      <trkpt lat="48.85901" lon="-0.44349">
        <ele>174.26471</ele>
        <time>2016-06-09T18:19:29Z</time>
      </trkpt>
      <trkpt lat="48.85904" lon="-0.44343">
        <ele>174.19373</ele>
        <time>2016-06-09T18:19:34Z</time>
      </trkpt>
      <trkpt lat="48.85906" lon="-0.44326">
        <ele>174.35239</ele>
        <time>2016-06-09T18:19:44Z</time>
      </trkpt>
      <trkpt lat="48.85906" lon="-0.44317">
        <ele>174.35239</ele>
        <time>2016-06-09T18:19:49Z</time>
      </trkpt>
      <trkpt lat="48.85905" lon="-0.44309">
        <ele>174.29314</ele>
        <time>2016-06-09T18:19:54Z</time>
      </trkpt>
      <trkpt lat="48.85905" lon="-0.443">
        <ele>174.29314</ele>
        <time>2016-06-09T18:19:59Z</time>
      </trkpt>
      <trkpt lat="48.85903" lon="-0.44292">
        <ele>174.09189</ele>
        <time>2016-06-09T18:20:04Z</time>
      </trkpt>
      <trkpt lat="48.859" lon="-0.44283">
        <ele>174.09189</ele>
        <time>2016-06-09T18:20:09Z</time>
      </trkpt>
      <trkpt lat="48.85896" lon="-0.44266">
        <ele>173.63205</ele>
        <time>2016-06-09T18:20:19Z</time>
      </trkpt>
      <trkpt lat="48.85893" lon="-0.44257">
        <ele>173.63205</ele>
        <time>2016-06-09T18:20:24Z</time>
      </trkpt>
      <trkpt lat="48.85889" lon="-0.44251">
        <ele>173.13783</ele>
        <time>2016-06-09T18:20:29Z</time>
      </trkpt>
      <trkpt lat="48.85887" lon="-0.44244">
        <ele>173.13783</ele>
        <time>2016-06-09T18:20:34Z</time>
      </trkpt>
      <trkpt lat="48.85885" lon="-0.44241">
        <ele>173.13783</ele>
        <time>2016-06-09T18:20:39Z</time>
      </trkpt>
      <trkpt lat="48.85881" lon="-0.44233">
        <ele>172.0532</ele>
        <time>2016-06-09T18:20:44Z</time>
      </trkpt>
      <trkpt lat="48.85877" lon="-0.44227">
        <ele>172.0532</ele>
        <time>2016-06-09T18:20:49Z</time>
      </trkpt>
      <trkpt lat="48.85869" lon="-0.4421">
        <ele>170.80142</ele>
        <time>2016-06-09T18:20:59Z</time>
      </trkpt>
      <trkpt lat="48.85868" lon="-0.442">
        <ele>170.80142</ele>
        <time>2016-06-09T18:21:04Z</time>
      </trkpt>
      <trkpt lat="48.85873" lon="-0.44186">
        <ele>169.32828</ele>
        <time>2016-06-09T18:21:14Z</time>
      </trkpt>
      <trkpt lat="48.85873" lon="-0.4418">
        <ele>169.32828</ele>
        <time>2016-06-09T18:21:19Z</time>
      </trkpt>
      <trkpt lat="48.85875" lon="-0.44155">
        <ele>168.83795</ele>
        <time>2016-06-09T18:21:29Z</time>
      </trkpt>
      <trkpt lat="48.85877" lon="-0.44148">
        <ele>168.83795</ele>
        <time>2016-06-09T18:21:34Z</time>
      </trkpt>
      <trkpt lat="48.85871" lon="-0.44134">
        <ele>168.39696</ele>
        <time>2016-06-09T18:21:44Z</time>
      </trkpt>
      <trkpt lat="48.85864" lon="-0.44128">
        <ele>168.39696</ele>
        <time>2016-06-09T18:21:49Z</time>
      </trkpt>
      <trkpt lat="48.85861" lon="-0.44127">
        <ele>167.97601</ele>
        <time>2016-06-09T18:21:54Z</time>
      </trkpt>
      <trkpt lat="48.85856" lon="-0.44125">
        <ele>167.97601</ele>
        <time>2016-06-09T18:21:59Z</time>
      </trkpt>
      <trkpt lat="48.85851" lon="-0.44125">
        <ele>167.92256</ele>
        <time>2016-06-09T18:22:04Z</time>
      </trkpt>
      <trkpt lat="48.85845" lon="-0.44125">
        <ele>167.92256</ele>
        <time>2016-06-09T18:22:09Z</time>
      </trkpt>
      <trkpt lat="48.85841" lon="-0.44124">
        <ele>168.19716</ele>
        <time>2016-06-09T18:22:14Z</time>
      </trkpt>
      <trkpt lat="48.85827" lon="-0.44122">
        <ele>168.94962</ele>
        <time>2016-06-09T18:22:24Z</time>
      </trkpt>
      <trkpt lat="48.8582" lon="-0.44122">
        <ele>168.94962</ele>
        <time>2016-06-09T18:22:29Z</time>
      </trkpt>
      <trkpt lat="48.8581" lon="-0.44121">
        <ele>169.49586</ele>
        <time>2016-06-09T18:22:39Z</time>
      </trkpt>
      <trkpt lat="48.85806" lon="-0.44119">
        <ele>169.49586</ele>
        <time>2016-06-09T18:22:44Z</time>
      </trkpt>
      <trkpt lat="48.85804" lon="-0.44117">
        <ele>169.49586</ele>
        <time>2016-06-09T18:22:49Z</time>
      </trkpt>
      <trkpt lat="48.85803" lon="-0.44115">
        <ele>169.49586</ele>
        <time>2016-06-09T18:22:54Z</time>
      </trkpt>
      <trkpt lat="48.85803" lon="-0.44114">
        <ele>169.75027</ele>
        <time>2016-06-09T18:22:59Z</time>
      </trkpt>
      <trkpt lat="48.85805" lon="-0.44115">
        <ele>169.75027</ele>
        <time>2016-06-09T18:23:09Z</time>
      </trkpt>
      <trkpt lat="48.85804" lon="-0.44107">
        <ele>169.75027</ele>
        <time>2016-06-09T18:23:14Z</time>
      </trkpt>
      <trkpt lat="48.85804" lon="-0.44089">
        <ele>169.90802</ele>
        <time>2016-06-09T18:23:24Z</time>
      </trkpt>
      <trkpt lat="48.85805" lon="-0.44085">
        <ele>169.90802</ele>
        <time>2016-06-09T18:23:29Z</time>
      </trkpt>
      <trkpt lat="48.85802" lon="-0.44063">
        <ele>170.00609</ele>
        <time>2016-06-09T18:23:39Z</time>
      </trkpt>
      <trkpt lat="48.858" lon="-0.44054">
        <ele>170.00609</ele>
        <time>2016-06-09T18:23:44Z</time>
      </trkpt>
      <trkpt lat="48.85798" lon="-0.44035">
        <ele>170.22295</ele>
        <time>2016-06-09T18:23:54Z</time>
      </trkpt>
      <trkpt lat="48.85796" lon="-0.44026">
        <ele>170.22295</ele>
        <time>2016-06-09T18:23:59Z</time>
      </trkpt>
      <trkpt lat="48.85795" lon="-0.44017">
        <ele>170.19035</ele>
        <time>2016-06-09T18:24:04Z</time>
      </trkpt>
      <trkpt lat="48.85794" lon="-0.44008">
        <ele>170.19035</ele>
        <time>2016-06-09T18:24:09Z</time>
      </trkpt>
      <trkpt lat="48.85792" lon="-0.44001">
        <ele>170.01454</ele>
        <time>2016-06-09T18:24:14Z</time>
      </trkpt>
      <trkpt lat="48.85792" lon="-0.43991">
        <ele>170.01454</ele>
        <time>2016-06-09T18:24:19Z</time>
      </trkpt>
      <trkpt lat="48.8579" lon="-0.43983">
        <ele>169.79422</ele>
        <time>2016-06-09T18:24:24Z</time>
      </trkpt>
      <trkpt lat="48.85789" lon="-0.43971">
        <ele>169.79422</ele>
        <time>2016-06-09T18:24:29Z</time>
      </trkpt>
      <trkpt lat="48.85787" lon="-0.43962">
        <ele>169.33278</ele>
        <time>2016-06-09T18:24:34Z</time>
      </trkpt>
      <trkpt lat="48.85786" lon="-0.43954">
        <ele>169.33278</ele>
        <time>2016-06-09T18:24:39Z</time>
      </trkpt>
      <trkpt lat="48.85786" lon="-0.43944">
        <ele>168.79446</ele>
        <time>2016-06-09T18:24:44Z</time>
      </trkpt>
      <trkpt lat="48.85784" lon="-0.43935">
        <ele>168.79446</ele>
        <time>2016-06-09T18:24:49Z</time>
      </trkpt>
      <trkpt lat="48.85782" lon="-0.43926">
        <ele>168.14432</ele>
        <time>2016-06-09T18:24:54Z</time>
      </trkpt>
      <trkpt lat="48.8578" lon="-0.43918">
        <ele>168.14432</ele>
        <time>2016-06-09T18:24:59Z</time>
      </trkpt>
      <trkpt lat="48.85777" lon="-0.43901">
        <ele>167.5231</ele>
        <time>2016-06-09T18:25:09Z</time>
      </trkpt>
      <trkpt lat="48.85775" lon="-0.43892">
        <ele>167.5231</ele>
        <time>2016-06-09T18:25:14Z</time>
      </trkpt>
      <trkpt lat="48.85772" lon="-0.43875">
        <ele>166.93141</ele>
        <time>2016-06-09T18:25:24Z</time>
      </trkpt>
      <trkpt lat="48.8577" lon="-0.43866">
        <ele>166.93141</ele>
        <time>2016-06-09T18:25:29Z</time>
      </trkpt>
      <trkpt lat="48.85765" lon="-0.43849">
        <ele>166.26877</ele>
        <time>2016-06-09T18:25:39Z</time>
      </trkpt>
      <trkpt lat="48.85762" lon="-0.43841">
        <ele>166.26877</ele>
        <time>2016-06-09T18:25:44Z</time>
      </trkpt>
      <trkpt lat="48.85757" lon="-0.43823">
        <ele>165.61511</ele>
        <time>2016-06-09T18:25:54Z</time>
      </trkpt>
      <trkpt lat="48.85755" lon="-0.43815">
        <ele>165.61511</ele>
        <time>2016-06-09T18:25:59Z</time>
      </trkpt>
      <trkpt lat="48.85749" lon="-0.43796">
        <ele>164.88593</ele>
        <time>2016-06-09T18:26:09Z</time>
      </trkpt>
      <trkpt lat="48.85747" lon="-0.43788">
        <ele>164.88593</ele>
        <time>2016-06-09T18:26:14Z</time>
      </trkpt>
      <trkpt lat="48.85742" lon="-0.43772">
        <ele>164.24799</ele>
        <time>2016-06-09T18:26:24Z</time>
      </trkpt>
      <trkpt lat="48.85739" lon="-0.43763">
        <ele>164.24799</ele>
        <time>2016-06-09T18:26:29Z</time>
      </trkpt>
      <trkpt lat="48.85735" lon="-0.43745">
        <ele>163.53848</ele>
        <time>2016-06-09T18:26:39Z</time>
      </trkpt>
      <trkpt lat="48.85733" lon="-0.43737">
        <ele>163.53848</ele>
        <time>2016-06-09T18:26:44Z</time>
      </trkpt>
      <trkpt lat="48.8573" lon="-0.43721">
        <ele>162.64986</ele>
        <time>2016-06-09T18:26:54Z</time>
      </trkpt>
      <trkpt lat="48.85728" lon="-0.43711">
        <ele>162.64986</ele>
        <time>2016-06-09T18:26:59Z</time>
      </trkpt>
      <trkpt lat="48.85725" lon="-0.43695">
        <ele>161.67029</ele>
        <time>2016-06-09T18:27:09Z</time>
      </trkpt>
      <trkpt lat="48.85724" lon="-0.43687">
        <ele>161.67029</ele>
        <time>2016-06-09T18:27:14Z</time>
      </trkpt>
      <trkpt lat="48.85722" lon="-0.43679">
        <ele>160.47984</ele>
        <time>2016-06-09T18:27:19Z</time>
      </trkpt>
      <trkpt lat="48.85721" lon="-0.43669">
        <ele>160.47984</ele>
        <time>2016-06-09T18:27:24Z</time>
      </trkpt>
      <trkpt lat="48.8572" lon="-0.4366">
        <ele>159.25615</ele>
        <time>2016-06-09T18:27:29Z</time>
      </trkpt>
      <trkpt lat="48.85722" lon="-0.4365">
        <ele>159.25615</ele>
        <time>2016-06-09T18:27:34Z</time>
      </trkpt>
      <trkpt lat="48.85724" lon="-0.43647">
        <ele>157.54408</ele>
        <time>2016-06-09T18:27:39Z</time>
      </trkpt>
      <trkpt lat="48.85728" lon="-0.43639">
        <ele>157.54408</ele>
        <time>2016-06-09T18:27:44Z</time>
      </trkpt>
      <trkpt lat="48.85731" lon="-0.43628">
        <ele>155.73027</ele>
        <time>2016-06-09T18:27:49Z</time>
      </trkpt>
      <trkpt lat="48.85737" lon="-0.43616">
        <ele>153.42374</ele>
        <time>2016-06-09T18:27:59Z</time>
      </trkpt>
      <trkpt lat="48.85739" lon="-0.43611">
        <ele>153.42374</ele>
        <time>2016-06-09T18:28:04Z</time>
      </trkpt>
      <trkpt lat="48.85749" lon="-0.43595">
        <ele>150.76788</ele>
        <time>2016-06-09T18:28:14Z</time>
      </trkpt>
      <trkpt lat="48.85752" lon="-0.43587">
        <ele>150.76788</ele>
        <time>2016-06-09T18:28:19Z</time>
      </trkpt>
      <trkpt lat="48.85757" lon="-0.43578">
        <ele>148.7611</ele>
        <time>2016-06-09T18:28:29Z</time>
      </trkpt>
      <trkpt lat="48.85761" lon="-0.43566">
        <ele>147.02948</ele>
        <time>2016-06-09T18:28:34Z</time>
      </trkpt>
      <trkpt lat="48.85768" lon="-0.43553">
        <ele>145.48509</ele>
        <time>2016-06-09T18:28:44Z</time>
      </trkpt>
      <trkpt lat="48.85771" lon="-0.43545">
        <ele>145.48509</ele>
        <time>2016-06-09T18:28:49Z</time>
      </trkpt>
      <trkpt lat="48.85782" lon="-0.43532">
        <ele>144.49254</ele>
        <time>2016-06-09T18:28:59Z</time>
      </trkpt>
      <trkpt lat="48.85784" lon="-0.43525">
        <ele>144.49254</ele>
        <time>2016-06-09T18:29:04Z</time>
      </trkpt>
      <trkpt lat="48.85793" lon="-0.43512">
        <ele>143.68178</ele>
        <time>2016-06-09T18:29:14Z</time>
      </trkpt>
      <trkpt lat="48.85797" lon="-0.43503">
        <ele>143.68178</ele>
        <time>2016-06-09T18:29:19Z</time>
      </trkpt>
      <trkpt lat="48.85803" lon="-0.43502">
        <ele>142.95435</ele>
        <time>2016-06-09T18:29:29Z</time>
      </trkpt>
      <trkpt lat="48.85803" lon="-0.43499">
        <ele>142.95435</ele>
        <time>2016-06-09T18:29:34Z</time>
      </trkpt>
      <trkpt lat="48.85805" lon="-0.43492">
        <ele>142.95435</ele>
        <time>2016-06-09T18:29:44Z</time>
      </trkpt>
      <trkpt lat="48.85808" lon="-0.43485">
        <ele>142.08891</ele>
        <time>2016-06-09T18:29:49Z</time>
      </trkpt>
      <trkpt lat="48.8582" lon="-0.43468">
        <ele>141.06802</ele>
        <time>2016-06-09T18:30:04Z</time>
      </trkpt>
      <trkpt lat="48.85821" lon="-0.43466">
        <ele>141.06802</ele>
        <time>2016-06-09T18:30:09Z</time>
      </trkpt>
      <trkpt lat="48.8583" lon="-0.43457">
        <ele>140.42345</ele>
        <time>2016-06-09T18:30:19Z</time>
      </trkpt>
      <trkpt lat="48.8583" lon="-0.43448">
        <ele>140.42345</ele>
        <time>2016-06-09T18:30:24Z</time>
      </trkpt>
      <trkpt lat="48.85838" lon="-0.43435">
        <ele>139.465</ele>
        <time>2016-06-09T18:30:34Z</time>
      </trkpt>
      <trkpt lat="48.85842" lon="-0.43428">
        <ele>139.465</ele>
        <time>2016-06-09T18:30:39Z</time>
      </trkpt>
      <trkpt lat="48.85849" lon="-0.43417">
        <ele>138.1016</ele>
        <time>2016-06-09T18:30:49Z</time>
      </trkpt>
      <trkpt lat="48.85853" lon="-0.43411">
        <ele>138.1016</ele>
        <time>2016-06-09T18:30:54Z</time>
      </trkpt>
      <trkpt lat="48.85863" lon="-0.434">
        <ele>136.75429</ele>
        <time>2016-06-09T18:31:04Z</time>
      </trkpt>
      <trkpt lat="48.85868" lon="-0.43391">
        <ele>136.75429</ele>
        <time>2016-06-09T18:31:09Z</time>
      </trkpt>
      <trkpt lat="48.85873" lon="-0.43385">
        <ele>135.62567</ele>
        <time>2016-06-09T18:31:14Z</time>
      </trkpt>
      <trkpt lat="48.85876" lon="-0.43381">
        <ele>135.62567</ele>
        <time>2016-06-09T18:31:19Z</time>
      </trkpt>
      <trkpt lat="48.85881" lon="-0.43375">
        <ele>134.74425</ele>
        <time>2016-06-09T18:31:24Z</time>
      </trkpt>
      <trkpt lat="48.85889" lon="-0.43361">
        <ele>133.63124</ele>
        <time>2016-06-09T18:31:34Z</time>
      </trkpt>
      <trkpt lat="48.85893" lon="-0.43357">
        <ele>133.63124</ele>
        <time>2016-06-09T18:31:39Z</time>
      </trkpt>
      <trkpt lat="48.85903" lon="-0.43345">
        <ele>132.66504</ele>
        <time>2016-06-09T18:31:49Z</time>
      </trkpt>
      <trkpt lat="48.85908" lon="-0.4334">
        <ele>132.66504</ele>
        <time>2016-06-09T18:31:54Z</time>
      </trkpt>
      <trkpt lat="48.85918" lon="-0.43328">
        <ele>131.5328</ele>
        <time>2016-06-09T18:32:04Z</time>
      </trkpt>
      <trkpt lat="48.85917" lon="-0.43327">
        <ele>131.5328</ele>
        <time>2016-06-09T18:32:09Z</time>
      </trkpt>
      <trkpt lat="48.85924" lon="-0.43313">
        <ele>130.36305</ele>
        <time>2016-06-09T18:32:19Z</time>
      </trkpt>
      <trkpt lat="48.85929" lon="-0.43308">
        <ele>130.36305</ele>
        <time>2016-06-09T18:32:24Z</time>
      </trkpt>
      <trkpt lat="48.85938" lon="-0.43294">
        <ele>128.69835</ele>
        <time>2016-06-09T18:32:34Z</time>
      </trkpt>
      <trkpt lat="48.85942" lon="-0.43288">
        <ele>128.69835</ele>
        <time>2016-06-09T18:32:39Z</time>
      </trkpt>
      <trkpt lat="48.85951" lon="-0.43276">
        <ele>127.25473</ele>
        <time>2016-06-09T18:32:49Z</time>
      </trkpt>
      <trkpt lat="48.85954" lon="-0.43269">
        <ele>127.25473</ele>
        <time>2016-06-09T18:32:54Z</time>
      </trkpt>
      <trkpt lat="48.8596" lon="-0.43255">
        <ele>125.614044</ele>
        <time>2016-06-09T18:33:04Z</time>
      </trkpt>
      <trkpt lat="48.85963" lon="-0.43249">
        <ele>125.614044</ele>
        <time>2016-06-09T18:33:09Z</time>
      </trkpt>
      <trkpt lat="48.8597" lon="-0.43236">
        <ele>123.80729</ele>
        <time>2016-06-09T18:33:19Z</time>
      </trkpt>
      <trkpt lat="48.85973" lon="-0.4323">
        <ele>123.80729</ele>
        <time>2016-06-09T18:33:24Z</time>
      </trkpt>
      <trkpt lat="48.85981" lon="-0.43218">
        <ele>121.71946</ele>
        <time>2016-06-09T18:33:34Z</time>
      </trkpt>
      <trkpt lat="48.85985" lon="-0.43212">
        <ele>121.71946</ele>
        <time>2016-06-09T18:33:39Z</time>
      </trkpt>
      <trkpt lat="48.85993" lon="-0.43199">
        <ele>119.69144</ele>
        <time>2016-06-09T18:33:49Z</time>
      </trkpt>
      <trkpt lat="48.85994" lon="-0.43195">
        <ele>119.69144</ele>
        <time>2016-06-09T18:33:54Z</time>
      </trkpt>
      <trkpt lat="48.85995" lon="-0.4319">
        <ele>119.69144</ele>
        <time>2016-06-09T18:34:04Z</time>
      </trkpt>
      <trkpt lat="48.86" lon="-0.43186">
        <ele>117.86589</ele>
        <time>2016-06-09T18:34:09Z</time>
      </trkpt>
      <trkpt lat="48.86008" lon="-0.43174">
        <ele>116.25907</ele>
        <time>2016-06-09T18:34:19Z</time>
      </trkpt>
      <trkpt lat="48.86013" lon="-0.43167">
        <ele>116.25907</ele>
        <time>2016-06-09T18:34:24Z</time>
      </trkpt>
      <trkpt lat="48.86019" lon="-0.43153">
        <ele>114.69799</ele>
        <time>2016-06-09T18:34:34Z</time>
      </trkpt>
      <trkpt lat="48.86024" lon="-0.43143">
        <ele>114.69799</ele>
        <time>2016-06-09T18:34:39Z</time>
      </trkpt>
      <trkpt lat="48.86032" lon="-0.43121">
        <ele>113.52654</ele>
        <time>2016-06-09T18:34:54Z</time>
      </trkpt>
      <trkpt lat="48.86035" lon="-0.43114">
        <ele>113.52654</ele>
        <time>2016-06-09T18:34:59Z</time>
      </trkpt>
      <trkpt lat="48.86036" lon="-0.43105">
        <ele>112.38488</ele>
        <time>2016-06-09T18:35:04Z</time>
      </trkpt>
      <trkpt lat="48.86037" lon="-0.43097">
        <ele>112.38488</ele>
        <time>2016-06-09T18:35:09Z</time>
      </trkpt>
      <trkpt lat="48.86039" lon="-0.4309">
        <ele>110.939415</ele>
        <time>2016-06-09T18:35:14Z</time>
      </trkpt>
      <trkpt lat="48.86041" lon="-0.43081">
        <ele>110.939415</ele>
        <time>2016-06-09T18:35:19Z</time>
      </trkpt>
      <trkpt lat="48.86045" lon="-0.43071">
        <ele>109.50152</ele>
        <time>2016-06-09T18:35:24Z</time>
      </trkpt>
      <trkpt lat="48.86049" lon="-0.43054">
        <ele>107.79759</ele>
        <time>2016-06-09T18:35:34Z</time>
      </trkpt>
      <trkpt lat="48.86053" lon="-0.43045">
        <ele>107.79759</ele>
        <time>2016-06-09T18:35:39Z</time>
      </trkpt>
      <trkpt lat="48.86057" lon="-0.43028">
        <ele>106.43945</ele>
        <time>2016-06-09T18:35:49Z</time>
      </trkpt>
      <trkpt lat="48.86059" lon="-0.43021">
        <ele>106.43945</ele>
        <time>2016-06-09T18:35:54Z</time>
      </trkpt>
      <trkpt lat="48.86062" lon="-0.43002">
        <ele>105.48858</ele>
        <time>2016-06-09T18:36:04Z</time>
      </trkpt>
      <trkpt lat="48.86064" lon="-0.42991">
        <ele>105.48858</ele>
        <time>2016-06-09T18:36:09Z</time>
      </trkpt>
      <trkpt lat="48.86068" lon="-0.42977">
        <ele>104.02076</ele>
        <time>2016-06-09T18:36:19Z</time>
      </trkpt>
      <trkpt lat="48.8607" lon="-0.42967">
        <ele>104.02076</ele>
        <time>2016-06-09T18:36:24Z</time>
      </trkpt>
      <trkpt lat="48.86073" lon="-0.42957">
        <ele>102.29073</ele>
        <time>2016-06-09T18:36:34Z</time>
      </trkpt>
      <trkpt lat="48.86075" lon="-0.42948">
        <ele>102.29073</ele>
        <time>2016-06-09T18:36:39Z</time>
      </trkpt>
      <trkpt lat="48.86082" lon="-0.42931">
        <ele>100.76578</ele>
        <time>2016-06-09T18:36:49Z</time>
      </trkpt>
      <trkpt lat="48.86086" lon="-0.4292">
        <ele>100.76578</ele>
        <time>2016-06-09T18:36:54Z</time>
      </trkpt>
      <trkpt lat="48.86092" lon="-0.42899">
        <ele>99.546776</ele>
        <time>2016-06-09T18:37:04Z</time>
      </trkpt>
      <trkpt lat="48.86093" lon="-0.42891">
        <ele>99.546776</ele>
        <time>2016-06-09T18:37:09Z</time>
      </trkpt>
      <trkpt lat="48.86097" lon="-0.42875">
        <ele>98.308365</ele>
        <time>2016-06-09T18:37:19Z</time>
      </trkpt>
      <trkpt lat="48.86098" lon="-0.42869">
        <ele>98.308365</ele>
        <time>2016-06-09T18:37:24Z</time>
      </trkpt>
      <trkpt lat="48.86104" lon="-0.42837">
        <ele>97.38318</ele>
        <time>2016-06-09T18:37:39Z</time>
      </trkpt>
      <trkpt lat="48.86105" lon="-0.42834">
        <ele>97.38318</ele>
        <time>2016-06-09T18:37:44Z</time>
      </trkpt>
      <trkpt lat="48.86107" lon="-0.42827">
        <ele>97.38318</ele>
        <time>2016-06-09T18:37:49Z</time>
      </trkpt>
      <trkpt lat="48.86109" lon="-0.42818">
        <ele>96.12739</ele>
        <time>2016-06-09T18:37:54Z</time>
      </trkpt>
      <trkpt lat="48.86111" lon="-0.42807">
        <ele>96.12739</ele>
        <time>2016-06-09T18:37:59Z</time>
      </trkpt>
      <trkpt lat="48.86112" lon="-0.42799">
        <ele>94.93968</ele>
        <time>2016-06-09T18:38:04Z</time>
      </trkpt>
      <trkpt lat="48.86114" lon="-0.42791">
        <ele>94.93968</ele>
        <time>2016-06-09T18:38:09Z</time>
      </trkpt>
      <trkpt lat="48.86115" lon="-0.42782">
        <ele>93.64164</ele>
        <time>2016-06-09T18:38:14Z</time>
      </trkpt>
      <trkpt lat="48.86118" lon="-0.42762">
        <ele>92.37087</ele>
        <time>2016-06-09T18:38:24Z</time>
      </trkpt>
      <trkpt lat="48.86121" lon="-0.42755">
        <ele>92.37087</ele>
        <time>2016-06-09T18:38:29Z</time>
      </trkpt>
      <trkpt lat="48.86126" lon="-0.42744">
        <ele>90.89447</ele>
        <time>2016-06-09T18:38:39Z</time>
      </trkpt>
      <trkpt lat="48.8613" lon="-0.4274">
        <ele>90.89447</ele>
        <time>2016-06-09T18:38:44Z</time>
      </trkpt>
      <trkpt lat="48.86145" lon="-0.42725">
        <ele>89.70338</ele>
        <time>2016-06-09T18:38:59Z</time>
      </trkpt>
      <trkpt lat="48.8615" lon="-0.4272">
        <ele>89.70338</ele>
        <time>2016-06-09T18:39:04Z</time>
      </trkpt>
      <trkpt lat="48.86154" lon="-0.42714">
        <ele>88.473404</ele>
        <time>2016-06-09T18:39:09Z</time>
      </trkpt>
      <trkpt lat="48.86159" lon="-0.42709">
        <ele>88.473404</ele>
        <time>2016-06-09T18:39:14Z</time>
      </trkpt>
      <trkpt lat="48.86165" lon="-0.42704">
        <ele>87.35106</ele>
        <time>2016-06-09T18:39:19Z</time>
      </trkpt>
      <trkpt lat="48.8617" lon="-0.42699">
        <ele>87.35106</ele>
        <time>2016-06-09T18:39:24Z</time>
      </trkpt>
      <trkpt lat="48.86175" lon="-0.42695">
        <ele>86.24116</ele>
        <time>2016-06-09T18:39:29Z</time>
      </trkpt>
      <trkpt lat="48.86184" lon="-0.42685">
        <ele>85.185196</ele>
        <time>2016-06-09T18:39:39Z</time>
      </trkpt>
      <trkpt lat="48.8619" lon="-0.4268">
        <ele>85.185196</ele>
        <time>2016-06-09T18:39:44Z</time>
      </trkpt>
      <trkpt lat="48.86199" lon="-0.42673">
        <ele>84.01967</ele>
        <time>2016-06-09T18:39:54Z</time>
      </trkpt>
      <trkpt lat="48.86204" lon="-0.42668">
        <ele>84.01967</ele>
        <time>2016-06-09T18:39:59Z</time>
      </trkpt>
      <trkpt lat="48.86214" lon="-0.42661">
        <ele>82.622246</ele>
        <time>2016-06-09T18:40:09Z</time>
      </trkpt>
      <trkpt lat="48.86216" lon="-0.42662">
        <ele>82.622246</ele>
        <time>2016-06-09T18:40:14Z</time>
      </trkpt>
      <trkpt lat="48.86225" lon="-0.42654">
        <ele>81.49988</ele>
        <time>2016-06-09T18:40:24Z</time>
      </trkpt>
      <trkpt lat="48.86232" lon="-0.42651">
        <ele>81.49988</ele>
        <time>2016-06-09T18:40:29Z</time>
      </trkpt>
      <trkpt lat="48.8624" lon="-0.42647">
        <ele>80.68919</ele>
        <time>2016-06-09T18:40:34Z</time>
      </trkpt>
      <trkpt lat="48.86245" lon="-0.42643">
        <ele>80.68919</ele>
        <time>2016-06-09T18:40:39Z</time>
      </trkpt>
      <trkpt lat="48.86248" lon="-0.42637">
        <ele>79.51709</ele>
        <time>2016-06-09T18:40:44Z</time>
      </trkpt>
      <trkpt lat="48.86251" lon="-0.42633">
        <ele>79.51709</ele>
        <time>2016-06-09T18:40:49Z</time>
      </trkpt>
      <trkpt lat="48.86252" lon="-0.42632">
        <ele>79.51709</ele>
        <time>2016-06-09T18:40:54Z</time>
      </trkpt>
      <trkpt lat="48.86261" lon="-0.42617">
        <ele>78.28327</ele>
        <time>2016-06-09T18:41:04Z</time>
      </trkpt>
      <trkpt lat="48.86265" lon="-0.4261">
        <ele>78.28327</ele>
        <time>2016-06-09T18:41:09Z</time>
      </trkpt>
      <trkpt lat="48.86274" lon="-0.42601">
        <ele>76.80443</ele>
        <time>2016-06-09T18:41:19Z</time>
      </trkpt>
      <trkpt lat="48.8628" lon="-0.42592">
        <ele>76.80443</ele>
        <time>2016-06-09T18:41:24Z</time>
      </trkpt>
      <trkpt lat="48.86284" lon="-0.42586">
        <ele>75.76167</ele>
        <time>2016-06-09T18:41:34Z</time>
      </trkpt>
      <trkpt lat="48.86285" lon="-0.42584">
        <ele>75.76167</ele>
        <time>2016-06-09T18:41:39Z</time>
      </trkpt>
      <trkpt lat="48.86285" lon="-0.42584">
        <ele>75.76167</ele>
        <time>2016-06-09T18:41:49Z</time>
      </trkpt>
      <trkpt lat="48.86285" lon="-0.42584">
        <ele>75.76167</ele>
        <time>2016-06-09T18:41:54Z</time>
      </trkpt>
      <trkpt lat="48.86288" lon="-0.42581">
        <ele>75.76167</ele>
        <time>2016-06-09T18:42:04Z</time>
      </trkpt>
      <trkpt lat="48.86291" lon="-0.42578">
        <ele>74.718445</ele>
        <time>2016-06-09T18:42:09Z</time>
      </trkpt>
      <trkpt lat="48.86294" lon="-0.42575">
        <ele>74.718445</ele>
        <time>2016-06-09T18:42:19Z</time>
      </trkpt>
      <trkpt lat="48.86295" lon="-0.42573">
        <ele>74.718445</ele>
        <time>2016-06-09T18:42:24Z</time>
      </trkpt>
      <trkpt lat="48.86303" lon="-0.42561">
        <ele>73.414375</ele>
        <time>2016-06-09T18:42:34Z</time>
      </trkpt>
      <trkpt lat="48.86308" lon="-0.42558">
        <ele>73.414375</ele>
        <time>2016-06-09T18:42:39Z</time>
      </trkpt>
      <trkpt lat="48.86315" lon="-0.42552">
        <ele>71.88279</ele>
        <time>2016-06-09T18:42:44Z</time>
      </trkpt>
      <trkpt lat="48.8632" lon="-0.42548">
        <ele>71.88279</ele>
        <time>2016-06-09T18:42:49Z</time>
      </trkpt>
      <trkpt lat="48.86324" lon="-0.42546">
        <ele>70.529884</ele>
        <time>2016-06-09T18:42:54Z</time>
      </trkpt>
      <trkpt lat="48.86331" lon="-0.42542">
        <ele>70.529884</ele>
        <time>2016-06-09T18:42:59Z</time>
      </trkpt>
      <trkpt lat="48.86336" lon="-0.42538">
        <ele>69.457726</ele>
        <time>2016-06-09T18:43:04Z</time>
      </trkpt>
      <trkpt lat="48.86341" lon="-0.42535">
        <ele>69.457726</ele>
        <time>2016-06-09T18:43:09Z</time>
      </trkpt>
      <trkpt lat="48.86351" lon="-0.42532">
        <ele>68.4863</ele>
        <time>2016-06-09T18:43:19Z</time>
      </trkpt>
      <trkpt lat="48.86356" lon="-0.4253">
        <ele>68.4863</ele>
        <time>2016-06-09T18:43:24Z</time>
      </trkpt>
      <trkpt lat="48.8637" lon="-0.42523">
        <ele>67.46294</ele>
        <time>2016-06-09T18:43:34Z</time>
      </trkpt>
      <trkpt lat="48.86375" lon="-0.42519">
        <ele>67.46294</ele>
        <time>2016-06-09T18:43:39Z</time>
      </trkpt>
      <trkpt lat="48.86385" lon="-0.42511">
        <ele>66.20313</ele>
        <time>2016-06-09T18:43:49Z</time>
      </trkpt>
      <trkpt lat="48.8639" lon="-0.42505">
        <ele>66.20313</ele>
        <time>2016-06-09T18:43:54Z</time>
      </trkpt>
      <trkpt lat="48.86406" lon="-0.42488">
        <ele>65.30039</ele>
        <time>2016-06-09T18:44:09Z</time>
      </trkpt>
      <trkpt lat="48.86411" lon="-0.42483">
        <ele>65.30039</ele>
        <time>2016-06-09T18:44:14Z</time>
      </trkpt>
      <trkpt lat="48.86415" lon="-0.42476">
        <ele>64.438965</ele>
        <time>2016-06-09T18:44:19Z</time>
      </trkpt>
      <trkpt lat="48.86418" lon="-0.42468">
        <ele>64.438965</ele>
        <time>2016-06-09T18:44:24Z</time>
      </trkpt>
      <trkpt lat="48.8642" lon="-0.42461">
        <ele>63.311794</ele>
        <time>2016-06-09T18:44:29Z</time>
      </trkpt>
      <trkpt lat="48.86419" lon="-0.42452">
        <ele>63.311794</ele>
        <time>2016-06-09T18:44:34Z</time>
      </trkpt>
      <trkpt lat="48.86416" lon="-0.42448">
        <ele>61.85132</ele>
        <time>2016-06-09T18:44:39Z</time>
      </trkpt>
      <trkpt lat="48.86411" lon="-0.42443">
        <ele>61.85132</ele>
        <time>2016-06-09T18:44:44Z</time>
      </trkpt>
      <trkpt lat="48.86407" lon="-0.42438">
        <ele>60.4138</ele>
        <time>2016-06-09T18:44:49Z</time>
      </trkpt>
      <trkpt lat="48.86401" lon="-0.42435">
        <ele>60.4138</ele>
        <time>2016-06-09T18:44:54Z</time>
      </trkpt>
      <trkpt lat="48.86396" lon="-0.4243">
        <ele>58.91137</ele>
        <time>2016-06-09T18:44:59Z</time>
      </trkpt>
      <trkpt lat="48.86391" lon="-0.42426">
        <ele>58.91137</ele>
        <time>2016-06-09T18:45:04Z</time>
      </trkpt>
      <trkpt lat="48.86386" lon="-0.42422">
        <ele>57.868084</ele>
        <time>2016-06-09T18:45:09Z</time>
      </trkpt>
      <trkpt lat="48.86386" lon="-0.42417">
        <ele>57.868084</ele>
        <time>2016-06-09T18:45:14Z</time>
      </trkpt>
      <trkpt lat="48.86384" lon="-0.42418">
        <ele>57.868084</ele>
        <time>2016-06-09T18:45:19Z</time>
      </trkpt>
      <trkpt lat="48.86387" lon="-0.42408">
        <ele>56.84591</ele>
        <time>2016-06-09T18:45:29Z</time>
      </trkpt>
      <trkpt lat="48.86386" lon="-0.42407">
        <ele>56.84591</ele>
        <time>2016-06-09T18:45:34Z</time>
      </trkpt>
      <trkpt lat="48.86393" lon="-0.42393">
        <ele>55.640713</ele>
        <time>2016-06-09T18:45:49Z</time>
      </trkpt>
      <trkpt lat="48.86396" lon="-0.42385">
        <ele>55.640713</ele>
        <time>2016-06-09T18:45:54Z</time>
      </trkpt>
      <trkpt lat="48.86404" lon="-0.42372">
        <ele>54.81325</ele>
        <time>2016-06-09T18:46:04Z</time>
      </trkpt>
      <trkpt lat="48.86409" lon="-0.42369">
        <ele>54.81325</ele>
        <time>2016-06-09T18:46:09Z</time>
      </trkpt>
      <trkpt lat="48.86423" lon="-0.42372">
        <ele>54.262386</ele>
        <time>2016-06-09T18:46:19Z</time>
      </trkpt>
      <trkpt lat="48.86429" lon="-0.42371">
        <ele>54.262386</ele>
        <time>2016-06-09T18:46:24Z</time>
      </trkpt>
      <trkpt lat="48.86436" lon="-0.42371">
        <ele>54.47008</ele>
        <time>2016-06-09T18:46:34Z</time>
      </trkpt>
      <trkpt lat="48.86442" lon="-0.42375">
        <ele>54.47008</ele>
        <time>2016-06-09T18:46:39Z</time>
      </trkpt>
      <trkpt lat="48.86451" lon="-0.42367">
        <ele>54.85762</ele>
        <time>2016-06-09T18:46:49Z</time>
      </trkpt>
      <trkpt lat="48.86455" lon="-0.42365">
        <ele>54.85762</ele>
        <time>2016-06-09T18:46:54Z</time>
      </trkpt>
      <trkpt lat="48.86456" lon="-0.42366">
        <ele>54.85762</ele>
        <time>2016-06-09T18:46:59Z</time>
      </trkpt>
      <trkpt lat="48.86459" lon="-0.42367">
        <ele>54.85762</ele>
        <time>2016-06-09T18:47:04Z</time>
      </trkpt>
      <trkpt lat="48.8646" lon="-0.42367">
        <ele>55.695347</ele>
        <time>2016-06-09T18:47:09Z</time>
      </trkpt>
      <trkpt lat="48.8646" lon="-0.42367">
        <ele>55.695347</ele>
        <time>2016-06-09T18:47:14Z</time>
      </trkpt>
      <trkpt lat="48.86489" lon="-0.42363">
        <ele>55.402317</ele>
        <time>2016-06-09T18:47:24Z</time>
      </trkpt>
      <trkpt lat="48.86498" lon="-0.42366">
        <ele>55.402317</ele>
        <time>2016-06-09T18:47:29Z</time>
      </trkpt>
      <trkpt lat="48.86502" lon="-0.42368">
        <ele>54.79391</ele>
        <time>2016-06-09T18:47:34Z</time>
      </trkpt>
      <trkpt lat="48.8651" lon="-0.42369">
        <ele>54.79391</ele>
        <time>2016-06-09T18:47:39Z</time>
      </trkpt>
      <trkpt lat="48.86513" lon="-0.42378">
        <ele>54.669777</ele>
        <time>2016-06-09T18:47:44Z</time>
      </trkpt>
      <trkpt lat="48.86527" lon="-0.42387">
        <ele>54.87606</ele>
        <time>2016-06-09T18:47:54Z</time>
      </trkpt>
      <trkpt lat="48.86532" lon="-0.42389">
        <ele>54.87606</ele>
        <time>2016-06-09T18:47:59Z</time>
      </trkpt>
      <trkpt lat="48.8654" lon="-0.42398">
        <ele>55.168457</ele>
        <time>2016-06-09T18:48:09Z</time>
      </trkpt>
      <trkpt lat="48.86545" lon="-0.42399">
        <ele>55.168457</ele>
        <time>2016-06-09T18:48:14Z</time>
      </trkpt>
      <trkpt lat="48.86555" lon="-0.42399">
        <ele>55.33486</ele>
        <time>2016-06-09T18:48:24Z</time>
      </trkpt>
      <trkpt lat="48.86559" lon="-0.42398">
        <ele>55.33486</ele>
        <time>2016-06-09T18:48:29Z</time>
      </trkpt>
      <trkpt lat="48.86569" lon="-0.42389">
        <ele>55.25124</ele>
        <time>2016-06-09T18:48:39Z</time>
      </trkpt>
      <trkpt lat="48.86572" lon="-0.42382">
        <ele>55.25124</ele>
        <time>2016-06-09T18:48:44Z</time>
      </trkpt>
      <trkpt lat="48.86581" lon="-0.42371">
        <ele>54.572876</ele>
        <time>2016-06-09T18:48:54Z</time>
      </trkpt>
      <trkpt lat="48.86585" lon="-0.42366">
        <ele>54.572876</ele>
        <time>2016-06-09T18:48:59Z</time>
      </trkpt>
      <trkpt lat="48.86592" lon="-0.42354">
        <ele>54.307945</ele>
        <time>2016-06-09T18:49:09Z</time>
      </trkpt>
      <trkpt lat="48.86596" lon="-0.42349">
        <ele>54.307945</ele>
        <time>2016-06-09T18:49:14Z</time>
      </trkpt>
      <trkpt lat="48.86599" lon="-0.42343">
        <ele>54.13573</ele>
        <time>2016-06-09T18:49:19Z</time>
      </trkpt>
      <trkpt lat="48.86603" lon="-0.42335">
        <ele>54.13573</ele>
        <time>2016-06-09T18:49:24Z</time>
      </trkpt>
      <trkpt lat="48.86606" lon="-0.42327">
        <ele>53.85978</ele>
        <time>2016-06-09T18:49:29Z</time>
      </trkpt>
      <trkpt lat="48.86609" lon="-0.42322">
        <ele>53.85978</ele>
        <time>2016-06-09T18:49:34Z</time>
      </trkpt>
      <trkpt lat="48.86612" lon="-0.42313">
        <ele>53.572247</ele>
        <time>2016-06-09T18:49:39Z</time>
      </trkpt>
      <trkpt lat="48.86615" lon="-0.42305">
        <ele>53.572247</ele>
        <time>2016-06-09T18:49:44Z</time>
      </trkpt>
      <trkpt lat="48.86618" lon="-0.42297">
        <ele>53.21453</ele>
        <time>2016-06-09T18:49:49Z</time>
      </trkpt>
      <trkpt lat="48.86621" lon="-0.42289">
        <ele>53.21453</ele>
        <time>2016-06-09T18:49:54Z</time>
      </trkpt>
      <trkpt lat="48.86624" lon="-0.42284">
        <ele>52.415565</ele>
        <time>2016-06-09T18:49:59Z</time>
      </trkpt>
      <trkpt lat="48.86629" lon="-0.42272">
        <ele>52.101044</ele>
        <time>2016-06-09T18:50:09Z</time>
      </trkpt>
      <trkpt lat="48.86632" lon="-0.42267">
        <ele>52.101044</ele>
        <time>2016-06-09T18:50:14Z</time>
      </trkpt>
      <trkpt lat="48.86637" lon="-0.42258">
        <ele>51.83037</ele>
        <time>2016-06-09T18:50:24Z</time>
      </trkpt>
      <trkpt lat="48.86638" lon="-0.4225">
        <ele>51.83037</ele>
        <time>2016-06-09T18:50:29Z</time>
      </trkpt>
      <trkpt lat="48.86641" lon="-0.42236">
        <ele>51.56997</ele>
        <time>2016-06-09T18:50:39Z</time>
      </trkpt>
      <trkpt lat="48.86646" lon="-0.42231">
        <ele>51.56997</ele>
        <time>2016-06-09T18:50:44Z</time>
      </trkpt>
      <trkpt lat="48.86649" lon="-0.42239">
        <ele>50.94289</ele>
        <time>2016-06-09T18:50:49Z</time>
      </trkpt>
      <trkpt lat="48.86655" lon="-0.42236">
        <ele>50.94289</ele>
        <time>2016-06-09T18:50:54Z</time>
      </trkpt>
      <trkpt lat="48.8666" lon="-0.42219">
        <ele>50.06214</ele>
        <time>2016-06-09T18:51:04Z</time>
      </trkpt>
      <trkpt lat="48.86661" lon="-0.42212">
        <ele>50.06214</ele>
        <time>2016-06-09T18:51:09Z</time>
      </trkpt>
      <trkpt lat="48.86664" lon="-0.42194">
        <ele>49.47995</ele>
        <time>2016-06-09T18:51:19Z</time>
      </trkpt>
      <trkpt lat="48.86666" lon="-0.42185">
        <ele>49.47995</ele>
        <time>2016-06-09T18:51:24Z</time>
      </trkpt>
      <trkpt lat="48.8667" lon="-0.42173">
        <ele>49.491035</ele>
        <time>2016-06-09T18:51:34Z</time>
      </trkpt>
      <trkpt lat="48.86673" lon="-0.42162">
        <ele>49.491035</ele>
        <time>2016-06-09T18:51:39Z</time>
      </trkpt>
      <trkpt lat="48.86675" lon="-0.42147">
        <ele>49.458965</ele>
        <time>2016-06-09T18:51:49Z</time>
      </trkpt>
      <trkpt lat="48.86676" lon="-0.42139">
        <ele>49.458965</ele>
        <time>2016-06-09T18:51:54Z</time>
      </trkpt>
      <trkpt lat="48.86681" lon="-0.42125">
        <ele>49.6445</ele>
        <time>2016-06-09T18:52:04Z</time>
      </trkpt>
      <trkpt lat="48.86684" lon="-0.42117">
        <ele>49.6445</ele>
        <time>2016-06-09T18:52:09Z</time>
      </trkpt>
      <trkpt lat="48.86686" lon="-0.42104">
        <ele>50.1734</ele>
        <time>2016-06-09T18:52:19Z</time>
      </trkpt>
      <trkpt lat="48.86683" lon="-0.42095">
        <ele>50.1734</ele>
        <time>2016-06-09T18:52:24Z</time>
      </trkpt>
      <trkpt lat="48.86682" lon="-0.42088">
        <ele>50.844254</ele>
        <time>2016-06-09T18:52:34Z</time>
      </trkpt>
      <trkpt lat="48.86682" lon="-0.42086">
        <ele>50.844254</ele>
        <time>2016-06-09T18:52:39Z</time>
      </trkpt>
      <trkpt lat="48.86682" lon="-0.42086">
        <ele>50.844254</ele>
        <time>2016-06-09T18:52:49Z</time>
      </trkpt>
      <trkpt lat="48.86682" lon="-0.42086">
        <ele>50.844254</ele>
        <time>2016-06-09T18:52:54Z</time>
      </trkpt>
      <trkpt lat="48.86682" lon="-0.42086">
        <ele>50.844254</ele>
        <time>2016-06-09T18:53:04Z</time>
      </trkpt>
      <trkpt lat="48.86682" lon="-0.42086">
        <ele>50.844254</ele>
        <time>2016-06-09T18:53:09Z</time>
      </trkpt>
      <trkpt lat="48.86685" lon="-0.4207">
        <ele>51.51334</ele>
        <time>2016-06-09T18:53:24Z</time>
      </trkpt>
      <trkpt lat="48.86691" lon="-0.4206">
        <ele>51.51334</ele>
        <time>2016-06-09T18:53:29Z</time>
      </trkpt>
      <trkpt lat="48.86693" lon="-0.42049">
        <ele>52.494328</ele>
        <time>2016-06-09T18:53:39Z</time>
      </trkpt>
      <trkpt lat="48.86693" lon="-0.42041">
        <ele>52.494328</ele>
        <time>2016-06-09T18:53:44Z</time>
      </trkpt>
      <trkpt lat="48.867" lon="-0.42024">
        <ele>52.967384</ele>
        <time>2016-06-09T18:53:54Z</time>
      </trkpt>
      <trkpt lat="48.86701" lon="-0.42017">
        <ele>52.967384</ele>
        <time>2016-06-09T18:53:59Z</time>
      </trkpt>
      <trkpt lat="48.86703" lon="-0.42001">
        <ele>53.384953</ele>
        <time>2016-06-09T18:54:09Z</time>
      </trkpt>
      <trkpt lat="48.86704" lon="-0.41991">
        <ele>53.384953</ele>
        <time>2016-06-09T18:54:14Z</time>
      </trkpt>
      <trkpt lat="48.86706" lon="-0.41975">
        <ele>53.705322</ele>
        <time>2016-06-09T18:54:24Z</time>
      </trkpt>
      <trkpt lat="48.86708" lon="-0.41969">
        <ele>53.705322</ele>
        <time>2016-06-09T18:54:29Z</time>
      </trkpt>
      <trkpt lat="48.86711" lon="-0.4195">
        <ele>54.12078</ele>
        <time>2016-06-09T18:54:39Z</time>
      </trkpt>
      <trkpt lat="48.86713" lon="-0.41938">
        <ele>54.12078</ele>
        <time>2016-06-09T18:54:44Z</time>
      </trkpt>
      <trkpt lat="48.86714" lon="-0.41919">
        <ele>53.872593</ele>
        <time>2016-06-09T18:54:54Z</time>
      </trkpt>
      <trkpt lat="48.86716" lon="-0.4191">
        <ele>53.872593</ele>
        <time>2016-06-09T18:54:59Z</time>
      </trkpt>
      <trkpt lat="48.8672" lon="-0.4189">
        <ele>53.182022</ele>
        <time>2016-06-09T18:55:09Z</time>
      </trkpt>
      <trkpt lat="48.86723" lon="-0.41881">
        <ele>53.182022</ele>
        <time>2016-06-09T18:55:14Z</time>
      </trkpt>
      <trkpt lat="48.86729" lon="-0.41867">
        <ele>52.457146</ele>
        <time>2016-06-09T18:55:24Z</time>
      </trkpt>
      <trkpt lat="48.86729" lon="-0.4186">
        <ele>52.457146</ele>
        <time>2016-06-09T18:55:29Z</time>
      </trkpt>
      <trkpt lat="48.86735" lon="-0.41843">
        <ele>52.1483</ele>
        <time>2016-06-09T18:55:39Z</time>
      </trkpt>
      <trkpt lat="48.86737" lon="-0.41835">
        <ele>52.1483</ele>
        <time>2016-06-09T18:55:44Z</time>
      </trkpt>
      <trkpt lat="48.86739" lon="-0.41825">
        <ele>52.181656</ele>
        <time>2016-06-09T18:55:49Z</time>
      </trkpt>
      <trkpt lat="48.8674" lon="-0.41817">
        <ele>52.181656</ele>
        <time>2016-06-09T18:55:54Z</time>
      </trkpt>
      <trkpt lat="48.86742" lon="-0.41807">
        <ele>51.781776</ele>
        <time>2016-06-09T18:55:59Z</time>
      </trkpt>
      <trkpt lat="48.86747" lon="-0.41796">
        <ele>51.600502</ele>
        <time>2016-06-09T18:56:04Z</time>
      </trkpt>
      <trkpt lat="48.86748" lon="-0.4178">
        <ele>51.50627</ele>
        <time>2016-06-09T18:56:14Z</time>
      </trkpt>
      <trkpt lat="48.86752" lon="-0.41769">
        <ele>51.50627</ele>
        <time>2016-06-09T18:56:19Z</time>
      </trkpt>
      <trkpt lat="48.86756" lon="-0.41752">
        <ele>51.059956</ele>
        <time>2016-06-09T18:56:29Z</time>
      </trkpt>
      <trkpt lat="48.86758" lon="-0.41746">
        <ele>51.059956</ele>
        <time>2016-06-09T18:56:34Z</time>
      </trkpt>
      <trkpt lat="48.86762" lon="-0.41734">
        <ele>50.936535</ele>
        <time>2016-06-09T18:56:44Z</time>
      </trkpt>
      <trkpt lat="48.86763" lon="-0.41724">
        <ele>50.936535</ele>
        <time>2016-06-09T18:56:49Z</time>
      </trkpt>
      <trkpt lat="48.86766" lon="-0.41706">
        <ele>50.47797</ele>
        <time>2016-06-09T18:56:59Z</time>
      </trkpt>
      <trkpt lat="48.8677" lon="-0.41693">
        <ele>49.49345</ele>
        <time>2016-06-09T18:57:04Z</time>
      </trkpt>
      <trkpt lat="48.86774" lon="-0.41677">
        <ele>48.730003</ele>
        <time>2016-06-09T18:57:14Z</time>
      </trkpt>
      <trkpt lat="48.86774" lon="-0.41669">
        <ele>48.730003</ele>
        <time>2016-06-09T18:57:19Z</time>
      </trkpt>
      <trkpt lat="48.86777" lon="-0.41654">
        <ele>47.812767</ele>
        <time>2016-06-09T18:57:29Z</time>
      </trkpt>
      <trkpt lat="48.86781" lon="-0.41644">
        <ele>47.812767</ele>
        <time>2016-06-09T18:57:34Z</time>
      </trkpt>
      <trkpt lat="48.86783" lon="-0.41628">
        <ele>46.53897</ele>
        <time>2016-06-09T18:57:44Z</time>
      </trkpt>
      <trkpt lat="48.86783" lon="-0.41617">
        <ele>46.53897</ele>
        <time>2016-06-09T18:57:49Z</time>
      </trkpt>
      <trkpt lat="48.86786" lon="-0.41603">
        <ele>45.413483</ele>
        <time>2016-06-09T18:57:59Z</time>
      </trkpt>
      <trkpt lat="48.86788" lon="-0.41596">
        <ele>45.413483</ele>
        <time>2016-06-09T18:58:04Z</time>
      </trkpt>
      <trkpt lat="48.8679" lon="-0.41574">
        <ele>43.966946</ele>
        <time>2016-06-09T18:58:14Z</time>
      </trkpt>
      <trkpt lat="48.86793" lon="-0.41568">
        <ele>43.966946</ele>
        <time>2016-06-09T18:58:19Z</time>
      </trkpt>
      <trkpt lat="48.868" lon="-0.41551">
        <ele>43.393837</ele>
        <time>2016-06-09T18:58:29Z</time>
      </trkpt>
      <trkpt lat="48.86801" lon="-0.41546">
        <ele>43.393837</ele>
        <time>2016-06-09T18:58:34Z</time>
      </trkpt>
      <trkpt lat="48.86811" lon="-0.41527">
        <ele>42.60792</ele>
        <time>2016-06-09T18:58:44Z</time>
      </trkpt>
      <trkpt lat="48.86813" lon="-0.4152">
        <ele>42.60792</ele>
        <time>2016-06-09T18:58:49Z</time>
      </trkpt>
      <trkpt lat="48.86819" lon="-0.41503">
        <ele>42.37591</ele>
        <time>2016-06-09T18:58:59Z</time>
      </trkpt>
      <trkpt lat="48.86819" lon="-0.41495">
        <ele>42.37591</ele>
        <time>2016-06-09T18:59:04Z</time>
      </trkpt>
      <trkpt lat="48.86828" lon="-0.4148">
        <ele>42.599598</ele>
        <time>2016-06-09T18:59:14Z</time>
      </trkpt>
      <trkpt lat="48.86831" lon="-0.41473">
        <ele>42.599598</ele>
        <time>2016-06-09T18:59:19Z</time>
      </trkpt>
      <trkpt lat="48.86833" lon="-0.41464">
        <ele>43.28757</ele>
        <time>2016-06-09T18:59:24Z</time>
      </trkpt>
      <trkpt lat="48.86835" lon="-0.41452">
        <ele>43.28757</ele>
        <time>2016-06-09T18:59:29Z</time>
      </trkpt>
      <trkpt lat="48.86839" lon="-0.41446">
        <ele>43.39445</ele>
        <time>2016-06-09T18:59:34Z</time>
      </trkpt>
      <trkpt lat="48.86842" lon="-0.41429">
        <ele>42.962055</ele>
        <time>2016-06-09T18:59:44Z</time>
      </trkpt>
      <trkpt lat="48.86844" lon="-0.41421">
        <ele>42.962055</ele>
        <time>2016-06-09T18:59:49Z</time>
      </trkpt>
      <trkpt lat="48.86849" lon="-0.41395">
        <ele>42.895294</ele>
        <time>2016-06-09T18:59:59Z</time>
      </trkpt>
      <trkpt lat="48.86851" lon="-0.41387">
        <ele>42.895294</ele>
        <time>2016-06-09T19:00:04Z</time>
      </trkpt>
      <trkpt lat="48.86856" lon="-0.41373">
        <ele>42.907516</ele>
        <time>2016-06-09T19:00:14Z</time>
      </trkpt>
      <trkpt lat="48.86859" lon="-0.41366">
        <ele>42.907516</ele>
        <time>2016-06-09T19:00:19Z</time>
      </trkpt>
      <trkpt lat="48.86862" lon="-0.41352">
        <ele>42.646423</ele>
        <time>2016-06-09T19:00:29Z</time>
      </trkpt>
      <trkpt lat="48.86864" lon="-0.41344">
        <ele>42.646423</ele>
        <time>2016-06-09T19:00:34Z</time>
      </trkpt>
      <trkpt lat="48.86869" lon="-0.41326">
        <ele>42.377224</ele>
        <time>2016-06-09T19:00:44Z</time>
      </trkpt>
      <trkpt lat="48.86872" lon="-0.41316">
        <ele>42.377224</ele>
        <time>2016-06-09T19:00:49Z</time>
      </trkpt>
      <trkpt lat="48.86881" lon="-0.4129">
        <ele>42.504177</ele>
        <time>2016-06-09T19:01:04Z</time>
      </trkpt>
      <trkpt lat="48.86883" lon="-0.41282">
        <ele>42.504177</ele>
        <time>2016-06-09T19:01:09Z</time>
      </trkpt>
      <trkpt lat="48.86885" lon="-0.41275">
        <ele>43.285454</ele>
        <time>2016-06-09T19:01:14Z</time>
      </trkpt>
      <trkpt lat="48.86888" lon="-0.41266">
        <ele>43.285454</ele>
        <time>2016-06-09T19:01:19Z</time>
      </trkpt>
      <trkpt lat="48.8689" lon="-0.41258">
        <ele>44.108166</ele>
        <time>2016-06-09T19:01:24Z</time>
      </trkpt>
      <trkpt lat="48.86892" lon="-0.41251">
        <ele>44.108166</ele>
        <time>2016-06-09T19:01:29Z</time>
      </trkpt>
      <trkpt lat="48.86893" lon="-0.41243">
        <ele>44.375526</ele>
        <time>2016-06-09T19:01:34Z</time>
      </trkpt>
      <trkpt lat="48.86894" lon="-0.41237">
        <ele>44.375526</ele>
        <time>2016-06-09T19:01:39Z</time>
      </trkpt>
      <trkpt lat="48.86898" lon="-0.41231">
        <ele>44.2567</ele>
        <time>2016-06-09T19:01:44Z</time>
      </trkpt>
      <trkpt lat="48.86902" lon="-0.41222">
        <ele>44.2567</ele>
        <time>2016-06-09T19:01:49Z</time>
      </trkpt>
      <trkpt lat="48.86905" lon="-0.41214">
        <ele>44.255405</ele>
        <time>2016-06-09T19:01:54Z</time>
      </trkpt>
      <trkpt lat="48.86908" lon="-0.41206">
        <ele>44.255405</ele>
        <time>2016-06-09T19:01:59Z</time>
      </trkpt>
      <trkpt lat="48.86911" lon="-0.41198">
        <ele>44.175125</ele>
        <time>2016-06-09T19:02:04Z</time>
      </trkpt>
      <trkpt lat="48.86918" lon="-0.41183">
        <ele>44.39606</ele>
        <time>2016-06-09T19:02:14Z</time>
      </trkpt>
      <trkpt lat="48.8692" lon="-0.41178">
        <ele>44.39606</ele>
        <time>2016-06-09T19:02:19Z</time>
      </trkpt>
      <trkpt lat="48.86925" lon="-0.41157">
        <ele>44.5491</ele>
        <time>2016-06-09T19:02:30Z</time>
      </trkpt>
      <trkpt lat="48.86925" lon="-0.4115">
        <ele>44.5491</ele>
        <time>2016-06-09T19:02:34Z</time>
      </trkpt>
      <trkpt lat="48.86932" lon="-0.41133">
        <ele>44.22039</ele>
        <time>2016-06-09T19:02:44Z</time>
      </trkpt>
      <trkpt lat="48.86934" lon="-0.41126">
        <ele>44.22039</ele>
        <time>2016-06-09T19:02:49Z</time>
      </trkpt>
      <trkpt lat="48.86937" lon="-0.4111">
        <ele>43.676365</ele>
        <time>2016-06-09T19:02:59Z</time>
      </trkpt>
      <trkpt lat="48.8694" lon="-0.41104">
        <ele>43.676365</ele>
        <time>2016-06-09T19:03:04Z</time>
      </trkpt>
      <trkpt lat="48.86945" lon="-0.41085">
        <ele>43.4239</ele>
        <time>2016-06-09T19:03:14Z</time>
      </trkpt>
      <trkpt lat="48.8695" lon="-0.41079">
        <ele>43.4239</ele>
        <time>2016-06-09T19:03:19Z</time>
      </trkpt>
      <trkpt lat="48.86958" lon="-0.41063">
        <ele>43.312157</ele>
        <time>2016-06-09T19:03:29Z</time>
      </trkpt>
      <trkpt lat="48.86962" lon="-0.41058">
        <ele>43.312157</ele>
        <time>2016-06-09T19:03:34Z</time>
      </trkpt>
      <trkpt lat="48.86964" lon="-0.41052">
        <ele>43.345108</ele>
        <time>2016-06-09T19:03:39Z</time>
      </trkpt>
      <trkpt lat="48.86969" lon="-0.41041">
        <ele>43.345108</ele>
        <time>2016-06-09T19:03:44Z</time>
      </trkpt>
      <trkpt lat="48.86972" lon="-0.41033">
        <ele>43.554855</ele>
        <time>2016-06-09T19:03:49Z</time>
      </trkpt>
      <trkpt lat="48.86977" lon="-0.41017">
        <ele>43.768913</ele>
        <time>2016-06-09T19:03:59Z</time>
      </trkpt>
      <trkpt lat="48.86979" lon="-0.41009">
        <ele>43.768913</ele>
        <time>2016-06-09T19:04:04Z</time>
      </trkpt>
      <trkpt lat="48.86982" lon="-0.41">
        <ele>43.841877</ele>
        <time>2016-06-09T19:04:14Z</time>
      </trkpt>
      <trkpt lat="48.86983" lon="-0.41001">
        <ele>43.841877</ele>
        <time>2016-06-09T19:04:19Z</time>
      </trkpt>
      <trkpt lat="48.8698" lon="-0.41">
        <ele>43.841877</ele>
        <time>2016-06-09T19:04:29Z</time>
      </trkpt>
      <trkpt lat="48.86981" lon="-0.41001">
        <ele>43.841877</ele>
        <time>2016-06-09T19:04:34Z</time>
      </trkpt>
      <trkpt lat="48.86981" lon="-0.41">
        <ele>43.841877</ele>
        <time>2016-06-09T19:04:44Z</time>
      </trkpt>
      <trkpt lat="48.86981" lon="-0.41">
        <ele>43.841877</ele>
        <time>2016-06-09T19:04:49Z</time>
      </trkpt>
      <trkpt lat="48.86981" lon="-0.41">
        <ele>43.841877</ele>
        <time>2016-06-09T19:04:59Z</time>
      </trkpt>
      <trkpt lat="48.86981" lon="-0.41001">
        <ele>43.841877</ele>
        <time>2016-06-09T19:05:04Z</time>
      </trkpt>
      <trkpt lat="48.86981" lon="-0.40998">
        <ele>43.841877</ele>
        <time>2016-06-09T19:05:14Z</time>
      </trkpt>
      <trkpt lat="48.86983" lon="-0.40999">
        <ele>43.841877</ele>
        <time>2016-06-09T19:05:19Z</time>
      </trkpt>
      <trkpt lat="48.86984" lon="-0.41">
        <ele>43.841877</ele>
        <time>2016-06-09T19:05:29Z</time>
      </trkpt>
      <trkpt lat="48.86984" lon="-0.41">
        <ele>43.841877</ele>
        <time>2016-06-09T19:05:34Z</time>
      </trkpt>
      <trkpt lat="48.86986" lon="-0.40999">
        <ele>45.195835</ele>
        <time>2016-06-09T19:05:49Z</time>
      </trkpt>
      <trkpt lat="48.86986" lon="-0.40999">
        <ele>45.195835</ele>
        <time>2016-06-09T19:05:54Z</time>
      </trkpt>
      <trkpt lat="48.86986" lon="-0.40998">
        <ele>45.195835</ele>
        <time>2016-06-09T19:06:04Z</time>
      </trkpt>
      <trkpt lat="48.86986" lon="-0.40999">
        <ele>45.195835</ele>
        <time>2016-06-09T19:06:09Z</time>
      </trkpt>
      <trkpt lat="48.86986" lon="-0.40999">
        <ele>45.195835</ele>
        <time>2016-06-09T19:06:19Z</time>
      </trkpt>
      <trkpt lat="48.86985" lon="-0.40999">
        <ele>45.195835</ele>
        <time>2016-06-09T19:06:24Z</time>
      </trkpt>
      <trkpt lat="48.86986" lon="-0.40995">
        <ele>45.195835</ele>
        <time>2016-06-09T19:06:34Z</time>
      </trkpt>
      <trkpt lat="48.86985" lon="-0.40996">
        <ele>45.195835</ele>
        <time>2016-06-09T19:06:39Z</time>
      </trkpt>
      <trkpt lat="48.86985" lon="-0.40996">
        <ele>45.195835</ele>
        <time>2016-06-09T19:06:49Z</time>
      </trkpt>
      <trkpt lat="48.86985" lon="-0.40996">
        <ele>45.195835</ele>
        <time>2016-06-09T19:06:54Z</time>
      </trkpt>
      <trkpt lat="48.86986" lon="-0.40999">
        <ele>45.195835</ele>
        <time>2016-06-09T19:07:04Z</time>
      </trkpt>
      <trkpt lat="48.86991" lon="-0.41003">
        <ele>46.680542</ele>
        <time>2016-06-09T19:07:09Z</time>
      </trkpt>
      <trkpt lat="48.87002" lon="-0.41015">
        <ele>48.008102</ele>
        <time>2016-06-09T19:07:19Z</time>
      </trkpt>
      <trkpt lat="48.87009" lon="-0.41018">
        <ele>48.008102</ele>
        <time>2016-06-09T19:07:24Z</time>
      </trkpt>
      <trkpt lat="48.87015" lon="-0.41019">
        <ele>49.05637</ele>
        <time>2016-06-09T19:07:29Z</time>
      </trkpt>
      <trkpt lat="48.87018" lon="-0.4102">
        <ele>49.05637</ele>
        <time>2016-06-09T19:07:34Z</time>
      </trkpt>
      <trkpt lat="48.87022" lon="-0.41024">
        <ele>49.05637</ele>
        <time>2016-06-09T19:07:39Z</time>
      </trkpt>
      <trkpt lat="48.87028" lon="-0.41028">
        <ele>49.468</ele>
        <time>2016-06-09T19:07:44Z</time>
      </trkpt>
      <trkpt lat="48.87032" lon="-0.41029">
        <ele>49.468</ele>
        <time>2016-06-09T19:07:49Z</time>
      </trkpt>
      <trkpt lat="48.87039" lon="-0.41034">
        <ele>49.720768</ele>
        <time>2016-06-09T19:07:54Z</time>
      </trkpt>
      <trkpt lat="48.87051" lon="-0.41043">
        <ele>50.099316</ele>
        <time>2016-06-09T19:08:04Z</time>
      </trkpt>
      <trkpt lat="48.87054" lon="-0.41048">
        <ele>50.099316</ele>
        <time>2016-06-09T19:08:09Z</time>
      </trkpt>
      <trkpt lat="48.87063" lon="-0.41054">
        <ele>50.66533</ele>
        <time>2016-06-09T19:08:19Z</time>
      </trkpt>
      <trkpt lat="48.87068" lon="-0.41057">
        <ele>50.66533</ele>
        <time>2016-06-09T19:08:24Z</time>
      </trkpt>
      <trkpt lat="48.87078" lon="-0.41064">
        <ele>51.24491</ele>
        <time>2016-06-09T19:08:34Z</time>
      </trkpt>
      <trkpt lat="48.87084" lon="-0.41068">
        <ele>51.24491</ele>
        <time>2016-06-09T19:08:39Z</time>
      </trkpt>
      <trkpt lat="48.87094" lon="-0.41074">
        <ele>51.633717</ele>
        <time>2016-06-09T19:08:49Z</time>
      </trkpt>
      <trkpt lat="48.871" lon="-0.41078">
        <ele>51.633717</ele>
        <time>2016-06-09T19:08:54Z</time>
      </trkpt>
      <trkpt lat="48.87105" lon="-0.41084">
        <ele>51.960045</ele>
        <time>2016-06-09T19:08:59Z</time>
      </trkpt>
      <trkpt lat="48.8711" lon="-0.41088">
        <ele>51.960045</ele>
        <time>2016-06-09T19:09:04Z</time>
      </trkpt>
      <trkpt lat="48.87114" lon="-0.4109">
        <ele>52.02595</ele>
        <time>2016-06-09T19:09:09Z</time>
      </trkpt>
      <trkpt lat="48.87125" lon="-0.41094">
        <ele>51.735283</ele>
        <time>2016-06-09T19:09:19Z</time>
      </trkpt>
      <trkpt lat="48.87129" lon="-0.41099">
        <ele>51.735283</ele>
        <time>2016-06-09T19:09:24Z</time>
      </trkpt>
      <trkpt lat="48.87134" lon="-0.41102">
        <ele>51.04322</ele>
        <time>2016-06-09T19:09:29Z</time>
      </trkpt>
      <trkpt lat="48.8714" lon="-0.41107">
        <ele>51.04322</ele>
        <time>2016-06-09T19:09:34Z</time>
      </trkpt>
      <trkpt lat="48.87152" lon="-0.41116">
        <ele>50.471447</ele>
        <time>2016-06-09T19:09:44Z</time>
      </trkpt>
      <trkpt lat="48.87155" lon="-0.41121">
        <ele>50.471447</ele>
        <time>2016-06-09T19:09:49Z</time>
      </trkpt>
      <trkpt lat="48.87163" lon="-0.41127">
        <ele>49.739212</ele>
        <time>2016-06-09T19:09:59Z</time>
      </trkpt>
      <trkpt lat="48.87168" lon="-0.41132">
        <ele>49.739212</ele>
        <time>2016-06-09T19:10:04Z</time>
      </trkpt>
      <trkpt lat="48.8718" lon="-0.4114">
        <ele>48.889503</ele>
        <time>2016-06-09T19:10:14Z</time>
      </trkpt>
      <trkpt lat="48.87186" lon="-0.41146">
        <ele>48.889503</ele>
        <time>2016-06-09T19:10:19Z</time>
      </trkpt>
      <trkpt lat="48.87203" lon="-0.41158">
        <ele>47.991314</ele>
        <time>2016-06-09T19:10:34Z</time>
      </trkpt>
      <trkpt lat="48.87209" lon="-0.4116">
        <ele>47.991314</ele>
        <time>2016-06-09T19:10:39Z</time>
      </trkpt>
      <trkpt lat="48.87221" lon="-0.41166">
        <ele>47.80045</ele>
        <time>2016-06-09T19:10:49Z</time>
      </trkpt>
      <trkpt lat="48.87225" lon="-0.4117">
        <ele>47.80045</ele>
        <time>2016-06-09T19:10:54Z</time>
      </trkpt>
      <trkpt lat="48.87234" lon="-0.4118">
        <ele>47.09852</ele>
        <time>2016-06-09T19:11:04Z</time>
      </trkpt>
      <trkpt lat="48.87242" lon="-0.41181">
        <ele>47.09852</ele>
        <time>2016-06-09T19:11:09Z</time>
      </trkpt>
      <trkpt lat="48.8725" lon="-0.41188">
        <ele>46.40093</ele>
        <time>2016-06-09T19:11:19Z</time>
      </trkpt>
      <trkpt lat="48.87259" lon="-0.41191">
        <ele>45.853752</ele>
        <time>2016-06-09T19:11:24Z</time>
      </trkpt>
      <trkpt lat="48.87269" lon="-0.41194">
        <ele>45.707172</ele>
        <time>2016-06-09T19:11:34Z</time>
      </trkpt>
      <trkpt lat="48.87271" lon="-0.41192">
        <ele>45.707172</ele>
        <time>2016-06-09T19:11:39Z</time>
      </trkpt>
      <trkpt lat="48.87282" lon="-0.41182">
        <ele>45.29836</ele>
        <time>2016-06-09T19:11:49Z</time>
      </trkpt>
      <trkpt lat="48.87285" lon="-0.41173">
        <ele>45.29836</ele>
        <time>2016-06-09T19:11:54Z</time>
      </trkpt>
      <trkpt lat="48.87288" lon="-0.41152">
        <ele>45.238834</ele>
        <time>2016-06-09T19:12:04Z</time>
      </trkpt>
      <trkpt lat="48.8729" lon="-0.41144">
        <ele>45.238834</ele>
        <time>2016-06-09T19:12:09Z</time>
      </trkpt>
      <trkpt lat="48.87291" lon="-0.41129">
        <ele>45.330402</ele>
        <time>2016-06-09T19:12:19Z</time>
      </trkpt>
      <trkpt lat="48.87291" lon="-0.41129">
        <ele>45.330402</ele>
        <time>2016-06-09T19:12:24Z</time>
      </trkpt>
      <trkpt lat="48.87292" lon="-0.41128">
        <ele>45.330402</ele>
        <time>2016-06-09T19:12:34Z</time>
      </trkpt>
      <trkpt lat="48.87292" lon="-0.41127">
        <ele>45.330402</ele>
        <time>2016-06-09T19:12:39Z</time>
      </trkpt>
      <trkpt lat="48.87291" lon="-0.41129">
        <ele>45.330402</ele>
        <time>2016-06-09T19:12:49Z</time>
      </trkpt>
      <trkpt lat="48.8729" lon="-0.41123">
        <ele>45.330402</ele>
        <time>2016-06-09T19:12:54Z</time>
      </trkpt>
      <trkpt lat="48.87287" lon="-0.41123">
        <ele>45.158398</ele>
        <time>2016-06-09T19:12:59Z</time>
      </trkpt>
      <trkpt lat="48.87287" lon="-0.41122">
        <ele>45.158398</ele>
        <time>2016-06-09T19:13:04Z</time>
      </trkpt>
      <trkpt lat="48.87287" lon="-0.41121">
        <ele>45.158398</ele>
        <time>2016-06-09T19:13:09Z</time>
      </trkpt>
    </trkseg>
  </trk>
</gpx>